<?xml version="1.0" encoding="UTF-8" standalone="no" ?>
<gpx xmlns="http://www.topografix.com/GPX/1/1" xmlns:xsi="http://www.w3.org/2001/XMLSchema-instance" xsi:schemaLocation="http://www.topografix.com/GPX/1/1 http://www.topografix.com/GPX/1/1/gpx.xsd" version="1.1" creator="VisuGPX - https://www.visugpx.com">
  <metadata>
    <name>tete des ombres et canyon de l'infernet 2020/09</name>
  </metadata>
  <wpt lat="44.75454" lon="5.85507">
    <ele>2154.5</ele>
    <name><![CDATA[k]]></name>
    <type><![CDATA[Jalon]]></type>
  </wpt>
  <wpt lat="44.75044" lon="5.87373">
    <ele>1450.3</ele>
    <name><![CDATA[arches]]></name>
    <type><![CDATA[Jalon]]></type>
  </wpt>
  <wpt lat="44.7541" lon="5.87514">
    <ele>1305.3</ele>
    <name><![CDATA[k]]></name>
    <type><![CDATA[Jalon]]></type>
  </wpt>
  <trk>
    <name><![CDATA[tete des ombres et canyon de l'infernet 2020/09_1]]></name>
    <trkseg>
      <trkpt lat="44.75711" lon="5.88739">
        <ele>877.9</ele>
        <time>2020-02-27T15:07:17.000Z</time>
        <extensions>
          <visugpx:TrkExtension xmlns:visugpx="https://www.visugpx.com/editgpx/">
            <visugpx:node>15</visugpx:node>
            </visugpx:TrkExtension>
        </extensions>
      </trkpt>
      <trkpt lat="44.75711" lon="5.88738">
        <ele>877.9</ele>
        <time>2020-02-27T15:07:16.000Z</time>
      </trkpt>
      <trkpt lat="44.75712" lon="5.88737">
        <ele>877.9</ele>
        <time>2020-02-27T15:07:15.000Z</time>
      </trkpt>
      <trkpt lat="44.75713" lon="5.88736">
        <ele>877.9</ele>
        <time>2020-02-27T15:07:14.000Z</time>
      </trkpt>
      <trkpt lat="44.75713" lon="5.88735">
        <ele>877.9</ele>
        <time>2020-02-27T15:07:13.000Z</time>
      </trkpt>
      <trkpt lat="44.75714" lon="5.88733">
        <ele>877.9</ele>
        <time>2020-02-27T15:07:12.000Z</time>
      </trkpt>
      <trkpt lat="44.75716" lon="5.88731">
        <ele>877.9</ele>
        <time>2020-02-27T15:07:11.000Z</time>
      </trkpt>
      <trkpt lat="44.75718" lon="5.88729">
        <ele>877.9</ele>
        <time>2020-02-27T15:07:10.000Z</time>
      </trkpt>
      <trkpt lat="44.75719" lon="5.88727">
        <ele>877.9</ele>
        <time>2020-02-27T15:07:09.000Z</time>
      </trkpt>
      <trkpt lat="44.7572" lon="5.88725">
        <ele>878</ele>
        <time>2020-02-27T15:07:08.000Z</time>
      </trkpt>
      <trkpt lat="44.75721" lon="5.88724">
        <ele>878</ele>
        <time>2020-02-27T15:07:07.000Z</time>
      </trkpt>
      <trkpt lat="44.75721" lon="5.88723">
        <ele>878</ele>
        <time>2020-02-27T15:07:06.000Z</time>
      </trkpt>
      <trkpt lat="44.75722" lon="5.88721">
        <ele>878</ele>
        <time>2020-02-27T15:07:05.000Z</time>
      </trkpt>
      <trkpt lat="44.75722" lon="5.88719">
        <ele>878.1</ele>
        <time>2020-02-27T15:07:04.000Z</time>
      </trkpt>
      <trkpt lat="44.75722" lon="5.88717">
        <ele>878.1</ele>
        <time>2020-02-27T15:07:03.000Z</time>
      </trkpt>
      <trkpt lat="44.75722" lon="5.88715">
        <ele>878.1</ele>
        <time>2020-02-27T15:07:02.000Z</time>
      </trkpt>
      <trkpt lat="44.75723" lon="5.88714">
        <ele>878.2</ele>
        <time>2020-02-27T15:07:01.000Z</time>
      </trkpt>
      <trkpt lat="44.75724" lon="5.88713">
        <ele>878.2</ele>
        <time>2020-02-27T15:07:00.000Z</time>
      </trkpt>
      <trkpt lat="44.75724" lon="5.88712">
        <ele>878.2</ele>
        <time>2020-02-27T15:06:59.000Z</time>
      </trkpt>
      <trkpt lat="44.75724" lon="5.88711">
        <ele>878.3</ele>
        <time>2020-02-27T15:06:58.000Z</time>
      </trkpt>
      <trkpt lat="44.75724" lon="5.88711">
        <ele>878.3</ele>
        <time>2020-02-27T15:06:57.000Z</time>
      </trkpt>
      <trkpt lat="44.75724" lon="5.88709">
        <ele>878.4</ele>
        <time>2020-02-27T15:06:56.000Z</time>
      </trkpt>
      <trkpt lat="44.75725" lon="5.88707">
        <ele>878.4</ele>
        <time>2020-02-27T15:06:55.000Z</time>
      </trkpt>
      <trkpt lat="44.75726" lon="5.88706">
        <ele>878.4</ele>
        <time>2020-02-27T15:06:54.000Z</time>
      </trkpt>
      <trkpt lat="44.75727" lon="5.88704">
        <ele>878.5</ele>
        <time>2020-02-27T15:06:53.000Z</time>
      </trkpt>
      <trkpt lat="44.75728" lon="5.88702">
        <ele>878.5</ele>
        <time>2020-02-27T15:06:52.000Z</time>
      </trkpt>
      <trkpt lat="44.75728" lon="5.88701">
        <ele>878.5</ele>
        <time>2020-02-27T15:06:51.000Z</time>
      </trkpt>
      <trkpt lat="44.75729" lon="5.887">
        <ele>878.6</ele>
        <time>2020-02-27T15:06:50.000Z</time>
      </trkpt>
      <trkpt lat="44.7573" lon="5.88698">
        <ele>878.6</ele>
        <time>2020-02-27T15:06:49.000Z</time>
      </trkpt>
      <trkpt lat="44.7573" lon="5.88696">
        <ele>878.6</ele>
        <time>2020-02-27T15:06:48.000Z</time>
      </trkpt>
      <trkpt lat="44.75731" lon="5.88695">
        <ele>878.6</ele>
        <time>2020-02-27T15:06:47.000Z</time>
      </trkpt>
      <trkpt lat="44.75731" lon="5.88693">
        <ele>878.6</ele>
        <time>2020-02-27T15:06:46.000Z</time>
      </trkpt>
      <trkpt lat="44.75731" lon="5.88692">
        <ele>878.6</ele>
        <time>2020-02-27T15:06:45.000Z</time>
      </trkpt>
      <trkpt lat="44.75731" lon="5.88691">
        <ele>878.5</ele>
        <time>2020-02-27T15:06:44.000Z</time>
      </trkpt>
      <trkpt lat="44.75732" lon="5.8869">
        <ele>878.5</ele>
        <time>2020-02-27T15:06:43.000Z</time>
      </trkpt>
      <trkpt lat="44.75732" lon="5.88689">
        <ele>878.5</ele>
        <time>2020-02-27T15:06:42.000Z</time>
      </trkpt>
      <trkpt lat="44.75732" lon="5.88688">
        <ele>878.4</ele>
        <time>2020-02-27T15:06:41.000Z</time>
      </trkpt>
      <trkpt lat="44.75732" lon="5.88687">
        <ele>878.4</ele>
        <time>2020-02-27T15:06:40.000Z</time>
      </trkpt>
      <trkpt lat="44.75733" lon="5.88685">
        <ele>878.4</ele>
        <time>2020-02-27T15:06:39.000Z</time>
      </trkpt>
      <trkpt lat="44.75733" lon="5.88684">
        <ele>878.4</ele>
        <time>2020-02-27T15:06:38.000Z</time>
      </trkpt>
      <trkpt lat="44.75733" lon="5.88683">
        <ele>878.3</ele>
        <time>2020-02-27T15:06:37.000Z</time>
      </trkpt>
      <trkpt lat="44.75733" lon="5.88681">
        <ele>878.3</ele>
        <time>2020-02-27T15:06:36.000Z</time>
      </trkpt>
      <trkpt lat="44.75734" lon="5.8868">
        <ele>878.3</ele>
        <time>2020-02-27T15:06:35.000Z</time>
      </trkpt>
      <trkpt lat="44.75735" lon="5.88679">
        <ele>878.3</ele>
        <time>2020-02-27T15:06:34.000Z</time>
      </trkpt>
      <trkpt lat="44.75736" lon="5.88677">
        <ele>878.3</ele>
        <time>2020-02-27T15:06:33.000Z</time>
      </trkpt>
      <trkpt lat="44.75738" lon="5.88675">
        <ele>878.3</ele>
        <time>2020-02-27T15:06:32.000Z</time>
      </trkpt>
      <trkpt lat="44.75739" lon="5.88674">
        <ele>878.3</ele>
        <time>2020-02-27T15:06:31.000Z</time>
      </trkpt>
      <trkpt lat="44.7574" lon="5.88672">
        <ele>878.3</ele>
        <time>2020-02-27T15:06:30.000Z</time>
      </trkpt>
      <trkpt lat="44.75741" lon="5.88669">
        <ele>878.3</ele>
        <time>2020-02-27T15:06:29.000Z</time>
      </trkpt>
      <trkpt lat="44.75743" lon="5.88667">
        <ele>878.3</ele>
        <time>2020-02-27T15:06:28.000Z</time>
      </trkpt>
      <trkpt lat="44.75745" lon="5.88665">
        <ele>878.3</ele>
        <time>2020-02-27T15:06:27.000Z</time>
      </trkpt>
      <trkpt lat="44.75745" lon="5.88664">
        <ele>878.4</ele>
        <time>2020-02-27T15:06:26.000Z</time>
      </trkpt>
      <trkpt lat="44.75745" lon="5.88662">
        <ele>878.4</ele>
        <time>2020-02-27T15:06:25.000Z</time>
      </trkpt>
      <trkpt lat="44.75746" lon="5.88661">
        <ele>878.4</ele>
        <time>2020-02-27T15:06:24.000Z</time>
      </trkpt>
      <trkpt lat="44.75746" lon="5.88659">
        <ele>878.4</ele>
        <time>2020-02-27T15:06:23.000Z</time>
      </trkpt>
      <trkpt lat="44.75746" lon="5.88658">
        <ele>878.4</ele>
        <time>2020-02-27T15:06:22.000Z</time>
      </trkpt>
      <trkpt lat="44.75747" lon="5.88656">
        <ele>878.4</ele>
        <time>2020-02-27T15:06:21.000Z</time>
      </trkpt>
      <trkpt lat="44.75747" lon="5.88655">
        <ele>878.5</ele>
        <time>2020-02-27T15:06:20.000Z</time>
      </trkpt>
      <trkpt lat="44.75748" lon="5.88654">
        <ele>878.5</ele>
        <time>2020-02-27T15:06:19.000Z</time>
      </trkpt>
      <trkpt lat="44.75749" lon="5.88652">
        <ele>878.5</ele>
        <time>2020-02-27T15:06:18.000Z</time>
      </trkpt>
      <trkpt lat="44.75749" lon="5.88651">
        <ele>878.5</ele>
        <time>2020-02-27T15:06:17.000Z</time>
      </trkpt>
      <trkpt lat="44.75749" lon="5.88649">
        <ele>878.5</ele>
        <time>2020-02-27T15:06:16.000Z</time>
      </trkpt>
      <trkpt lat="44.7575" lon="5.88648">
        <ele>878.5</ele>
        <time>2020-02-27T15:06:15.000Z</time>
      </trkpt>
      <trkpt lat="44.7575" lon="5.88646">
        <ele>878.5</ele>
        <time>2020-02-27T15:06:14.000Z</time>
      </trkpt>
      <trkpt lat="44.7575" lon="5.88644">
        <ele>878.5</ele>
        <time>2020-02-27T15:06:13.000Z</time>
      </trkpt>
      <trkpt lat="44.7575" lon="5.88643">
        <ele>878.6</ele>
        <time>2020-02-27T15:06:12.000Z</time>
      </trkpt>
      <trkpt lat="44.75751" lon="5.88642">
        <ele>878.6</ele>
        <time>2020-02-27T15:06:11.000Z</time>
      </trkpt>
      <trkpt lat="44.75751" lon="5.8864">
        <ele>878.6</ele>
        <time>2020-02-27T15:06:10.000Z</time>
      </trkpt>
      <trkpt lat="44.75751" lon="5.88639">
        <ele>878.6</ele>
        <time>2020-02-27T15:06:09.000Z</time>
      </trkpt>
      <trkpt lat="44.75752" lon="5.88638">
        <ele>878.6</ele>
        <time>2020-02-27T15:06:08.000Z</time>
      </trkpt>
      <trkpt lat="44.75753" lon="5.88637">
        <ele>878.6</ele>
        <time>2020-02-27T15:06:07.000Z</time>
      </trkpt>
      <trkpt lat="44.75754" lon="5.88635">
        <ele>878.6</ele>
        <time>2020-02-27T15:06:06.000Z</time>
      </trkpt>
      <trkpt lat="44.75755" lon="5.88634">
        <ele>878.6</ele>
        <time>2020-02-27T15:06:05.000Z</time>
      </trkpt>
      <trkpt lat="44.75755" lon="5.88632">
        <ele>878.6</ele>
        <time>2020-02-27T15:06:04.000Z</time>
      </trkpt>
      <trkpt lat="44.75756" lon="5.88629">
        <ele>878.7</ele>
        <time>2020-02-27T15:06:03.000Z</time>
      </trkpt>
      <trkpt lat="44.75757" lon="5.88627">
        <ele>878.7</ele>
        <time>2020-02-27T15:06:02.000Z</time>
      </trkpt>
      <trkpt lat="44.75758" lon="5.88624">
        <ele>878.7</ele>
        <time>2020-02-27T15:06:01.000Z</time>
      </trkpt>
      <trkpt lat="44.7576" lon="5.88621">
        <ele>878.7</ele>
        <time>2020-02-27T15:06:00.000Z</time>
      </trkpt>
      <trkpt lat="44.75761" lon="5.88618">
        <ele>878.7</ele>
        <time>2020-02-27T15:05:59.000Z</time>
      </trkpt>
      <trkpt lat="44.75763" lon="5.88616">
        <ele>878.7</ele>
        <time>2020-02-27T15:05:58.000Z</time>
      </trkpt>
      <trkpt lat="44.75765" lon="5.88614">
        <ele>878.8</ele>
        <time>2020-02-27T15:05:57.000Z</time>
      </trkpt>
      <trkpt lat="44.75766" lon="5.88615">
        <ele>878.8</ele>
        <time>2020-02-27T15:05:56.000Z</time>
      </trkpt>
      <trkpt lat="44.75767" lon="5.88614">
        <ele>878.8</ele>
        <time>2020-02-27T15:05:55.000Z</time>
      </trkpt>
      <trkpt lat="44.75768" lon="5.88613">
        <ele>878.8</ele>
        <time>2020-02-27T15:05:54.000Z</time>
      </trkpt>
      <trkpt lat="44.75769" lon="5.88612">
        <ele>878.9</ele>
        <time>2020-02-27T15:05:53.000Z</time>
      </trkpt>
      <trkpt lat="44.7577" lon="5.88611">
        <ele>878.9</ele>
        <time>2020-02-27T15:05:52.000Z</time>
      </trkpt>
      <trkpt lat="44.75771" lon="5.8861">
        <ele>878.8</ele>
        <time>2020-02-27T15:05:51.000Z</time>
      </trkpt>
      <trkpt lat="44.75772" lon="5.88609">
        <ele>878.8</ele>
        <time>2020-02-27T15:05:50.000Z</time>
      </trkpt>
      <trkpt lat="44.75773" lon="5.88609">
        <ele>878.8</ele>
        <time>2020-02-27T15:05:49.000Z</time>
      </trkpt>
      <trkpt lat="44.75774" lon="5.88608">
        <ele>878.8</ele>
        <time>2020-02-27T15:05:48.000Z</time>
      </trkpt>
      <trkpt lat="44.75775" lon="5.88608">
        <ele>878.8</ele>
        <time>2020-02-27T15:05:47.000Z</time>
      </trkpt>
      <trkpt lat="44.75776" lon="5.88608">
        <ele>878.8</ele>
        <time>2020-02-27T15:05:46.000Z</time>
      </trkpt>
      <trkpt lat="44.75777" lon="5.88608">
        <ele>878.7</ele>
        <time>2020-02-27T15:05:45.000Z</time>
      </trkpt>
      <trkpt lat="44.75779" lon="5.88607">
        <ele>878.7</ele>
        <time>2020-02-27T15:05:44.000Z</time>
      </trkpt>
      <trkpt lat="44.75779" lon="5.88607">
        <ele>878.7</ele>
        <time>2020-02-27T15:05:43.000Z</time>
      </trkpt>
      <trkpt lat="44.7578" lon="5.88607">
        <ele>878.7</ele>
        <time>2020-02-27T15:05:42.000Z</time>
      </trkpt>
      <trkpt lat="44.75781" lon="5.88608">
        <ele>878.6</ele>
        <time>2020-02-27T15:05:41.000Z</time>
      </trkpt>
      <trkpt lat="44.75782" lon="5.8861">
        <ele>878.6</ele>
        <time>2020-02-27T15:05:40.000Z</time>
      </trkpt>
      <trkpt lat="44.75783" lon="5.8861">
        <ele>878.6</ele>
        <time>2020-02-27T15:05:39.000Z</time>
      </trkpt>
      <trkpt lat="44.75784" lon="5.88609">
        <ele>878.6</ele>
        <time>2020-02-27T15:05:38.000Z</time>
      </trkpt>
      <trkpt lat="44.75785" lon="5.88609">
        <ele>878.5</ele>
        <time>2020-02-27T15:05:37.000Z</time>
      </trkpt>
      <trkpt lat="44.75787" lon="5.88609">
        <ele>878.5</ele>
        <time>2020-02-27T15:05:36.000Z</time>
      </trkpt>
      <trkpt lat="44.75788" lon="5.88609">
        <ele>878.5</ele>
        <time>2020-02-27T15:05:35.000Z</time>
      </trkpt>
      <trkpt lat="44.75789" lon="5.88609">
        <ele>878.4</ele>
        <time>2020-02-27T15:05:34.000Z</time>
      </trkpt>
      <trkpt lat="44.7579" lon="5.88608">
        <ele>878.4</ele>
        <time>2020-02-27T15:05:33.000Z</time>
      </trkpt>
      <trkpt lat="44.75792" lon="5.88608">
        <ele>878.3</ele>
        <time>2020-02-27T15:05:32.000Z</time>
      </trkpt>
      <trkpt lat="44.75793" lon="5.88608">
        <ele>878.3</ele>
        <time>2020-02-27T15:05:31.000Z</time>
      </trkpt>
      <trkpt lat="44.75795" lon="5.88607">
        <ele>878.2</ele>
        <time>2020-02-27T15:05:30.000Z</time>
      </trkpt>
      <trkpt lat="44.75796" lon="5.88607">
        <ele>878.2</ele>
        <time>2020-02-27T15:05:29.000Z</time>
      </trkpt>
      <trkpt lat="44.75797" lon="5.88607">
        <ele>878.1</ele>
        <time>2020-02-27T15:05:28.000Z</time>
      </trkpt>
      <trkpt lat="44.75799" lon="5.88605">
        <ele>878.1</ele>
        <time>2020-02-27T15:05:27.000Z</time>
      </trkpt>
      <trkpt lat="44.75801" lon="5.88605">
        <ele>878</ele>
        <time>2020-02-27T15:05:26.000Z</time>
      </trkpt>
      <trkpt lat="44.75803" lon="5.88607">
        <ele>877.9</ele>
        <time>2020-02-27T15:05:25.000Z</time>
      </trkpt>
      <trkpt lat="44.75804" lon="5.88607">
        <ele>877.9</ele>
        <time>2020-02-27T15:05:24.000Z</time>
      </trkpt>
      <trkpt lat="44.75806" lon="5.88607">
        <ele>877.8</ele>
        <time>2020-02-27T15:05:23.000Z</time>
      </trkpt>
      <trkpt lat="44.75807" lon="5.88607">
        <ele>877.7</ele>
        <time>2020-02-27T15:05:22.000Z</time>
      </trkpt>
      <trkpt lat="44.75808" lon="5.88607">
        <ele>877.6</ele>
        <time>2020-02-27T15:05:21.000Z</time>
      </trkpt>
      <trkpt lat="44.75809" lon="5.88607">
        <ele>877.6</ele>
        <time>2020-02-27T15:05:20.000Z</time>
      </trkpt>
      <trkpt lat="44.75809" lon="5.88607">
        <ele>877.5</ele>
        <time>2020-02-27T15:05:19.000Z</time>
      </trkpt>
      <trkpt lat="44.7581" lon="5.88607">
        <ele>877.4</ele>
        <time>2020-02-27T15:05:18.000Z</time>
      </trkpt>
      <trkpt lat="44.75811" lon="5.88607">
        <ele>877.4</ele>
        <time>2020-02-27T15:05:17.000Z</time>
      </trkpt>
      <trkpt lat="44.75811" lon="5.88607">
        <ele>877.4</ele>
        <time>2020-02-27T15:05:16.000Z</time>
      </trkpt>
      <trkpt lat="44.75812" lon="5.88607">
        <ele>877.3</ele>
        <time>2020-02-27T15:05:15.000Z</time>
      </trkpt>
      <trkpt lat="44.75813" lon="5.88606">
        <ele>877.3</ele>
        <time>2020-02-27T15:05:14.000Z</time>
      </trkpt>
      <trkpt lat="44.75814" lon="5.88606">
        <ele>877.3</ele>
        <time>2020-02-27T15:05:13.000Z</time>
      </trkpt>
      <trkpt lat="44.75816" lon="5.88605">
        <ele>877.3</ele>
        <time>2020-02-27T15:05:12.000Z</time>
      </trkpt>
      <trkpt lat="44.75818" lon="5.88604">
        <ele>877.3</ele>
        <time>2020-02-27T15:05:11.000Z</time>
      </trkpt>
      <trkpt lat="44.75819" lon="5.88604">
        <ele>877.3</ele>
        <time>2020-02-27T15:05:10.000Z</time>
      </trkpt>
      <trkpt lat="44.7582" lon="5.88603">
        <ele>877.2</ele>
        <time>2020-02-27T15:05:09.000Z</time>
      </trkpt>
      <trkpt lat="44.75821" lon="5.88603">
        <ele>877.2</ele>
        <time>2020-02-27T15:05:08.000Z</time>
      </trkpt>
      <trkpt lat="44.75822" lon="5.88603">
        <ele>877.2</ele>
        <time>2020-02-27T15:05:07.000Z</time>
      </trkpt>
      <trkpt lat="44.75823" lon="5.88603">
        <ele>877.2</ele>
        <time>2020-02-27T15:05:06.000Z</time>
      </trkpt>
      <trkpt lat="44.75824" lon="5.88603">
        <ele>877.2</ele>
        <time>2020-02-27T15:05:05.000Z</time>
      </trkpt>
      <trkpt lat="44.75825" lon="5.88603">
        <ele>877.1</ele>
        <time>2020-02-27T15:05:04.000Z</time>
      </trkpt>
      <trkpt lat="44.75827" lon="5.88604">
        <ele>877.1</ele>
        <time>2020-02-27T15:05:03.000Z</time>
      </trkpt>
      <trkpt lat="44.75828" lon="5.88604">
        <ele>877.1</ele>
        <time>2020-02-27T15:05:02.000Z</time>
      </trkpt>
      <trkpt lat="44.75829" lon="5.88604">
        <ele>877</ele>
        <time>2020-02-27T15:05:01.000Z</time>
      </trkpt>
      <trkpt lat="44.7583" lon="5.88604">
        <ele>877</ele>
        <time>2020-02-27T15:05:00.000Z</time>
      </trkpt>
      <trkpt lat="44.75831" lon="5.88605">
        <ele>877</ele>
        <time>2020-02-27T15:04:59.000Z</time>
      </trkpt>
      <trkpt lat="44.75833" lon="5.88605">
        <ele>876.9</ele>
        <time>2020-02-27T15:04:58.000Z</time>
      </trkpt>
      <trkpt lat="44.75834" lon="5.88605">
        <ele>876.9</ele>
        <time>2020-02-27T15:04:57.000Z</time>
      </trkpt>
      <trkpt lat="44.75835" lon="5.88605">
        <ele>876.9</ele>
        <time>2020-02-27T15:04:56.000Z</time>
      </trkpt>
      <trkpt lat="44.75837" lon="5.88605">
        <ele>876.8</ele>
        <time>2020-02-27T15:04:55.000Z</time>
      </trkpt>
      <trkpt lat="44.75838" lon="5.88605">
        <ele>876.8</ele>
        <time>2020-02-27T15:04:54.000Z</time>
      </trkpt>
      <trkpt lat="44.7584" lon="5.88605">
        <ele>876.7</ele>
        <time>2020-02-27T15:04:53.000Z</time>
      </trkpt>
      <trkpt lat="44.75842" lon="5.88603">
        <ele>876.7</ele>
        <time>2020-02-27T15:04:52.000Z</time>
      </trkpt>
      <trkpt lat="44.75843" lon="5.88604">
        <ele>876.6</ele>
        <time>2020-02-27T15:04:51.000Z</time>
      </trkpt>
      <trkpt lat="44.75843" lon="5.88603">
        <ele>876.6</ele>
        <time>2020-02-27T15:04:50.000Z</time>
      </trkpt>
      <trkpt lat="44.75844" lon="5.88603">
        <ele>876.5</ele>
        <time>2020-02-27T15:04:49.000Z</time>
      </trkpt>
      <trkpt lat="44.75844" lon="5.88605">
        <ele>876.4</ele>
        <time>2020-02-27T15:04:48.000Z</time>
      </trkpt>
      <trkpt lat="44.75845" lon="5.88606">
        <ele>876.4</ele>
        <time>2020-02-27T15:04:47.000Z</time>
      </trkpt>
      <trkpt lat="44.75848" lon="5.88609">
        <ele>876.3</ele>
        <time>2020-02-27T15:04:46.000Z</time>
      </trkpt>
      <trkpt lat="44.75849" lon="5.88609">
        <ele>876.2</ele>
        <time>2020-02-27T15:04:45.000Z</time>
      </trkpt>
      <trkpt lat="44.75851" lon="5.88609">
        <ele>876.1</ele>
        <time>2020-02-27T15:04:44.000Z</time>
      </trkpt>
      <trkpt lat="44.75852" lon="5.88609">
        <ele>876</ele>
        <time>2020-02-27T15:04:43.000Z</time>
      </trkpt>
      <trkpt lat="44.75852" lon="5.8861">
        <ele>875.9</ele>
        <time>2020-02-27T15:04:42.000Z</time>
      </trkpt>
      <trkpt lat="44.75853" lon="5.8861">
        <ele>875.9</ele>
        <time>2020-02-27T15:04:41.000Z</time>
      </trkpt>
      <trkpt lat="44.75854" lon="5.88611">
        <ele>875.8</ele>
        <time>2020-02-27T15:04:40.000Z</time>
      </trkpt>
      <trkpt lat="44.75855" lon="5.88611">
        <ele>875.7</ele>
        <time>2020-02-27T15:04:39.000Z</time>
      </trkpt>
      <trkpt lat="44.75856" lon="5.88612">
        <ele>875.6</ele>
        <time>2020-02-27T15:04:38.000Z</time>
      </trkpt>
      <trkpt lat="44.75856" lon="5.88613">
        <ele>875.5</ele>
        <time>2020-02-27T15:04:37.000Z</time>
      </trkpt>
      <trkpt lat="44.75856" lon="5.88614">
        <ele>875.5</ele>
        <time>2020-02-27T15:04:36.000Z</time>
      </trkpt>
      <trkpt lat="44.75857" lon="5.88615">
        <ele>875.4</ele>
        <time>2020-02-27T15:04:35.000Z</time>
      </trkpt>
      <trkpt lat="44.75857" lon="5.88617">
        <ele>875.3</ele>
        <time>2020-02-27T15:04:34.000Z</time>
      </trkpt>
      <trkpt lat="44.75858" lon="5.88619">
        <ele>875.3</ele>
        <time>2020-02-27T15:04:33.000Z</time>
      </trkpt>
      <trkpt lat="44.75858" lon="5.8862">
        <ele>875.3</ele>
        <time>2020-02-27T15:04:32.000Z</time>
      </trkpt>
      <trkpt lat="44.75859" lon="5.88621">
        <ele>875.2</ele>
        <time>2020-02-27T15:04:31.000Z</time>
      </trkpt>
      <trkpt lat="44.75859" lon="5.88622">
        <ele>875.2</ele>
        <time>2020-02-27T15:04:30.000Z</time>
      </trkpt>
      <trkpt lat="44.7586" lon="5.88622">
        <ele>875.1</ele>
        <time>2020-02-27T15:04:29.000Z</time>
      </trkpt>
      <trkpt lat="44.75862" lon="5.88623">
        <ele>875.1</ele>
        <time>2020-02-27T15:04:28.000Z</time>
      </trkpt>
      <trkpt lat="44.75862" lon="5.88622">
        <ele>875</ele>
        <time>2020-02-27T15:04:27.000Z</time>
      </trkpt>
      <trkpt lat="44.75863" lon="5.88623">
        <ele>875</ele>
        <time>2020-02-27T15:04:26.000Z</time>
      </trkpt>
      <trkpt lat="44.75864" lon="5.88623">
        <ele>874.9</ele>
        <time>2020-02-27T15:04:25.000Z</time>
      </trkpt>
      <trkpt lat="44.75866" lon="5.88623">
        <ele>874.8</ele>
        <time>2020-02-27T15:04:24.000Z</time>
      </trkpt>
      <trkpt lat="44.75867" lon="5.88623">
        <ele>874.8</ele>
        <time>2020-02-27T15:04:23.000Z</time>
      </trkpt>
      <trkpt lat="44.75867" lon="5.88624">
        <ele>874.7</ele>
        <time>2020-02-27T15:04:22.000Z</time>
      </trkpt>
      <trkpt lat="44.75868" lon="5.88624">
        <ele>874.6</ele>
        <time>2020-02-27T15:04:21.000Z</time>
      </trkpt>
      <trkpt lat="44.75869" lon="5.88624">
        <ele>874.5</ele>
        <time>2020-02-27T15:04:20.000Z</time>
      </trkpt>
      <trkpt lat="44.7587" lon="5.88624">
        <ele>874.5</ele>
        <time>2020-02-27T15:04:19.000Z</time>
      </trkpt>
      <trkpt lat="44.75871" lon="5.88624">
        <ele>874.4</ele>
        <time>2020-02-27T15:04:18.000Z</time>
      </trkpt>
      <trkpt lat="44.75872" lon="5.88625">
        <ele>874.3</ele>
        <time>2020-02-27T15:04:17.000Z</time>
      </trkpt>
      <trkpt lat="44.75873" lon="5.88626">
        <ele>874.3</ele>
        <time>2020-02-27T15:04:16.000Z</time>
      </trkpt>
      <trkpt lat="44.75874" lon="5.88626">
        <ele>874.3</ele>
        <time>2020-02-27T15:04:15.000Z</time>
      </trkpt>
      <trkpt lat="44.75875" lon="5.88626">
        <ele>874.3</ele>
        <time>2020-02-27T15:04:14.000Z</time>
      </trkpt>
      <trkpt lat="44.75876" lon="5.88626">
        <ele>874.3</ele>
        <time>2020-02-27T15:04:13.000Z</time>
      </trkpt>
      <trkpt lat="44.75877" lon="5.88626">
        <ele>874.3</ele>
        <time>2020-02-27T15:04:12.000Z</time>
      </trkpt>
      <trkpt lat="44.75878" lon="5.88626">
        <ele>874.3</ele>
        <time>2020-02-27T15:04:11.000Z</time>
      </trkpt>
      <trkpt lat="44.75879" lon="5.88626">
        <ele>874.3</ele>
        <time>2020-02-27T15:04:10.000Z</time>
      </trkpt>
      <trkpt lat="44.75881" lon="5.88626">
        <ele>874.3</ele>
        <time>2020-02-27T15:04:09.000Z</time>
      </trkpt>
      <trkpt lat="44.75882" lon="5.88627">
        <ele>874.3</ele>
        <time>2020-02-27T15:04:08.000Z</time>
      </trkpt>
      <trkpt lat="44.75883" lon="5.88627">
        <ele>874.3</ele>
        <time>2020-02-27T15:04:07.000Z</time>
      </trkpt>
      <trkpt lat="44.75885" lon="5.88627">
        <ele>874.3</ele>
        <time>2020-02-27T15:04:06.000Z</time>
      </trkpt>
      <trkpt lat="44.75886" lon="5.88628">
        <ele>874.3</ele>
        <time>2020-02-27T15:04:05.000Z</time>
      </trkpt>
      <trkpt lat="44.75887" lon="5.88629">
        <ele>874.3</ele>
        <time>2020-02-27T15:04:04.000Z</time>
      </trkpt>
      <trkpt lat="44.75889" lon="5.8863">
        <ele>874.3</ele>
        <time>2020-02-27T15:04:03.000Z</time>
      </trkpt>
      <trkpt lat="44.75891" lon="5.88633">
        <ele>874.3</ele>
        <time>2020-02-27T15:04:02.000Z</time>
      </trkpt>
      <trkpt lat="44.75893" lon="5.88633">
        <ele>874.3</ele>
        <time>2020-02-27T15:04:01.000Z</time>
      </trkpt>
      <trkpt lat="44.75894" lon="5.88633">
        <ele>874.3</ele>
        <time>2020-02-27T15:04:00.000Z</time>
      </trkpt>
      <trkpt lat="44.75896" lon="5.88633">
        <ele>874.3</ele>
        <time>2020-02-27T15:03:59.000Z</time>
      </trkpt>
      <trkpt lat="44.75897" lon="5.88632">
        <ele>874.3</ele>
        <time>2020-02-27T15:03:58.000Z</time>
      </trkpt>
      <trkpt lat="44.75899" lon="5.88632">
        <ele>874.3</ele>
        <time>2020-02-27T15:03:57.000Z</time>
      </trkpt>
      <trkpt lat="44.759" lon="5.88631">
        <ele>874.3</ele>
        <time>2020-02-27T15:03:56.000Z</time>
      </trkpt>
      <trkpt lat="44.75902" lon="5.88632">
        <ele>874.3</ele>
        <time>2020-02-27T15:03:55.000Z</time>
      </trkpt>
      <trkpt lat="44.75903" lon="5.88633">
        <ele>874.4</ele>
        <time>2020-02-27T15:03:54.000Z</time>
      </trkpt>
      <trkpt lat="44.75904" lon="5.88633">
        <ele>874.4</ele>
        <time>2020-02-27T15:03:53.000Z</time>
      </trkpt>
      <trkpt lat="44.75905" lon="5.88633">
        <ele>874.5</ele>
        <time>2020-02-27T15:03:52.000Z</time>
      </trkpt>
      <trkpt lat="44.75906" lon="5.88634">
        <ele>874.5</ele>
        <time>2020-02-27T15:03:51.000Z</time>
      </trkpt>
      <trkpt lat="44.75908" lon="5.88634">
        <ele>874.5</ele>
        <time>2020-02-27T15:03:50.000Z</time>
      </trkpt>
      <trkpt lat="44.75909" lon="5.88634">
        <ele>874.5</ele>
        <time>2020-02-27T15:03:49.000Z</time>
      </trkpt>
      <trkpt lat="44.7591" lon="5.88635">
        <ele>874.5</ele>
        <time>2020-02-27T15:03:48.000Z</time>
      </trkpt>
      <trkpt lat="44.7591" lon="5.88636">
        <ele>874.5</ele>
        <time>2020-02-27T15:03:47.000Z</time>
      </trkpt>
      <trkpt lat="44.75912" lon="5.88636">
        <ele>874.5</ele>
        <time>2020-02-27T15:03:46.000Z</time>
      </trkpt>
      <trkpt lat="44.75913" lon="5.88637">
        <ele>874.5</ele>
        <time>2020-02-27T15:03:45.000Z</time>
      </trkpt>
      <trkpt lat="44.75914" lon="5.88637">
        <ele>874.5</ele>
        <time>2020-02-27T15:03:44.000Z</time>
      </trkpt>
      <trkpt lat="44.75915" lon="5.88637">
        <ele>874.5</ele>
        <time>2020-02-27T15:03:43.000Z</time>
      </trkpt>
      <trkpt lat="44.75917" lon="5.88636">
        <ele>874.4</ele>
        <time>2020-02-27T15:03:42.000Z</time>
      </trkpt>
      <trkpt lat="44.75918" lon="5.88636">
        <ele>874.4</ele>
        <time>2020-02-27T15:03:41.000Z</time>
      </trkpt>
      <trkpt lat="44.75919" lon="5.88635">
        <ele>874.4</ele>
        <time>2020-02-27T15:03:40.000Z</time>
      </trkpt>
      <trkpt lat="44.7592" lon="5.88635">
        <ele>874.4</ele>
        <time>2020-02-27T15:03:39.000Z</time>
      </trkpt>
      <trkpt lat="44.75921" lon="5.88635">
        <ele>874.3</ele>
        <time>2020-02-27T15:03:38.000Z</time>
      </trkpt>
      <trkpt lat="44.75921" lon="5.88635">
        <ele>874.3</ele>
        <time>2020-02-27T15:03:37.000Z</time>
      </trkpt>
      <trkpt lat="44.75922" lon="5.88635">
        <ele>874.2</ele>
        <time>2020-02-27T15:03:36.000Z</time>
      </trkpt>
      <trkpt lat="44.75924" lon="5.88636">
        <ele>874.2</ele>
        <time>2020-02-27T15:03:35.000Z</time>
      </trkpt>
      <trkpt lat="44.75926" lon="5.88636">
        <ele>874.2</ele>
        <time>2020-02-27T15:03:34.000Z</time>
      </trkpt>
      <trkpt lat="44.75927" lon="5.88637">
        <ele>874.1</ele>
        <time>2020-02-27T15:03:33.000Z</time>
      </trkpt>
      <trkpt lat="44.75929" lon="5.8864">
        <ele>874.1</ele>
        <time>2020-02-27T15:03:32.000Z</time>
      </trkpt>
      <trkpt lat="44.75931" lon="5.88642">
        <ele>874</ele>
        <time>2020-02-27T15:03:31.000Z</time>
      </trkpt>
      <trkpt lat="44.75933" lon="5.88643">
        <ele>873.9</ele>
        <time>2020-02-27T15:03:30.000Z</time>
      </trkpt>
      <trkpt lat="44.75934" lon="5.88643">
        <ele>873.8</ele>
        <time>2020-02-27T15:03:29.000Z</time>
      </trkpt>
      <trkpt lat="44.75936" lon="5.88644">
        <ele>873.7</ele>
        <time>2020-02-27T15:03:28.000Z</time>
      </trkpt>
      <trkpt lat="44.75937" lon="5.88646">
        <ele>873.7</ele>
        <time>2020-02-27T15:03:27.000Z</time>
      </trkpt>
      <trkpt lat="44.75938" lon="5.88646">
        <ele>873.6</ele>
        <time>2020-02-27T15:03:26.000Z</time>
      </trkpt>
      <trkpt lat="44.75938" lon="5.88647">
        <ele>873.5</ele>
        <time>2020-02-27T15:03:25.000Z</time>
      </trkpt>
      <trkpt lat="44.75938" lon="5.88649">
        <ele>873.5</ele>
        <time>2020-02-27T15:03:24.000Z</time>
      </trkpt>
      <trkpt lat="44.75939" lon="5.8865">
        <ele>873.4</ele>
        <time>2020-02-27T15:03:23.000Z</time>
      </trkpt>
      <trkpt lat="44.75939" lon="5.88652">
        <ele>873.4</ele>
        <time>2020-02-27T15:03:22.000Z</time>
      </trkpt>
      <trkpt lat="44.7594" lon="5.88653">
        <ele>873.3</ele>
        <time>2020-02-27T15:03:21.000Z</time>
      </trkpt>
      <trkpt lat="44.75941" lon="5.88653">
        <ele>873.2</ele>
        <time>2020-02-27T15:03:20.000Z</time>
      </trkpt>
      <trkpt lat="44.75941" lon="5.88654">
        <ele>873.2</ele>
        <time>2020-02-27T15:03:19.000Z</time>
      </trkpt>
      <trkpt lat="44.75942" lon="5.88655">
        <ele>873.1</ele>
        <time>2020-02-27T15:03:18.000Z</time>
      </trkpt>
      <trkpt lat="44.75942" lon="5.88656">
        <ele>873.1</ele>
        <time>2020-02-27T15:03:17.000Z</time>
      </trkpt>
      <trkpt lat="44.75943" lon="5.88657">
        <ele>873</ele>
        <time>2020-02-27T15:03:16.000Z</time>
      </trkpt>
      <trkpt lat="44.75944" lon="5.88657">
        <ele>872.9</ele>
        <time>2020-02-27T15:03:15.000Z</time>
      </trkpt>
      <trkpt lat="44.75945" lon="5.88657">
        <ele>872.8</ele>
        <time>2020-02-27T15:03:14.000Z</time>
      </trkpt>
      <trkpt lat="44.75946" lon="5.88658">
        <ele>872.8</ele>
        <time>2020-02-27T15:03:13.000Z</time>
      </trkpt>
      <trkpt lat="44.75947" lon="5.8866">
        <ele>872.7</ele>
        <time>2020-02-27T15:03:12.000Z</time>
      </trkpt>
      <trkpt lat="44.75947" lon="5.8866">
        <ele>872.6</ele>
        <time>2020-02-27T15:03:11.000Z</time>
      </trkpt>
      <trkpt lat="44.75948" lon="5.8866">
        <ele>872.5</ele>
        <time>2020-02-27T15:03:10.000Z</time>
      </trkpt>
      <trkpt lat="44.75949" lon="5.88661">
        <ele>872.4</ele>
        <time>2020-02-27T15:03:09.000Z</time>
      </trkpt>
      <trkpt lat="44.75949" lon="5.88662">
        <ele>872.3</ele>
        <time>2020-02-27T15:03:08.000Z</time>
      </trkpt>
      <trkpt lat="44.7595" lon="5.88663">
        <ele>872.1</ele>
        <time>2020-02-27T15:03:07.000Z</time>
      </trkpt>
      <trkpt lat="44.75951" lon="5.88663">
        <ele>872.1</ele>
        <time>2020-02-27T15:03:06.000Z</time>
      </trkpt>
      <trkpt lat="44.75951" lon="5.88665">
        <ele>872</ele>
        <time>2020-02-27T15:03:05.000Z</time>
      </trkpt>
      <trkpt lat="44.75951" lon="5.88666">
        <ele>872</ele>
        <time>2020-02-27T15:03:04.000Z</time>
      </trkpt>
      <trkpt lat="44.75952" lon="5.88668">
        <ele>871.9</ele>
        <time>2020-02-27T15:03:03.000Z</time>
      </trkpt>
      <trkpt lat="44.75952" lon="5.88669">
        <ele>871.8</ele>
        <time>2020-02-27T15:03:02.000Z</time>
      </trkpt>
      <trkpt lat="44.75952" lon="5.8867">
        <ele>871.8</ele>
        <time>2020-02-27T15:03:01.000Z</time>
      </trkpt>
      <trkpt lat="44.75953" lon="5.88671">
        <ele>871.7</ele>
        <time>2020-02-27T15:03:00.000Z</time>
      </trkpt>
      <trkpt lat="44.75953" lon="5.88672">
        <ele>871.6</ele>
        <time>2020-02-27T15:02:59.000Z</time>
      </trkpt>
      <trkpt lat="44.75954" lon="5.88672">
        <ele>871.5</ele>
        <time>2020-02-27T15:02:58.000Z</time>
      </trkpt>
      <trkpt lat="44.75954" lon="5.88673">
        <ele>871.4</ele>
        <time>2020-02-27T15:02:57.000Z</time>
      </trkpt>
      <trkpt lat="44.75955" lon="5.88674">
        <ele>871.3</ele>
        <time>2020-02-27T15:02:56.000Z</time>
      </trkpt>
      <trkpt lat="44.75955" lon="5.88676">
        <ele>871.2</ele>
        <time>2020-02-27T15:02:55.000Z</time>
      </trkpt>
      <trkpt lat="44.75956" lon="5.88676">
        <ele>871.1</ele>
        <time>2020-02-27T15:02:54.000Z</time>
      </trkpt>
      <trkpt lat="44.75956" lon="5.88678">
        <ele>871</ele>
        <time>2020-02-27T15:02:53.000Z</time>
      </trkpt>
      <trkpt lat="44.75957" lon="5.88679">
        <ele>870.9</ele>
        <time>2020-02-27T15:02:52.000Z</time>
      </trkpt>
      <trkpt lat="44.75957" lon="5.88681">
        <ele>870.8</ele>
        <time>2020-02-27T15:02:51.000Z</time>
      </trkpt>
      <trkpt lat="44.75957" lon="5.88682">
        <ele>870.7</ele>
        <time>2020-02-27T15:02:50.000Z</time>
      </trkpt>
      <trkpt lat="44.75958" lon="5.88683">
        <ele>870.5</ele>
        <time>2020-02-27T15:02:49.000Z</time>
      </trkpt>
      <trkpt lat="44.75958" lon="5.88683">
        <ele>870.4</ele>
        <time>2020-02-27T15:02:48.000Z</time>
      </trkpt>
      <trkpt lat="44.75959" lon="5.88685">
        <ele>870.3</ele>
        <time>2020-02-27T15:02:47.000Z</time>
      </trkpt>
      <trkpt lat="44.75959" lon="5.88686">
        <ele>870.2</ele>
        <time>2020-02-27T15:02:46.000Z</time>
      </trkpt>
      <trkpt lat="44.7596" lon="5.88686">
        <ele>870.1</ele>
        <time>2020-02-27T15:02:45.000Z</time>
      </trkpt>
      <trkpt lat="44.7596" lon="5.88687">
        <ele>870</ele>
        <time>2020-02-27T15:02:44.000Z</time>
      </trkpt>
      <trkpt lat="44.75961" lon="5.88687">
        <ele>870</ele>
        <time>2020-02-27T15:02:43.000Z</time>
      </trkpt>
      <trkpt lat="44.75961" lon="5.88687">
        <ele>869.9</ele>
        <time>2020-02-27T15:02:42.000Z</time>
      </trkpt>
      <trkpt lat="44.75962" lon="5.88687">
        <ele>869.8</ele>
        <time>2020-02-27T15:02:41.000Z</time>
      </trkpt>
      <trkpt lat="44.75962" lon="5.88688">
        <ele>869.7</ele>
        <time>2020-02-27T15:02:40.000Z</time>
      </trkpt>
      <trkpt lat="44.75963" lon="5.88688">
        <ele>869.6</ele>
        <time>2020-02-27T15:02:39.000Z</time>
      </trkpt>
      <trkpt lat="44.75964" lon="5.88688">
        <ele>869.5</ele>
        <time>2020-02-27T15:02:38.000Z</time>
      </trkpt>
      <trkpt lat="44.75964" lon="5.88688">
        <ele>869.4</ele>
        <time>2020-02-27T15:02:37.000Z</time>
      </trkpt>
      <trkpt lat="44.75965" lon="5.88689">
        <ele>869.4</ele>
        <time>2020-02-27T15:02:36.000Z</time>
      </trkpt>
      <trkpt lat="44.75965" lon="5.88689">
        <ele>869.3</ele>
        <time>2020-02-27T15:02:35.000Z</time>
      </trkpt>
      <trkpt lat="44.75966" lon="5.88689">
        <ele>869.2</ele>
        <time>2020-02-27T15:02:34.000Z</time>
      </trkpt>
      <trkpt lat="44.75967" lon="5.88689">
        <ele>869.1</ele>
        <time>2020-02-27T15:02:33.000Z</time>
      </trkpt>
      <trkpt lat="44.75968" lon="5.8869">
        <ele>869</ele>
        <time>2020-02-27T15:02:32.000Z</time>
      </trkpt>
      <trkpt lat="44.75969" lon="5.8869">
        <ele>869</ele>
        <time>2020-02-27T15:02:31.000Z</time>
      </trkpt>
      <trkpt lat="44.75969" lon="5.8869">
        <ele>868.9</ele>
        <time>2020-02-27T15:02:30.000Z</time>
      </trkpt>
      <trkpt lat="44.7597" lon="5.8869">
        <ele>868.9</ele>
        <time>2020-02-27T15:02:29.000Z</time>
      </trkpt>
      <trkpt lat="44.75971" lon="5.8869">
        <ele>868.9</ele>
        <time>2020-02-27T15:02:28.000Z</time>
      </trkpt>
      <trkpt lat="44.75971" lon="5.8869">
        <ele>868.8</ele>
        <time>2020-02-27T15:02:27.000Z</time>
      </trkpt>
      <trkpt lat="44.75971" lon="5.8869">
        <ele>868.8</ele>
        <time>2020-02-27T15:02:26.000Z</time>
      </trkpt>
      <trkpt lat="44.75971" lon="5.8869">
        <ele>868.7</ele>
        <time>2020-02-27T15:02:25.000Z</time>
      </trkpt>
      <trkpt lat="44.75971" lon="5.8869">
        <ele>868.7</ele>
        <time>2020-02-27T15:02:24.000Z</time>
      </trkpt>
      <trkpt lat="44.75971" lon="5.8869">
        <ele>868.7</ele>
        <time>2020-02-27T15:02:23.000Z</time>
      </trkpt>
      <trkpt lat="44.75971" lon="5.8869">
        <ele>868.7</ele>
        <time>2020-02-27T15:02:22.000Z</time>
      </trkpt>
      <trkpt lat="44.75971" lon="5.8869">
        <ele>868.7</ele>
        <time>2020-02-27T15:02:21.000Z</time>
      </trkpt>
      <trkpt lat="44.75971" lon="5.8869">
        <ele>868.7</ele>
        <time>2020-02-27T15:02:20.000Z</time>
      </trkpt>
      <trkpt lat="44.7597" lon="5.8869">
        <ele>868.7</ele>
        <time>2020-02-27T15:02:19.000Z</time>
      </trkpt>
      <trkpt lat="44.75974" lon="5.88689">
        <ele>868.7</ele>
        <time>2020-02-27T15:02:18.000Z</time>
      </trkpt>
      <trkpt lat="44.75974" lon="5.88689">
        <ele>868.7</ele>
        <time>2020-02-27T15:02:17.000Z</time>
      </trkpt>
      <trkpt lat="44.75974" lon="5.88689">
        <ele>868.7</ele>
        <time>2020-02-27T15:02:16.000Z</time>
      </trkpt>
      <trkpt lat="44.75974" lon="5.88689">
        <ele>868.7</ele>
        <time>2020-02-27T15:02:15.000Z</time>
      </trkpt>
      <trkpt lat="44.75974" lon="5.88689">
        <ele>868.7</ele>
        <time>2020-02-27T15:02:14.000Z</time>
      </trkpt>
      <trkpt lat="44.75974" lon="5.88689">
        <ele>868.6</ele>
        <time>2020-02-27T15:02:13.000Z</time>
      </trkpt>
      <trkpt lat="44.75974" lon="5.88689">
        <ele>868.6</ele>
        <time>2020-02-27T15:02:12.000Z</time>
      </trkpt>
      <trkpt lat="44.75974" lon="5.88689">
        <ele>868.6</ele>
        <time>2020-02-27T15:02:11.000Z</time>
      </trkpt>
      <trkpt lat="44.75974" lon="5.88689">
        <ele>868.6</ele>
        <time>2020-02-27T15:02:10.000Z</time>
      </trkpt>
      <trkpt lat="44.75974" lon="5.88689">
        <ele>868.6</ele>
        <time>2020-02-27T15:02:09.000Z</time>
      </trkpt>
      <trkpt lat="44.75974" lon="5.88689">
        <ele>868.6</ele>
        <time>2020-02-27T15:02:08.000Z</time>
      </trkpt>
      <trkpt lat="44.75974" lon="5.88689">
        <ele>868.6</ele>
        <time>2020-02-27T15:02:07.000Z</time>
      </trkpt>
      <trkpt lat="44.75974" lon="5.88689">
        <ele>868.6</ele>
        <time>2020-02-27T15:02:06.000Z</time>
      </trkpt>
      <trkpt lat="44.75974" lon="5.88689">
        <ele>868.6</ele>
        <time>2020-02-27T15:02:05.000Z</time>
      </trkpt>
      <trkpt lat="44.75974" lon="5.88689">
        <ele>868.6</ele>
        <time>2020-02-27T15:02:04.000Z</time>
      </trkpt>
      <trkpt lat="44.75974" lon="5.88689">
        <ele>868.6</ele>
        <time>2020-02-27T15:02:03.000Z</time>
      </trkpt>
      <trkpt lat="44.75974" lon="5.88689">
        <ele>868.6</ele>
        <time>2020-02-27T15:02:02.000Z</time>
      </trkpt>
      <trkpt lat="44.75974" lon="5.88689">
        <ele>868.6</ele>
        <time>2020-02-27T15:02:01.000Z</time>
      </trkpt>
      <trkpt lat="44.75974" lon="5.88689">
        <ele>868.6</ele>
        <time>2020-02-27T15:02:00.000Z</time>
      </trkpt>
      <trkpt lat="44.75974" lon="5.88689">
        <ele>868.6</ele>
        <time>2020-02-27T15:01:59.000Z</time>
      </trkpt>
      <trkpt lat="44.75974" lon="5.88689">
        <ele>868.6</ele>
        <time>2020-02-27T15:01:58.000Z</time>
      </trkpt>
      <trkpt lat="44.75974" lon="5.88689">
        <ele>868.6</ele>
        <time>2020-02-27T15:01:57.000Z</time>
      </trkpt>
      <trkpt lat="44.75974" lon="5.88689">
        <ele>868.6</ele>
        <time>2020-02-27T15:01:56.000Z</time>
      </trkpt>
      <trkpt lat="44.75974" lon="5.88689">
        <ele>868.6</ele>
        <time>2020-02-27T15:01:55.000Z</time>
      </trkpt>
      <trkpt lat="44.75974" lon="5.88689">
        <ele>868.6</ele>
        <time>2020-02-27T15:01:54.000Z</time>
      </trkpt>
      <trkpt lat="44.75974" lon="5.88689">
        <ele>868.6</ele>
        <time>2020-02-27T15:01:53.000Z</time>
      </trkpt>
      <trkpt lat="44.75974" lon="5.88689">
        <ele>868.6</ele>
        <time>2020-02-27T15:01:52.000Z</time>
      </trkpt>
      <trkpt lat="44.75974" lon="5.88689">
        <ele>868.6</ele>
        <time>2020-02-27T15:01:51.000Z</time>
      </trkpt>
      <trkpt lat="44.75974" lon="5.88689">
        <ele>868.6</ele>
        <time>2020-02-27T15:01:50.000Z</time>
      </trkpt>
      <trkpt lat="44.75974" lon="5.88689">
        <ele>868.5</ele>
        <time>2020-02-27T15:01:49.000Z</time>
      </trkpt>
      <trkpt lat="44.75974" lon="5.88689">
        <ele>868.5</ele>
        <time>2020-02-27T15:01:48.000Z</time>
      </trkpt>
      <trkpt lat="44.75974" lon="5.88689">
        <ele>868.5</ele>
        <time>2020-02-27T15:01:47.000Z</time>
      </trkpt>
      <trkpt lat="44.75974" lon="5.88689">
        <ele>868.5</ele>
        <time>2020-02-27T15:01:46.000Z</time>
      </trkpt>
      <trkpt lat="44.75974" lon="5.88689">
        <ele>868.5</ele>
        <time>2020-02-27T15:01:45.000Z</time>
      </trkpt>
      <trkpt lat="44.75974" lon="5.88689">
        <ele>868.5</ele>
        <time>2020-02-27T15:01:44.000Z</time>
      </trkpt>
      <trkpt lat="44.75974" lon="5.88689">
        <ele>868.5</ele>
        <time>2020-02-27T15:01:43.000Z</time>
      </trkpt>
      <trkpt lat="44.75974" lon="5.88689">
        <ele>868.5</ele>
        <time>2020-02-27T15:01:42.000Z</time>
      </trkpt>
      <trkpt lat="44.75974" lon="5.88689">
        <ele>868.4</ele>
        <time>2020-02-27T15:01:41.000Z</time>
      </trkpt>
      <trkpt lat="44.75974" lon="5.88689">
        <ele>868.4</ele>
        <time>2020-02-27T15:01:40.000Z</time>
      </trkpt>
      <trkpt lat="44.75974" lon="5.88689">
        <ele>868.4</ele>
        <time>2020-02-27T15:01:39.000Z</time>
      </trkpt>
      <trkpt lat="44.75974" lon="5.88689">
        <ele>868.4</ele>
        <time>2020-02-27T15:01:38.000Z</time>
      </trkpt>
      <trkpt lat="44.75974" lon="5.88689">
        <ele>868.4</ele>
        <time>2020-02-27T15:01:37.000Z</time>
      </trkpt>
      <trkpt lat="44.75974" lon="5.88689">
        <ele>868.4</ele>
        <time>2020-02-27T15:01:36.000Z</time>
      </trkpt>
      <trkpt lat="44.75974" lon="5.88689">
        <ele>868.4</ele>
        <time>2020-02-27T15:01:35.000Z</time>
      </trkpt>
      <trkpt lat="44.75974" lon="5.88689">
        <ele>868.4</ele>
        <time>2020-02-27T15:01:34.000Z</time>
      </trkpt>
      <trkpt lat="44.75974" lon="5.88689">
        <ele>868.3</ele>
        <time>2020-02-27T15:01:33.000Z</time>
      </trkpt>
      <trkpt lat="44.75974" lon="5.88689">
        <ele>868.3</ele>
        <time>2020-02-27T15:01:32.000Z</time>
      </trkpt>
      <trkpt lat="44.75974" lon="5.88689">
        <ele>868.3</ele>
        <time>2020-02-27T15:01:31.000Z</time>
      </trkpt>
      <trkpt lat="44.75974" lon="5.88689">
        <ele>868.3</ele>
        <time>2020-02-27T15:01:30.000Z</time>
      </trkpt>
      <trkpt lat="44.75974" lon="5.88689">
        <ele>868.3</ele>
        <time>2020-02-27T15:01:29.000Z</time>
      </trkpt>
      <trkpt lat="44.75974" lon="5.88689">
        <ele>868.2</ele>
        <time>2020-02-27T15:01:28.000Z</time>
      </trkpt>
      <trkpt lat="44.75974" lon="5.88689">
        <ele>868.2</ele>
        <time>2020-02-27T15:01:27.000Z</time>
      </trkpt>
      <trkpt lat="44.75974" lon="5.88689">
        <ele>868.2</ele>
        <time>2020-02-27T15:01:26.000Z</time>
      </trkpt>
      <trkpt lat="44.75974" lon="5.88689">
        <ele>868.2</ele>
        <time>2020-02-27T15:01:25.000Z</time>
      </trkpt>
      <trkpt lat="44.75974" lon="5.88689">
        <ele>868.1</ele>
        <time>2020-02-27T15:01:24.000Z</time>
      </trkpt>
      <trkpt lat="44.75974" lon="5.88689">
        <ele>868.1</ele>
        <time>2020-02-27T15:01:23.000Z</time>
      </trkpt>
      <trkpt lat="44.75974" lon="5.88689">
        <ele>868.1</ele>
        <time>2020-02-27T15:01:22.000Z</time>
      </trkpt>
      <trkpt lat="44.75974" lon="5.88689">
        <ele>868</ele>
        <time>2020-02-27T15:01:21.000Z</time>
      </trkpt>
      <trkpt lat="44.75974" lon="5.88689">
        <ele>868</ele>
        <time>2020-02-27T15:01:20.000Z</time>
      </trkpt>
      <trkpt lat="44.75974" lon="5.88689">
        <ele>868</ele>
        <time>2020-02-27T15:01:19.000Z</time>
      </trkpt>
      <trkpt lat="44.75974" lon="5.88689">
        <ele>867.9</ele>
        <time>2020-02-27T15:01:18.000Z</time>
      </trkpt>
      <trkpt lat="44.75974" lon="5.88689">
        <ele>867.9</ele>
        <time>2020-02-27T15:01:17.000Z</time>
      </trkpt>
      <trkpt lat="44.75974" lon="5.88689">
        <ele>867.9</ele>
        <time>2020-02-27T15:01:16.000Z</time>
      </trkpt>
      <trkpt lat="44.75974" lon="5.88689">
        <ele>867.8</ele>
        <time>2020-02-27T15:01:15.000Z</time>
      </trkpt>
      <trkpt lat="44.75974" lon="5.88689">
        <ele>867.8</ele>
        <time>2020-02-27T15:01:14.000Z</time>
      </trkpt>
      <trkpt lat="44.75974" lon="5.88689">
        <ele>867.8</ele>
        <time>2020-02-27T15:01:13.000Z</time>
      </trkpt>
      <trkpt lat="44.75974" lon="5.88689">
        <ele>867.7</ele>
        <time>2020-02-27T15:01:12.000Z</time>
      </trkpt>
      <trkpt lat="44.75974" lon="5.88689">
        <ele>867.7</ele>
        <time>2020-02-27T15:01:11.000Z</time>
      </trkpt>
      <trkpt lat="44.75974" lon="5.88689">
        <ele>867.6</ele>
        <time>2020-02-27T15:01:10.000Z</time>
      </trkpt>
      <trkpt lat="44.75974" lon="5.88689">
        <ele>867.6</ele>
        <time>2020-02-27T15:01:09.000Z</time>
      </trkpt>
      <trkpt lat="44.75974" lon="5.88689">
        <ele>867.6</ele>
        <time>2020-02-27T15:01:08.000Z</time>
      </trkpt>
      <trkpt lat="44.75974" lon="5.88688">
        <ele>867.5</ele>
        <time>2020-02-27T15:01:07.000Z</time>
      </trkpt>
      <trkpt lat="44.75973" lon="5.88689">
        <ele>867.5</ele>
        <time>2020-02-27T15:01:06.000Z</time>
      </trkpt>
      <trkpt lat="44.75972" lon="5.88689">
        <ele>867.5</ele>
        <time>2020-02-27T15:01:05.000Z</time>
      </trkpt>
      <trkpt lat="44.75972" lon="5.88689">
        <ele>867.4</ele>
        <time>2020-02-27T15:01:04.000Z</time>
      </trkpt>
      <trkpt lat="44.75971" lon="5.88689">
        <ele>867.4</ele>
        <time>2020-02-27T15:01:03.000Z</time>
      </trkpt>
      <trkpt lat="44.7597" lon="5.88689">
        <ele>867.4</ele>
        <time>2020-02-27T15:01:02.000Z</time>
      </trkpt>
      <trkpt lat="44.7597" lon="5.8869">
        <ele>867.4</ele>
        <time>2020-02-27T15:01:01.000Z</time>
      </trkpt>
      <trkpt lat="44.75969" lon="5.8869">
        <ele>867.5</ele>
        <time>2020-02-27T15:01:00.000Z</time>
      </trkpt>
      <trkpt lat="44.75968" lon="5.8869">
        <ele>867.5</ele>
        <time>2020-02-27T15:00:59.000Z</time>
      </trkpt>
      <trkpt lat="44.75967" lon="5.88692">
        <ele>867.5</ele>
        <time>2020-02-27T15:00:58.000Z</time>
      </trkpt>
      <trkpt lat="44.75967" lon="5.88693">
        <ele>867.6</ele>
        <time>2020-02-27T15:00:57.000Z</time>
      </trkpt>
      <trkpt lat="44.75967" lon="5.88693">
        <ele>867.7</ele>
        <time>2020-02-27T15:00:56.000Z</time>
      </trkpt>
      <trkpt lat="44.75966" lon="5.88694">
        <ele>867.7</ele>
        <time>2020-02-27T15:00:55.000Z</time>
      </trkpt>
      <trkpt lat="44.75966" lon="5.88694">
        <ele>867.8</ele>
        <time>2020-02-27T15:00:54.000Z</time>
      </trkpt>
      <trkpt lat="44.75965" lon="5.88695">
        <ele>867.9</ele>
        <time>2020-02-27T15:00:53.000Z</time>
      </trkpt>
      <trkpt lat="44.75964" lon="5.88696">
        <ele>868</ele>
        <time>2020-02-27T15:00:52.000Z</time>
      </trkpt>
      <trkpt lat="44.75963" lon="5.88696">
        <ele>868.1</ele>
        <time>2020-02-27T15:00:51.000Z</time>
      </trkpt>
      <trkpt lat="44.75962" lon="5.88696">
        <ele>868.3</ele>
        <time>2020-02-27T15:00:50.000Z</time>
      </trkpt>
      <trkpt lat="44.75961" lon="5.88695">
        <ele>868.4</ele>
        <time>2020-02-27T15:00:49.000Z</time>
      </trkpt>
      <trkpt lat="44.7596" lon="5.88695">
        <ele>868.5</ele>
        <time>2020-02-27T15:00:48.000Z</time>
      </trkpt>
      <trkpt lat="44.75959" lon="5.88694">
        <ele>868.7</ele>
        <time>2020-02-27T15:00:47.000Z</time>
      </trkpt>
      <trkpt lat="44.75959" lon="5.88693">
        <ele>868.8</ele>
        <time>2020-02-27T15:00:46.000Z</time>
      </trkpt>
      <trkpt lat="44.75958" lon="5.88693">
        <ele>869</ele>
        <time>2020-02-27T15:00:45.000Z</time>
      </trkpt>
      <trkpt lat="44.75957" lon="5.88692">
        <ele>869.1</ele>
        <time>2020-02-27T15:00:44.000Z</time>
      </trkpt>
      <trkpt lat="44.75956" lon="5.88692">
        <ele>869.3</ele>
        <time>2020-02-27T15:00:43.000Z</time>
      </trkpt>
      <trkpt lat="44.75955" lon="5.88691">
        <ele>869.5</ele>
        <time>2020-02-27T15:00:42.000Z</time>
      </trkpt>
      <trkpt lat="44.75954" lon="5.88689">
        <ele>869.7</ele>
        <time>2020-02-27T15:00:41.000Z</time>
      </trkpt>
      <trkpt lat="44.75954" lon="5.88687">
        <ele>869.9</ele>
        <time>2020-02-27T15:00:40.000Z</time>
      </trkpt>
      <trkpt lat="44.75953" lon="5.88685">
        <ele>870.2</ele>
        <time>2020-02-27T15:00:39.000Z</time>
      </trkpt>
      <trkpt lat="44.75952" lon="5.88684">
        <ele>870.4</ele>
        <time>2020-02-27T15:00:38.000Z</time>
      </trkpt>
      <trkpt lat="44.75952" lon="5.88682">
        <ele>870.5</ele>
        <time>2020-02-27T15:00:37.000Z</time>
      </trkpt>
      <trkpt lat="44.75951" lon="5.88682">
        <ele>870.6</ele>
        <time>2020-02-27T15:00:36.000Z</time>
      </trkpt>
      <trkpt lat="44.75951" lon="5.8868">
        <ele>870.8</ele>
        <time>2020-02-27T15:00:35.000Z</time>
      </trkpt>
      <trkpt lat="44.75951" lon="5.8868">
        <ele>870.9</ele>
        <time>2020-02-27T15:00:34.000Z</time>
      </trkpt>
      <trkpt lat="44.75951" lon="5.8868">
        <ele>871</ele>
        <time>2020-02-27T15:00:33.000Z</time>
      </trkpt>
      <trkpt lat="44.75951" lon="5.8868">
        <ele>871.1</ele>
        <time>2020-02-27T15:00:32.000Z</time>
      </trkpt>
      <trkpt lat="44.75951" lon="5.8868">
        <ele>871.2</ele>
        <time>2020-02-27T15:00:31.000Z</time>
      </trkpt>
      <trkpt lat="44.75952" lon="5.88681">
        <ele>871.3</ele>
        <time>2020-02-27T15:00:30.000Z</time>
      </trkpt>
      <trkpt lat="44.75952" lon="5.88681">
        <ele>871.4</ele>
        <time>2020-02-27T15:00:29.000Z</time>
      </trkpt>
      <trkpt lat="44.75953" lon="5.88682">
        <ele>871.6</ele>
        <time>2020-02-27T15:00:28.000Z</time>
      </trkpt>
      <trkpt lat="44.75953" lon="5.88682">
        <ele>871.7</ele>
        <time>2020-02-27T15:00:27.000Z</time>
      </trkpt>
      <trkpt lat="44.75954" lon="5.88682">
        <ele>871.8</ele>
        <time>2020-02-27T15:00:26.000Z</time>
      </trkpt>
      <trkpt lat="44.75958" lon="5.88681">
        <ele>871.9</ele>
        <time>2020-02-27T15:00:25.000Z</time>
      </trkpt>
      <trkpt lat="44.75958" lon="5.88681">
        <ele>872</ele>
        <time>2020-02-27T15:00:24.000Z</time>
      </trkpt>
      <trkpt lat="44.75958" lon="5.88681">
        <ele>872.1</ele>
        <time>2020-02-27T15:00:23.000Z</time>
      </trkpt>
      <trkpt lat="44.75958" lon="5.88681">
        <ele>872.1</ele>
        <time>2020-02-27T15:00:22.000Z</time>
      </trkpt>
      <trkpt lat="44.75958" lon="5.88681">
        <ele>872.2</ele>
        <time>2020-02-27T15:00:21.000Z</time>
      </trkpt>
      <trkpt lat="44.75958" lon="5.88681">
        <ele>872.3</ele>
        <time>2020-02-27T15:00:20.000Z</time>
      </trkpt>
      <trkpt lat="44.75958" lon="5.88681">
        <ele>872.5</ele>
        <time>2020-02-27T15:00:19.000Z</time>
      </trkpt>
      <trkpt lat="44.75958" lon="5.88681">
        <ele>872.6</ele>
        <time>2020-02-27T15:00:18.000Z</time>
      </trkpt>
      <trkpt lat="44.75958" lon="5.88681">
        <ele>872.7</ele>
        <time>2020-02-27T15:00:17.000Z</time>
      </trkpt>
      <trkpt lat="44.75959" lon="5.8868">
        <ele>872.8</ele>
        <time>2020-02-27T15:00:16.000Z</time>
      </trkpt>
      <trkpt lat="44.75959" lon="5.88679">
        <ele>873</ele>
        <time>2020-02-27T15:00:15.000Z</time>
      </trkpt>
      <trkpt lat="44.7596" lon="5.88679">
        <ele>873.1</ele>
        <time>2020-02-27T15:00:14.000Z</time>
      </trkpt>
      <trkpt lat="44.7596" lon="5.88679">
        <ele>873.2</ele>
        <time>2020-02-27T15:00:13.000Z</time>
      </trkpt>
      <trkpt lat="44.75961" lon="5.88679">
        <ele>873.4</ele>
        <time>2020-02-27T15:00:12.000Z</time>
      </trkpt>
      <trkpt lat="44.75961" lon="5.88678">
        <ele>873.5</ele>
        <time>2020-02-27T15:00:11.000Z</time>
      </trkpt>
      <trkpt lat="44.75961" lon="5.88678">
        <ele>873.6</ele>
        <time>2020-02-27T15:00:10.000Z</time>
      </trkpt>
      <trkpt lat="44.75962" lon="5.88678">
        <ele>873.8</ele>
        <time>2020-02-27T15:00:09.000Z</time>
      </trkpt>
      <trkpt lat="44.75963" lon="5.88678">
        <ele>873.9</ele>
        <time>2020-02-27T15:00:08.000Z</time>
      </trkpt>
      <trkpt lat="44.75963" lon="5.88677">
        <ele>874.1</ele>
        <time>2020-02-27T15:00:07.000Z</time>
      </trkpt>
      <trkpt lat="44.75964" lon="5.88677">
        <ele>874.2</ele>
        <time>2020-02-27T15:00:06.000Z</time>
      </trkpt>
      <trkpt lat="44.75965" lon="5.88677">
        <ele>874.3</ele>
        <time>2020-02-27T15:00:05.000Z</time>
      </trkpt>
      <trkpt lat="44.75966" lon="5.88676">
        <ele>874.4</ele>
        <time>2020-02-27T15:00:04.000Z</time>
      </trkpt>
      <trkpt lat="44.75967" lon="5.88676">
        <ele>874.5</ele>
        <time>2020-02-27T15:00:03.000Z</time>
      </trkpt>
      <trkpt lat="44.75968" lon="5.88675">
        <ele>874.5</ele>
        <time>2020-02-27T15:00:02.000Z</time>
      </trkpt>
      <trkpt lat="44.75968" lon="5.88675">
        <ele>874.6</ele>
        <time>2020-02-27T15:00:01.000Z</time>
      </trkpt>
      <trkpt lat="44.75968" lon="5.88675">
        <ele>874.7</ele>
        <time>2020-02-27T15:00:00.000Z</time>
      </trkpt>
      <trkpt lat="44.75969" lon="5.88675">
        <ele>874.8</ele>
        <time>2020-02-27T14:59:59.000Z</time>
      </trkpt>
      <trkpt lat="44.75969" lon="5.88675">
        <ele>874.8</ele>
        <time>2020-02-27T14:59:58.000Z</time>
      </trkpt>
      <trkpt lat="44.7597" lon="5.88675">
        <ele>874.9</ele>
        <time>2020-02-27T14:59:57.000Z</time>
      </trkpt>
      <trkpt lat="44.7597" lon="5.88675">
        <ele>874.9</ele>
        <time>2020-02-27T14:59:56.000Z</time>
      </trkpt>
      <trkpt lat="44.75972" lon="5.88674">
        <ele>875</ele>
        <time>2020-02-27T14:59:55.000Z</time>
      </trkpt>
      <trkpt lat="44.75972" lon="5.88673">
        <ele>875</ele>
        <time>2020-02-27T14:59:54.000Z</time>
      </trkpt>
      <trkpt lat="44.75973" lon="5.88672">
        <ele>875.1</ele>
        <time>2020-02-27T14:59:53.000Z</time>
      </trkpt>
      <trkpt lat="44.75975" lon="5.88671">
        <ele>875.2</ele>
        <time>2020-02-27T14:59:52.000Z</time>
      </trkpt>
      <trkpt lat="44.75976" lon="5.88669">
        <ele>875.2</ele>
        <time>2020-02-27T14:59:51.000Z</time>
      </trkpt>
      <trkpt lat="44.75977" lon="5.88668">
        <ele>875.2</ele>
        <time>2020-02-27T14:59:50.000Z</time>
      </trkpt>
      <trkpt lat="44.75978" lon="5.88667">
        <ele>875.2</ele>
        <time>2020-02-27T14:59:49.000Z</time>
      </trkpt>
      <trkpt lat="44.75979" lon="5.88666">
        <ele>875.2</ele>
        <time>2020-02-27T14:59:48.000Z</time>
      </trkpt>
      <trkpt lat="44.7598" lon="5.88666">
        <ele>875.2</ele>
        <time>2020-02-27T14:59:47.000Z</time>
      </trkpt>
      <trkpt lat="44.75981" lon="5.88665">
        <ele>875.3</ele>
        <time>2020-02-27T14:59:46.000Z</time>
      </trkpt>
      <trkpt lat="44.75982" lon="5.88664">
        <ele>875.3</ele>
        <time>2020-02-27T14:59:45.000Z</time>
      </trkpt>
      <trkpt lat="44.75983" lon="5.88664">
        <ele>875.3</ele>
        <time>2020-02-27T14:59:44.000Z</time>
      </trkpt>
      <trkpt lat="44.75985" lon="5.88663">
        <ele>875.3</ele>
        <time>2020-02-27T14:59:43.000Z</time>
      </trkpt>
      <trkpt lat="44.75986" lon="5.88663">
        <ele>875.3</ele>
        <time>2020-02-27T14:59:42.000Z</time>
      </trkpt>
      <trkpt lat="44.75987" lon="5.88662">
        <ele>875.3</ele>
        <time>2020-02-27T14:59:41.000Z</time>
      </trkpt>
      <trkpt lat="44.75988" lon="5.88663">
        <ele>875.3</ele>
        <time>2020-02-27T14:59:40.000Z</time>
      </trkpt>
      <trkpt lat="44.75988" lon="5.88663">
        <ele>875.4</ele>
        <time>2020-02-27T14:59:39.000Z</time>
      </trkpt>
      <trkpt lat="44.75991" lon="5.88666">
        <ele>875.4</ele>
        <time>2020-02-27T14:59:38.000Z</time>
      </trkpt>
      <trkpt lat="44.75992" lon="5.88669">
        <ele>875.4</ele>
        <time>2020-02-27T14:59:37.000Z</time>
      </trkpt>
      <trkpt lat="44.75994" lon="5.8867">
        <ele>875.4</ele>
        <time>2020-02-27T14:59:36.000Z</time>
      </trkpt>
      <trkpt lat="44.75997" lon="5.88673">
        <ele>875.4</ele>
        <time>2020-02-27T14:59:35.000Z</time>
      </trkpt>
      <trkpt lat="44.75998" lon="5.88674">
        <ele>875.4</ele>
        <time>2020-02-27T14:59:34.000Z</time>
      </trkpt>
      <trkpt lat="44.75999" lon="5.88674">
        <ele>875.4</ele>
        <time>2020-02-27T14:59:33.000Z</time>
      </trkpt>
      <trkpt lat="44.76001" lon="5.88675">
        <ele>875.4</ele>
        <time>2020-02-27T14:59:32.000Z</time>
      </trkpt>
      <trkpt lat="44.76002" lon="5.88676">
        <ele>875.3</ele>
        <time>2020-02-27T14:59:31.000Z</time>
      </trkpt>
      <trkpt lat="44.76003" lon="5.88678">
        <ele>875.3</ele>
        <time>2020-02-27T14:59:30.000Z</time>
      </trkpt>
      <trkpt lat="44.76003" lon="5.88679">
        <ele>875.3</ele>
        <time>2020-02-27T14:59:29.000Z</time>
      </trkpt>
      <trkpt lat="44.76004" lon="5.88679">
        <ele>875.3</ele>
        <time>2020-02-27T14:59:28.000Z</time>
      </trkpt>
      <trkpt lat="44.76005" lon="5.88679">
        <ele>875.3</ele>
        <time>2020-02-27T14:59:27.000Z</time>
      </trkpt>
      <trkpt lat="44.76006" lon="5.88679">
        <ele>875.2</ele>
        <time>2020-02-27T14:59:26.000Z</time>
      </trkpt>
      <trkpt lat="44.76007" lon="5.8868">
        <ele>875.2</ele>
        <time>2020-02-27T14:59:25.000Z</time>
      </trkpt>
      <trkpt lat="44.76007" lon="5.88682">
        <ele>875.2</ele>
        <time>2020-02-27T14:59:24.000Z</time>
      </trkpt>
      <trkpt lat="44.76008" lon="5.88683">
        <ele>875.2</ele>
        <time>2020-02-27T14:59:23.000Z</time>
      </trkpt>
      <trkpt lat="44.76008" lon="5.88685">
        <ele>875.1</ele>
        <time>2020-02-27T14:59:22.000Z</time>
      </trkpt>
      <trkpt lat="44.76009" lon="5.88687">
        <ele>875.1</ele>
        <time>2020-02-27T14:59:21.000Z</time>
      </trkpt>
      <trkpt lat="44.76009" lon="5.88688">
        <ele>875.1</ele>
        <time>2020-02-27T14:59:20.000Z</time>
      </trkpt>
      <trkpt lat="44.7601" lon="5.8869">
        <ele>875</ele>
        <time>2020-02-27T14:59:19.000Z</time>
      </trkpt>
      <trkpt lat="44.76011" lon="5.88691">
        <ele>875</ele>
        <time>2020-02-27T14:59:18.000Z</time>
      </trkpt>
      <trkpt lat="44.76011" lon="5.88691">
        <ele>875</ele>
        <time>2020-02-27T14:59:17.000Z</time>
      </trkpt>
      <trkpt lat="44.76012" lon="5.88692">
        <ele>874.9</ele>
        <time>2020-02-27T14:59:16.000Z</time>
      </trkpt>
      <trkpt lat="44.76012" lon="5.88693">
        <ele>874.9</ele>
        <time>2020-02-27T14:59:15.000Z</time>
      </trkpt>
      <trkpt lat="44.76013" lon="5.88695">
        <ele>874.8</ele>
        <time>2020-02-27T14:59:14.000Z</time>
      </trkpt>
      <trkpt lat="44.76013" lon="5.88697">
        <ele>874.8</ele>
        <time>2020-02-27T14:59:13.000Z</time>
      </trkpt>
      <trkpt lat="44.76013" lon="5.88698">
        <ele>874.7</ele>
        <time>2020-02-27T14:59:12.000Z</time>
      </trkpt>
      <trkpt lat="44.76013" lon="5.887">
        <ele>874.7</ele>
        <time>2020-02-27T14:59:11.000Z</time>
      </trkpt>
      <trkpt lat="44.76013" lon="5.88702">
        <ele>874.6</ele>
        <time>2020-02-27T14:59:10.000Z</time>
      </trkpt>
      <trkpt lat="44.76012" lon="5.88703">
        <ele>874.5</ele>
        <time>2020-02-27T14:59:09.000Z</time>
      </trkpt>
      <trkpt lat="44.76012" lon="5.88704">
        <ele>874.5</ele>
        <time>2020-02-27T14:59:08.000Z</time>
      </trkpt>
      <trkpt lat="44.76013" lon="5.88706">
        <ele>874.4</ele>
        <time>2020-02-27T14:59:07.000Z</time>
      </trkpt>
      <trkpt lat="44.76013" lon="5.88708">
        <ele>874.3</ele>
        <time>2020-02-27T14:59:06.000Z</time>
      </trkpt>
      <trkpt lat="44.76013" lon="5.8871">
        <ele>874.2</ele>
        <time>2020-02-27T14:59:05.000Z</time>
      </trkpt>
      <trkpt lat="44.76013" lon="5.88712">
        <ele>874.1</ele>
        <time>2020-02-27T14:59:04.000Z</time>
      </trkpt>
      <trkpt lat="44.76013" lon="5.88714">
        <ele>874</ele>
        <time>2020-02-27T14:59:03.000Z</time>
      </trkpt>
      <trkpt lat="44.76013" lon="5.88715">
        <ele>874</ele>
        <time>2020-02-27T14:59:02.000Z</time>
      </trkpt>
      <trkpt lat="44.76014" lon="5.88716">
        <ele>873.9</ele>
        <time>2020-02-27T14:59:01.000Z</time>
      </trkpt>
      <trkpt lat="44.76013" lon="5.88718">
        <ele>873.8</ele>
        <time>2020-02-27T14:59:00.000Z</time>
      </trkpt>
      <trkpt lat="44.76013" lon="5.88719">
        <ele>873.7</ele>
        <time>2020-02-27T14:58:59.000Z</time>
      </trkpt>
      <trkpt lat="44.76013" lon="5.8872">
        <ele>873.7</ele>
        <time>2020-02-27T14:58:58.000Z</time>
      </trkpt>
      <trkpt lat="44.76014" lon="5.88722">
        <ele>873.6</ele>
        <time>2020-02-27T14:58:57.000Z</time>
      </trkpt>
      <trkpt lat="44.76014" lon="5.88724">
        <ele>873.5</ele>
        <time>2020-02-27T14:58:56.000Z</time>
      </trkpt>
      <trkpt lat="44.76014" lon="5.88725">
        <ele>873.4</ele>
        <time>2020-02-27T14:58:55.000Z</time>
      </trkpt>
      <trkpt lat="44.76014" lon="5.88727">
        <ele>873.4</ele>
        <time>2020-02-27T14:58:54.000Z</time>
      </trkpt>
      <trkpt lat="44.76015" lon="5.88728">
        <ele>873.3</ele>
        <time>2020-02-27T14:58:53.000Z</time>
      </trkpt>
      <trkpt lat="44.76015" lon="5.8873">
        <ele>873.2</ele>
        <time>2020-02-27T14:58:52.000Z</time>
      </trkpt>
      <trkpt lat="44.76015" lon="5.88732">
        <ele>873.1</ele>
        <time>2020-02-27T14:58:51.000Z</time>
      </trkpt>
      <trkpt lat="44.76014" lon="5.88735">
        <ele>873</ele>
        <time>2020-02-27T14:58:50.000Z</time>
      </trkpt>
      <trkpt lat="44.76014" lon="5.88737">
        <ele>873</ele>
        <time>2020-02-27T14:58:49.000Z</time>
      </trkpt>
      <trkpt lat="44.76015" lon="5.88739">
        <ele>872.9</ele>
        <time>2020-02-27T14:58:48.000Z</time>
      </trkpt>
      <trkpt lat="44.76015" lon="5.88741">
        <ele>872.9</ele>
        <time>2020-02-27T14:58:47.000Z</time>
      </trkpt>
      <trkpt lat="44.76016" lon="5.88742">
        <ele>872.8</ele>
        <time>2020-02-27T14:58:46.000Z</time>
      </trkpt>
      <trkpt lat="44.76016" lon="5.88743">
        <ele>872.7</ele>
        <time>2020-02-27T14:58:45.000Z</time>
      </trkpt>
      <trkpt lat="44.76017" lon="5.88744">
        <ele>872.7</ele>
        <time>2020-02-27T14:58:44.000Z</time>
      </trkpt>
      <trkpt lat="44.76017" lon="5.88745">
        <ele>872.6</ele>
        <time>2020-02-27T14:58:43.000Z</time>
      </trkpt>
      <trkpt lat="44.76018" lon="5.88747">
        <ele>872.6</ele>
        <time>2020-02-27T14:58:42.000Z</time>
      </trkpt>
      <trkpt lat="44.76019" lon="5.88748">
        <ele>872.6</ele>
        <time>2020-02-27T14:58:41.000Z</time>
      </trkpt>
      <trkpt lat="44.76019" lon="5.88749">
        <ele>872.5</ele>
        <time>2020-02-27T14:58:40.000Z</time>
      </trkpt>
      <trkpt lat="44.7602" lon="5.8875">
        <ele>872.5</ele>
        <time>2020-02-27T14:58:39.000Z</time>
      </trkpt>
      <trkpt lat="44.7602" lon="5.88752">
        <ele>872.4</ele>
        <time>2020-02-27T14:58:38.000Z</time>
      </trkpt>
      <trkpt lat="44.7602" lon="5.88753">
        <ele>872.4</ele>
        <time>2020-02-27T14:58:37.000Z</time>
      </trkpt>
      <trkpt lat="44.7602" lon="5.88754">
        <ele>872.3</ele>
        <time>2020-02-27T14:58:36.000Z</time>
      </trkpt>
      <trkpt lat="44.7602" lon="5.88756">
        <ele>872.3</ele>
        <time>2020-02-27T14:58:35.000Z</time>
      </trkpt>
      <trkpt lat="44.7602" lon="5.88757">
        <ele>872.2</ele>
        <time>2020-02-27T14:58:34.000Z</time>
      </trkpt>
      <trkpt lat="44.7602" lon="5.88759">
        <ele>872.2</ele>
        <time>2020-02-27T14:58:33.000Z</time>
      </trkpt>
      <trkpt lat="44.76021" lon="5.8876">
        <ele>872.1</ele>
        <time>2020-02-27T14:58:32.000Z</time>
      </trkpt>
      <trkpt lat="44.76021" lon="5.88762">
        <ele>872</ele>
        <time>2020-02-27T14:58:31.000Z</time>
      </trkpt>
      <trkpt lat="44.76021" lon="5.88764">
        <ele>872</ele>
        <time>2020-02-27T14:58:30.000Z</time>
      </trkpt>
      <trkpt lat="44.76023" lon="5.88765">
        <ele>871.9</ele>
        <time>2020-02-27T14:58:29.000Z</time>
      </trkpt>
      <trkpt lat="44.76023" lon="5.88766">
        <ele>871.8</ele>
        <time>2020-02-27T14:58:28.000Z</time>
      </trkpt>
      <trkpt lat="44.76023" lon="5.88767">
        <ele>871.8</ele>
        <time>2020-02-27T14:58:27.000Z</time>
      </trkpt>
      <trkpt lat="44.76024" lon="5.88768">
        <ele>871.7</ele>
        <time>2020-02-27T14:58:26.000Z</time>
      </trkpt>
      <trkpt lat="44.76024" lon="5.8877">
        <ele>871.6</ele>
        <time>2020-02-27T14:58:25.000Z</time>
      </trkpt>
      <trkpt lat="44.76024" lon="5.88771">
        <ele>871.5</ele>
        <time>2020-02-27T14:58:24.000Z</time>
      </trkpt>
      <trkpt lat="44.76025" lon="5.88773">
        <ele>871.5</ele>
        <time>2020-02-27T14:58:23.000Z</time>
      </trkpt>
      <trkpt lat="44.76024" lon="5.88774">
        <ele>871.5</ele>
        <time>2020-02-27T14:58:22.000Z</time>
      </trkpt>
      <trkpt lat="44.76025" lon="5.88777">
        <ele>871.4</ele>
        <time>2020-02-27T14:58:21.000Z</time>
      </trkpt>
      <trkpt lat="44.76026" lon="5.88778">
        <ele>871.4</ele>
        <time>2020-02-27T14:58:20.000Z</time>
      </trkpt>
      <trkpt lat="44.76027" lon="5.8878">
        <ele>871.3</ele>
        <time>2020-02-27T14:58:19.000Z</time>
      </trkpt>
      <trkpt lat="44.76027" lon="5.88781">
        <ele>871.3</ele>
        <time>2020-02-27T14:58:18.000Z</time>
      </trkpt>
      <trkpt lat="44.76028" lon="5.88784">
        <ele>871.2</ele>
        <time>2020-02-27T14:58:17.000Z</time>
      </trkpt>
      <trkpt lat="44.7603" lon="5.88786">
        <ele>871.2</ele>
        <time>2020-02-27T14:58:16.000Z</time>
      </trkpt>
      <trkpt lat="44.76031" lon="5.88787">
        <ele>871.2</ele>
        <time>2020-02-27T14:58:15.000Z</time>
      </trkpt>
      <trkpt lat="44.76031" lon="5.88788">
        <ele>871.1</ele>
        <time>2020-02-27T14:58:14.000Z</time>
      </trkpt>
      <trkpt lat="44.76032" lon="5.88789">
        <ele>871.1</ele>
        <time>2020-02-27T14:58:13.000Z</time>
      </trkpt>
      <trkpt lat="44.76033" lon="5.88791">
        <ele>871</ele>
        <time>2020-02-27T14:58:12.000Z</time>
      </trkpt>
      <trkpt lat="44.76034" lon="5.88792">
        <ele>871</ele>
        <time>2020-02-27T14:58:11.000Z</time>
      </trkpt>
      <trkpt lat="44.76034" lon="5.88794">
        <ele>870.9</ele>
        <time>2020-02-27T14:58:10.000Z</time>
      </trkpt>
      <trkpt lat="44.76035" lon="5.88795">
        <ele>870.9</ele>
        <time>2020-02-27T14:58:09.000Z</time>
      </trkpt>
      <trkpt lat="44.76035" lon="5.88797">
        <ele>870.9</ele>
        <time>2020-02-27T14:58:08.000Z</time>
      </trkpt>
      <trkpt lat="44.76036" lon="5.88797">
        <ele>870.8</ele>
        <time>2020-02-27T14:58:07.000Z</time>
      </trkpt>
      <trkpt lat="44.76038" lon="5.88798">
        <ele>870.8</ele>
        <time>2020-02-27T14:58:06.000Z</time>
      </trkpt>
      <trkpt lat="44.76038" lon="5.88799">
        <ele>870.7</ele>
        <time>2020-02-27T14:58:05.000Z</time>
      </trkpt>
      <trkpt lat="44.76039" lon="5.88799">
        <ele>870.7</ele>
        <time>2020-02-27T14:58:04.000Z</time>
      </trkpt>
      <trkpt lat="44.76039" lon="5.888">
        <ele>870.6</ele>
        <time>2020-02-27T14:58:03.000Z</time>
      </trkpt>
      <trkpt lat="44.76039" lon="5.888">
        <ele>870.5</ele>
        <time>2020-02-27T14:58:02.000Z</time>
      </trkpt>
      <trkpt lat="44.7604" lon="5.88801">
        <ele>870.5</ele>
        <time>2020-02-27T14:58:01.000Z</time>
      </trkpt>
      <trkpt lat="44.7604" lon="5.88802">
        <ele>870.4</ele>
        <time>2020-02-27T14:58:00.000Z</time>
      </trkpt>
      <trkpt lat="44.76041" lon="5.88804">
        <ele>870.4</ele>
        <time>2020-02-27T14:57:59.000Z</time>
      </trkpt>
      <trkpt lat="44.76041" lon="5.88805">
        <ele>870.3</ele>
        <time>2020-02-27T14:57:58.000Z</time>
      </trkpt>
      <trkpt lat="44.76042" lon="5.88806">
        <ele>870.2</ele>
        <time>2020-02-27T14:57:57.000Z</time>
      </trkpt>
      <trkpt lat="44.76043" lon="5.88807">
        <ele>870.1</ele>
        <time>2020-02-27T14:57:56.000Z</time>
      </trkpt>
      <trkpt lat="44.76042" lon="5.88809">
        <ele>870.1</ele>
        <time>2020-02-27T14:57:55.000Z</time>
      </trkpt>
      <trkpt lat="44.76042" lon="5.88811">
        <ele>870</ele>
        <time>2020-02-27T14:57:54.000Z</time>
      </trkpt>
      <trkpt lat="44.76042" lon="5.88812">
        <ele>869.9</ele>
        <time>2020-02-27T14:57:53.000Z</time>
      </trkpt>
      <trkpt lat="44.76043" lon="5.88813">
        <ele>869.8</ele>
        <time>2020-02-27T14:57:52.000Z</time>
      </trkpt>
      <trkpt lat="44.76043" lon="5.88813">
        <ele>869.7</ele>
        <time>2020-02-27T14:57:51.000Z</time>
      </trkpt>
      <trkpt lat="44.76043" lon="5.88814">
        <ele>869.6</ele>
        <time>2020-02-27T14:57:50.000Z</time>
      </trkpt>
      <trkpt lat="44.76044" lon="5.88816">
        <ele>869.5</ele>
        <time>2020-02-27T14:57:49.000Z</time>
      </trkpt>
      <trkpt lat="44.76044" lon="5.88817">
        <ele>869.5</ele>
        <time>2020-02-27T14:57:48.000Z</time>
      </trkpt>
      <trkpt lat="44.76044" lon="5.88819">
        <ele>869.4</ele>
        <time>2020-02-27T14:57:47.000Z</time>
      </trkpt>
      <trkpt lat="44.76045" lon="5.8882">
        <ele>869.4</ele>
        <time>2020-02-27T14:57:46.000Z</time>
      </trkpt>
      <trkpt lat="44.76045" lon="5.88822">
        <ele>869.3</ele>
        <time>2020-02-27T14:57:45.000Z</time>
      </trkpt>
      <trkpt lat="44.76045" lon="5.88823">
        <ele>869.3</ele>
        <time>2020-02-27T14:57:44.000Z</time>
      </trkpt>
      <trkpt lat="44.76045" lon="5.88824">
        <ele>869.2</ele>
        <time>2020-02-27T14:57:43.000Z</time>
      </trkpt>
      <trkpt lat="44.76045" lon="5.88826">
        <ele>869.2</ele>
        <time>2020-02-27T14:57:42.000Z</time>
      </trkpt>
      <trkpt lat="44.76046" lon="5.88827">
        <ele>869.1</ele>
        <time>2020-02-27T14:57:41.000Z</time>
      </trkpt>
      <trkpt lat="44.76046" lon="5.88828">
        <ele>869</ele>
        <time>2020-02-27T14:57:40.000Z</time>
      </trkpt>
      <trkpt lat="44.76046" lon="5.88828">
        <ele>868.9</ele>
        <time>2020-02-27T14:57:39.000Z</time>
      </trkpt>
      <trkpt lat="44.76046" lon="5.8883">
        <ele>868.9</ele>
        <time>2020-02-27T14:57:38.000Z</time>
      </trkpt>
      <trkpt lat="44.76046" lon="5.88831">
        <ele>868.8</ele>
        <time>2020-02-27T14:57:37.000Z</time>
      </trkpt>
      <trkpt lat="44.76047" lon="5.88832">
        <ele>868.7</ele>
        <time>2020-02-27T14:57:36.000Z</time>
      </trkpt>
      <trkpt lat="44.76047" lon="5.88834">
        <ele>868.6</ele>
        <time>2020-02-27T14:57:35.000Z</time>
      </trkpt>
      <trkpt lat="44.76047" lon="5.88835">
        <ele>868.6</ele>
        <time>2020-02-27T14:57:34.000Z</time>
      </trkpt>
      <trkpt lat="44.76047" lon="5.88837">
        <ele>868.5</ele>
        <time>2020-02-27T14:57:33.000Z</time>
      </trkpt>
      <trkpt lat="44.76048" lon="5.88838">
        <ele>868.4</ele>
        <time>2020-02-27T14:57:32.000Z</time>
      </trkpt>
      <trkpt lat="44.76048" lon="5.88839">
        <ele>868.3</ele>
        <time>2020-02-27T14:57:31.000Z</time>
      </trkpt>
      <trkpt lat="44.76048" lon="5.8884">
        <ele>868.2</ele>
        <time>2020-02-27T14:57:30.000Z</time>
      </trkpt>
      <trkpt lat="44.76048" lon="5.88842">
        <ele>868.1</ele>
        <time>2020-02-27T14:57:29.000Z</time>
      </trkpt>
      <trkpt lat="44.76049" lon="5.88843">
        <ele>868</ele>
        <time>2020-02-27T14:57:28.000Z</time>
      </trkpt>
      <trkpt lat="44.76049" lon="5.88843">
        <ele>868</ele>
        <time>2020-02-27T14:57:27.000Z</time>
      </trkpt>
      <trkpt lat="44.76051" lon="5.88847">
        <ele>867.9</ele>
        <time>2020-02-27T14:57:26.000Z</time>
      </trkpt>
      <trkpt lat="44.76051" lon="5.88847">
        <ele>867.9</ele>
        <time>2020-02-27T14:57:25.000Z</time>
      </trkpt>
      <trkpt lat="44.76051" lon="5.88847">
        <ele>867.8</ele>
        <time>2020-02-27T14:57:24.000Z</time>
      </trkpt>
      <trkpt lat="44.76051" lon="5.88847">
        <ele>867.8</ele>
        <time>2020-02-27T14:57:23.000Z</time>
      </trkpt>
      <trkpt lat="44.76051" lon="5.88847">
        <ele>867.7</ele>
        <time>2020-02-27T14:57:22.000Z</time>
      </trkpt>
      <trkpt lat="44.76051" lon="5.88847">
        <ele>867.7</ele>
        <time>2020-02-27T14:57:21.000Z</time>
      </trkpt>
      <trkpt lat="44.76051" lon="5.88847">
        <ele>867.6</ele>
        <time>2020-02-27T14:57:20.000Z</time>
      </trkpt>
      <trkpt lat="44.76051" lon="5.88847">
        <ele>867.5</ele>
        <time>2020-02-27T14:57:19.000Z</time>
      </trkpt>
      <trkpt lat="44.76051" lon="5.88847">
        <ele>867.5</ele>
        <time>2020-02-27T14:57:18.000Z</time>
      </trkpt>
      <trkpt lat="44.76051" lon="5.88847">
        <ele>867.4</ele>
        <time>2020-02-27T14:57:17.000Z</time>
      </trkpt>
      <trkpt lat="44.76051" lon="5.88847">
        <ele>867.4</ele>
        <time>2020-02-27T14:57:16.000Z</time>
      </trkpt>
      <trkpt lat="44.76051" lon="5.88847">
        <ele>867.3</ele>
        <time>2020-02-27T14:57:15.000Z</time>
      </trkpt>
      <trkpt lat="44.76051" lon="5.88847">
        <ele>867.3</ele>
        <time>2020-02-27T14:57:14.000Z</time>
      </trkpt>
      <trkpt lat="44.76051" lon="5.88847">
        <ele>867.2</ele>
        <time>2020-02-27T14:57:13.000Z</time>
      </trkpt>
      <trkpt lat="44.76051" lon="5.88847">
        <ele>867.2</ele>
        <time>2020-02-27T14:57:12.000Z</time>
      </trkpt>
      <trkpt lat="44.76051" lon="5.88847">
        <ele>867.1</ele>
        <time>2020-02-27T14:57:11.000Z</time>
      </trkpt>
      <trkpt lat="44.76051" lon="5.88847">
        <ele>867</ele>
        <time>2020-02-27T14:57:10.000Z</time>
      </trkpt>
      <trkpt lat="44.76051" lon="5.88847">
        <ele>866.9</ele>
        <time>2020-02-27T14:57:09.000Z</time>
      </trkpt>
      <trkpt lat="44.76051" lon="5.88847">
        <ele>866.9</ele>
        <time>2020-02-27T14:57:08.000Z</time>
      </trkpt>
      <trkpt lat="44.76051" lon="5.88847">
        <ele>866.8</ele>
        <time>2020-02-27T14:57:07.000Z</time>
      </trkpt>
      <trkpt lat="44.76051" lon="5.88847">
        <ele>866.7</ele>
        <time>2020-02-27T14:57:06.000Z</time>
      </trkpt>
      <trkpt lat="44.76051" lon="5.88847">
        <ele>866.6</ele>
        <time>2020-02-27T14:57:05.000Z</time>
      </trkpt>
      <trkpt lat="44.76051" lon="5.88848">
        <ele>866.5</ele>
        <time>2020-02-27T14:57:04.000Z</time>
      </trkpt>
      <trkpt lat="44.76051" lon="5.88849">
        <ele>866.4</ele>
        <time>2020-02-27T14:57:03.000Z</time>
      </trkpt>
      <trkpt lat="44.76052" lon="5.88848">
        <ele>866.3</ele>
        <time>2020-02-27T14:57:02.000Z</time>
      </trkpt>
      <trkpt lat="44.76052" lon="5.88849">
        <ele>866.2</ele>
        <time>2020-02-27T14:57:01.000Z</time>
      </trkpt>
      <trkpt lat="44.76052" lon="5.88851">
        <ele>866.2</ele>
        <time>2020-02-27T14:57:00.000Z</time>
      </trkpt>
      <trkpt lat="44.76053" lon="5.88853">
        <ele>866.1</ele>
        <time>2020-02-27T14:56:59.000Z</time>
      </trkpt>
      <trkpt lat="44.76053" lon="5.88854">
        <ele>866</ele>
        <time>2020-02-27T14:56:58.000Z</time>
      </trkpt>
      <trkpt lat="44.76054" lon="5.88855">
        <ele>865.9</ele>
        <time>2020-02-27T14:56:57.000Z</time>
      </trkpt>
      <trkpt lat="44.76054" lon="5.88857">
        <ele>865.8</ele>
        <time>2020-02-27T14:56:56.000Z</time>
      </trkpt>
      <trkpt lat="44.76055" lon="5.88858">
        <ele>865.7</ele>
        <time>2020-02-27T14:56:55.000Z</time>
      </trkpt>
      <trkpt lat="44.76055" lon="5.88859">
        <ele>865.6</ele>
        <time>2020-02-27T14:56:54.000Z</time>
      </trkpt>
      <trkpt lat="44.76056" lon="5.88861">
        <ele>865.5</ele>
        <time>2020-02-27T14:56:53.000Z</time>
      </trkpt>
      <trkpt lat="44.76057" lon="5.88863">
        <ele>865.3</ele>
        <time>2020-02-27T14:56:52.000Z</time>
      </trkpt>
      <trkpt lat="44.76058" lon="5.88864">
        <ele>865.2</ele>
        <time>2020-02-27T14:56:51.000Z</time>
      </trkpt>
      <trkpt lat="44.76058" lon="5.88865">
        <ele>865.1</ele>
        <time>2020-02-27T14:56:50.000Z</time>
      </trkpt>
      <trkpt lat="44.76058" lon="5.88866">
        <ele>864.9</ele>
        <time>2020-02-27T14:56:49.000Z</time>
      </trkpt>
      <trkpt lat="44.76058" lon="5.88868">
        <ele>864.7</ele>
        <time>2020-02-27T14:56:48.000Z</time>
      </trkpt>
      <trkpt lat="44.76057" lon="5.88869">
        <ele>864.6</ele>
        <time>2020-02-27T14:56:47.000Z</time>
      </trkpt>
      <trkpt lat="44.76057" lon="5.88869">
        <ele>864.4</ele>
        <time>2020-02-27T14:56:46.000Z</time>
      </trkpt>
      <trkpt lat="44.76057" lon="5.88871">
        <ele>864.2</ele>
        <time>2020-02-27T14:56:45.000Z</time>
      </trkpt>
      <trkpt lat="44.76057" lon="5.88871">
        <ele>864</ele>
        <time>2020-02-27T14:56:44.000Z</time>
      </trkpt>
      <trkpt lat="44.76057" lon="5.88873">
        <ele>863.7</ele>
        <time>2020-02-27T14:56:43.000Z</time>
      </trkpt>
      <trkpt lat="44.76058" lon="5.88874">
        <ele>863.5</ele>
        <time>2020-02-27T14:56:42.000Z</time>
      </trkpt>
      <trkpt lat="44.76058" lon="5.88876">
        <ele>863.3</ele>
        <time>2020-02-27T14:56:41.000Z</time>
      </trkpt>
      <trkpt lat="44.76059" lon="5.88877">
        <ele>863.1</ele>
        <time>2020-02-27T14:56:40.000Z</time>
      </trkpt>
      <trkpt lat="44.76059" lon="5.88878">
        <ele>862.9</ele>
        <time>2020-02-27T14:56:39.000Z</time>
      </trkpt>
      <trkpt lat="44.76059" lon="5.8888">
        <ele>862.7</ele>
        <time>2020-02-27T14:56:38.000Z</time>
      </trkpt>
      <trkpt lat="44.7606" lon="5.88881">
        <ele>862.5</ele>
        <time>2020-02-27T14:56:37.000Z</time>
      </trkpt>
      <trkpt lat="44.7606" lon="5.88883">
        <ele>862.4</ele>
        <time>2020-02-27T14:56:36.000Z</time>
      </trkpt>
      <trkpt lat="44.76061" lon="5.88885">
        <ele>862.2</ele>
        <time>2020-02-27T14:56:35.000Z</time>
      </trkpt>
      <trkpt lat="44.76061" lon="5.88887">
        <ele>862</ele>
        <time>2020-02-27T14:56:34.000Z</time>
      </trkpt>
      <trkpt lat="44.76061" lon="5.88888">
        <ele>861.9</ele>
        <time>2020-02-27T14:56:33.000Z</time>
      </trkpt>
      <trkpt lat="44.76061" lon="5.8889">
        <ele>861.7</ele>
        <time>2020-02-27T14:56:32.000Z</time>
      </trkpt>
      <trkpt lat="44.76061" lon="5.88893">
        <ele>861.6</ele>
        <time>2020-02-27T14:56:31.000Z</time>
      </trkpt>
      <trkpt lat="44.76062" lon="5.88894">
        <ele>861.4</ele>
        <time>2020-02-27T14:56:30.000Z</time>
      </trkpt>
      <trkpt lat="44.76062" lon="5.88895">
        <ele>861.3</ele>
        <time>2020-02-27T14:56:29.000Z</time>
      </trkpt>
      <trkpt lat="44.76061" lon="5.88897">
        <ele>861.2</ele>
        <time>2020-02-27T14:56:28.000Z</time>
      </trkpt>
      <trkpt lat="44.76062" lon="5.88898">
        <ele>861.1</ele>
        <time>2020-02-27T14:56:27.000Z</time>
      </trkpt>
      <trkpt lat="44.76062" lon="5.889">
        <ele>860.9</ele>
        <time>2020-02-27T14:56:26.000Z</time>
      </trkpt>
      <trkpt lat="44.76062" lon="5.88903">
        <ele>860.8</ele>
        <time>2020-02-27T14:56:25.000Z</time>
      </trkpt>
      <trkpt lat="44.76062" lon="5.88906">
        <ele>860.6</ele>
        <time>2020-02-27T14:56:24.000Z</time>
      </trkpt>
      <trkpt lat="44.76062" lon="5.88908">
        <ele>860.5</ele>
        <time>2020-02-27T14:56:23.000Z</time>
      </trkpt>
      <trkpt lat="44.76063" lon="5.8891">
        <ele>860.3</ele>
        <time>2020-02-27T14:56:22.000Z</time>
      </trkpt>
      <trkpt lat="44.76063" lon="5.88911">
        <ele>860.2</ele>
        <time>2020-02-27T14:56:21.000Z</time>
      </trkpt>
      <trkpt lat="44.76063" lon="5.88913">
        <ele>860</ele>
        <time>2020-02-27T14:56:20.000Z</time>
      </trkpt>
      <trkpt lat="44.76064" lon="5.88914">
        <ele>859.9</ele>
        <time>2020-02-27T14:56:19.000Z</time>
      </trkpt>
      <trkpt lat="44.76065" lon="5.88915">
        <ele>859.7</ele>
        <time>2020-02-27T14:56:18.000Z</time>
      </trkpt>
      <trkpt lat="44.76065" lon="5.88916">
        <ele>859.5</ele>
        <time>2020-02-27T14:56:17.000Z</time>
      </trkpt>
      <trkpt lat="44.76066" lon="5.88917">
        <ele>859.4</ele>
        <time>2020-02-27T14:56:16.000Z</time>
      </trkpt>
      <trkpt lat="44.76067" lon="5.88918">
        <ele>859.2</ele>
        <time>2020-02-27T14:56:15.000Z</time>
      </trkpt>
      <trkpt lat="44.76067" lon="5.88919">
        <ele>859</ele>
        <time>2020-02-27T14:56:14.000Z</time>
      </trkpt>
      <trkpt lat="44.76068" lon="5.88921">
        <ele>858.9</ele>
        <time>2020-02-27T14:56:13.000Z</time>
      </trkpt>
      <trkpt lat="44.76069" lon="5.88922">
        <ele>858.8</ele>
        <time>2020-02-27T14:56:12.000Z</time>
      </trkpt>
      <trkpt lat="44.76069" lon="5.88923">
        <ele>858.7</ele>
        <time>2020-02-27T14:56:11.000Z</time>
      </trkpt>
      <trkpt lat="44.7607" lon="5.88924">
        <ele>858.7</ele>
        <time>2020-02-27T14:56:10.000Z</time>
      </trkpt>
      <trkpt lat="44.7607" lon="5.88925">
        <ele>858.6</ele>
        <time>2020-02-27T14:56:09.000Z</time>
      </trkpt>
      <trkpt lat="44.76071" lon="5.88926">
        <ele>858.5</ele>
        <time>2020-02-27T14:56:08.000Z</time>
      </trkpt>
      <trkpt lat="44.76071" lon="5.88927">
        <ele>858.4</ele>
        <time>2020-02-27T14:56:07.000Z</time>
      </trkpt>
      <trkpt lat="44.76072" lon="5.88929">
        <ele>858.3</ele>
        <time>2020-02-27T14:56:06.000Z</time>
      </trkpt>
      <trkpt lat="44.76073" lon="5.8893">
        <ele>858.3</ele>
        <time>2020-02-27T14:56:05.000Z</time>
      </trkpt>
      <trkpt lat="44.76073" lon="5.88931">
        <ele>858.2</ele>
        <time>2020-02-27T14:56:04.000Z</time>
      </trkpt>
      <trkpt lat="44.76074" lon="5.88933">
        <ele>858</ele>
        <time>2020-02-27T14:56:03.000Z</time>
      </trkpt>
      <trkpt lat="44.76075" lon="5.88934">
        <ele>857.9</ele>
        <time>2020-02-27T14:56:02.000Z</time>
      </trkpt>
      <trkpt lat="44.76075" lon="5.88935">
        <ele>857.8</ele>
        <time>2020-02-27T14:56:01.000Z</time>
      </trkpt>
      <trkpt lat="44.76076" lon="5.88937">
        <ele>857.7</ele>
        <time>2020-02-27T14:56:00.000Z</time>
      </trkpt>
      <trkpt lat="44.76076" lon="5.88939">
        <ele>857.6</ele>
        <time>2020-02-27T14:55:59.000Z</time>
      </trkpt>
      <trkpt lat="44.76077" lon="5.88939">
        <ele>857.5</ele>
        <time>2020-02-27T14:55:58.000Z</time>
      </trkpt>
      <trkpt lat="44.76077" lon="5.88941">
        <ele>857.4</ele>
        <time>2020-02-27T14:55:57.000Z</time>
      </trkpt>
      <trkpt lat="44.76077" lon="5.88942">
        <ele>857.3</ele>
        <time>2020-02-27T14:55:56.000Z</time>
      </trkpt>
      <trkpt lat="44.76077" lon="5.88943">
        <ele>857.2</ele>
        <time>2020-02-27T14:55:55.000Z</time>
      </trkpt>
      <trkpt lat="44.76077" lon="5.88944">
        <ele>857.1</ele>
        <time>2020-02-27T14:55:54.000Z</time>
      </trkpt>
      <trkpt lat="44.76078" lon="5.88946">
        <ele>857</ele>
        <time>2020-02-27T14:55:53.000Z</time>
      </trkpt>
      <trkpt lat="44.76078" lon="5.88947">
        <ele>856.9</ele>
        <time>2020-02-27T14:55:52.000Z</time>
      </trkpt>
      <trkpt lat="44.76078" lon="5.88948">
        <ele>856.9</ele>
        <time>2020-02-27T14:55:51.000Z</time>
      </trkpt>
      <trkpt lat="44.76078" lon="5.88951">
        <ele>856.8</ele>
        <time>2020-02-27T14:55:50.000Z</time>
      </trkpt>
      <trkpt lat="44.76078" lon="5.88951">
        <ele>856.7</ele>
        <time>2020-02-27T14:55:49.000Z</time>
      </trkpt>
      <trkpt lat="44.76078" lon="5.88951">
        <ele>856.6</ele>
        <time>2020-02-27T14:55:48.000Z</time>
      </trkpt>
      <trkpt lat="44.76078" lon="5.88952">
        <ele>856.6</ele>
        <time>2020-02-27T14:55:47.000Z</time>
      </trkpt>
      <trkpt lat="44.76078" lon="5.88953">
        <ele>856.5</ele>
        <time>2020-02-27T14:55:46.000Z</time>
      </trkpt>
      <trkpt lat="44.76078" lon="5.88954">
        <ele>856.4</ele>
        <time>2020-02-27T14:55:45.000Z</time>
      </trkpt>
      <trkpt lat="44.76078" lon="5.88955">
        <ele>856.4</ele>
        <time>2020-02-27T14:55:44.000Z</time>
      </trkpt>
      <trkpt lat="44.76078" lon="5.88956">
        <ele>856.3</ele>
        <time>2020-02-27T14:55:43.000Z</time>
      </trkpt>
      <trkpt lat="44.76078" lon="5.88957">
        <ele>856.3</ele>
        <time>2020-02-27T14:55:42.000Z</time>
      </trkpt>
      <trkpt lat="44.76078" lon="5.88958">
        <ele>856.2</ele>
        <time>2020-02-27T14:55:41.000Z</time>
      </trkpt>
      <trkpt lat="44.76079" lon="5.88959">
        <ele>856.2</ele>
        <time>2020-02-27T14:55:40.000Z</time>
      </trkpt>
      <trkpt lat="44.76079" lon="5.8896">
        <ele>856.1</ele>
        <time>2020-02-27T14:55:39.000Z</time>
      </trkpt>
      <trkpt lat="44.7608" lon="5.88962">
        <ele>856</ele>
        <time>2020-02-27T14:55:38.000Z</time>
      </trkpt>
      <trkpt lat="44.7608" lon="5.88963">
        <ele>856</ele>
        <time>2020-02-27T14:55:37.000Z</time>
      </trkpt>
      <trkpt lat="44.76081" lon="5.88964">
        <ele>856</ele>
        <time>2020-02-27T14:55:36.000Z</time>
      </trkpt>
      <trkpt lat="44.76081" lon="5.88965">
        <ele>856</ele>
        <time>2020-02-27T14:55:35.000Z</time>
      </trkpt>
      <trkpt lat="44.76081" lon="5.88966">
        <ele>856</ele>
        <time>2020-02-27T14:55:34.000Z</time>
      </trkpt>
      <trkpt lat="44.76082" lon="5.88967">
        <ele>856</ele>
        <time>2020-02-27T14:55:33.000Z</time>
      </trkpt>
      <trkpt lat="44.76082" lon="5.88969">
        <ele>856</ele>
        <time>2020-02-27T14:55:32.000Z</time>
      </trkpt>
      <trkpt lat="44.76081" lon="5.8897">
        <ele>856</ele>
        <time>2020-02-27T14:55:31.000Z</time>
      </trkpt>
      <trkpt lat="44.76082" lon="5.88971">
        <ele>856</ele>
        <time>2020-02-27T14:55:30.000Z</time>
      </trkpt>
      <trkpt lat="44.76081" lon="5.88972">
        <ele>855.9</ele>
        <time>2020-02-27T14:55:29.000Z</time>
      </trkpt>
      <trkpt lat="44.76081" lon="5.88973">
        <ele>855.9</ele>
        <time>2020-02-27T14:55:28.000Z</time>
      </trkpt>
      <trkpt lat="44.76081" lon="5.88975">
        <ele>855.9</ele>
        <time>2020-02-27T14:55:27.000Z</time>
      </trkpt>
      <trkpt lat="44.76081" lon="5.88976">
        <ele>855.9</ele>
        <time>2020-02-27T14:55:26.000Z</time>
      </trkpt>
      <trkpt lat="44.7608" lon="5.88977">
        <ele>855.9</ele>
        <time>2020-02-27T14:55:25.000Z</time>
      </trkpt>
      <trkpt lat="44.7608" lon="5.88978">
        <ele>855.9</ele>
        <time>2020-02-27T14:55:24.000Z</time>
      </trkpt>
      <trkpt lat="44.7608" lon="5.88979">
        <ele>855.9</ele>
        <time>2020-02-27T14:55:23.000Z</time>
      </trkpt>
      <trkpt lat="44.7608" lon="5.88981">
        <ele>855.9</ele>
        <time>2020-02-27T14:55:22.000Z</time>
      </trkpt>
      <trkpt lat="44.7608" lon="5.88982">
        <ele>855.9</ele>
        <time>2020-02-27T14:55:21.000Z</time>
      </trkpt>
      <trkpt lat="44.76079" lon="5.88983">
        <ele>855.9</ele>
        <time>2020-02-27T14:55:20.000Z</time>
      </trkpt>
      <trkpt lat="44.76079" lon="5.88983">
        <ele>855.9</ele>
        <time>2020-02-27T14:55:19.000Z</time>
      </trkpt>
      <trkpt lat="44.76079" lon="5.88984">
        <ele>855.9</ele>
        <time>2020-02-27T14:55:18.000Z</time>
      </trkpt>
      <trkpt lat="44.76079" lon="5.88986">
        <ele>855.9</ele>
        <time>2020-02-27T14:55:17.000Z</time>
      </trkpt>
      <trkpt lat="44.76079" lon="5.88987">
        <ele>855.9</ele>
        <time>2020-02-27T14:55:16.000Z</time>
      </trkpt>
      <trkpt lat="44.76079" lon="5.88988">
        <ele>855.9</ele>
        <time>2020-02-27T14:55:15.000Z</time>
      </trkpt>
      <trkpt lat="44.76079" lon="5.88988">
        <ele>855.9</ele>
        <time>2020-02-27T14:55:14.000Z</time>
      </trkpt>
      <trkpt lat="44.76079" lon="5.88989">
        <ele>855.9</ele>
        <time>2020-02-27T14:55:13.000Z</time>
      </trkpt>
      <trkpt lat="44.76079" lon="5.8899">
        <ele>855.9</ele>
        <time>2020-02-27T14:55:12.000Z</time>
      </trkpt>
      <trkpt lat="44.76077" lon="5.88992">
        <ele>855.9</ele>
        <time>2020-02-27T14:55:11.000Z</time>
      </trkpt>
      <trkpt lat="44.76077" lon="5.88992">
        <ele>855.9</ele>
        <time>2020-02-27T14:55:10.000Z</time>
      </trkpt>
      <trkpt lat="44.76077" lon="5.88992">
        <ele>856</ele>
        <time>2020-02-27T14:55:09.000Z</time>
      </trkpt>
      <trkpt lat="44.76077" lon="5.88992">
        <ele>856</ele>
        <time>2020-02-27T14:55:08.000Z</time>
      </trkpt>
      <trkpt lat="44.76077" lon="5.88992">
        <ele>856</ele>
        <time>2020-02-27T14:55:07.000Z</time>
      </trkpt>
      <trkpt lat="44.76077" lon="5.88992">
        <ele>856</ele>
        <time>2020-02-27T14:55:06.000Z</time>
      </trkpt>
      <trkpt lat="44.76077" lon="5.88992">
        <ele>856</ele>
        <time>2020-02-27T14:55:05.000Z</time>
      </trkpt>
      <trkpt lat="44.76077" lon="5.88992">
        <ele>856</ele>
        <time>2020-02-27T14:55:04.000Z</time>
      </trkpt>
      <trkpt lat="44.76077" lon="5.88992">
        <ele>856</ele>
        <time>2020-02-27T14:55:03.000Z</time>
      </trkpt>
      <trkpt lat="44.76077" lon="5.88992">
        <ele>856</ele>
        <time>2020-02-27T14:55:02.000Z</time>
      </trkpt>
      <trkpt lat="44.76077" lon="5.88992">
        <ele>856</ele>
        <time>2020-02-27T14:55:01.000Z</time>
      </trkpt>
      <trkpt lat="44.76077" lon="5.88992">
        <ele>856</ele>
        <time>2020-02-27T14:55:00.000Z</time>
      </trkpt>
      <trkpt lat="44.76077" lon="5.88992">
        <ele>856</ele>
        <time>2020-02-27T14:54:59.000Z</time>
      </trkpt>
      <trkpt lat="44.76077" lon="5.88992">
        <ele>856</ele>
        <time>2020-02-27T14:54:58.000Z</time>
      </trkpt>
      <trkpt lat="44.76077" lon="5.88992">
        <ele>856</ele>
        <time>2020-02-27T14:54:57.000Z</time>
      </trkpt>
      <trkpt lat="44.76077" lon="5.88992">
        <ele>856</ele>
        <time>2020-02-27T14:54:56.000Z</time>
      </trkpt>
      <trkpt lat="44.76077" lon="5.88992">
        <ele>856</ele>
        <time>2020-02-27T14:54:55.000Z</time>
      </trkpt>
      <trkpt lat="44.76077" lon="5.88992">
        <ele>856</ele>
        <time>2020-02-27T14:54:54.000Z</time>
      </trkpt>
      <trkpt lat="44.76077" lon="5.88992">
        <ele>856</ele>
        <time>2020-02-27T14:54:53.000Z</time>
      </trkpt>
      <trkpt lat="44.76077" lon="5.88992">
        <ele>856</ele>
        <time>2020-02-27T14:54:52.000Z</time>
      </trkpt>
      <trkpt lat="44.76077" lon="5.88992">
        <ele>856</ele>
        <time>2020-02-27T14:54:51.000Z</time>
      </trkpt>
      <trkpt lat="44.76078" lon="5.88991">
        <ele>856</ele>
        <time>2020-02-27T14:54:50.000Z</time>
      </trkpt>
      <trkpt lat="44.76078" lon="5.8899">
        <ele>856</ele>
        <time>2020-02-27T14:54:49.000Z</time>
      </trkpt>
      <trkpt lat="44.76078" lon="5.8899">
        <ele>856</ele>
        <time>2020-02-27T14:54:48.000Z</time>
      </trkpt>
      <trkpt lat="44.76079" lon="5.8899">
        <ele>856</ele>
        <time>2020-02-27T14:54:47.000Z</time>
      </trkpt>
      <trkpt lat="44.76078" lon="5.88992">
        <ele>856</ele>
        <time>2020-02-27T14:54:46.000Z</time>
      </trkpt>
      <trkpt lat="44.76078" lon="5.88993">
        <ele>856</ele>
        <time>2020-02-27T14:54:45.000Z</time>
      </trkpt>
      <trkpt lat="44.76078" lon="5.88994">
        <ele>856</ele>
        <time>2020-02-27T14:54:44.000Z</time>
      </trkpt>
      <trkpt lat="44.76078" lon="5.88995">
        <ele>856</ele>
        <time>2020-02-27T14:54:43.000Z</time>
      </trkpt>
      <trkpt lat="44.76077" lon="5.88996">
        <ele>856</ele>
        <time>2020-02-27T14:54:42.000Z</time>
      </trkpt>
      <trkpt lat="44.76077" lon="5.88996">
        <ele>856</ele>
        <time>2020-02-27T14:54:41.000Z</time>
      </trkpt>
      <trkpt lat="44.76077" lon="5.88997">
        <ele>856</ele>
        <time>2020-02-27T14:54:40.000Z</time>
      </trkpt>
      <trkpt lat="44.76076" lon="5.88998">
        <ele>856</ele>
        <time>2020-02-27T14:54:39.000Z</time>
      </trkpt>
      <trkpt lat="44.76076" lon="5.88999">
        <ele>856</ele>
        <time>2020-02-27T14:54:38.000Z</time>
      </trkpt>
      <trkpt lat="44.76076" lon="5.89">
        <ele>856</ele>
        <time>2020-02-27T14:54:37.000Z</time>
      </trkpt>
      <trkpt lat="44.76077" lon="5.89001">
        <ele>856</ele>
        <time>2020-02-27T14:54:36.000Z</time>
      </trkpt>
      <trkpt lat="44.76077" lon="5.89002">
        <ele>856</ele>
        <time>2020-02-27T14:54:35.000Z</time>
      </trkpt>
      <trkpt lat="44.76077" lon="5.89003">
        <ele>856.1</ele>
        <time>2020-02-27T14:54:34.000Z</time>
      </trkpt>
      <trkpt lat="44.76077" lon="5.89004">
        <ele>856.1</ele>
        <time>2020-02-27T14:54:33.000Z</time>
      </trkpt>
      <trkpt lat="44.76076" lon="5.89005">
        <ele>856.1</ele>
        <time>2020-02-27T14:54:32.000Z</time>
      </trkpt>
      <trkpt lat="44.76076" lon="5.89007">
        <ele>856.1</ele>
        <time>2020-02-27T14:54:31.000Z</time>
      </trkpt>
      <trkpt lat="44.76076" lon="5.89008">
        <ele>856.1</ele>
        <time>2020-02-27T14:54:30.000Z</time>
      </trkpt>
      <trkpt lat="44.76076" lon="5.89009">
        <ele>856.1</ele>
        <time>2020-02-27T14:54:29.000Z</time>
      </trkpt>
      <trkpt lat="44.76077" lon="5.89011">
        <ele>856.1</ele>
        <time>2020-02-27T14:54:28.000Z</time>
      </trkpt>
      <trkpt lat="44.76077" lon="5.89012">
        <ele>856.1</ele>
        <time>2020-02-27T14:54:27.000Z</time>
      </trkpt>
      <trkpt lat="44.76077" lon="5.89014">
        <ele>856.1</ele>
        <time>2020-02-27T14:54:26.000Z</time>
      </trkpt>
      <trkpt lat="44.76077" lon="5.89016">
        <ele>856</ele>
        <time>2020-02-27T14:54:25.000Z</time>
      </trkpt>
      <trkpt lat="44.76078" lon="5.89017">
        <ele>856</ele>
        <time>2020-02-27T14:54:24.000Z</time>
      </trkpt>
      <trkpt lat="44.76079" lon="5.89018">
        <ele>856</ele>
        <time>2020-02-27T14:54:23.000Z</time>
      </trkpt>
      <trkpt lat="44.76079" lon="5.8902">
        <ele>856</ele>
        <time>2020-02-27T14:54:22.000Z</time>
      </trkpt>
      <trkpt lat="44.7608" lon="5.89022">
        <ele>855.9</ele>
        <time>2020-02-27T14:54:21.000Z</time>
      </trkpt>
      <trkpt lat="44.76081" lon="5.89023">
        <ele>855.9</ele>
        <time>2020-02-27T14:54:20.000Z</time>
      </trkpt>
      <trkpt lat="44.76081" lon="5.89025">
        <ele>855.9</ele>
        <time>2020-02-27T14:54:19.000Z</time>
      </trkpt>
      <trkpt lat="44.76081" lon="5.89026">
        <ele>855.8</ele>
        <time>2020-02-27T14:54:18.000Z</time>
      </trkpt>
      <trkpt lat="44.7608" lon="5.89027">
        <ele>855.8</ele>
        <time>2020-02-27T14:54:17.000Z</time>
      </trkpt>
      <trkpt lat="44.7608" lon="5.89029">
        <ele>855.8</ele>
        <time>2020-02-27T14:54:16.000Z</time>
      </trkpt>
      <trkpt lat="44.7608" lon="5.89031">
        <ele>855.7</ele>
        <time>2020-02-27T14:54:15.000Z</time>
      </trkpt>
      <trkpt lat="44.7608" lon="5.89032">
        <ele>855.7</ele>
        <time>2020-02-27T14:54:14.000Z</time>
      </trkpt>
      <trkpt lat="44.7608" lon="5.89034">
        <ele>855.6</ele>
        <time>2020-02-27T14:54:13.000Z</time>
      </trkpt>
      <trkpt lat="44.7608" lon="5.89036">
        <ele>855.6</ele>
        <time>2020-02-27T14:54:12.000Z</time>
      </trkpt>
      <trkpt lat="44.76081" lon="5.89038">
        <ele>855.5</ele>
        <time>2020-02-27T14:54:11.000Z</time>
      </trkpt>
      <trkpt lat="44.76082" lon="5.89039">
        <ele>855.4</ele>
        <time>2020-02-27T14:54:10.000Z</time>
      </trkpt>
      <trkpt lat="44.76083" lon="5.89041">
        <ele>855.3</ele>
        <time>2020-02-27T14:54:09.000Z</time>
      </trkpt>
      <trkpt lat="44.76083" lon="5.89043">
        <ele>855.2</ele>
        <time>2020-02-27T14:54:08.000Z</time>
      </trkpt>
      <trkpt lat="44.76084" lon="5.89045">
        <ele>855.1</ele>
        <time>2020-02-27T14:54:07.000Z</time>
      </trkpt>
      <trkpt lat="44.76085" lon="5.89046">
        <ele>855</ele>
        <time>2020-02-27T14:54:06.000Z</time>
      </trkpt>
      <trkpt lat="44.76085" lon="5.89047">
        <ele>854.9</ele>
        <time>2020-02-27T14:54:05.000Z</time>
      </trkpt>
      <trkpt lat="44.76086" lon="5.89048">
        <ele>854.8</ele>
        <time>2020-02-27T14:54:04.000Z</time>
      </trkpt>
      <trkpt lat="44.76086" lon="5.8905">
        <ele>854.7</ele>
        <time>2020-02-27T14:54:03.000Z</time>
      </trkpt>
      <trkpt lat="44.76086" lon="5.89051">
        <ele>854.6</ele>
        <time>2020-02-27T14:54:02.000Z</time>
      </trkpt>
      <trkpt lat="44.76087" lon="5.89052">
        <ele>854.4</ele>
        <time>2020-02-27T14:54:01.000Z</time>
      </trkpt>
      <trkpt lat="44.76086" lon="5.89053">
        <ele>854.3</ele>
        <time>2020-02-27T14:54:00.000Z</time>
      </trkpt>
      <trkpt lat="44.76087" lon="5.89055">
        <ele>854.2</ele>
        <time>2020-02-27T14:53:59.000Z</time>
      </trkpt>
      <trkpt lat="44.76087" lon="5.89056">
        <ele>854.1</ele>
        <time>2020-02-27T14:53:58.000Z</time>
      </trkpt>
      <trkpt lat="44.76088" lon="5.89057">
        <ele>854</ele>
        <time>2020-02-27T14:53:57.000Z</time>
      </trkpt>
      <trkpt lat="44.76088" lon="5.89058">
        <ele>853.8</ele>
        <time>2020-02-27T14:53:56.000Z</time>
      </trkpt>
      <trkpt lat="44.76089" lon="5.89059">
        <ele>853.7</ele>
        <time>2020-02-27T14:53:55.000Z</time>
      </trkpt>
      <trkpt lat="44.7609" lon="5.89059">
        <ele>853.6</ele>
        <time>2020-02-27T14:53:54.000Z</time>
      </trkpt>
      <trkpt lat="44.7609" lon="5.89059">
        <ele>853.5</ele>
        <time>2020-02-27T14:53:53.000Z</time>
      </trkpt>
      <trkpt lat="44.76091" lon="5.8906">
        <ele>853.4</ele>
        <time>2020-02-27T14:53:52.000Z</time>
      </trkpt>
      <trkpt lat="44.76092" lon="5.89061">
        <ele>853.3</ele>
        <time>2020-02-27T14:53:51.000Z</time>
      </trkpt>
      <trkpt lat="44.76093" lon="5.89061">
        <ele>853.2</ele>
        <time>2020-02-27T14:53:50.000Z</time>
      </trkpt>
      <trkpt lat="44.76094" lon="5.89061">
        <ele>853.1</ele>
        <time>2020-02-27T14:53:49.000Z</time>
      </trkpt>
      <trkpt lat="44.76095" lon="5.89062">
        <ele>853</ele>
        <time>2020-02-27T14:53:48.000Z</time>
      </trkpt>
      <trkpt lat="44.76095" lon="5.89062">
        <ele>852.9</ele>
        <time>2020-02-27T14:53:47.000Z</time>
      </trkpt>
      <trkpt lat="44.76095" lon="5.89063">
        <ele>852.8</ele>
        <time>2020-02-27T14:53:46.000Z</time>
      </trkpt>
      <trkpt lat="44.76096" lon="5.89063">
        <ele>852.7</ele>
        <time>2020-02-27T14:53:45.000Z</time>
      </trkpt>
      <trkpt lat="44.76097" lon="5.89063">
        <ele>852.7</ele>
        <time>2020-02-27T14:53:44.000Z</time>
      </trkpt>
      <trkpt lat="44.76098" lon="5.89063">
        <ele>852.6</ele>
        <time>2020-02-27T14:53:43.000Z</time>
      </trkpt>
      <trkpt lat="44.76099" lon="5.89063">
        <ele>852.5</ele>
        <time>2020-02-27T14:53:42.000Z</time>
      </trkpt>
      <trkpt lat="44.761" lon="5.89064">
        <ele>852.4</ele>
        <time>2020-02-27T14:53:41.000Z</time>
      </trkpt>
      <trkpt lat="44.76101" lon="5.89064">
        <ele>852.3</ele>
        <time>2020-02-27T14:53:40.000Z</time>
      </trkpt>
      <trkpt lat="44.76101" lon="5.89064">
        <ele>852.2</ele>
        <time>2020-02-27T14:53:39.000Z</time>
      </trkpt>
      <trkpt lat="44.76103" lon="5.89065">
        <ele>852.2</ele>
        <time>2020-02-27T14:53:38.000Z</time>
      </trkpt>
      <trkpt lat="44.76103" lon="5.89065">
        <ele>852.1</ele>
        <time>2020-02-27T14:53:37.000Z</time>
      </trkpt>
      <trkpt lat="44.76104" lon="5.89066">
        <ele>852</ele>
        <time>2020-02-27T14:53:36.000Z</time>
      </trkpt>
      <trkpt lat="44.76104" lon="5.89067">
        <ele>852</ele>
        <time>2020-02-27T14:53:35.000Z</time>
      </trkpt>
      <trkpt lat="44.76105" lon="5.89068">
        <ele>851.9</ele>
        <time>2020-02-27T14:53:34.000Z</time>
      </trkpt>
      <trkpt lat="44.76105" lon="5.89068">
        <ele>851.8</ele>
        <time>2020-02-27T14:53:33.000Z</time>
      </trkpt>
      <trkpt lat="44.76105" lon="5.89069">
        <ele>851.8</ele>
        <time>2020-02-27T14:53:32.000Z</time>
      </trkpt>
      <trkpt lat="44.76106" lon="5.8907">
        <ele>851.7</ele>
        <time>2020-02-27T14:53:31.000Z</time>
      </trkpt>
      <trkpt lat="44.76106" lon="5.89071">
        <ele>851.6</ele>
        <time>2020-02-27T14:53:30.000Z</time>
      </trkpt>
      <trkpt lat="44.76106" lon="5.89073">
        <ele>851.5</ele>
        <time>2020-02-27T14:53:29.000Z</time>
      </trkpt>
      <trkpt lat="44.76107" lon="5.89074">
        <ele>851.5</ele>
        <time>2020-02-27T14:53:28.000Z</time>
      </trkpt>
      <trkpt lat="44.76107" lon="5.89075">
        <ele>851.4</ele>
        <time>2020-02-27T14:53:27.000Z</time>
      </trkpt>
      <trkpt lat="44.76108" lon="5.89076">
        <ele>851.3</ele>
        <time>2020-02-27T14:53:26.000Z</time>
      </trkpt>
      <trkpt lat="44.76109" lon="5.89077">
        <ele>851.3</ele>
        <time>2020-02-27T14:53:25.000Z</time>
      </trkpt>
      <trkpt lat="44.76109" lon="5.89078">
        <ele>851.2</ele>
        <time>2020-02-27T14:53:24.000Z</time>
      </trkpt>
      <trkpt lat="44.7611" lon="5.89078">
        <ele>851.2</ele>
        <time>2020-02-27T14:53:23.000Z</time>
      </trkpt>
      <trkpt lat="44.76111" lon="5.89079">
        <ele>851.2</ele>
        <time>2020-02-27T14:53:22.000Z</time>
      </trkpt>
      <trkpt lat="44.76112" lon="5.89079">
        <ele>851.2</ele>
        <time>2020-02-27T14:53:21.000Z</time>
      </trkpt>
      <trkpt lat="44.76113" lon="5.8908">
        <ele>851.2</ele>
        <time>2020-02-27T14:53:20.000Z</time>
      </trkpt>
      <trkpt lat="44.76114" lon="5.8908">
        <ele>851.3</ele>
        <time>2020-02-27T14:53:19.000Z</time>
      </trkpt>
      <trkpt lat="44.76114" lon="5.89081">
        <ele>851.3</ele>
        <time>2020-02-27T14:53:18.000Z</time>
      </trkpt>
      <trkpt lat="44.76114" lon="5.89083">
        <ele>851.3</ele>
        <time>2020-02-27T14:53:17.000Z</time>
      </trkpt>
      <trkpt lat="44.76115" lon="5.89084">
        <ele>851.3</ele>
        <time>2020-02-27T14:53:16.000Z</time>
      </trkpt>
      <trkpt lat="44.76115" lon="5.89086">
        <ele>851.3</ele>
        <time>2020-02-27T14:53:15.000Z</time>
      </trkpt>
      <trkpt lat="44.76115" lon="5.89087">
        <ele>851.3</ele>
        <time>2020-02-27T14:53:14.000Z</time>
      </trkpt>
      <trkpt lat="44.76115" lon="5.89088">
        <ele>851.3</ele>
        <time>2020-02-27T14:53:13.000Z</time>
      </trkpt>
      <trkpt lat="44.76116" lon="5.89089">
        <ele>851.3</ele>
        <time>2020-02-27T14:53:12.000Z</time>
      </trkpt>
      <trkpt lat="44.76116" lon="5.8909">
        <ele>851.3</ele>
        <time>2020-02-27T14:53:11.000Z</time>
      </trkpt>
      <trkpt lat="44.76117" lon="5.89091">
        <ele>851.4</ele>
        <time>2020-02-27T14:53:10.000Z</time>
      </trkpt>
      <trkpt lat="44.76118" lon="5.89092">
        <ele>851.4</ele>
        <time>2020-02-27T14:53:09.000Z</time>
      </trkpt>
      <trkpt lat="44.76118" lon="5.89093">
        <ele>851.4</ele>
        <time>2020-02-27T14:53:08.000Z</time>
      </trkpt>
      <trkpt lat="44.76119" lon="5.89095">
        <ele>851.4</ele>
        <time>2020-02-27T14:53:07.000Z</time>
      </trkpt>
      <trkpt lat="44.76119" lon="5.89097">
        <ele>851.4</ele>
        <time>2020-02-27T14:53:06.000Z</time>
      </trkpt>
      <trkpt lat="44.7612" lon="5.89099">
        <ele>851.4</ele>
        <time>2020-02-27T14:53:05.000Z</time>
      </trkpt>
      <trkpt lat="44.7612" lon="5.89101">
        <ele>851.4</ele>
        <time>2020-02-27T14:53:04.000Z</time>
      </trkpt>
      <trkpt lat="44.76121" lon="5.89103">
        <ele>851.4</ele>
        <time>2020-02-27T14:53:03.000Z</time>
      </trkpt>
      <trkpt lat="44.76121" lon="5.89104">
        <ele>851.4</ele>
        <time>2020-02-27T14:53:02.000Z</time>
      </trkpt>
      <trkpt lat="44.76121" lon="5.89106">
        <ele>851.4</ele>
        <time>2020-02-27T14:53:01.000Z</time>
      </trkpt>
      <trkpt lat="44.76122" lon="5.89108">
        <ele>851.4</ele>
        <time>2020-02-27T14:53:00.000Z</time>
      </trkpt>
      <trkpt lat="44.76122" lon="5.8911">
        <ele>851.4</ele>
        <time>2020-02-27T14:52:59.000Z</time>
      </trkpt>
      <trkpt lat="44.76122" lon="5.89112">
        <ele>851.4</ele>
        <time>2020-02-27T14:52:58.000Z</time>
      </trkpt>
      <trkpt lat="44.76123" lon="5.89113">
        <ele>851.4</ele>
        <time>2020-02-27T14:52:57.000Z</time>
      </trkpt>
      <trkpt lat="44.76123" lon="5.89115">
        <ele>851.3</ele>
        <time>2020-02-27T14:52:56.000Z</time>
      </trkpt>
      <trkpt lat="44.76124" lon="5.89117">
        <ele>851.3</ele>
        <time>2020-02-27T14:52:55.000Z</time>
      </trkpt>
      <trkpt lat="44.76124" lon="5.89118">
        <ele>851.3</ele>
        <time>2020-02-27T14:52:54.000Z</time>
      </trkpt>
      <trkpt lat="44.76124" lon="5.8912">
        <ele>851.3</ele>
        <time>2020-02-27T14:52:53.000Z</time>
      </trkpt>
      <trkpt lat="44.76124" lon="5.89123">
        <ele>851.2</ele>
        <time>2020-02-27T14:52:52.000Z</time>
      </trkpt>
      <trkpt lat="44.76124" lon="5.89125">
        <ele>851.2</ele>
        <time>2020-02-27T14:52:51.000Z</time>
      </trkpt>
      <trkpt lat="44.76125" lon="5.89126">
        <ele>851.2</ele>
        <time>2020-02-27T14:52:50.000Z</time>
      </trkpt>
      <trkpt lat="44.76126" lon="5.89127">
        <ele>851.1</ele>
        <time>2020-02-27T14:52:49.000Z</time>
      </trkpt>
      <trkpt lat="44.76127" lon="5.89129">
        <ele>851.1</ele>
        <time>2020-02-27T14:52:48.000Z</time>
      </trkpt>
      <trkpt lat="44.76128" lon="5.8913">
        <ele>851.1</ele>
        <time>2020-02-27T14:52:47.000Z</time>
      </trkpt>
      <trkpt lat="44.76128" lon="5.89132">
        <ele>851</ele>
        <time>2020-02-27T14:52:46.000Z</time>
      </trkpt>
      <trkpt lat="44.76129" lon="5.89133">
        <ele>851</ele>
        <time>2020-02-27T14:52:45.000Z</time>
      </trkpt>
      <trkpt lat="44.7613" lon="5.89135">
        <ele>850.9</ele>
        <time>2020-02-27T14:52:44.000Z</time>
      </trkpt>
      <trkpt lat="44.7613" lon="5.89136">
        <ele>850.9</ele>
        <time>2020-02-27T14:52:43.000Z</time>
      </trkpt>
      <trkpt lat="44.76131" lon="5.89138">
        <ele>850.8</ele>
        <time>2020-02-27T14:52:42.000Z</time>
      </trkpt>
      <trkpt lat="44.76132" lon="5.89139">
        <ele>850.8</ele>
        <time>2020-02-27T14:52:41.000Z</time>
      </trkpt>
      <trkpt lat="44.76133" lon="5.89141">
        <ele>850.7</ele>
        <time>2020-02-27T14:52:40.000Z</time>
      </trkpt>
      <trkpt lat="44.76134" lon="5.89142">
        <ele>850.7</ele>
        <time>2020-02-27T14:52:39.000Z</time>
      </trkpt>
      <trkpt lat="44.76135" lon="5.89144">
        <ele>850.6</ele>
        <time>2020-02-27T14:52:38.000Z</time>
      </trkpt>
      <trkpt lat="44.76136" lon="5.89144">
        <ele>850.5</ele>
        <time>2020-02-27T14:52:37.000Z</time>
      </trkpt>
      <trkpt lat="44.76138" lon="5.89145">
        <ele>850.4</ele>
        <time>2020-02-27T14:52:36.000Z</time>
      </trkpt>
      <trkpt lat="44.76138" lon="5.89146">
        <ele>850.4</ele>
        <time>2020-02-27T14:52:35.000Z</time>
      </trkpt>
      <trkpt lat="44.7614" lon="5.89147">
        <ele>850.3</ele>
        <time>2020-02-27T14:52:34.000Z</time>
      </trkpt>
      <trkpt lat="44.76141" lon="5.89148">
        <ele>850.3</ele>
        <time>2020-02-27T14:52:33.000Z</time>
      </trkpt>
      <trkpt lat="44.76142" lon="5.89148">
        <ele>850.2</ele>
        <time>2020-02-27T14:52:32.000Z</time>
      </trkpt>
      <trkpt lat="44.76143" lon="5.89149">
        <ele>850.2</ele>
        <time>2020-02-27T14:52:31.000Z</time>
      </trkpt>
      <trkpt lat="44.76144" lon="5.8915">
        <ele>850.1</ele>
        <time>2020-02-27T14:52:30.000Z</time>
      </trkpt>
      <trkpt lat="44.76146" lon="5.8915">
        <ele>850.1</ele>
        <time>2020-02-27T14:52:29.000Z</time>
      </trkpt>
      <trkpt lat="44.76147" lon="5.89151">
        <ele>850</ele>
        <time>2020-02-27T14:52:28.000Z</time>
      </trkpt>
      <trkpt lat="44.76147" lon="5.89152">
        <ele>849.9</ele>
        <time>2020-02-27T14:52:27.000Z</time>
      </trkpt>
      <trkpt lat="44.76148" lon="5.89153">
        <ele>849.8</ele>
        <time>2020-02-27T14:52:26.000Z</time>
      </trkpt>
      <trkpt lat="44.76149" lon="5.89154">
        <ele>849.8</ele>
        <time>2020-02-27T14:52:25.000Z</time>
      </trkpt>
      <trkpt lat="44.7615" lon="5.89155">
        <ele>849.7</ele>
        <time>2020-02-27T14:52:24.000Z</time>
      </trkpt>
      <trkpt lat="44.76153" lon="5.89157">
        <ele>849.6</ele>
        <time>2020-02-27T14:52:23.000Z</time>
      </trkpt>
      <trkpt lat="44.76154" lon="5.89159">
        <ele>849.5</ele>
        <time>2020-02-27T14:52:22.000Z</time>
      </trkpt>
      <trkpt lat="44.76155" lon="5.8916">
        <ele>849.4</ele>
        <time>2020-02-27T14:52:21.000Z</time>
      </trkpt>
      <trkpt lat="44.76158" lon="5.89158">
        <ele>849.3</ele>
        <time>2020-02-27T14:52:20.000Z</time>
      </trkpt>
      <trkpt lat="44.76158" lon="5.8916">
        <ele>849.2</ele>
        <time>2020-02-27T14:52:19.000Z</time>
      </trkpt>
      <trkpt lat="44.76159" lon="5.89161">
        <ele>849</ele>
        <time>2020-02-27T14:52:18.000Z</time>
      </trkpt>
      <trkpt lat="44.76159" lon="5.89162">
        <ele>849</ele>
        <time>2020-02-27T14:52:17.000Z</time>
      </trkpt>
      <trkpt lat="44.7616" lon="5.89163">
        <ele>848.9</ele>
        <time>2020-02-27T14:52:16.000Z</time>
      </trkpt>
      <trkpt lat="44.76161" lon="5.89165">
        <ele>848.8</ele>
        <time>2020-02-27T14:52:15.000Z</time>
      </trkpt>
      <trkpt lat="44.76162" lon="5.89167">
        <ele>848.8</ele>
        <time>2020-02-27T14:52:14.000Z</time>
      </trkpt>
      <trkpt lat="44.76163" lon="5.89169">
        <ele>848.7</ele>
        <time>2020-02-27T14:52:13.000Z</time>
      </trkpt>
      <trkpt lat="44.76164" lon="5.89171">
        <ele>848.7</ele>
        <time>2020-02-27T14:52:12.000Z</time>
      </trkpt>
      <trkpt lat="44.76165" lon="5.89172">
        <ele>848.6</ele>
        <time>2020-02-27T14:52:11.000Z</time>
      </trkpt>
      <trkpt lat="44.76166" lon="5.89174">
        <ele>848.5</ele>
        <time>2020-02-27T14:52:10.000Z</time>
      </trkpt>
      <trkpt lat="44.76167" lon="5.89174">
        <ele>848.4</ele>
        <time>2020-02-27T14:52:09.000Z</time>
      </trkpt>
      <trkpt lat="44.76168" lon="5.89175">
        <ele>848.4</ele>
        <time>2020-02-27T14:52:08.000Z</time>
      </trkpt>
      <trkpt lat="44.76169" lon="5.89176">
        <ele>848.3</ele>
        <time>2020-02-27T14:52:07.000Z</time>
      </trkpt>
      <trkpt lat="44.7617" lon="5.89177">
        <ele>848.2</ele>
        <time>2020-02-27T14:52:06.000Z</time>
      </trkpt>
      <trkpt lat="44.7617" lon="5.89178">
        <ele>848.1</ele>
        <time>2020-02-27T14:52:05.000Z</time>
      </trkpt>
      <trkpt lat="44.76171" lon="5.89178">
        <ele>848</ele>
        <time>2020-02-27T14:52:04.000Z</time>
      </trkpt>
      <trkpt lat="44.76172" lon="5.89179">
        <ele>847.9</ele>
        <time>2020-02-27T14:52:03.000Z</time>
      </trkpt>
      <trkpt lat="44.76173" lon="5.8918">
        <ele>847.8</ele>
        <time>2020-02-27T14:52:02.000Z</time>
      </trkpt>
      <trkpt lat="44.76173" lon="5.89181">
        <ele>847.7</ele>
        <time>2020-02-27T14:52:01.000Z</time>
      </trkpt>
      <trkpt lat="44.76174" lon="5.89182">
        <ele>847.6</ele>
        <time>2020-02-27T14:52:00.000Z</time>
      </trkpt>
      <trkpt lat="44.76174" lon="5.89184">
        <ele>847.5</ele>
        <time>2020-02-27T14:51:59.000Z</time>
      </trkpt>
      <trkpt lat="44.76174" lon="5.89185">
        <ele>847.4</ele>
        <time>2020-02-27T14:51:58.000Z</time>
      </trkpt>
      <trkpt lat="44.76174" lon="5.89187">
        <ele>847.3</ele>
        <time>2020-02-27T14:51:57.000Z</time>
      </trkpt>
      <trkpt lat="44.76175" lon="5.89187">
        <ele>847.1</ele>
        <time>2020-02-27T14:51:56.000Z</time>
      </trkpt>
      <trkpt lat="44.76175" lon="5.89189">
        <ele>847</ele>
        <time>2020-02-27T14:51:55.000Z</time>
      </trkpt>
      <trkpt lat="44.76176" lon="5.89189">
        <ele>846.9</ele>
        <time>2020-02-27T14:51:54.000Z</time>
      </trkpt>
      <trkpt lat="44.76176" lon="5.8919">
        <ele>846.8</ele>
        <time>2020-02-27T14:51:53.000Z</time>
      </trkpt>
      <trkpt lat="44.76178" lon="5.89191">
        <ele>846.7</ele>
        <time>2020-02-27T14:51:52.000Z</time>
      </trkpt>
      <trkpt lat="44.76179" lon="5.89191">
        <ele>846.5</ele>
        <time>2020-02-27T14:51:51.000Z</time>
      </trkpt>
      <trkpt lat="44.7618" lon="5.89192">
        <ele>846.4</ele>
        <time>2020-02-27T14:51:50.000Z</time>
      </trkpt>
      <trkpt lat="44.76182" lon="5.89193">
        <ele>846.3</ele>
        <time>2020-02-27T14:51:49.000Z</time>
      </trkpt>
      <trkpt lat="44.76182" lon="5.89194">
        <ele>846.3</ele>
        <time>2020-02-27T14:51:48.000Z</time>
      </trkpt>
      <trkpt lat="44.76184" lon="5.89195">
        <ele>846.2</ele>
        <time>2020-02-27T14:51:47.000Z</time>
      </trkpt>
      <trkpt lat="44.76184" lon="5.89195">
        <ele>846.1</ele>
        <time>2020-02-27T14:51:46.000Z</time>
      </trkpt>
      <trkpt lat="44.76185" lon="5.89196">
        <ele>846</ele>
        <time>2020-02-27T14:51:45.000Z</time>
      </trkpt>
      <trkpt lat="44.76186" lon="5.89197">
        <ele>845.9</ele>
        <time>2020-02-27T14:51:44.000Z</time>
      </trkpt>
      <trkpt lat="44.76188" lon="5.89198">
        <ele>845.8</ele>
        <time>2020-02-27T14:51:43.000Z</time>
      </trkpt>
      <trkpt lat="44.76189" lon="5.89198">
        <ele>845.7</ele>
        <time>2020-02-27T14:51:42.000Z</time>
      </trkpt>
      <trkpt lat="44.76189" lon="5.89199">
        <ele>845.6</ele>
        <time>2020-02-27T14:51:41.000Z</time>
      </trkpt>
      <trkpt lat="44.7619" lon="5.89199">
        <ele>845.5</ele>
        <time>2020-02-27T14:51:40.000Z</time>
      </trkpt>
      <trkpt lat="44.7619" lon="5.89199">
        <ele>845.5</ele>
        <time>2020-02-27T14:51:39.000Z</time>
      </trkpt>
      <trkpt lat="44.76191" lon="5.89199">
        <ele>845.4</ele>
        <time>2020-02-27T14:51:38.000Z</time>
      </trkpt>
      <trkpt lat="44.76191" lon="5.892">
        <ele>845.4</ele>
        <time>2020-02-27T14:51:37.000Z</time>
      </trkpt>
      <trkpt lat="44.76191" lon="5.892">
        <ele>845.3</ele>
        <time>2020-02-27T14:51:36.000Z</time>
      </trkpt>
      <trkpt lat="44.76192" lon="5.89201">
        <ele>845.3</ele>
        <time>2020-02-27T14:51:35.000Z</time>
      </trkpt>
      <trkpt lat="44.76192" lon="5.89201">
        <ele>845.3</ele>
        <time>2020-02-27T14:51:34.000Z</time>
      </trkpt>
      <trkpt lat="44.76194" lon="5.892">
        <ele>845.3</ele>
        <time>2020-02-27T14:51:33.000Z</time>
      </trkpt>
      <trkpt lat="44.76194" lon="5.892">
        <ele>845.2</ele>
        <time>2020-02-27T14:51:32.000Z</time>
      </trkpt>
      <trkpt lat="44.76195" lon="5.892">
        <ele>845.2</ele>
        <time>2020-02-27T14:51:31.000Z</time>
      </trkpt>
      <trkpt lat="44.76196" lon="5.89201">
        <ele>845.2</ele>
        <time>2020-02-27T14:51:30.000Z</time>
      </trkpt>
      <trkpt lat="44.76197" lon="5.89201">
        <ele>845.2</ele>
        <time>2020-02-27T14:51:29.000Z</time>
      </trkpt>
      <trkpt lat="44.76198" lon="5.89202">
        <ele>845.2</ele>
        <time>2020-02-27T14:51:28.000Z</time>
      </trkpt>
      <trkpt lat="44.76199" lon="5.89202">
        <ele>845.2</ele>
        <time>2020-02-27T14:51:27.000Z</time>
      </trkpt>
      <trkpt lat="44.76199" lon="5.89203">
        <ele>845.2</ele>
        <time>2020-02-27T14:51:26.000Z</time>
      </trkpt>
      <trkpt lat="44.762" lon="5.89204">
        <ele>845.2</ele>
        <time>2020-02-27T14:51:25.000Z</time>
      </trkpt>
      <trkpt lat="44.762" lon="5.89205">
        <ele>845.2</ele>
        <time>2020-02-27T14:51:24.000Z</time>
      </trkpt>
      <trkpt lat="44.76201" lon="5.89206">
        <ele>845.2</ele>
        <time>2020-02-27T14:51:23.000Z</time>
      </trkpt>
      <trkpt lat="44.76202" lon="5.89208">
        <ele>845.2</ele>
        <time>2020-02-27T14:51:22.000Z</time>
      </trkpt>
      <trkpt lat="44.76202" lon="5.8921">
        <ele>845.2</ele>
        <time>2020-02-27T14:51:21.000Z</time>
      </trkpt>
      <trkpt lat="44.76203" lon="5.89211">
        <ele>845.2</ele>
        <time>2020-02-27T14:51:20.000Z</time>
      </trkpt>
      <trkpt lat="44.76204" lon="5.89213">
        <ele>845.2</ele>
        <time>2020-02-27T14:51:19.000Z</time>
      </trkpt>
      <trkpt lat="44.76205" lon="5.89215">
        <ele>845.2</ele>
        <time>2020-02-27T14:51:18.000Z</time>
      </trkpt>
      <trkpt lat="44.76205" lon="5.89216">
        <ele>845.2</ele>
        <time>2020-02-27T14:51:17.000Z</time>
      </trkpt>
      <trkpt lat="44.76205" lon="5.89217">
        <ele>845.2</ele>
        <time>2020-02-27T14:51:16.000Z</time>
      </trkpt>
      <trkpt lat="44.76206" lon="5.89219">
        <ele>845.2</ele>
        <time>2020-02-27T14:51:15.000Z</time>
      </trkpt>
      <trkpt lat="44.76206" lon="5.8922">
        <ele>845.2</ele>
        <time>2020-02-27T14:51:14.000Z</time>
      </trkpt>
      <trkpt lat="44.76207" lon="5.89222">
        <ele>845.2</ele>
        <time>2020-02-27T14:51:13.000Z</time>
      </trkpt>
      <trkpt lat="44.76207" lon="5.89223">
        <ele>845.2</ele>
        <time>2020-02-27T14:51:12.000Z</time>
      </trkpt>
      <trkpt lat="44.76208" lon="5.89224">
        <ele>845.2</ele>
        <time>2020-02-27T14:51:11.000Z</time>
      </trkpt>
      <trkpt lat="44.76209" lon="5.89225">
        <ele>845.2</ele>
        <time>2020-02-27T14:51:10.000Z</time>
      </trkpt>
      <trkpt lat="44.76209" lon="5.89226">
        <ele>845.2</ele>
        <time>2020-02-27T14:51:09.000Z</time>
      </trkpt>
      <trkpt lat="44.76209" lon="5.89227">
        <ele>845.2</ele>
        <time>2020-02-27T14:51:08.000Z</time>
      </trkpt>
      <trkpt lat="44.76209" lon="5.89229">
        <ele>845.2</ele>
        <time>2020-02-27T14:51:07.000Z</time>
      </trkpt>
      <trkpt lat="44.76209" lon="5.8923">
        <ele>845.2</ele>
        <time>2020-02-27T14:51:06.000Z</time>
      </trkpt>
      <trkpt lat="44.76209" lon="5.89231">
        <ele>845.1</ele>
        <time>2020-02-27T14:51:05.000Z</time>
      </trkpt>
      <trkpt lat="44.7621" lon="5.89232">
        <ele>845.1</ele>
        <time>2020-02-27T14:51:04.000Z</time>
      </trkpt>
      <trkpt lat="44.7621" lon="5.89233">
        <ele>845.1</ele>
        <time>2020-02-27T14:51:03.000Z</time>
      </trkpt>
      <trkpt lat="44.7621" lon="5.89235">
        <ele>845.1</ele>
        <time>2020-02-27T14:51:02.000Z</time>
      </trkpt>
      <trkpt lat="44.7621" lon="5.89236">
        <ele>845.1</ele>
        <time>2020-02-27T14:51:01.000Z</time>
      </trkpt>
      <trkpt lat="44.76211" lon="5.89237">
        <ele>845.1</ele>
        <time>2020-02-27T14:51:00.000Z</time>
      </trkpt>
      <trkpt lat="44.76213" lon="5.89239">
        <ele>845.1</ele>
        <time>2020-02-27T14:50:59.000Z</time>
      </trkpt>
      <trkpt lat="44.76214" lon="5.89241">
        <ele>845.1</ele>
        <time>2020-02-27T14:50:58.000Z</time>
      </trkpt>
      <trkpt lat="44.76213" lon="5.89243">
        <ele>845</ele>
        <time>2020-02-27T14:50:57.000Z</time>
      </trkpt>
      <trkpt lat="44.76214" lon="5.89245">
        <ele>845</ele>
        <time>2020-02-27T14:50:56.000Z</time>
      </trkpt>
      <trkpt lat="44.76215" lon="5.89248">
        <ele>845</ele>
        <time>2020-02-27T14:50:55.000Z</time>
      </trkpt>
      <trkpt lat="44.76215" lon="5.8925">
        <ele>845</ele>
        <time>2020-02-27T14:50:54.000Z</time>
      </trkpt>
      <trkpt lat="44.76215" lon="5.89252">
        <ele>845</ele>
        <time>2020-02-27T14:50:53.000Z</time>
      </trkpt>
      <trkpt lat="44.76215" lon="5.89253">
        <ele>844.9</ele>
        <time>2020-02-27T14:50:52.000Z</time>
      </trkpt>
      <trkpt lat="44.76216" lon="5.89254">
        <ele>844.9</ele>
        <time>2020-02-27T14:50:51.000Z</time>
      </trkpt>
      <trkpt lat="44.76215" lon="5.89256">
        <ele>844.9</ele>
        <time>2020-02-27T14:50:50.000Z</time>
      </trkpt>
      <trkpt lat="44.76215" lon="5.89257">
        <ele>844.9</ele>
        <time>2020-02-27T14:50:49.000Z</time>
      </trkpt>
      <trkpt lat="44.76215" lon="5.89259">
        <ele>844.8</ele>
        <time>2020-02-27T14:50:48.000Z</time>
      </trkpt>
      <trkpt lat="44.76216" lon="5.89261">
        <ele>844.8</ele>
        <time>2020-02-27T14:50:47.000Z</time>
      </trkpt>
      <trkpt lat="44.76216" lon="5.89262">
        <ele>844.8</ele>
        <time>2020-02-27T14:50:46.000Z</time>
      </trkpt>
      <trkpt lat="44.76216" lon="5.89264">
        <ele>844.8</ele>
        <time>2020-02-27T14:50:45.000Z</time>
      </trkpt>
      <trkpt lat="44.76217" lon="5.89268">
        <ele>844.8</ele>
        <time>2020-02-27T14:50:44.000Z</time>
      </trkpt>
      <trkpt lat="44.76217" lon="5.89268">
        <ele>844.7</ele>
        <time>2020-02-27T14:50:43.000Z</time>
      </trkpt>
      <trkpt lat="44.76217" lon="5.89268">
        <ele>844.7</ele>
        <time>2020-02-27T14:50:42.000Z</time>
      </trkpt>
      <trkpt lat="44.76217" lon="5.89268">
        <ele>844.7</ele>
        <time>2020-02-27T14:50:41.000Z</time>
      </trkpt>
      <trkpt lat="44.76217" lon="5.89268">
        <ele>844.7</ele>
        <time>2020-02-27T14:50:40.000Z</time>
      </trkpt>
      <trkpt lat="44.76216" lon="5.89268">
        <ele>844.7</ele>
        <time>2020-02-27T14:50:39.000Z</time>
      </trkpt>
      <trkpt lat="44.76216" lon="5.89269">
        <ele>844.6</ele>
        <time>2020-02-27T14:50:38.000Z</time>
      </trkpt>
      <trkpt lat="44.76216" lon="5.8927">
        <ele>844.6</ele>
        <time>2020-02-27T14:50:37.000Z</time>
      </trkpt>
      <trkpt lat="44.76216" lon="5.89272">
        <ele>844.6</ele>
        <time>2020-02-27T14:50:36.000Z</time>
      </trkpt>
      <trkpt lat="44.76216" lon="5.89273">
        <ele>844.6</ele>
        <time>2020-02-27T14:50:35.000Z</time>
      </trkpt>
      <trkpt lat="44.76217" lon="5.89275">
        <ele>844.5</ele>
        <time>2020-02-27T14:50:34.000Z</time>
      </trkpt>
      <trkpt lat="44.76217" lon="5.89276">
        <ele>844.5</ele>
        <time>2020-02-27T14:50:33.000Z</time>
      </trkpt>
      <trkpt lat="44.76217" lon="5.89277">
        <ele>844.5</ele>
        <time>2020-02-27T14:50:32.000Z</time>
      </trkpt>
      <trkpt lat="44.76218" lon="5.89279">
        <ele>844.5</ele>
        <time>2020-02-27T14:50:31.000Z</time>
      </trkpt>
      <trkpt lat="44.76219" lon="5.89281">
        <ele>844.5</ele>
        <time>2020-02-27T14:50:30.000Z</time>
      </trkpt>
      <trkpt lat="44.76219" lon="5.89283">
        <ele>844.4</ele>
        <time>2020-02-27T14:50:29.000Z</time>
      </trkpt>
      <trkpt lat="44.76219" lon="5.89284">
        <ele>844.4</ele>
        <time>2020-02-27T14:50:28.000Z</time>
      </trkpt>
      <trkpt lat="44.76219" lon="5.89285">
        <ele>844.4</ele>
        <time>2020-02-27T14:50:27.000Z</time>
      </trkpt>
      <trkpt lat="44.7622" lon="5.89286">
        <ele>844.4</ele>
        <time>2020-02-27T14:50:26.000Z</time>
      </trkpt>
      <trkpt lat="44.7622" lon="5.89287">
        <ele>844.4</ele>
        <time>2020-02-27T14:50:25.000Z</time>
      </trkpt>
      <trkpt lat="44.7622" lon="5.89288">
        <ele>844.4</ele>
        <time>2020-02-27T14:50:24.000Z</time>
      </trkpt>
      <trkpt lat="44.7622" lon="5.89288">
        <ele>844.3</ele>
        <time>2020-02-27T14:50:23.000Z</time>
      </trkpt>
      <trkpt lat="44.76221" lon="5.89289">
        <ele>844.3</ele>
        <time>2020-02-27T14:50:22.000Z</time>
      </trkpt>
      <trkpt lat="44.76223" lon="5.89292">
        <ele>844.3</ele>
        <time>2020-02-27T14:50:21.000Z</time>
      </trkpt>
      <trkpt lat="44.76224" lon="5.89294">
        <ele>844.3</ele>
        <time>2020-02-27T14:50:20.000Z</time>
      </trkpt>
      <trkpt lat="44.76224" lon="5.89295">
        <ele>844.3</ele>
        <time>2020-02-27T14:50:19.000Z</time>
      </trkpt>
      <trkpt lat="44.76224" lon="5.89297">
        <ele>844.2</ele>
        <time>2020-02-27T14:50:18.000Z</time>
      </trkpt>
      <trkpt lat="44.76225" lon="5.89298">
        <ele>844.2</ele>
        <time>2020-02-27T14:50:17.000Z</time>
      </trkpt>
      <trkpt lat="44.76226" lon="5.89299">
        <ele>844.2</ele>
        <time>2020-02-27T14:50:16.000Z</time>
      </trkpt>
      <trkpt lat="44.76227" lon="5.89301">
        <ele>844.1</ele>
        <time>2020-02-27T14:50:15.000Z</time>
      </trkpt>
      <trkpt lat="44.76227" lon="5.89302">
        <ele>844.1</ele>
        <time>2020-02-27T14:50:14.000Z</time>
      </trkpt>
      <trkpt lat="44.76227" lon="5.89303">
        <ele>844.1</ele>
        <time>2020-02-27T14:50:13.000Z</time>
      </trkpt>
      <trkpt lat="44.76228" lon="5.89304">
        <ele>844</ele>
        <time>2020-02-27T14:50:12.000Z</time>
      </trkpt>
      <trkpt lat="44.76228" lon="5.89305">
        <ele>844</ele>
        <time>2020-02-27T14:50:11.000Z</time>
      </trkpt>
      <trkpt lat="44.76229" lon="5.89307">
        <ele>843.9</ele>
        <time>2020-02-27T14:50:10.000Z</time>
      </trkpt>
      <trkpt lat="44.7623" lon="5.89308">
        <ele>843.9</ele>
        <time>2020-02-27T14:50:09.000Z</time>
      </trkpt>
      <trkpt lat="44.7623" lon="5.89309">
        <ele>843.9</ele>
        <time>2020-02-27T14:50:08.000Z</time>
      </trkpt>
      <trkpt lat="44.76231" lon="5.8931">
        <ele>843.8</ele>
        <time>2020-02-27T14:50:07.000Z</time>
      </trkpt>
      <trkpt lat="44.76232" lon="5.89311">
        <ele>843.8</ele>
        <time>2020-02-27T14:50:06.000Z</time>
      </trkpt>
      <trkpt lat="44.76232" lon="5.89312">
        <ele>843.7</ele>
        <time>2020-02-27T14:50:05.000Z</time>
      </trkpt>
      <trkpt lat="44.76232" lon="5.89313">
        <ele>843.7</ele>
        <time>2020-02-27T14:50:04.000Z</time>
      </trkpt>
      <trkpt lat="44.76233" lon="5.89314">
        <ele>843.7</ele>
        <time>2020-02-27T14:50:03.000Z</time>
      </trkpt>
      <trkpt lat="44.76234" lon="5.89315">
        <ele>843.6</ele>
        <time>2020-02-27T14:50:02.000Z</time>
      </trkpt>
      <trkpt lat="44.76234" lon="5.89317">
        <ele>843.6</ele>
        <time>2020-02-27T14:50:01.000Z</time>
      </trkpt>
      <trkpt lat="44.76235" lon="5.89318">
        <ele>843.5</ele>
        <time>2020-02-27T14:50:00.000Z</time>
      </trkpt>
      <trkpt lat="44.76235" lon="5.89319">
        <ele>843.4</ele>
        <time>2020-02-27T14:49:59.000Z</time>
      </trkpt>
      <trkpt lat="44.76235" lon="5.8932">
        <ele>843.4</ele>
        <time>2020-02-27T14:49:58.000Z</time>
      </trkpt>
      <trkpt lat="44.76235" lon="5.89322">
        <ele>843.3</ele>
        <time>2020-02-27T14:49:57.000Z</time>
      </trkpt>
      <trkpt lat="44.76237" lon="5.89324">
        <ele>843.2</ele>
        <time>2020-02-27T14:49:56.000Z</time>
      </trkpt>
      <trkpt lat="44.76238" lon="5.89325">
        <ele>843.2</ele>
        <time>2020-02-27T14:49:55.000Z</time>
      </trkpt>
      <trkpt lat="44.76239" lon="5.89326">
        <ele>843.1</ele>
        <time>2020-02-27T14:49:54.000Z</time>
      </trkpt>
      <trkpt lat="44.7624" lon="5.89327">
        <ele>843</ele>
        <time>2020-02-27T14:49:53.000Z</time>
      </trkpt>
      <trkpt lat="44.7624" lon="5.89329">
        <ele>842.9</ele>
        <time>2020-02-27T14:49:52.000Z</time>
      </trkpt>
      <trkpt lat="44.7624" lon="5.8933">
        <ele>842.9</ele>
        <time>2020-02-27T14:49:51.000Z</time>
      </trkpt>
      <trkpt lat="44.76242" lon="5.89332">
        <ele>842.8</ele>
        <time>2020-02-27T14:49:50.000Z</time>
      </trkpt>
      <trkpt lat="44.76242" lon="5.89334">
        <ele>842.8</ele>
        <time>2020-02-27T14:49:49.000Z</time>
      </trkpt>
      <trkpt lat="44.76243" lon="5.89335">
        <ele>842.7</ele>
        <time>2020-02-27T14:49:48.000Z</time>
      </trkpt>
      <trkpt lat="44.76244" lon="5.89337">
        <ele>842.6</ele>
        <time>2020-02-27T14:49:47.000Z</time>
      </trkpt>
      <trkpt lat="44.76244" lon="5.89339">
        <ele>842.5</ele>
        <time>2020-02-27T14:49:46.000Z</time>
      </trkpt>
      <trkpt lat="44.76244" lon="5.89341">
        <ele>842.4</ele>
        <time>2020-02-27T14:49:45.000Z</time>
      </trkpt>
      <trkpt lat="44.76244" lon="5.89343">
        <ele>842.3</ele>
        <time>2020-02-27T14:49:44.000Z</time>
      </trkpt>
      <trkpt lat="44.76244" lon="5.89344">
        <ele>842.2</ele>
        <time>2020-02-27T14:49:43.000Z</time>
      </trkpt>
      <trkpt lat="44.76244" lon="5.89346">
        <ele>842.1</ele>
        <time>2020-02-27T14:49:42.000Z</time>
      </trkpt>
      <trkpt lat="44.76244" lon="5.89347">
        <ele>842</ele>
        <time>2020-02-27T14:49:41.000Z</time>
      </trkpt>
      <trkpt lat="44.76244" lon="5.89348">
        <ele>841.9</ele>
        <time>2020-02-27T14:49:40.000Z</time>
      </trkpt>
      <trkpt lat="44.76244" lon="5.8935">
        <ele>841.8</ele>
        <time>2020-02-27T14:49:39.000Z</time>
      </trkpt>
      <trkpt lat="44.76244" lon="5.89352">
        <ele>841.7</ele>
        <time>2020-02-27T14:49:38.000Z</time>
      </trkpt>
      <trkpt lat="44.76244" lon="5.89353">
        <ele>841.6</ele>
        <time>2020-02-27T14:49:37.000Z</time>
      </trkpt>
      <trkpt lat="44.76244" lon="5.89355">
        <ele>841.5</ele>
        <time>2020-02-27T14:49:36.000Z</time>
      </trkpt>
      <trkpt lat="44.76244" lon="5.89356">
        <ele>841.4</ele>
        <time>2020-02-27T14:49:35.000Z</time>
      </trkpt>
      <trkpt lat="44.76245" lon="5.89358">
        <ele>841.2</ele>
        <time>2020-02-27T14:49:34.000Z</time>
      </trkpt>
      <trkpt lat="44.76245" lon="5.89359">
        <ele>841.1</ele>
        <time>2020-02-27T14:49:33.000Z</time>
      </trkpt>
      <trkpt lat="44.76246" lon="5.89361">
        <ele>841</ele>
        <time>2020-02-27T14:49:32.000Z</time>
      </trkpt>
      <trkpt lat="44.76246" lon="5.89363">
        <ele>840.8</ele>
        <time>2020-02-27T14:49:31.000Z</time>
      </trkpt>
      <trkpt lat="44.76247" lon="5.89364">
        <ele>840.7</ele>
        <time>2020-02-27T14:49:30.000Z</time>
      </trkpt>
      <trkpt lat="44.76248" lon="5.89366">
        <ele>840.5</ele>
        <time>2020-02-27T14:49:29.000Z</time>
      </trkpt>
      <trkpt lat="44.76248" lon="5.89368">
        <ele>840.4</ele>
        <time>2020-02-27T14:49:28.000Z</time>
      </trkpt>
      <trkpt lat="44.76248" lon="5.89369">
        <ele>840.2</ele>
        <time>2020-02-27T14:49:27.000Z</time>
      </trkpt>
      <trkpt lat="44.76249" lon="5.8937">
        <ele>840</ele>
        <time>2020-02-27T14:49:26.000Z</time>
      </trkpt>
      <trkpt lat="44.7625" lon="5.89371">
        <ele>839.8</ele>
        <time>2020-02-27T14:49:25.000Z</time>
      </trkpt>
      <trkpt lat="44.7625" lon="5.89371">
        <ele>839.7</ele>
        <time>2020-02-27T14:49:24.000Z</time>
      </trkpt>
      <trkpt lat="44.76251" lon="5.8937">
        <ele>839.6</ele>
        <time>2020-02-27T14:49:23.000Z</time>
      </trkpt>
      <trkpt lat="44.76251" lon="5.89369">
        <ele>839.4</ele>
        <time>2020-02-27T14:49:22.000Z</time>
      </trkpt>
      <trkpt lat="44.76252" lon="5.89368">
        <ele>839.3</ele>
        <time>2020-02-27T14:49:21.000Z</time>
      </trkpt>
      <trkpt lat="44.76253" lon="5.89367">
        <ele>839.2</ele>
        <time>2020-02-27T14:49:20.000Z</time>
      </trkpt>
      <trkpt lat="44.76254" lon="5.89366">
        <ele>839</ele>
        <time>2020-02-27T14:49:19.000Z</time>
      </trkpt>
      <trkpt lat="44.76256" lon="5.89364">
        <ele>838.9</ele>
        <time>2020-02-27T14:49:18.000Z</time>
      </trkpt>
      <trkpt lat="44.76257" lon="5.89362">
        <ele>838.9</ele>
        <time>2020-02-27T14:49:17.000Z</time>
      </trkpt>
      <trkpt lat="44.76257" lon="5.8936">
        <ele>838.8</ele>
        <time>2020-02-27T14:49:16.000Z</time>
      </trkpt>
      <trkpt lat="44.76258" lon="5.89359">
        <ele>838.7</ele>
        <time>2020-02-27T14:49:15.000Z</time>
      </trkpt>
      <trkpt lat="44.76258" lon="5.89357">
        <ele>838.6</ele>
        <time>2020-02-27T14:49:14.000Z</time>
      </trkpt>
      <trkpt lat="44.76258" lon="5.89356">
        <ele>838.6</ele>
        <time>2020-02-27T14:49:13.000Z</time>
      </trkpt>
      <trkpt lat="44.76259" lon="5.89355">
        <ele>838.5</ele>
        <time>2020-02-27T14:49:12.000Z</time>
      </trkpt>
      <trkpt lat="44.7626" lon="5.89353">
        <ele>838.4</ele>
        <time>2020-02-27T14:49:11.000Z</time>
      </trkpt>
      <trkpt lat="44.7626" lon="5.89352">
        <ele>838.3</ele>
        <time>2020-02-27T14:49:10.000Z</time>
      </trkpt>
      <trkpt lat="44.76261" lon="5.89351">
        <ele>838.3</ele>
        <time>2020-02-27T14:49:09.000Z</time>
      </trkpt>
      <trkpt lat="44.76261" lon="5.8935">
        <ele>838.2</ele>
        <time>2020-02-27T14:49:08.000Z</time>
      </trkpt>
      <trkpt lat="44.76262" lon="5.89348">
        <ele>838.1</ele>
        <time>2020-02-27T14:49:07.000Z</time>
      </trkpt>
      <trkpt lat="44.76263" lon="5.89347">
        <ele>838.1</ele>
        <time>2020-02-27T14:49:06.000Z</time>
      </trkpt>
      <trkpt lat="44.76263" lon="5.89345">
        <ele>838</ele>
        <time>2020-02-27T14:49:05.000Z</time>
      </trkpt>
      <trkpt lat="44.76264" lon="5.89344">
        <ele>838</ele>
        <time>2020-02-27T14:49:04.000Z</time>
      </trkpt>
      <trkpt lat="44.76264" lon="5.89344">
        <ele>837.9</ele>
        <time>2020-02-27T14:49:03.000Z</time>
      </trkpt>
      <trkpt lat="44.76264" lon="5.89343">
        <ele>837.8</ele>
        <time>2020-02-27T14:49:02.000Z</time>
      </trkpt>
      <trkpt lat="44.76264" lon="5.89342">
        <ele>837.8</ele>
        <time>2020-02-27T14:49:01.000Z</time>
      </trkpt>
      <trkpt lat="44.76265" lon="5.8934">
        <ele>837.7</ele>
        <time>2020-02-27T14:49:00.000Z</time>
      </trkpt>
      <trkpt lat="44.76266" lon="5.89339">
        <ele>837.7</ele>
        <time>2020-02-27T14:48:59.000Z</time>
      </trkpt>
      <trkpt lat="44.76266" lon="5.89338">
        <ele>837.6</ele>
        <time>2020-02-27T14:48:58.000Z</time>
      </trkpt>
      <trkpt lat="44.76267" lon="5.89337">
        <ele>837.6</ele>
        <time>2020-02-27T14:48:57.000Z</time>
      </trkpt>
      <trkpt lat="44.76268" lon="5.89335">
        <ele>837.5</ele>
        <time>2020-02-27T14:48:56.000Z</time>
      </trkpt>
      <trkpt lat="44.76268" lon="5.89334">
        <ele>837.4</ele>
        <time>2020-02-27T14:48:55.000Z</time>
      </trkpt>
      <trkpt lat="44.76269" lon="5.89333">
        <ele>837.4</ele>
        <time>2020-02-27T14:48:54.000Z</time>
      </trkpt>
      <trkpt lat="44.7627" lon="5.89332">
        <ele>837.3</ele>
        <time>2020-02-27T14:48:53.000Z</time>
      </trkpt>
      <trkpt lat="44.7627" lon="5.89331">
        <ele>837.2</ele>
        <time>2020-02-27T14:48:52.000Z</time>
      </trkpt>
      <trkpt lat="44.76271" lon="5.8933">
        <ele>837.2</ele>
        <time>2020-02-27T14:48:51.000Z</time>
      </trkpt>
      <trkpt lat="44.76272" lon="5.8933">
        <ele>837.1</ele>
        <time>2020-02-27T14:48:50.000Z</time>
      </trkpt>
      <trkpt lat="44.76272" lon="5.89329">
        <ele>837.1</ele>
        <time>2020-02-27T14:48:49.000Z</time>
      </trkpt>
      <trkpt lat="44.76274" lon="5.89329">
        <ele>837</ele>
        <time>2020-02-27T14:48:48.000Z</time>
      </trkpt>
      <trkpt lat="44.76274" lon="5.89328">
        <ele>836.9</ele>
        <time>2020-02-27T14:48:47.000Z</time>
      </trkpt>
      <trkpt lat="44.76275" lon="5.89329">
        <ele>836.9</ele>
        <time>2020-02-27T14:48:46.000Z</time>
      </trkpt>
      <trkpt lat="44.76276" lon="5.89329">
        <ele>836.8</ele>
        <time>2020-02-27T14:48:45.000Z</time>
      </trkpt>
      <trkpt lat="44.76277" lon="5.89329">
        <ele>836.8</ele>
        <time>2020-02-27T14:48:44.000Z</time>
      </trkpt>
      <trkpt lat="44.76277" lon="5.89329">
        <ele>836.7</ele>
        <time>2020-02-27T14:48:43.000Z</time>
      </trkpt>
      <trkpt lat="44.76278" lon="5.8933">
        <ele>836.7</ele>
        <time>2020-02-27T14:48:42.000Z</time>
      </trkpt>
      <trkpt lat="44.76279" lon="5.8933">
        <ele>836.7</ele>
        <time>2020-02-27T14:48:41.000Z</time>
      </trkpt>
      <trkpt lat="44.7628" lon="5.8933">
        <ele>836.7</ele>
        <time>2020-02-27T14:48:40.000Z</time>
      </trkpt>
      <trkpt lat="44.76281" lon="5.8933">
        <ele>836.6</ele>
        <time>2020-02-27T14:48:39.000Z</time>
      </trkpt>
      <trkpt lat="44.76282" lon="5.8933">
        <ele>836.6</ele>
        <time>2020-02-27T14:48:38.000Z</time>
      </trkpt>
      <trkpt lat="44.76283" lon="5.8933">
        <ele>836.6</ele>
        <time>2020-02-27T14:48:37.000Z</time>
      </trkpt>
      <trkpt lat="44.76285" lon="5.8933">
        <ele>836.6</ele>
        <time>2020-02-27T14:48:36.000Z</time>
      </trkpt>
      <trkpt lat="44.76286" lon="5.89331">
        <ele>836.6</ele>
        <time>2020-02-27T14:48:35.000Z</time>
      </trkpt>
      <trkpt lat="44.76287" lon="5.89332">
        <ele>836.5</ele>
        <time>2020-02-27T14:48:34.000Z</time>
      </trkpt>
      <trkpt lat="44.7629" lon="5.89333">
        <ele>836.5</ele>
        <time>2020-02-27T14:48:33.000Z</time>
      </trkpt>
      <trkpt lat="44.76291" lon="5.89333">
        <ele>836.5</ele>
        <time>2020-02-27T14:48:32.000Z</time>
      </trkpt>
      <trkpt lat="44.76293" lon="5.89332">
        <ele>836.5</ele>
        <time>2020-02-27T14:48:31.000Z</time>
      </trkpt>
      <trkpt lat="44.76294" lon="5.89332">
        <ele>836.4</ele>
        <time>2020-02-27T14:48:30.000Z</time>
      </trkpt>
      <trkpt lat="44.76295" lon="5.89333">
        <ele>836.4</ele>
        <time>2020-02-27T14:48:29.000Z</time>
      </trkpt>
      <trkpt lat="44.76295" lon="5.89333">
        <ele>836.4</ele>
        <time>2020-02-27T14:48:28.000Z</time>
      </trkpt>
      <trkpt lat="44.76298" lon="5.89334">
        <ele>836.4</ele>
        <time>2020-02-27T14:48:27.000Z</time>
      </trkpt>
      <trkpt lat="44.76298" lon="5.89334">
        <ele>836.3</ele>
        <time>2020-02-27T14:48:26.000Z</time>
      </trkpt>
      <trkpt lat="44.76298" lon="5.89334">
        <ele>836.3</ele>
        <time>2020-02-27T14:48:25.000Z</time>
      </trkpt>
      <trkpt lat="44.76298" lon="5.89334">
        <ele>836.3</ele>
        <time>2020-02-27T14:48:24.000Z</time>
      </trkpt>
      <trkpt lat="44.76298" lon="5.89335">
        <ele>836.3</ele>
        <time>2020-02-27T14:48:23.000Z</time>
      </trkpt>
      <trkpt lat="44.76298" lon="5.89335">
        <ele>836.3</ele>
        <time>2020-02-27T14:48:22.000Z</time>
      </trkpt>
      <trkpt lat="44.76298" lon="5.89335">
        <ele>836.3</ele>
        <time>2020-02-27T14:48:21.000Z</time>
      </trkpt>
      <trkpt lat="44.76297" lon="5.89336">
        <ele>836.2</ele>
        <time>2020-02-27T14:48:20.000Z</time>
      </trkpt>
      <trkpt lat="44.76296" lon="5.89337">
        <ele>836.2</ele>
        <time>2020-02-27T14:48:19.000Z</time>
      </trkpt>
      <trkpt lat="44.76296" lon="5.89337">
        <ele>836.2</ele>
        <time>2020-02-27T14:48:18.000Z</time>
      </trkpt>
      <trkpt lat="44.76296" lon="5.89337">
        <ele>836.2</ele>
        <time>2020-02-27T14:48:17.000Z</time>
      </trkpt>
      <trkpt lat="44.76296" lon="5.89337">
        <ele>836.2</ele>
        <time>2020-02-27T14:48:16.000Z</time>
      </trkpt>
      <trkpt lat="44.76296" lon="5.89337">
        <ele>836.2</ele>
        <time>2020-02-27T14:48:15.000Z</time>
      </trkpt>
      <trkpt lat="44.76296" lon="5.89337">
        <ele>836.2</ele>
        <time>2020-02-27T14:48:14.000Z</time>
      </trkpt>
      <trkpt lat="44.76296" lon="5.89337">
        <ele>836.2</ele>
        <time>2020-02-27T14:48:13.000Z</time>
      </trkpt>
      <trkpt lat="44.76296" lon="5.89337">
        <ele>836.1</ele>
        <time>2020-02-27T14:48:12.000Z</time>
      </trkpt>
      <trkpt lat="44.76296" lon="5.89337">
        <ele>836.1</ele>
        <time>2020-02-27T14:48:11.000Z</time>
      </trkpt>
      <trkpt lat="44.76296" lon="5.89337">
        <ele>836.1</ele>
        <time>2020-02-27T14:48:10.000Z</time>
      </trkpt>
      <trkpt lat="44.76296" lon="5.89337">
        <ele>836.1</ele>
        <time>2020-02-27T14:48:09.000Z</time>
      </trkpt>
      <trkpt lat="44.76296" lon="5.89337">
        <ele>836.1</ele>
        <time>2020-02-27T14:48:08.000Z</time>
      </trkpt>
      <trkpt lat="44.76296" lon="5.89337">
        <ele>836</ele>
        <time>2020-02-27T14:48:07.000Z</time>
      </trkpt>
      <trkpt lat="44.76296" lon="5.89337">
        <ele>836</ele>
        <time>2020-02-27T14:48:06.000Z</time>
      </trkpt>
      <trkpt lat="44.76296" lon="5.89337">
        <ele>836</ele>
        <time>2020-02-27T14:48:05.000Z</time>
      </trkpt>
      <trkpt lat="44.76296" lon="5.89337">
        <ele>836</ele>
        <time>2020-02-27T14:48:04.000Z</time>
      </trkpt>
      <trkpt lat="44.76296" lon="5.89337">
        <ele>836</ele>
        <time>2020-02-27T14:48:03.000Z</time>
      </trkpt>
      <trkpt lat="44.76296" lon="5.89337">
        <ele>836</ele>
        <time>2020-02-27T14:48:02.000Z</time>
      </trkpt>
      <trkpt lat="44.76296" lon="5.89337">
        <ele>836</ele>
        <time>2020-02-27T14:48:01.000Z</time>
      </trkpt>
      <trkpt lat="44.76296" lon="5.89337">
        <ele>836</ele>
        <time>2020-02-27T14:48:00.000Z</time>
      </trkpt>
      <trkpt lat="44.76296" lon="5.89337">
        <ele>836</ele>
        <time>2020-02-27T14:47:59.000Z</time>
      </trkpt>
      <trkpt lat="44.76296" lon="5.89337">
        <ele>836.1</ele>
        <time>2020-02-27T14:47:58.000Z</time>
      </trkpt>
      <trkpt lat="44.76296" lon="5.89337">
        <ele>836.1</ele>
        <time>2020-02-27T14:47:57.000Z</time>
      </trkpt>
      <trkpt lat="44.76296" lon="5.89337">
        <ele>836.1</ele>
        <time>2020-02-27T14:47:56.000Z</time>
      </trkpt>
      <trkpt lat="44.76296" lon="5.89337">
        <ele>836.1</ele>
        <time>2020-02-27T14:47:55.000Z</time>
      </trkpt>
      <trkpt lat="44.76296" lon="5.89337">
        <ele>836.1</ele>
        <time>2020-02-27T14:47:54.000Z</time>
      </trkpt>
      <trkpt lat="44.76296" lon="5.89337">
        <ele>836.1</ele>
        <time>2020-02-27T14:47:53.000Z</time>
      </trkpt>
      <trkpt lat="44.76296" lon="5.89337">
        <ele>836.2</ele>
        <time>2020-02-27T14:47:52.000Z</time>
      </trkpt>
      <trkpt lat="44.76296" lon="5.89337">
        <ele>836.2</ele>
        <time>2020-02-27T14:47:51.000Z</time>
      </trkpt>
      <trkpt lat="44.76296" lon="5.89337">
        <ele>836.2</ele>
        <time>2020-02-27T14:47:50.000Z</time>
      </trkpt>
      <trkpt lat="44.76296" lon="5.89337">
        <ele>836.2</ele>
        <time>2020-02-27T14:47:49.000Z</time>
      </trkpt>
      <trkpt lat="44.76296" lon="5.89337">
        <ele>836.2</ele>
        <time>2020-02-27T14:47:48.000Z</time>
      </trkpt>
      <trkpt lat="44.76296" lon="5.89337">
        <ele>836.3</ele>
        <time>2020-02-27T14:47:47.000Z</time>
      </trkpt>
      <trkpt lat="44.76296" lon="5.89337">
        <ele>836.3</ele>
        <time>2020-02-27T14:47:46.000Z</time>
      </trkpt>
      <trkpt lat="44.76296" lon="5.89337">
        <ele>836.3</ele>
        <time>2020-02-27T14:47:45.000Z</time>
      </trkpt>
      <trkpt lat="44.76296" lon="5.89337">
        <ele>836.4</ele>
        <time>2020-02-27T14:47:44.000Z</time>
      </trkpt>
      <trkpt lat="44.76295" lon="5.89337">
        <ele>836.4</ele>
        <time>2020-02-27T14:47:43.000Z</time>
      </trkpt>
      <trkpt lat="44.76295" lon="5.89336">
        <ele>836.4</ele>
        <time>2020-02-27T14:47:42.000Z</time>
      </trkpt>
      <trkpt lat="44.76295" lon="5.89336">
        <ele>836.5</ele>
        <time>2020-02-27T14:47:41.000Z</time>
      </trkpt>
      <trkpt lat="44.76294" lon="5.89336">
        <ele>836.5</ele>
        <time>2020-02-27T14:47:40.000Z</time>
      </trkpt>
      <trkpt lat="44.76293" lon="5.89336">
        <ele>836.5</ele>
        <time>2020-02-27T14:47:39.000Z</time>
      </trkpt>
      <trkpt lat="44.76292" lon="5.89336">
        <ele>836.6</ele>
        <time>2020-02-27T14:47:38.000Z</time>
      </trkpt>
      <trkpt lat="44.76291" lon="5.89336">
        <ele>836.6</ele>
        <time>2020-02-27T14:47:37.000Z</time>
      </trkpt>
      <trkpt lat="44.7629" lon="5.89336">
        <ele>836.7</ele>
        <time>2020-02-27T14:47:36.000Z</time>
      </trkpt>
      <trkpt lat="44.76289" lon="5.89336">
        <ele>836.7</ele>
        <time>2020-02-27T14:47:35.000Z</time>
      </trkpt>
      <trkpt lat="44.76276" lon="5.89394">
        <ele>858.3</ele>
      </trkpt>
      <trkpt lat="44.76302" lon="5.8949">
        <ele>860.3</ele>
      </trkpt>
      <trkpt lat="44.7633" lon="5.89518">
        <ele>862.2</ele>
      </trkpt>
      <trkpt lat="44.76384" lon="5.89537">
        <ele>853.9</ele>
      </trkpt>
      <trkpt lat="44.76407" lon="5.89532">
        <ele>853.4</ele>
      </trkpt>
      <trkpt lat="44.76445" lon="5.89567">
        <ele>854</ele>
      </trkpt>
      <trkpt lat="44.7646" lon="5.89582">
        <ele>854.3</ele>
      </trkpt>
      <trkpt lat="44.76478" lon="5.89611">
        <ele>851.6</ele>
      </trkpt>
      <trkpt lat="44.76493" lon="5.89643">
        <ele>849.8</ele>
      </trkpt>
      <trkpt lat="44.76504" lon="5.89724">
        <ele>826.6</ele>
        <time>2020-02-27T14:38:01.000Z</time>
      </trkpt>
      <trkpt lat="44.76505" lon="5.89725">
        <ele>826.6</ele>
        <time>2020-02-27T14:38:00.000Z</time>
      </trkpt>
      <trkpt lat="44.76505" lon="5.89727">
        <ele>826.5</ele>
        <time>2020-02-27T14:37:59.000Z</time>
      </trkpt>
      <trkpt lat="44.76505" lon="5.89729">
        <ele>826.5</ele>
        <time>2020-02-27T14:37:58.000Z</time>
      </trkpt>
      <trkpt lat="44.76507" lon="5.89729">
        <ele>826.4</ele>
        <time>2020-02-27T14:37:57.000Z</time>
      </trkpt>
      <trkpt lat="44.76508" lon="5.8973">
        <ele>826.3</ele>
        <time>2020-02-27T14:37:56.000Z</time>
      </trkpt>
      <trkpt lat="44.76508" lon="5.89731">
        <ele>826.3</ele>
        <time>2020-02-27T14:37:55.000Z</time>
      </trkpt>
      <trkpt lat="44.76509" lon="5.89733">
        <ele>826.2</ele>
        <time>2020-02-27T14:37:54.000Z</time>
      </trkpt>
      <trkpt lat="44.76509" lon="5.89734">
        <ele>826.1</ele>
        <time>2020-02-27T14:37:53.000Z</time>
      </trkpt>
      <trkpt lat="44.76509" lon="5.89736">
        <ele>826.1</ele>
        <time>2020-02-27T14:37:52.000Z</time>
      </trkpt>
      <trkpt lat="44.76509" lon="5.89737">
        <ele>826</ele>
        <time>2020-02-27T14:37:51.000Z</time>
      </trkpt>
      <trkpt lat="44.7651" lon="5.89738">
        <ele>826</ele>
        <time>2020-02-27T14:37:50.000Z</time>
      </trkpt>
      <trkpt lat="44.7651" lon="5.89739">
        <ele>825.9</ele>
        <time>2020-02-27T14:37:49.000Z</time>
      </trkpt>
      <trkpt lat="44.7651" lon="5.8974">
        <ele>825.9</ele>
        <time>2020-02-27T14:37:48.000Z</time>
      </trkpt>
      <trkpt lat="44.76511" lon="5.89742">
        <ele>825.8</ele>
        <time>2020-02-27T14:37:47.000Z</time>
      </trkpt>
      <trkpt lat="44.76511" lon="5.89743">
        <ele>825.8</ele>
        <time>2020-02-27T14:37:46.000Z</time>
      </trkpt>
      <trkpt lat="44.76512" lon="5.89745">
        <ele>825.7</ele>
        <time>2020-02-27T14:37:45.000Z</time>
      </trkpt>
      <trkpt lat="44.76512" lon="5.89747">
        <ele>825.7</ele>
        <time>2020-02-27T14:37:44.000Z</time>
      </trkpt>
      <trkpt lat="44.76512" lon="5.89748">
        <ele>825.6</ele>
        <time>2020-02-27T14:37:43.000Z</time>
      </trkpt>
      <trkpt lat="44.76512" lon="5.89749">
        <ele>825.6</ele>
        <time>2020-02-27T14:37:42.000Z</time>
      </trkpt>
      <trkpt lat="44.76513" lon="5.8975">
        <ele>825.5</ele>
        <time>2020-02-27T14:37:41.000Z</time>
      </trkpt>
      <trkpt lat="44.76513" lon="5.89751">
        <ele>825.5</ele>
        <time>2020-02-27T14:37:40.000Z</time>
      </trkpt>
      <trkpt lat="44.76513" lon="5.89752">
        <ele>825.5</ele>
        <time>2020-02-27T14:37:39.000Z</time>
      </trkpt>
      <trkpt lat="44.76514" lon="5.89754">
        <ele>825.5</ele>
        <time>2020-02-27T14:37:38.000Z</time>
      </trkpt>
      <trkpt lat="44.76515" lon="5.89755">
        <ele>825.4</ele>
        <time>2020-02-27T14:37:37.000Z</time>
      </trkpt>
      <trkpt lat="44.76515" lon="5.89756">
        <ele>825.4</ele>
        <time>2020-02-27T14:37:36.000Z</time>
      </trkpt>
      <trkpt lat="44.76515" lon="5.89757">
        <ele>825.4</ele>
        <time>2020-02-27T14:37:35.000Z</time>
      </trkpt>
      <trkpt lat="44.76516" lon="5.89759">
        <ele>825.3</ele>
        <time>2020-02-27T14:37:34.000Z</time>
      </trkpt>
      <trkpt lat="44.76516" lon="5.89761">
        <ele>825.3</ele>
        <time>2020-02-27T14:37:33.000Z</time>
      </trkpt>
      <trkpt lat="44.76517" lon="5.89763">
        <ele>825.3</ele>
        <time>2020-02-27T14:37:32.000Z</time>
      </trkpt>
      <trkpt lat="44.76518" lon="5.89764">
        <ele>825.2</ele>
        <time>2020-02-27T14:37:31.000Z</time>
      </trkpt>
      <trkpt lat="44.76519" lon="5.89765">
        <ele>825.2</ele>
        <time>2020-02-27T14:37:30.000Z</time>
      </trkpt>
      <trkpt lat="44.7652" lon="5.89765">
        <ele>825.2</ele>
        <time>2020-02-27T14:37:29.000Z</time>
      </trkpt>
      <trkpt lat="44.76521" lon="5.89766">
        <ele>825.2</ele>
        <time>2020-02-27T14:37:28.000Z</time>
      </trkpt>
      <trkpt lat="44.76522" lon="5.8977">
        <ele>825.1</ele>
        <time>2020-02-27T14:37:27.000Z</time>
      </trkpt>
      <trkpt lat="44.76524" lon="5.89772">
        <ele>825.1</ele>
        <time>2020-02-27T14:37:26.000Z</time>
      </trkpt>
      <trkpt lat="44.76525" lon="5.89774">
        <ele>825.1</ele>
        <time>2020-02-27T14:37:25.000Z</time>
      </trkpt>
      <trkpt lat="44.76525" lon="5.89775">
        <ele>825</ele>
        <time>2020-02-27T14:37:24.000Z</time>
      </trkpt>
      <trkpt lat="44.76526" lon="5.89776">
        <ele>825</ele>
        <time>2020-02-27T14:37:23.000Z</time>
      </trkpt>
      <trkpt lat="44.76527" lon="5.89777">
        <ele>825</ele>
        <time>2020-02-27T14:37:22.000Z</time>
      </trkpt>
      <trkpt lat="44.76528" lon="5.89778">
        <ele>824.9</ele>
        <time>2020-02-27T14:37:21.000Z</time>
      </trkpt>
      <trkpt lat="44.76529" lon="5.8978">
        <ele>824.9</ele>
        <time>2020-02-27T14:37:20.000Z</time>
      </trkpt>
      <trkpt lat="44.7653" lon="5.89782">
        <ele>824.8</ele>
        <time>2020-02-27T14:37:19.000Z</time>
      </trkpt>
      <trkpt lat="44.7653" lon="5.89783">
        <ele>824.8</ele>
        <time>2020-02-27T14:37:18.000Z</time>
      </trkpt>
      <trkpt lat="44.76531" lon="5.89785">
        <ele>824.7</ele>
        <time>2020-02-27T14:37:17.000Z</time>
      </trkpt>
      <trkpt lat="44.76532" lon="5.89785">
        <ele>824.6</ele>
        <time>2020-02-27T14:37:16.000Z</time>
      </trkpt>
      <trkpt lat="44.76533" lon="5.89787">
        <ele>824.6</ele>
        <time>2020-02-27T14:37:15.000Z</time>
      </trkpt>
      <trkpt lat="44.76533" lon="5.89788">
        <ele>824.5</ele>
        <time>2020-02-27T14:37:14.000Z</time>
      </trkpt>
      <trkpt lat="44.76534" lon="5.8979">
        <ele>824.5</ele>
        <time>2020-02-27T14:37:13.000Z</time>
      </trkpt>
      <trkpt lat="44.76535" lon="5.89792">
        <ele>824.5</ele>
        <time>2020-02-27T14:37:12.000Z</time>
      </trkpt>
      <trkpt lat="44.76536" lon="5.89794">
        <ele>824.4</ele>
        <time>2020-02-27T14:37:11.000Z</time>
      </trkpt>
      <trkpt lat="44.76537" lon="5.89795">
        <ele>824.4</ele>
        <time>2020-02-27T14:37:10.000Z</time>
      </trkpt>
      <trkpt lat="44.76537" lon="5.89796">
        <ele>824.4</ele>
        <time>2020-02-27T14:37:09.000Z</time>
      </trkpt>
      <trkpt lat="44.76538" lon="5.89797">
        <ele>824.3</ele>
        <time>2020-02-27T14:37:08.000Z</time>
      </trkpt>
      <trkpt lat="44.76538" lon="5.89799">
        <ele>824.3</ele>
        <time>2020-02-27T14:37:07.000Z</time>
      </trkpt>
      <trkpt lat="44.76538" lon="5.898">
        <ele>824.3</ele>
        <time>2020-02-27T14:37:06.000Z</time>
      </trkpt>
      <trkpt lat="44.76538" lon="5.89801">
        <ele>824.3</ele>
        <time>2020-02-27T14:37:05.000Z</time>
      </trkpt>
      <trkpt lat="44.76539" lon="5.89802">
        <ele>824.3</ele>
        <time>2020-02-27T14:37:04.000Z</time>
      </trkpt>
      <trkpt lat="44.7654" lon="5.89805">
        <ele>824.3</ele>
        <time>2020-02-27T14:37:03.000Z</time>
      </trkpt>
      <trkpt lat="44.76541" lon="5.89807">
        <ele>824.3</ele>
        <time>2020-02-27T14:37:02.000Z</time>
      </trkpt>
      <trkpt lat="44.76541" lon="5.89808">
        <ele>824.3</ele>
        <time>2020-02-27T14:37:01.000Z</time>
      </trkpt>
      <trkpt lat="44.76542" lon="5.89809">
        <ele>824.2</ele>
        <time>2020-02-27T14:37:00.000Z</time>
      </trkpt>
      <trkpt lat="44.76542" lon="5.89811">
        <ele>824.2</ele>
        <time>2020-02-27T14:36:59.000Z</time>
      </trkpt>
      <trkpt lat="44.76543" lon="5.89813">
        <ele>824.2</ele>
        <time>2020-02-27T14:36:58.000Z</time>
      </trkpt>
      <trkpt lat="44.76544" lon="5.89814">
        <ele>824.2</ele>
        <time>2020-02-27T14:36:57.000Z</time>
      </trkpt>
      <trkpt lat="44.76545" lon="5.89814">
        <ele>824.2</ele>
        <time>2020-02-27T14:36:56.000Z</time>
      </trkpt>
      <trkpt lat="44.76545" lon="5.89817">
        <ele>824.2</ele>
        <time>2020-02-27T14:36:55.000Z</time>
      </trkpt>
      <trkpt lat="44.76546" lon="5.89818">
        <ele>824.1</ele>
        <time>2020-02-27T14:36:54.000Z</time>
      </trkpt>
      <trkpt lat="44.76546" lon="5.89819">
        <ele>824.1</ele>
        <time>2020-02-27T14:36:53.000Z</time>
      </trkpt>
      <trkpt lat="44.76547" lon="5.8982">
        <ele>824.1</ele>
        <time>2020-02-27T14:36:52.000Z</time>
      </trkpt>
      <trkpt lat="44.76548" lon="5.89822">
        <ele>824.1</ele>
        <time>2020-02-27T14:36:51.000Z</time>
      </trkpt>
      <trkpt lat="44.76548" lon="5.89823">
        <ele>824.1</ele>
        <time>2020-02-27T14:36:50.000Z</time>
      </trkpt>
      <trkpt lat="44.76549" lon="5.89824">
        <ele>824.1</ele>
        <time>2020-02-27T14:36:49.000Z</time>
      </trkpt>
      <trkpt lat="44.7655" lon="5.89825">
        <ele>824.1</ele>
        <time>2020-02-27T14:36:48.000Z</time>
      </trkpt>
      <trkpt lat="44.7655" lon="5.89826">
        <ele>824</ele>
        <time>2020-02-27T14:36:47.000Z</time>
      </trkpt>
      <trkpt lat="44.76551" lon="5.89827">
        <ele>824</ele>
        <time>2020-02-27T14:36:46.000Z</time>
      </trkpt>
      <trkpt lat="44.76551" lon="5.89828">
        <ele>824</ele>
        <time>2020-02-27T14:36:45.000Z</time>
      </trkpt>
      <trkpt lat="44.76552" lon="5.89829">
        <ele>824.1</ele>
        <time>2020-02-27T14:36:44.000Z</time>
      </trkpt>
      <trkpt lat="44.76552" lon="5.8983">
        <ele>824.1</ele>
        <time>2020-02-27T14:36:43.000Z</time>
      </trkpt>
      <trkpt lat="44.76553" lon="5.89831">
        <ele>824.1</ele>
        <time>2020-02-27T14:36:42.000Z</time>
      </trkpt>
      <trkpt lat="44.76553" lon="5.89832">
        <ele>824.1</ele>
        <time>2020-02-27T14:36:41.000Z</time>
      </trkpt>
      <trkpt lat="44.76554" lon="5.89833">
        <ele>824.1</ele>
        <time>2020-02-27T14:36:40.000Z</time>
      </trkpt>
      <trkpt lat="44.76554" lon="5.89834">
        <ele>824.1</ele>
        <time>2020-02-27T14:36:39.000Z</time>
      </trkpt>
      <trkpt lat="44.76555" lon="5.89836">
        <ele>824.1</ele>
        <time>2020-02-27T14:36:38.000Z</time>
      </trkpt>
      <trkpt lat="44.76556" lon="5.89837">
        <ele>824.2</ele>
        <time>2020-02-27T14:36:37.000Z</time>
      </trkpt>
      <trkpt lat="44.76557" lon="5.89838">
        <ele>824.2</ele>
        <time>2020-02-27T14:36:36.000Z</time>
      </trkpt>
      <trkpt lat="44.76557" lon="5.89839">
        <ele>824.2</ele>
        <time>2020-02-27T14:36:35.000Z</time>
      </trkpt>
      <trkpt lat="44.76558" lon="5.8984">
        <ele>824.2</ele>
        <time>2020-02-27T14:36:34.000Z</time>
      </trkpt>
      <trkpt lat="44.76559" lon="5.89841">
        <ele>824.2</ele>
        <time>2020-02-27T14:36:33.000Z</time>
      </trkpt>
      <trkpt lat="44.76559" lon="5.89842">
        <ele>824.3</ele>
        <time>2020-02-27T14:36:32.000Z</time>
      </trkpt>
      <trkpt lat="44.7656" lon="5.89843">
        <ele>824.3</ele>
        <time>2020-02-27T14:36:31.000Z</time>
      </trkpt>
      <trkpt lat="44.7656" lon="5.89845">
        <ele>824.3</ele>
        <time>2020-02-27T14:36:30.000Z</time>
      </trkpt>
      <trkpt lat="44.76561" lon="5.89846">
        <ele>824.3</ele>
        <time>2020-02-27T14:36:29.000Z</time>
      </trkpt>
      <trkpt lat="44.76562" lon="5.89848">
        <ele>824.4</ele>
        <time>2020-02-27T14:36:28.000Z</time>
      </trkpt>
      <trkpt lat="44.76563" lon="5.8985">
        <ele>824.4</ele>
        <time>2020-02-27T14:36:27.000Z</time>
      </trkpt>
      <trkpt lat="44.76564" lon="5.89851">
        <ele>824.4</ele>
        <time>2020-02-27T14:36:26.000Z</time>
      </trkpt>
      <trkpt lat="44.76565" lon="5.89853">
        <ele>824.5</ele>
        <time>2020-02-27T14:36:25.000Z</time>
      </trkpt>
      <trkpt lat="44.76565" lon="5.89855">
        <ele>824.5</ele>
        <time>2020-02-27T14:36:24.000Z</time>
      </trkpt>
      <trkpt lat="44.76566" lon="5.89857">
        <ele>824.6</ele>
        <time>2020-02-27T14:36:23.000Z</time>
      </trkpt>
      <trkpt lat="44.76568" lon="5.8986">
        <ele>824.6</ele>
        <time>2020-02-27T14:36:22.000Z</time>
      </trkpt>
      <trkpt lat="44.76569" lon="5.89862">
        <ele>824.7</ele>
        <time>2020-02-27T14:36:21.000Z</time>
      </trkpt>
      <trkpt lat="44.7657" lon="5.89864">
        <ele>824.7</ele>
        <time>2020-02-27T14:36:20.000Z</time>
      </trkpt>
      <trkpt lat="44.76571" lon="5.89866">
        <ele>824.8</ele>
        <time>2020-02-27T14:36:19.000Z</time>
      </trkpt>
      <trkpt lat="44.76572" lon="5.89867">
        <ele>824.8</ele>
        <time>2020-02-27T14:36:18.000Z</time>
      </trkpt>
      <trkpt lat="44.76573" lon="5.89868">
        <ele>824.9</ele>
        <time>2020-02-27T14:36:17.000Z</time>
      </trkpt>
      <trkpt lat="44.76573" lon="5.8987">
        <ele>825</ele>
        <time>2020-02-27T14:36:16.000Z</time>
      </trkpt>
      <trkpt lat="44.76574" lon="5.89871">
        <ele>825</ele>
        <time>2020-02-27T14:36:15.000Z</time>
      </trkpt>
      <trkpt lat="44.76574" lon="5.89873">
        <ele>825.1</ele>
        <time>2020-02-27T14:36:14.000Z</time>
      </trkpt>
      <trkpt lat="44.76575" lon="5.89875">
        <ele>825.2</ele>
        <time>2020-02-27T14:36:13.000Z</time>
      </trkpt>
      <trkpt lat="44.76576" lon="5.89876">
        <ele>825.2</ele>
        <time>2020-02-27T14:36:12.000Z</time>
      </trkpt>
      <trkpt lat="44.76577" lon="5.89878">
        <ele>825.2</ele>
        <time>2020-02-27T14:36:11.000Z</time>
      </trkpt>
      <trkpt lat="44.76578" lon="5.8988">
        <ele>825.2</ele>
        <time>2020-02-27T14:36:10.000Z</time>
      </trkpt>
      <trkpt lat="44.76578" lon="5.89882">
        <ele>825.2</ele>
        <time>2020-02-27T14:36:09.000Z</time>
      </trkpt>
      <trkpt lat="44.76579" lon="5.89883">
        <ele>825.3</ele>
        <time>2020-02-27T14:36:08.000Z</time>
      </trkpt>
      <trkpt lat="44.7658" lon="5.89884">
        <ele>825.3</ele>
        <time>2020-02-27T14:36:07.000Z</time>
      </trkpt>
      <trkpt lat="44.7658" lon="5.89885">
        <ele>825.3</ele>
        <time>2020-02-27T14:36:06.000Z</time>
      </trkpt>
      <trkpt lat="44.76581" lon="5.89886">
        <ele>825.3</ele>
        <time>2020-02-27T14:36:05.000Z</time>
      </trkpt>
      <trkpt lat="44.76582" lon="5.89887">
        <ele>825.3</ele>
        <time>2020-02-27T14:36:04.000Z</time>
      </trkpt>
      <trkpt lat="44.76582" lon="5.89888">
        <ele>825.3</ele>
        <time>2020-02-27T14:36:03.000Z</time>
      </trkpt>
      <trkpt lat="44.76582" lon="5.89889">
        <ele>825.3</ele>
        <time>2020-02-27T14:36:02.000Z</time>
      </trkpt>
      <trkpt lat="44.76583" lon="5.89891">
        <ele>825.3</ele>
        <time>2020-02-27T14:36:01.000Z</time>
      </trkpt>
      <trkpt lat="44.76584" lon="5.89892">
        <ele>825.3</ele>
        <time>2020-02-27T14:36:00.000Z</time>
      </trkpt>
      <trkpt lat="44.76584" lon="5.89894">
        <ele>825.3</ele>
        <time>2020-02-27T14:35:59.000Z</time>
      </trkpt>
      <trkpt lat="44.76584" lon="5.89895">
        <ele>825.3</ele>
        <time>2020-02-27T14:35:58.000Z</time>
      </trkpt>
      <trkpt lat="44.76584" lon="5.89896">
        <ele>825.3</ele>
        <time>2020-02-27T14:35:57.000Z</time>
      </trkpt>
      <trkpt lat="44.76585" lon="5.89898">
        <ele>825.3</ele>
        <time>2020-02-27T14:35:56.000Z</time>
      </trkpt>
      <trkpt lat="44.76585" lon="5.89899">
        <ele>825.3</ele>
        <time>2020-02-27T14:35:55.000Z</time>
      </trkpt>
      <trkpt lat="44.76585" lon="5.899">
        <ele>825.2</ele>
        <time>2020-02-27T14:35:54.000Z</time>
      </trkpt>
      <trkpt lat="44.76585" lon="5.89902">
        <ele>825.2</ele>
        <time>2020-02-27T14:35:53.000Z</time>
      </trkpt>
      <trkpt lat="44.76586" lon="5.89903">
        <ele>825.2</ele>
        <time>2020-02-27T14:35:52.000Z</time>
      </trkpt>
      <trkpt lat="44.76586" lon="5.89904">
        <ele>825.2</ele>
        <time>2020-02-27T14:35:51.000Z</time>
      </trkpt>
      <trkpt lat="44.76587" lon="5.89906">
        <ele>825.2</ele>
        <time>2020-02-27T14:35:50.000Z</time>
      </trkpt>
      <trkpt lat="44.76587" lon="5.89907">
        <ele>825.2</ele>
        <time>2020-02-27T14:35:49.000Z</time>
      </trkpt>
      <trkpt lat="44.76587" lon="5.89908">
        <ele>825.2</ele>
        <time>2020-02-27T14:35:48.000Z</time>
      </trkpt>
      <trkpt lat="44.76587" lon="5.8991">
        <ele>825.2</ele>
        <time>2020-02-27T14:35:47.000Z</time>
      </trkpt>
      <trkpt lat="44.76588" lon="5.89911">
        <ele>825.2</ele>
        <time>2020-02-27T14:35:46.000Z</time>
      </trkpt>
      <trkpt lat="44.76588" lon="5.89913">
        <ele>825.2</ele>
        <time>2020-02-27T14:35:45.000Z</time>
      </trkpt>
      <trkpt lat="44.76589" lon="5.89914">
        <ele>825.2</ele>
        <time>2020-02-27T14:35:44.000Z</time>
      </trkpt>
      <trkpt lat="44.76589" lon="5.89916">
        <ele>825.2</ele>
        <time>2020-02-27T14:35:43.000Z</time>
      </trkpt>
      <trkpt lat="44.7659" lon="5.89918">
        <ele>825.1</ele>
        <time>2020-02-27T14:35:42.000Z</time>
      </trkpt>
      <trkpt lat="44.7659" lon="5.8992">
        <ele>825.1</ele>
        <time>2020-02-27T14:35:41.000Z</time>
      </trkpt>
      <trkpt lat="44.76591" lon="5.89922">
        <ele>825.1</ele>
        <time>2020-02-27T14:35:40.000Z</time>
      </trkpt>
      <trkpt lat="44.76591" lon="5.89924">
        <ele>825.1</ele>
        <time>2020-02-27T14:35:39.000Z</time>
      </trkpt>
      <trkpt lat="44.76592" lon="5.89926">
        <ele>825.1</ele>
        <time>2020-02-27T14:35:38.000Z</time>
      </trkpt>
      <trkpt lat="44.76594" lon="5.89929">
        <ele>825.1</ele>
        <time>2020-02-27T14:35:37.000Z</time>
      </trkpt>
      <trkpt lat="44.76595" lon="5.8993">
        <ele>825</ele>
        <time>2020-02-27T14:35:36.000Z</time>
      </trkpt>
      <trkpt lat="44.76596" lon="5.89932">
        <ele>825</ele>
        <time>2020-02-27T14:35:35.000Z</time>
      </trkpt>
      <trkpt lat="44.76597" lon="5.89934">
        <ele>825</ele>
        <time>2020-02-27T14:35:34.000Z</time>
      </trkpt>
      <trkpt lat="44.76598" lon="5.89935">
        <ele>825</ele>
        <time>2020-02-27T14:35:33.000Z</time>
      </trkpt>
      <trkpt lat="44.76598" lon="5.89936">
        <ele>825</ele>
        <time>2020-02-27T14:35:32.000Z</time>
      </trkpt>
      <trkpt lat="44.76599" lon="5.89937">
        <ele>824.9</ele>
        <time>2020-02-27T14:35:31.000Z</time>
      </trkpt>
      <trkpt lat="44.766" lon="5.89938">
        <ele>824.9</ele>
        <time>2020-02-27T14:35:30.000Z</time>
      </trkpt>
      <trkpt lat="44.76601" lon="5.89939">
        <ele>824.9</ele>
        <time>2020-02-27T14:35:29.000Z</time>
      </trkpt>
      <trkpt lat="44.76602" lon="5.8994">
        <ele>824.9</ele>
        <time>2020-02-27T14:35:28.000Z</time>
      </trkpt>
      <trkpt lat="44.76603" lon="5.89941">
        <ele>824.8</ele>
        <time>2020-02-27T14:35:27.000Z</time>
      </trkpt>
      <trkpt lat="44.76604" lon="5.89942">
        <ele>824.8</ele>
        <time>2020-02-27T14:35:26.000Z</time>
      </trkpt>
      <trkpt lat="44.76605" lon="5.89943">
        <ele>824.8</ele>
        <time>2020-02-27T14:35:25.000Z</time>
      </trkpt>
      <trkpt lat="44.76605" lon="5.89944">
        <ele>824.8</ele>
        <time>2020-02-27T14:35:24.000Z</time>
      </trkpt>
      <trkpt lat="44.76606" lon="5.89946">
        <ele>824.8</ele>
        <time>2020-02-27T14:35:23.000Z</time>
      </trkpt>
      <trkpt lat="44.76607" lon="5.89947">
        <ele>824.8</ele>
        <time>2020-02-27T14:35:22.000Z</time>
      </trkpt>
      <trkpt lat="44.76608" lon="5.89948">
        <ele>824.8</ele>
        <time>2020-02-27T14:35:21.000Z</time>
      </trkpt>
      <trkpt lat="44.76609" lon="5.89949">
        <ele>824.7</ele>
        <time>2020-02-27T14:35:20.000Z</time>
      </trkpt>
      <trkpt lat="44.76609" lon="5.8995">
        <ele>824.7</ele>
        <time>2020-02-27T14:35:19.000Z</time>
      </trkpt>
      <trkpt lat="44.7661" lon="5.89951">
        <ele>824.7</ele>
        <time>2020-02-27T14:35:18.000Z</time>
      </trkpt>
      <trkpt lat="44.7661" lon="5.89952">
        <ele>824.7</ele>
        <time>2020-02-27T14:35:17.000Z</time>
      </trkpt>
      <trkpt lat="44.76611" lon="5.89953">
        <ele>824.7</ele>
        <time>2020-02-27T14:35:16.000Z</time>
      </trkpt>
      <trkpt lat="44.76611" lon="5.89953">
        <ele>824.7</ele>
        <time>2020-02-27T14:35:15.000Z</time>
      </trkpt>
      <trkpt lat="44.76612" lon="5.89955">
        <ele>824.7</ele>
        <time>2020-02-27T14:35:14.000Z</time>
      </trkpt>
      <trkpt lat="44.76612" lon="5.89956">
        <ele>824.7</ele>
        <time>2020-02-27T14:35:13.000Z</time>
      </trkpt>
      <trkpt lat="44.76613" lon="5.89957">
        <ele>824.7</ele>
        <time>2020-02-27T14:35:12.000Z</time>
      </trkpt>
      <trkpt lat="44.76614" lon="5.89958">
        <ele>824.7</ele>
        <time>2020-02-27T14:35:11.000Z</time>
      </trkpt>
      <trkpt lat="44.76615" lon="5.8996">
        <ele>824.7</ele>
        <time>2020-02-27T14:35:10.000Z</time>
      </trkpt>
      <trkpt lat="44.76616" lon="5.89961">
        <ele>824.7</ele>
        <time>2020-02-27T14:35:09.000Z</time>
      </trkpt>
      <trkpt lat="44.76617" lon="5.89963">
        <ele>824.7</ele>
        <time>2020-02-27T14:35:08.000Z</time>
      </trkpt>
      <trkpt lat="44.76619" lon="5.89965">
        <ele>824.7</ele>
        <time>2020-02-27T14:35:07.000Z</time>
      </trkpt>
      <trkpt lat="44.7662" lon="5.89967">
        <ele>824.7</ele>
        <time>2020-02-27T14:35:06.000Z</time>
      </trkpt>
      <trkpt lat="44.76621" lon="5.89969">
        <ele>824.7</ele>
        <time>2020-02-27T14:35:05.000Z</time>
      </trkpt>
      <trkpt lat="44.76622" lon="5.8997">
        <ele>824.7</ele>
        <time>2020-02-27T14:35:04.000Z</time>
      </trkpt>
      <trkpt lat="44.76623" lon="5.89971">
        <ele>824.8</ele>
        <time>2020-02-27T14:35:03.000Z</time>
      </trkpt>
      <trkpt lat="44.76621" lon="5.89975">
        <ele>824.8</ele>
        <time>2020-02-27T14:35:02.000Z</time>
      </trkpt>
      <trkpt lat="44.76621" lon="5.89975">
        <ele>824.8</ele>
        <time>2020-02-27T14:35:01.000Z</time>
      </trkpt>
      <trkpt lat="44.76621" lon="5.89975">
        <ele>824.8</ele>
        <time>2020-02-27T14:35:00.000Z</time>
      </trkpt>
      <trkpt lat="44.76621" lon="5.89975">
        <ele>824.8</ele>
        <time>2020-02-27T14:34:59.000Z</time>
      </trkpt>
      <trkpt lat="44.76621" lon="5.89975">
        <ele>824.8</ele>
        <time>2020-02-27T14:34:58.000Z</time>
      </trkpt>
      <trkpt lat="44.76621" lon="5.89975">
        <ele>824.8</ele>
        <time>2020-02-27T14:34:57.000Z</time>
      </trkpt>
      <trkpt lat="44.76621" lon="5.89975">
        <ele>824.8</ele>
        <time>2020-02-27T14:34:56.000Z</time>
      </trkpt>
      <trkpt lat="44.76621" lon="5.89975">
        <ele>824.8</ele>
        <time>2020-02-27T14:34:55.000Z</time>
      </trkpt>
      <trkpt lat="44.76621" lon="5.89975">
        <ele>824.7</ele>
        <time>2020-02-27T14:34:54.000Z</time>
      </trkpt>
      <trkpt lat="44.76621" lon="5.89975">
        <ele>824.7</ele>
        <time>2020-02-27T14:34:53.000Z</time>
      </trkpt>
      <trkpt lat="44.76621" lon="5.89975">
        <ele>824.7</ele>
        <time>2020-02-27T14:34:52.000Z</time>
      </trkpt>
      <trkpt lat="44.76621" lon="5.89975">
        <ele>824.7</ele>
        <time>2020-02-27T14:34:51.000Z</time>
      </trkpt>
      <trkpt lat="44.76621" lon="5.89975">
        <ele>824.6</ele>
        <time>2020-02-27T14:34:50.000Z</time>
      </trkpt>
      <trkpt lat="44.76621" lon="5.89975">
        <ele>824.6</ele>
        <time>2020-02-27T14:34:49.000Z</time>
      </trkpt>
      <trkpt lat="44.76621" lon="5.89975">
        <ele>824.6</ele>
        <time>2020-02-27T14:34:48.000Z</time>
      </trkpt>
      <trkpt lat="44.76621" lon="5.89975">
        <ele>824.6</ele>
        <time>2020-02-27T14:34:47.000Z</time>
      </trkpt>
      <trkpt lat="44.76621" lon="5.89975">
        <ele>824.5</ele>
        <time>2020-02-27T14:34:46.000Z</time>
      </trkpt>
      <trkpt lat="44.76621" lon="5.89975">
        <ele>824.5</ele>
        <time>2020-02-27T14:34:45.000Z</time>
      </trkpt>
      <trkpt lat="44.76621" lon="5.89975">
        <ele>824.5</ele>
        <time>2020-02-27T14:34:44.000Z</time>
      </trkpt>
      <trkpt lat="44.76621" lon="5.89975">
        <ele>824.5</ele>
        <time>2020-02-27T14:34:43.000Z</time>
      </trkpt>
      <trkpt lat="44.76621" lon="5.89975">
        <ele>824.4</ele>
        <time>2020-02-27T14:34:42.000Z</time>
      </trkpt>
      <trkpt lat="44.76621" lon="5.89975">
        <ele>824.4</ele>
        <time>2020-02-27T14:34:41.000Z</time>
      </trkpt>
      <trkpt lat="44.76621" lon="5.89975">
        <ele>824.4</ele>
        <time>2020-02-27T14:34:40.000Z</time>
      </trkpt>
      <trkpt lat="44.76621" lon="5.89975">
        <ele>824.3</ele>
        <time>2020-02-27T14:34:39.000Z</time>
      </trkpt>
      <trkpt lat="44.76621" lon="5.89975">
        <ele>824.3</ele>
        <time>2020-02-27T14:34:38.000Z</time>
      </trkpt>
      <trkpt lat="44.76621" lon="5.89975">
        <ele>824.3</ele>
        <time>2020-02-27T14:34:37.000Z</time>
      </trkpt>
      <trkpt lat="44.76621" lon="5.89975">
        <ele>824.2</ele>
        <time>2020-02-27T14:34:36.000Z</time>
      </trkpt>
      <trkpt lat="44.76621" lon="5.89975">
        <ele>824.2</ele>
        <time>2020-02-27T14:34:35.000Z</time>
      </trkpt>
      <trkpt lat="44.76621" lon="5.89975">
        <ele>824.2</ele>
        <time>2020-02-27T14:34:34.000Z</time>
      </trkpt>
      <trkpt lat="44.76621" lon="5.89975">
        <ele>824.2</ele>
        <time>2020-02-27T14:34:33.000Z</time>
      </trkpt>
      <trkpt lat="44.76621" lon="5.89975">
        <ele>824.1</ele>
        <time>2020-02-27T14:34:32.000Z</time>
      </trkpt>
      <trkpt lat="44.76621" lon="5.89975">
        <ele>824.1</ele>
        <time>2020-02-27T14:34:31.000Z</time>
      </trkpt>
      <trkpt lat="44.76621" lon="5.89975">
        <ele>824.1</ele>
        <time>2020-02-27T14:34:30.000Z</time>
      </trkpt>
      <trkpt lat="44.76621" lon="5.89975">
        <ele>824</ele>
        <time>2020-02-27T14:34:29.000Z</time>
      </trkpt>
      <trkpt lat="44.76621" lon="5.89975">
        <ele>824</ele>
        <time>2020-02-27T14:34:28.000Z</time>
      </trkpt>
      <trkpt lat="44.76621" lon="5.89975">
        <ele>824</ele>
        <time>2020-02-27T14:34:27.000Z</time>
      </trkpt>
      <trkpt lat="44.76621" lon="5.89975">
        <ele>823.9</ele>
        <time>2020-02-27T14:34:26.000Z</time>
      </trkpt>
      <trkpt lat="44.76621" lon="5.89976">
        <ele>823.9</ele>
        <time>2020-02-27T14:34:25.000Z</time>
      </trkpt>
      <trkpt lat="44.76621" lon="5.89977">
        <ele>823.9</ele>
        <time>2020-02-27T14:34:24.000Z</time>
      </trkpt>
      <trkpt lat="44.7662" lon="5.89977">
        <ele>823.8</ele>
        <time>2020-02-27T14:34:23.000Z</time>
      </trkpt>
      <trkpt lat="44.7662" lon="5.89978">
        <ele>823.8</ele>
        <time>2020-02-27T14:34:22.000Z</time>
      </trkpt>
      <trkpt lat="44.7662" lon="5.89979">
        <ele>823.7</ele>
        <time>2020-02-27T14:34:21.000Z</time>
      </trkpt>
      <trkpt lat="44.7662" lon="5.8998">
        <ele>823.7</ele>
        <time>2020-02-27T14:34:20.000Z</time>
      </trkpt>
      <trkpt lat="44.7662" lon="5.89981">
        <ele>823.6</ele>
        <time>2020-02-27T14:34:19.000Z</time>
      </trkpt>
      <trkpt lat="44.7662" lon="5.89983">
        <ele>823.6</ele>
        <time>2020-02-27T14:34:18.000Z</time>
      </trkpt>
      <trkpt lat="44.76621" lon="5.89984">
        <ele>823.5</ele>
        <time>2020-02-27T14:34:17.000Z</time>
      </trkpt>
      <trkpt lat="44.76621" lon="5.89986">
        <ele>823.4</ele>
        <time>2020-02-27T14:34:16.000Z</time>
      </trkpt>
      <trkpt lat="44.76621" lon="5.89987">
        <ele>823.4</ele>
        <time>2020-02-27T14:34:15.000Z</time>
      </trkpt>
      <trkpt lat="44.76621" lon="5.89989">
        <ele>823.3</ele>
        <time>2020-02-27T14:34:14.000Z</time>
      </trkpt>
      <trkpt lat="44.76622" lon="5.8999">
        <ele>823.3</ele>
        <time>2020-02-27T14:34:13.000Z</time>
      </trkpt>
      <trkpt lat="44.76622" lon="5.89991">
        <ele>823.2</ele>
        <time>2020-02-27T14:34:12.000Z</time>
      </trkpt>
      <trkpt lat="44.76623" lon="5.89992">
        <ele>823.2</ele>
        <time>2020-02-27T14:34:11.000Z</time>
      </trkpt>
      <trkpt lat="44.76623" lon="5.89994">
        <ele>823.2</ele>
        <time>2020-02-27T14:34:10.000Z</time>
      </trkpt>
      <trkpt lat="44.76624" lon="5.89996">
        <ele>823.1</ele>
        <time>2020-02-27T14:34:09.000Z</time>
      </trkpt>
      <trkpt lat="44.76625" lon="5.89997">
        <ele>823.1</ele>
        <time>2020-02-27T14:34:08.000Z</time>
      </trkpt>
      <trkpt lat="44.76625" lon="5.89999">
        <ele>823</ele>
        <time>2020-02-27T14:34:07.000Z</time>
      </trkpt>
      <trkpt lat="44.76626" lon="5.9">
        <ele>823</ele>
        <time>2020-02-27T14:34:06.000Z</time>
      </trkpt>
      <trkpt lat="44.76626" lon="5.90002">
        <ele>822.9</ele>
        <time>2020-02-27T14:34:05.000Z</time>
      </trkpt>
      <trkpt lat="44.76627" lon="5.90003">
        <ele>822.9</ele>
        <time>2020-02-27T14:34:04.000Z</time>
      </trkpt>
      <trkpt lat="44.76628" lon="5.90004">
        <ele>822.8</ele>
        <time>2020-02-27T14:34:03.000Z</time>
      </trkpt>
      <trkpt lat="44.76629" lon="5.90005">
        <ele>822.8</ele>
        <time>2020-02-27T14:34:02.000Z</time>
      </trkpt>
      <trkpt lat="44.7663" lon="5.90005">
        <ele>822.7</ele>
        <time>2020-02-27T14:34:01.000Z</time>
      </trkpt>
      <trkpt lat="44.76631" lon="5.90007">
        <ele>822.6</ele>
        <time>2020-02-27T14:34:00.000Z</time>
      </trkpt>
      <trkpt lat="44.76631" lon="5.90008">
        <ele>822.5</ele>
        <time>2020-02-27T14:33:59.000Z</time>
      </trkpt>
      <trkpt lat="44.76632" lon="5.90009">
        <ele>822.4</ele>
        <time>2020-02-27T14:33:58.000Z</time>
      </trkpt>
      <trkpt lat="44.76633" lon="5.90011">
        <ele>822.4</ele>
        <time>2020-02-27T14:33:57.000Z</time>
      </trkpt>
      <trkpt lat="44.76634" lon="5.90012">
        <ele>822.3</ele>
        <time>2020-02-27T14:33:56.000Z</time>
      </trkpt>
      <trkpt lat="44.76635" lon="5.90013">
        <ele>822.2</ele>
        <time>2020-02-27T14:33:55.000Z</time>
      </trkpt>
      <trkpt lat="44.76635" lon="5.90014">
        <ele>822</ele>
        <time>2020-02-27T14:33:54.000Z</time>
      </trkpt>
      <trkpt lat="44.76636" lon="5.90015">
        <ele>821.9</ele>
        <time>2020-02-27T14:33:53.000Z</time>
      </trkpt>
      <trkpt lat="44.76637" lon="5.90016">
        <ele>821.8</ele>
        <time>2020-02-27T14:33:52.000Z</time>
      </trkpt>
      <trkpt lat="44.76638" lon="5.90017">
        <ele>821.8</ele>
        <time>2020-02-27T14:33:51.000Z</time>
      </trkpt>
      <trkpt lat="44.76639" lon="5.90018">
        <ele>821.7</ele>
        <time>2020-02-27T14:33:50.000Z</time>
      </trkpt>
      <trkpt lat="44.76639" lon="5.90019">
        <ele>821.5</ele>
        <time>2020-02-27T14:33:49.000Z</time>
      </trkpt>
      <trkpt lat="44.7664" lon="5.9002">
        <ele>821.4</ele>
        <time>2020-02-27T14:33:48.000Z</time>
      </trkpt>
      <trkpt lat="44.76641" lon="5.90021">
        <ele>821.4</ele>
        <time>2020-02-27T14:33:47.000Z</time>
      </trkpt>
      <trkpt lat="44.76641" lon="5.90022">
        <ele>821.3</ele>
        <time>2020-02-27T14:33:46.000Z</time>
      </trkpt>
      <trkpt lat="44.76642" lon="5.90023">
        <ele>821.2</ele>
        <time>2020-02-27T14:33:45.000Z</time>
      </trkpt>
      <trkpt lat="44.76643" lon="5.90024">
        <ele>821.2</ele>
        <time>2020-02-27T14:33:44.000Z</time>
      </trkpt>
      <trkpt lat="44.76644" lon="5.90025">
        <ele>821.1</ele>
        <time>2020-02-27T14:33:43.000Z</time>
      </trkpt>
      <trkpt lat="44.76644" lon="5.90025">
        <ele>821</ele>
        <time>2020-02-27T14:33:42.000Z</time>
      </trkpt>
      <trkpt lat="44.76645" lon="5.90026">
        <ele>820.9</ele>
        <time>2020-02-27T14:33:41.000Z</time>
      </trkpt>
      <trkpt lat="44.76646" lon="5.90027">
        <ele>820.8</ele>
        <time>2020-02-27T14:33:40.000Z</time>
      </trkpt>
      <trkpt lat="44.76647" lon="5.90028">
        <ele>820.8</ele>
        <time>2020-02-27T14:33:39.000Z</time>
      </trkpt>
      <trkpt lat="44.76648" lon="5.90029">
        <ele>820.7</ele>
        <time>2020-02-27T14:33:38.000Z</time>
      </trkpt>
      <trkpt lat="44.76649" lon="5.90029">
        <ele>820.6</ele>
        <time>2020-02-27T14:33:37.000Z</time>
      </trkpt>
      <trkpt lat="44.7665" lon="5.9003">
        <ele>820.6</ele>
        <time>2020-02-27T14:33:36.000Z</time>
      </trkpt>
      <trkpt lat="44.76651" lon="5.90034">
        <ele>820.5</ele>
        <time>2020-02-27T14:33:35.000Z</time>
      </trkpt>
      <trkpt lat="44.76652" lon="5.90035">
        <ele>820.4</ele>
        <time>2020-02-27T14:33:34.000Z</time>
      </trkpt>
      <trkpt lat="44.76653" lon="5.90036">
        <ele>820.3</ele>
        <time>2020-02-27T14:33:33.000Z</time>
      </trkpt>
      <trkpt lat="44.76654" lon="5.90036">
        <ele>820.2</ele>
        <time>2020-02-27T14:33:32.000Z</time>
      </trkpt>
      <trkpt lat="44.76655" lon="5.90037">
        <ele>820.1</ele>
        <time>2020-02-27T14:33:31.000Z</time>
      </trkpt>
      <trkpt lat="44.76655" lon="5.90038">
        <ele>820.1</ele>
        <time>2020-02-27T14:33:30.000Z</time>
      </trkpt>
      <trkpt lat="44.76656" lon="5.90038">
        <ele>820</ele>
        <time>2020-02-27T14:33:29.000Z</time>
      </trkpt>
      <trkpt lat="44.76657" lon="5.90039">
        <ele>819.9</ele>
        <time>2020-02-27T14:33:28.000Z</time>
      </trkpt>
      <trkpt lat="44.76658" lon="5.90039">
        <ele>819.8</ele>
        <time>2020-02-27T14:33:27.000Z</time>
      </trkpt>
      <trkpt lat="44.76659" lon="5.9004">
        <ele>819.8</ele>
        <time>2020-02-27T14:33:26.000Z</time>
      </trkpt>
      <trkpt lat="44.76659" lon="5.9004">
        <ele>819.7</ele>
        <time>2020-02-27T14:33:25.000Z</time>
      </trkpt>
      <trkpt lat="44.7666" lon="5.90041">
        <ele>819.6</ele>
        <time>2020-02-27T14:33:24.000Z</time>
      </trkpt>
      <trkpt lat="44.7666" lon="5.90042">
        <ele>819.6</ele>
        <time>2020-02-27T14:33:23.000Z</time>
      </trkpt>
      <trkpt lat="44.76661" lon="5.90042">
        <ele>819.5</ele>
        <time>2020-02-27T14:33:22.000Z</time>
      </trkpt>
      <trkpt lat="44.76662" lon="5.90043">
        <ele>819.4</ele>
        <time>2020-02-27T14:33:21.000Z</time>
      </trkpt>
      <trkpt lat="44.76662" lon="5.90043">
        <ele>819.4</ele>
        <time>2020-02-27T14:33:20.000Z</time>
      </trkpt>
      <trkpt lat="44.76662" lon="5.90044">
        <ele>819.3</ele>
        <time>2020-02-27T14:33:19.000Z</time>
      </trkpt>
      <trkpt lat="44.76663" lon="5.90045">
        <ele>819.2</ele>
        <time>2020-02-27T14:33:18.000Z</time>
      </trkpt>
      <trkpt lat="44.76664" lon="5.90046">
        <ele>819.1</ele>
        <time>2020-02-27T14:33:17.000Z</time>
      </trkpt>
      <trkpt lat="44.76665" lon="5.90047">
        <ele>819.1</ele>
        <time>2020-02-27T14:33:16.000Z</time>
      </trkpt>
      <trkpt lat="44.76665" lon="5.90048">
        <ele>819</ele>
        <time>2020-02-27T14:33:15.000Z</time>
      </trkpt>
      <trkpt lat="44.76666" lon="5.9005">
        <ele>819</ele>
        <time>2020-02-27T14:33:14.000Z</time>
      </trkpt>
      <trkpt lat="44.76667" lon="5.90051">
        <ele>819</ele>
        <time>2020-02-27T14:33:13.000Z</time>
      </trkpt>
      <trkpt lat="44.76668" lon="5.90053">
        <ele>819</ele>
        <time>2020-02-27T14:33:12.000Z</time>
      </trkpt>
      <trkpt lat="44.76669" lon="5.90054">
        <ele>819</ele>
        <time>2020-02-27T14:33:11.000Z</time>
      </trkpt>
      <trkpt lat="44.7667" lon="5.90056">
        <ele>819</ele>
        <time>2020-02-27T14:33:10.000Z</time>
      </trkpt>
      <trkpt lat="44.76671" lon="5.90057">
        <ele>819</ele>
        <time>2020-02-27T14:33:09.000Z</time>
      </trkpt>
      <trkpt lat="44.76672" lon="5.90058">
        <ele>819</ele>
        <time>2020-02-27T14:33:08.000Z</time>
      </trkpt>
      <trkpt lat="44.76672" lon="5.90059">
        <ele>818.9</ele>
        <time>2020-02-27T14:33:07.000Z</time>
      </trkpt>
      <trkpt lat="44.76673" lon="5.90061">
        <ele>818.9</ele>
        <time>2020-02-27T14:33:06.000Z</time>
      </trkpt>
      <trkpt lat="44.76673" lon="5.90062">
        <ele>818.9</ele>
        <time>2020-02-27T14:33:05.000Z</time>
      </trkpt>
      <trkpt lat="44.76674" lon="5.90063">
        <ele>818.9</ele>
        <time>2020-02-27T14:33:04.000Z</time>
      </trkpt>
      <trkpt lat="44.76674" lon="5.90065">
        <ele>818.9</ele>
        <time>2020-02-27T14:33:03.000Z</time>
      </trkpt>
      <trkpt lat="44.76674" lon="5.90068">
        <ele>818.9</ele>
        <time>2020-02-27T14:33:02.000Z</time>
      </trkpt>
      <trkpt lat="44.76674" lon="5.90069">
        <ele>818.8</ele>
        <time>2020-02-27T14:33:01.000Z</time>
      </trkpt>
      <trkpt lat="44.76675" lon="5.90071">
        <ele>818.8</ele>
        <time>2020-02-27T14:33:00.000Z</time>
      </trkpt>
      <trkpt lat="44.76675" lon="5.90072">
        <ele>818.8</ele>
        <time>2020-02-27T14:32:59.000Z</time>
      </trkpt>
      <trkpt lat="44.76676" lon="5.90073">
        <ele>818.8</ele>
        <time>2020-02-27T14:32:58.000Z</time>
      </trkpt>
      <trkpt lat="44.76677" lon="5.90074">
        <ele>818.7</ele>
        <time>2020-02-27T14:32:57.000Z</time>
      </trkpt>
      <trkpt lat="44.76678" lon="5.90076">
        <ele>818.7</ele>
        <time>2020-02-27T14:32:56.000Z</time>
      </trkpt>
      <trkpt lat="44.76678" lon="5.90077">
        <ele>818.7</ele>
        <time>2020-02-27T14:32:55.000Z</time>
      </trkpt>
      <trkpt lat="44.76679" lon="5.90078">
        <ele>818.7</ele>
        <time>2020-02-27T14:32:54.000Z</time>
      </trkpt>
      <trkpt lat="44.76679" lon="5.90079">
        <ele>818.6</ele>
        <time>2020-02-27T14:32:53.000Z</time>
      </trkpt>
      <trkpt lat="44.7668" lon="5.9008">
        <ele>818.6</ele>
        <time>2020-02-27T14:32:52.000Z</time>
      </trkpt>
      <trkpt lat="44.76681" lon="5.9008">
        <ele>818.6</ele>
        <time>2020-02-27T14:32:51.000Z</time>
      </trkpt>
      <trkpt lat="44.76682" lon="5.90081">
        <ele>818.6</ele>
        <time>2020-02-27T14:32:50.000Z</time>
      </trkpt>
      <trkpt lat="44.76682" lon="5.90081">
        <ele>818.6</ele>
        <time>2020-02-27T14:32:49.000Z</time>
      </trkpt>
      <trkpt lat="44.76683" lon="5.90081">
        <ele>818.6</ele>
        <time>2020-02-27T14:32:48.000Z</time>
      </trkpt>
      <trkpt lat="44.76684" lon="5.90081">
        <ele>818.6</ele>
        <time>2020-02-27T14:32:47.000Z</time>
      </trkpt>
      <trkpt lat="44.76685" lon="5.90082">
        <ele>818.6</ele>
        <time>2020-02-27T14:32:46.000Z</time>
      </trkpt>
      <trkpt lat="44.76686" lon="5.90082">
        <ele>818.6</ele>
        <time>2020-02-27T14:32:45.000Z</time>
      </trkpt>
      <trkpt lat="44.76687" lon="5.90083">
        <ele>818.7</ele>
        <time>2020-02-27T14:32:44.000Z</time>
      </trkpt>
      <trkpt lat="44.76688" lon="5.90084">
        <ele>818.8</ele>
        <time>2020-02-27T14:32:43.000Z</time>
      </trkpt>
      <trkpt lat="44.76689" lon="5.90085">
        <ele>818.8</ele>
        <time>2020-02-27T14:32:42.000Z</time>
      </trkpt>
      <trkpt lat="44.76689" lon="5.90086">
        <ele>818.9</ele>
        <time>2020-02-27T14:32:41.000Z</time>
      </trkpt>
      <trkpt lat="44.7669" lon="5.90087">
        <ele>819</ele>
        <time>2020-02-27T14:32:40.000Z</time>
      </trkpt>
      <trkpt lat="44.76691" lon="5.90088">
        <ele>819.2</ele>
        <time>2020-02-27T14:32:39.000Z</time>
      </trkpt>
      <trkpt lat="44.76692" lon="5.90089">
        <ele>819.3</ele>
        <time>2020-02-27T14:32:38.000Z</time>
      </trkpt>
      <trkpt lat="44.76692" lon="5.90091">
        <ele>819.4</ele>
        <time>2020-02-27T14:32:37.000Z</time>
      </trkpt>
      <trkpt lat="44.76693" lon="5.90091">
        <ele>819.6</ele>
        <time>2020-02-27T14:32:36.000Z</time>
      </trkpt>
      <trkpt lat="44.76695" lon="5.90092">
        <ele>819.7</ele>
        <time>2020-02-27T14:32:35.000Z</time>
      </trkpt>
      <trkpt lat="44.76697" lon="5.90093">
        <ele>819.9</ele>
        <time>2020-02-27T14:32:34.000Z</time>
      </trkpt>
      <trkpt lat="44.76698" lon="5.90095">
        <ele>820.1</ele>
        <time>2020-02-27T14:32:33.000Z</time>
      </trkpt>
      <trkpt lat="44.767" lon="5.90096">
        <ele>820.3</ele>
        <time>2020-02-27T14:32:32.000Z</time>
      </trkpt>
      <trkpt lat="44.76702" lon="5.90097">
        <ele>820.5</ele>
        <time>2020-02-27T14:32:31.000Z</time>
      </trkpt>
      <trkpt lat="44.76703" lon="5.90098">
        <ele>820.7</ele>
        <time>2020-02-27T14:32:30.000Z</time>
      </trkpt>
      <trkpt lat="44.76705" lon="5.90099">
        <ele>820.9</ele>
        <time>2020-02-27T14:32:29.000Z</time>
      </trkpt>
      <trkpt lat="44.76706" lon="5.901">
        <ele>821.1</ele>
        <time>2020-02-27T14:32:28.000Z</time>
      </trkpt>
      <trkpt lat="44.76709" lon="5.90102">
        <ele>821.4</ele>
        <time>2020-02-27T14:32:27.000Z</time>
      </trkpt>
      <trkpt lat="44.76711" lon="5.90103">
        <ele>821.7</ele>
        <time>2020-02-27T14:32:26.000Z</time>
      </trkpt>
      <trkpt lat="44.76712" lon="5.90105">
        <ele>822</ele>
        <time>2020-02-27T14:32:25.000Z</time>
      </trkpt>
      <trkpt lat="44.76712" lon="5.90107">
        <ele>822.2</ele>
        <time>2020-02-27T14:32:24.000Z</time>
      </trkpt>
      <trkpt lat="44.76712" lon="5.90109">
        <ele>822.6</ele>
        <time>2020-02-27T14:32:23.000Z</time>
      </trkpt>
      <trkpt lat="44.76712" lon="5.9011">
        <ele>822.8</ele>
        <time>2020-02-27T14:32:22.000Z</time>
      </trkpt>
      <trkpt lat="44.76711" lon="5.90111">
        <ele>823</ele>
        <time>2020-02-27T14:32:21.000Z</time>
      </trkpt>
      <trkpt lat="44.7671" lon="5.90113">
        <ele>823.2</ele>
        <time>2020-02-27T14:32:20.000Z</time>
      </trkpt>
      <trkpt lat="44.76709" lon="5.90114">
        <ele>823.4</ele>
        <time>2020-02-27T14:32:19.000Z</time>
      </trkpt>
      <trkpt lat="44.7671" lon="5.90114">
        <ele>823.6</ele>
        <time>2020-02-27T14:32:18.000Z</time>
      </trkpt>
      <trkpt lat="44.76709" lon="5.90115">
        <ele>823.8</ele>
        <time>2020-02-27T14:32:17.000Z</time>
      </trkpt>
      <trkpt lat="44.76709" lon="5.90116">
        <ele>823.9</ele>
        <time>2020-02-27T14:32:16.000Z</time>
      </trkpt>
      <trkpt lat="44.76709" lon="5.90117">
        <ele>824</ele>
        <time>2020-02-27T14:32:15.000Z</time>
      </trkpt>
      <trkpt lat="44.76709" lon="5.90119">
        <ele>824.1</ele>
        <time>2020-02-27T14:32:14.000Z</time>
      </trkpt>
      <trkpt lat="44.76709" lon="5.90121">
        <ele>824.2</ele>
        <time>2020-02-27T14:32:13.000Z</time>
      </trkpt>
      <trkpt lat="44.76709" lon="5.90123">
        <ele>824.3</ele>
        <time>2020-02-27T14:32:12.000Z</time>
      </trkpt>
      <trkpt lat="44.76709" lon="5.90125">
        <ele>824.4</ele>
        <time>2020-02-27T14:32:11.000Z</time>
      </trkpt>
      <trkpt lat="44.76709" lon="5.90127">
        <ele>824.5</ele>
        <time>2020-02-27T14:32:10.000Z</time>
      </trkpt>
      <trkpt lat="44.76709" lon="5.90128">
        <ele>824.6</ele>
        <time>2020-02-27T14:32:09.000Z</time>
      </trkpt>
      <trkpt lat="44.7671" lon="5.9013">
        <ele>824.6</ele>
        <time>2020-02-27T14:32:08.000Z</time>
      </trkpt>
      <trkpt lat="44.7671" lon="5.90131">
        <ele>824.7</ele>
        <time>2020-02-27T14:32:07.000Z</time>
      </trkpt>
      <trkpt lat="44.7671" lon="5.90132">
        <ele>824.8</ele>
        <time>2020-02-27T14:32:06.000Z</time>
      </trkpt>
      <trkpt lat="44.76709" lon="5.90134">
        <ele>824.9</ele>
        <time>2020-02-27T14:32:05.000Z</time>
      </trkpt>
      <trkpt lat="44.76708" lon="5.90134">
        <ele>824.9</ele>
        <time>2020-02-27T14:32:04.000Z</time>
      </trkpt>
      <trkpt lat="44.76707" lon="5.90135">
        <ele>824.9</ele>
        <time>2020-02-27T14:32:03.000Z</time>
      </trkpt>
      <trkpt lat="44.76705" lon="5.90136">
        <ele>824.9</ele>
        <time>2020-02-27T14:32:02.000Z</time>
      </trkpt>
      <trkpt lat="44.76704" lon="5.90136">
        <ele>824.9</ele>
        <time>2020-02-27T14:32:01.000Z</time>
      </trkpt>
      <trkpt lat="44.76705" lon="5.90137">
        <ele>824.8</ele>
        <time>2020-02-27T14:32:00.000Z</time>
      </trkpt>
      <trkpt lat="44.76705" lon="5.90138">
        <ele>824.7</ele>
        <time>2020-02-27T14:31:59.000Z</time>
      </trkpt>
      <trkpt lat="44.76706" lon="5.90139">
        <ele>824.6</ele>
        <time>2020-02-27T14:31:58.000Z</time>
      </trkpt>
      <trkpt lat="44.76707" lon="5.90139">
        <ele>824.5</ele>
        <time>2020-02-27T14:31:57.000Z</time>
      </trkpt>
      <trkpt lat="44.76707" lon="5.9014">
        <ele>824.4</ele>
        <time>2020-02-27T14:31:56.000Z</time>
      </trkpt>
      <trkpt lat="44.76708" lon="5.90141">
        <ele>824.2</ele>
        <time>2020-02-27T14:31:55.000Z</time>
      </trkpt>
      <trkpt lat="44.76709" lon="5.90142">
        <ele>824</ele>
        <time>2020-02-27T14:31:54.000Z</time>
      </trkpt>
      <trkpt lat="44.76709" lon="5.90143">
        <ele>823.9</ele>
        <time>2020-02-27T14:31:53.000Z</time>
      </trkpt>
      <trkpt lat="44.7671" lon="5.90144">
        <ele>823.7</ele>
        <time>2020-02-27T14:31:52.000Z</time>
      </trkpt>
      <trkpt lat="44.7671" lon="5.90145">
        <ele>823.5</ele>
        <time>2020-02-27T14:31:51.000Z</time>
      </trkpt>
      <trkpt lat="44.7671" lon="5.90145">
        <ele>823.3</ele>
        <time>2020-02-27T14:31:50.000Z</time>
      </trkpt>
      <trkpt lat="44.7671" lon="5.90146">
        <ele>823.1</ele>
        <time>2020-02-27T14:31:49.000Z</time>
      </trkpt>
      <trkpt lat="44.7671" lon="5.90147">
        <ele>822.9</ele>
        <time>2020-02-27T14:31:48.000Z</time>
      </trkpt>
      <trkpt lat="44.7671" lon="5.90148">
        <ele>822.7</ele>
        <time>2020-02-27T14:31:47.000Z</time>
      </trkpt>
      <trkpt lat="44.76709" lon="5.9015">
        <ele>822.6</ele>
        <time>2020-02-27T14:31:46.000Z</time>
      </trkpt>
      <trkpt lat="44.76709" lon="5.9015">
        <ele>822.4</ele>
        <time>2020-02-27T14:31:45.000Z</time>
      </trkpt>
      <trkpt lat="44.76709" lon="5.9015">
        <ele>822.2</ele>
        <time>2020-02-27T14:31:44.000Z</time>
      </trkpt>
      <trkpt lat="44.76709" lon="5.9015">
        <ele>822</ele>
        <time>2020-02-27T14:31:43.000Z</time>
      </trkpt>
      <trkpt lat="44.76709" lon="5.9015">
        <ele>821.8</ele>
        <time>2020-02-27T14:31:42.000Z</time>
      </trkpt>
      <trkpt lat="44.76709" lon="5.9015">
        <ele>821.6</ele>
        <time>2020-02-27T14:31:41.000Z</time>
      </trkpt>
      <trkpt lat="44.76709" lon="5.9015">
        <ele>821.4</ele>
        <time>2020-02-27T14:31:40.000Z</time>
      </trkpt>
      <trkpt lat="44.76709" lon="5.9015">
        <ele>821.2</ele>
        <time>2020-02-27T14:31:39.000Z</time>
      </trkpt>
      <trkpt lat="44.7671" lon="5.90149">
        <ele>821</ele>
        <time>2020-02-27T14:31:38.000Z</time>
      </trkpt>
      <trkpt lat="44.7671" lon="5.90148">
        <ele>820.9</ele>
        <time>2020-02-27T14:31:37.000Z</time>
      </trkpt>
      <trkpt lat="44.76712" lon="5.90142">
        <ele>820.7</ele>
        <time>2020-02-27T14:31:36.000Z</time>
      </trkpt>
      <trkpt lat="44.76712" lon="5.90142">
        <ele>820.6</ele>
        <time>2020-02-27T14:31:35.000Z</time>
      </trkpt>
      <trkpt lat="44.76712" lon="5.90142">
        <ele>820.5</ele>
        <time>2020-02-27T14:31:34.000Z</time>
      </trkpt>
      <trkpt lat="44.76712" lon="5.90142">
        <ele>820.3</ele>
        <time>2020-02-27T14:31:33.000Z</time>
      </trkpt>
      <trkpt lat="44.76712" lon="5.90142">
        <ele>820.2</ele>
        <time>2020-02-27T14:31:32.000Z</time>
      </trkpt>
      <trkpt lat="44.76712" lon="5.90142">
        <ele>820.1</ele>
        <time>2020-02-27T14:31:31.000Z</time>
      </trkpt>
      <trkpt lat="44.76712" lon="5.90142">
        <ele>820</ele>
        <time>2020-02-27T14:31:30.000Z</time>
      </trkpt>
      <trkpt lat="44.76712" lon="5.90142">
        <ele>819.8</ele>
        <time>2020-02-27T14:31:29.000Z</time>
      </trkpt>
      <trkpt lat="44.76712" lon="5.90142">
        <ele>819.8</ele>
        <time>2020-02-27T14:31:28.000Z</time>
      </trkpt>
      <trkpt lat="44.76712" lon="5.90142">
        <ele>819.7</ele>
        <time>2020-02-27T14:31:27.000Z</time>
      </trkpt>
      <trkpt lat="44.76712" lon="5.90142">
        <ele>819.6</ele>
        <time>2020-02-27T14:31:26.000Z</time>
      </trkpt>
      <trkpt lat="44.76712" lon="5.90142">
        <ele>819.5</ele>
        <time>2020-02-27T14:31:25.000Z</time>
      </trkpt>
      <trkpt lat="44.76712" lon="5.90142">
        <ele>819.4</ele>
        <time>2020-02-27T14:31:24.000Z</time>
      </trkpt>
      <trkpt lat="44.76713" lon="5.90142">
        <ele>819.3</ele>
        <time>2020-02-27T14:31:23.000Z</time>
      </trkpt>
      <trkpt lat="44.76713" lon="5.90142">
        <ele>819.2</ele>
        <time>2020-02-27T14:31:22.000Z</time>
      </trkpt>
      <trkpt lat="44.76712" lon="5.90141">
        <ele>819.1</ele>
        <time>2020-02-27T14:31:21.000Z</time>
      </trkpt>
      <trkpt lat="44.76712" lon="5.90141">
        <ele>819</ele>
        <time>2020-02-27T14:31:20.000Z</time>
      </trkpt>
      <trkpt lat="44.76712" lon="5.90141">
        <ele>819</ele>
        <time>2020-02-27T14:31:19.000Z</time>
      </trkpt>
      <trkpt lat="44.7671" lon="5.90139">
        <ele>818.9</ele>
        <time>2020-02-27T14:31:18.000Z</time>
      </trkpt>
      <trkpt lat="44.7671" lon="5.90139">
        <ele>818.9</ele>
        <time>2020-02-27T14:31:17.000Z</time>
      </trkpt>
      <trkpt lat="44.7671" lon="5.90139">
        <ele>818.8</ele>
        <time>2020-02-27T14:31:16.000Z</time>
      </trkpt>
      <trkpt lat="44.76711" lon="5.90139">
        <ele>818.8</ele>
        <time>2020-02-27T14:31:15.000Z</time>
      </trkpt>
      <trkpt lat="44.76711" lon="5.90139">
        <ele>818.7</ele>
        <time>2020-02-27T14:31:14.000Z</time>
      </trkpt>
      <trkpt lat="44.76711" lon="5.90138">
        <ele>818.7</ele>
        <time>2020-02-27T14:31:13.000Z</time>
      </trkpt>
      <trkpt lat="44.76711" lon="5.90137">
        <ele>818.7</ele>
        <time>2020-02-27T14:31:12.000Z</time>
      </trkpt>
      <trkpt lat="44.76716" lon="5.90134">
        <ele>818.7</ele>
        <time>2020-02-27T14:31:11.000Z</time>
      </trkpt>
      <trkpt lat="44.76716" lon="5.90134">
        <ele>818.7</ele>
        <time>2020-02-27T14:31:10.000Z</time>
      </trkpt>
      <trkpt lat="44.76716" lon="5.90134">
        <ele>818.7</ele>
        <time>2020-02-27T14:31:09.000Z</time>
      </trkpt>
      <trkpt lat="44.76716" lon="5.90134">
        <ele>818.7</ele>
        <time>2020-02-27T14:31:08.000Z</time>
      </trkpt>
      <trkpt lat="44.76716" lon="5.90134">
        <ele>818.7</ele>
        <time>2020-02-27T14:31:07.000Z</time>
      </trkpt>
      <trkpt lat="44.76716" lon="5.90134">
        <ele>818.7</ele>
        <time>2020-02-27T14:31:06.000Z</time>
      </trkpt>
      <trkpt lat="44.76716" lon="5.90134">
        <ele>818.8</ele>
        <time>2020-02-27T14:31:05.000Z</time>
      </trkpt>
      <trkpt lat="44.76716" lon="5.90134">
        <ele>818.8</ele>
        <time>2020-02-27T14:31:04.000Z</time>
      </trkpt>
      <trkpt lat="44.76716" lon="5.90134">
        <ele>818.8</ele>
        <time>2020-02-27T14:31:03.000Z</time>
      </trkpt>
      <trkpt lat="44.76717" lon="5.90134">
        <ele>819</ele>
        <time>2020-02-27T14:30:58.000Z</time>
      </trkpt>
      <trkpt lat="44.76709" lon="5.90138">
        <ele>819.2</ele>
        <time>2020-02-27T14:30:53.000Z</time>
      </trkpt>
      <trkpt lat="44.76709" lon="5.90138">
        <ele>819.2</ele>
        <time>2020-02-27T14:30:52.000Z</time>
      </trkpt>
      <trkpt lat="44.76709" lon="5.90138">
        <ele>819.3</ele>
        <time>2020-02-27T14:30:51.000Z</time>
      </trkpt>
      <trkpt lat="44.76709" lon="5.90138">
        <ele>819.3</ele>
        <time>2020-02-27T14:30:50.000Z</time>
      </trkpt>
      <trkpt lat="44.76709" lon="5.90138">
        <ele>819.3</ele>
        <time>2020-02-27T14:30:49.000Z</time>
      </trkpt>
      <trkpt lat="44.76709" lon="5.90138">
        <ele>819.4</ele>
        <time>2020-02-27T14:30:48.000Z</time>
      </trkpt>
      <trkpt lat="44.76709" lon="5.90138">
        <ele>819.4</ele>
        <time>2020-02-27T14:30:47.000Z</time>
      </trkpt>
      <trkpt lat="44.76709" lon="5.90138">
        <ele>819.5</ele>
        <time>2020-02-27T14:30:46.000Z</time>
      </trkpt>
      <trkpt lat="44.76709" lon="5.90138">
        <ele>819.5</ele>
        <time>2020-02-27T14:30:45.000Z</time>
      </trkpt>
      <trkpt lat="44.76709" lon="5.90138">
        <ele>819.6</ele>
        <time>2020-02-27T14:30:44.000Z</time>
      </trkpt>
      <trkpt lat="44.76709" lon="5.90138">
        <ele>819.6</ele>
        <time>2020-02-27T14:30:43.000Z</time>
      </trkpt>
      <trkpt lat="44.76709" lon="5.90138">
        <ele>819.7</ele>
        <time>2020-02-27T14:30:42.000Z</time>
      </trkpt>
      <trkpt lat="44.76709" lon="5.90138">
        <ele>819.7</ele>
        <time>2020-02-27T14:30:41.000Z</time>
      </trkpt>
      <trkpt lat="44.76709" lon="5.90138">
        <ele>819.8</ele>
        <time>2020-02-27T14:30:40.000Z</time>
      </trkpt>
      <trkpt lat="44.76709" lon="5.90138">
        <ele>819.8</ele>
        <time>2020-02-27T14:30:39.000Z</time>
      </trkpt>
      <trkpt lat="44.76709" lon="5.90138">
        <ele>819.9</ele>
        <time>2020-02-27T14:30:38.000Z</time>
      </trkpt>
      <trkpt lat="44.76709" lon="5.90138">
        <ele>819.9</ele>
        <time>2020-02-27T14:30:37.000Z</time>
      </trkpt>
      <trkpt lat="44.76709" lon="5.90138">
        <ele>820</ele>
        <time>2020-02-27T14:30:36.000Z</time>
      </trkpt>
      <trkpt lat="44.76709" lon="5.90138">
        <ele>820</ele>
        <time>2020-02-27T14:30:35.000Z</time>
      </trkpt>
      <trkpt lat="44.76709" lon="5.90138">
        <ele>820.1</ele>
        <time>2020-02-27T14:30:34.000Z</time>
      </trkpt>
      <trkpt lat="44.76709" lon="5.90138">
        <ele>820.2</ele>
        <time>2020-02-27T14:30:33.000Z</time>
      </trkpt>
      <trkpt lat="44.76709" lon="5.90138">
        <ele>820.2</ele>
        <time>2020-02-27T14:30:32.000Z</time>
      </trkpt>
      <trkpt lat="44.76709" lon="5.90138">
        <ele>820.3</ele>
        <time>2020-02-27T14:30:31.000Z</time>
      </trkpt>
      <trkpt lat="44.76709" lon="5.90138">
        <ele>820.4</ele>
        <time>2020-02-27T14:30:30.000Z</time>
      </trkpt>
      <trkpt lat="44.76709" lon="5.90138">
        <ele>820.5</ele>
        <time>2020-02-27T14:30:29.000Z</time>
      </trkpt>
      <trkpt lat="44.76709" lon="5.90138">
        <ele>820.5</ele>
        <time>2020-02-27T14:30:28.000Z</time>
      </trkpt>
      <trkpt lat="44.76709" lon="5.90138">
        <ele>820.6</ele>
        <time>2020-02-27T14:30:27.000Z</time>
      </trkpt>
      <trkpt lat="44.76709" lon="5.90138">
        <ele>820.7</ele>
        <time>2020-02-27T14:30:26.000Z</time>
      </trkpt>
      <trkpt lat="44.76709" lon="5.90138">
        <ele>820.8</ele>
        <time>2020-02-27T14:30:25.000Z</time>
      </trkpt>
      <trkpt lat="44.76709" lon="5.90138">
        <ele>820.9</ele>
        <time>2020-02-27T14:30:24.000Z</time>
      </trkpt>
      <trkpt lat="44.7671" lon="5.90137">
        <ele>821</ele>
        <time>2020-02-27T14:30:23.000Z</time>
      </trkpt>
      <trkpt lat="44.7671" lon="5.90136">
        <ele>821.1</ele>
        <time>2020-02-27T14:30:22.000Z</time>
      </trkpt>
      <trkpt lat="44.76711" lon="5.90136">
        <ele>821.2</ele>
        <time>2020-02-27T14:30:21.000Z</time>
      </trkpt>
      <trkpt lat="44.76711" lon="5.90136">
        <ele>821.3</ele>
        <time>2020-02-27T14:30:20.000Z</time>
      </trkpt>
      <trkpt lat="44.76711" lon="5.90136">
        <ele>821.4</ele>
        <time>2020-02-27T14:30:19.000Z</time>
      </trkpt>
      <trkpt lat="44.76711" lon="5.90136">
        <ele>821.5</ele>
        <time>2020-02-27T14:30:18.000Z</time>
      </trkpt>
      <trkpt lat="44.76711" lon="5.90136">
        <ele>821.6</ele>
        <time>2020-02-27T14:30:17.000Z</time>
      </trkpt>
      <trkpt lat="44.76711" lon="5.90136">
        <ele>821.7</ele>
        <time>2020-02-27T14:30:16.000Z</time>
      </trkpt>
      <trkpt lat="44.7671" lon="5.90136">
        <ele>821.8</ele>
        <time>2020-02-27T14:30:15.000Z</time>
      </trkpt>
      <trkpt lat="44.7671" lon="5.90136">
        <ele>821.9</ele>
        <time>2020-02-27T14:30:14.000Z</time>
      </trkpt>
      <trkpt lat="44.76711" lon="5.90136">
        <ele>822.1</ele>
        <time>2020-02-27T14:30:13.000Z</time>
      </trkpt>
      <trkpt lat="44.76711" lon="5.90135">
        <ele>822.2</ele>
        <time>2020-02-27T14:30:12.000Z</time>
      </trkpt>
      <trkpt lat="44.76712" lon="5.90134">
        <ele>822.3</ele>
        <time>2020-02-27T14:30:11.000Z</time>
      </trkpt>
      <trkpt lat="44.76712" lon="5.90133">
        <ele>822.5</ele>
        <time>2020-02-27T14:30:10.000Z</time>
      </trkpt>
      <trkpt lat="44.76711" lon="5.90132">
        <ele>822.6</ele>
        <time>2020-02-27T14:30:09.000Z</time>
      </trkpt>
      <trkpt lat="44.76711" lon="5.90131">
        <ele>822.8</ele>
        <time>2020-02-27T14:30:08.000Z</time>
      </trkpt>
      <trkpt lat="44.76711" lon="5.90129">
        <ele>823</ele>
        <time>2020-02-27T14:30:07.000Z</time>
      </trkpt>
      <trkpt lat="44.76712" lon="5.90128">
        <ele>823.2</ele>
        <time>2020-02-27T14:30:06.000Z</time>
      </trkpt>
      <trkpt lat="44.76712" lon="5.90127">
        <ele>823.4</ele>
        <time>2020-02-27T14:30:05.000Z</time>
      </trkpt>
      <trkpt lat="44.76713" lon="5.90124">
        <ele>823.5</ele>
        <time>2020-02-27T14:30:04.000Z</time>
      </trkpt>
      <trkpt lat="44.76713" lon="5.90122">
        <ele>823.6</ele>
        <time>2020-02-27T14:30:03.000Z</time>
      </trkpt>
      <trkpt lat="44.76713" lon="5.9012">
        <ele>823.7</ele>
        <time>2020-02-27T14:30:02.000Z</time>
      </trkpt>
      <trkpt lat="44.76715" lon="5.90117">
        <ele>823.8</ele>
        <time>2020-02-27T14:30:01.000Z</time>
      </trkpt>
      <trkpt lat="44.76716" lon="5.90115">
        <ele>823.9</ele>
        <time>2020-02-27T14:30:00.000Z</time>
      </trkpt>
      <trkpt lat="44.76717" lon="5.90114">
        <ele>824</ele>
        <time>2020-02-27T14:29:59.000Z</time>
      </trkpt>
      <trkpt lat="44.76718" lon="5.90112">
        <ele>824.1</ele>
        <time>2020-02-27T14:29:58.000Z</time>
      </trkpt>
      <trkpt lat="44.76718" lon="5.90111">
        <ele>824.2</ele>
        <time>2020-02-27T14:29:57.000Z</time>
      </trkpt>
      <trkpt lat="44.76719" lon="5.9011">
        <ele>824.3</ele>
        <time>2020-02-27T14:29:56.000Z</time>
      </trkpt>
      <trkpt lat="44.7672" lon="5.90109">
        <ele>824.4</ele>
        <time>2020-02-27T14:29:55.000Z</time>
      </trkpt>
      <trkpt lat="44.76721" lon="5.90109">
        <ele>824.5</ele>
        <time>2020-02-27T14:29:54.000Z</time>
      </trkpt>
      <trkpt lat="44.76721" lon="5.90108">
        <ele>824.7</ele>
        <time>2020-02-27T14:29:53.000Z</time>
      </trkpt>
      <trkpt lat="44.76722" lon="5.90106">
        <ele>824.8</ele>
        <time>2020-02-27T14:29:52.000Z</time>
      </trkpt>
      <trkpt lat="44.76723" lon="5.90105">
        <ele>825</ele>
        <time>2020-02-27T14:29:51.000Z</time>
      </trkpt>
      <trkpt lat="44.76723" lon="5.90104">
        <ele>825.2</ele>
        <time>2020-02-27T14:29:50.000Z</time>
      </trkpt>
      <trkpt lat="44.76724" lon="5.90103">
        <ele>825.3</ele>
        <time>2020-02-27T14:29:49.000Z</time>
      </trkpt>
      <trkpt lat="44.76724" lon="5.90102">
        <ele>825.5</ele>
        <time>2020-02-27T14:29:48.000Z</time>
      </trkpt>
      <trkpt lat="44.76725" lon="5.90101">
        <ele>825.7</ele>
        <time>2020-02-27T14:29:47.000Z</time>
      </trkpt>
      <trkpt lat="44.76725" lon="5.901">
        <ele>826</ele>
        <time>2020-02-27T14:29:46.000Z</time>
      </trkpt>
      <trkpt lat="44.76726" lon="5.90099">
        <ele>826.2</ele>
        <time>2020-02-27T14:29:45.000Z</time>
      </trkpt>
      <trkpt lat="44.76727" lon="5.90099">
        <ele>826.4</ele>
        <time>2020-02-27T14:29:44.000Z</time>
      </trkpt>
      <trkpt lat="44.76728" lon="5.90097">
        <ele>826.7</ele>
        <time>2020-02-27T14:29:43.000Z</time>
      </trkpt>
      <trkpt lat="44.76728" lon="5.90096">
        <ele>826.9</ele>
        <time>2020-02-27T14:29:42.000Z</time>
      </trkpt>
      <trkpt lat="44.76729" lon="5.90094">
        <ele>827.2</ele>
        <time>2020-02-27T14:29:41.000Z</time>
      </trkpt>
      <trkpt lat="44.7673" lon="5.90094">
        <ele>827.5</ele>
        <time>2020-02-27T14:29:40.000Z</time>
      </trkpt>
      <trkpt lat="44.76731" lon="5.90092">
        <ele>827.8</ele>
        <time>2020-02-27T14:29:39.000Z</time>
      </trkpt>
      <trkpt lat="44.76732" lon="5.90091">
        <ele>828</ele>
        <time>2020-02-27T14:29:38.000Z</time>
      </trkpt>
      <trkpt lat="44.76732" lon="5.90089">
        <ele>828.3</ele>
        <time>2020-02-27T14:29:37.000Z</time>
      </trkpt>
      <trkpt lat="44.76733" lon="5.90088">
        <ele>828.7</ele>
        <time>2020-02-27T14:29:36.000Z</time>
      </trkpt>
      <trkpt lat="44.76734" lon="5.90087">
        <ele>828.9</ele>
        <time>2020-02-27T14:29:35.000Z</time>
      </trkpt>
      <trkpt lat="44.76734" lon="5.90086">
        <ele>829.2</ele>
        <time>2020-02-27T14:29:34.000Z</time>
      </trkpt>
      <trkpt lat="44.76735" lon="5.90085">
        <ele>829.5</ele>
        <time>2020-02-27T14:29:33.000Z</time>
      </trkpt>
      <trkpt lat="44.76735" lon="5.90083">
        <ele>829.8</ele>
        <time>2020-02-27T14:29:32.000Z</time>
      </trkpt>
      <trkpt lat="44.76737" lon="5.90082">
        <ele>830.1</ele>
        <time>2020-02-27T14:29:31.000Z</time>
      </trkpt>
      <trkpt lat="44.76737" lon="5.9008">
        <ele>830.4</ele>
        <time>2020-02-27T14:29:30.000Z</time>
      </trkpt>
      <trkpt lat="44.76738" lon="5.90078">
        <ele>830.7</ele>
        <time>2020-02-27T14:29:29.000Z</time>
      </trkpt>
      <trkpt lat="44.76738" lon="5.90076">
        <ele>831</ele>
        <time>2020-02-27T14:29:28.000Z</time>
      </trkpt>
      <trkpt lat="44.7674" lon="5.90075">
        <ele>831.3</ele>
        <time>2020-02-27T14:29:27.000Z</time>
      </trkpt>
      <trkpt lat="44.7674" lon="5.90074">
        <ele>831.5</ele>
        <time>2020-02-27T14:29:26.000Z</time>
      </trkpt>
      <trkpt lat="44.76741" lon="5.90072">
        <ele>831.8</ele>
        <time>2020-02-27T14:29:25.000Z</time>
      </trkpt>
      <trkpt lat="44.76742" lon="5.90071">
        <ele>832.1</ele>
        <time>2020-02-27T14:29:24.000Z</time>
      </trkpt>
      <trkpt lat="44.76742" lon="5.9007">
        <ele>832.4</ele>
        <time>2020-02-27T14:29:23.000Z</time>
      </trkpt>
      <trkpt lat="44.76742" lon="5.90068">
        <ele>832.6</ele>
        <time>2020-02-27T14:29:22.000Z</time>
      </trkpt>
      <trkpt lat="44.76743" lon="5.90065">
        <ele>832.9</ele>
        <time>2020-02-27T14:29:21.000Z</time>
      </trkpt>
      <trkpt lat="44.76744" lon="5.90064">
        <ele>833.2</ele>
        <time>2020-02-27T14:29:20.000Z</time>
      </trkpt>
      <trkpt lat="44.76744" lon="5.90062">
        <ele>833.5</ele>
        <time>2020-02-27T14:29:19.000Z</time>
      </trkpt>
      <trkpt lat="44.76745" lon="5.90061">
        <ele>833.8</ele>
        <time>2020-02-27T14:29:18.000Z</time>
      </trkpt>
      <trkpt lat="44.76746" lon="5.90059">
        <ele>834</ele>
        <time>2020-02-27T14:29:17.000Z</time>
      </trkpt>
      <trkpt lat="44.76746" lon="5.90057">
        <ele>834.3</ele>
        <time>2020-02-27T14:29:16.000Z</time>
      </trkpt>
      <trkpt lat="44.76746" lon="5.90055">
        <ele>834.5</ele>
        <time>2020-02-27T14:29:15.000Z</time>
      </trkpt>
      <trkpt lat="44.76747" lon="5.90052">
        <ele>834.8</ele>
        <time>2020-02-27T14:29:14.000Z</time>
      </trkpt>
      <trkpt lat="44.76748" lon="5.9005">
        <ele>835</ele>
        <time>2020-02-27T14:29:13.000Z</time>
      </trkpt>
      <trkpt lat="44.76748" lon="5.90048">
        <ele>835.3</ele>
        <time>2020-02-27T14:29:12.000Z</time>
      </trkpt>
      <trkpt lat="44.76748" lon="5.90046">
        <ele>835.6</ele>
        <time>2020-02-27T14:29:11.000Z</time>
      </trkpt>
      <trkpt lat="44.76749" lon="5.90045">
        <ele>835.8</ele>
        <time>2020-02-27T14:29:10.000Z</time>
      </trkpt>
      <trkpt lat="44.7675" lon="5.90043">
        <ele>836</ele>
        <time>2020-02-27T14:29:09.000Z</time>
      </trkpt>
      <trkpt lat="44.7675" lon="5.90042">
        <ele>836.3</ele>
        <time>2020-02-27T14:29:08.000Z</time>
      </trkpt>
      <trkpt lat="44.7675" lon="5.90041">
        <ele>836.6</ele>
        <time>2020-02-27T14:29:07.000Z</time>
      </trkpt>
      <trkpt lat="44.7675" lon="5.90039">
        <ele>836.9</ele>
        <time>2020-02-27T14:29:06.000Z</time>
      </trkpt>
      <trkpt lat="44.76749" lon="5.90037">
        <ele>837.1</ele>
        <time>2020-02-27T14:29:05.000Z</time>
      </trkpt>
      <trkpt lat="44.76749" lon="5.90036">
        <ele>837.3</ele>
        <time>2020-02-27T14:29:04.000Z</time>
      </trkpt>
      <trkpt lat="44.76749" lon="5.90034">
        <ele>837.6</ele>
        <time>2020-02-27T14:29:03.000Z</time>
      </trkpt>
      <trkpt lat="44.7675" lon="5.90033">
        <ele>837.8</ele>
        <time>2020-02-27T14:29:02.000Z</time>
      </trkpt>
      <trkpt lat="44.7675" lon="5.90031">
        <ele>838.1</ele>
        <time>2020-02-27T14:29:01.000Z</time>
      </trkpt>
      <trkpt lat="44.76751" lon="5.9003">
        <ele>838.3</ele>
        <time>2020-02-27T14:29:00.000Z</time>
      </trkpt>
      <trkpt lat="44.76751" lon="5.90031">
        <ele>838.5</ele>
        <time>2020-02-27T14:28:59.000Z</time>
      </trkpt>
      <trkpt lat="44.76751" lon="5.90031">
        <ele>838.7</ele>
        <time>2020-02-27T14:28:58.000Z</time>
      </trkpt>
      <trkpt lat="44.76751" lon="5.90032">
        <ele>838.9</ele>
        <time>2020-02-27T14:28:57.000Z</time>
      </trkpt>
      <trkpt lat="44.76751" lon="5.90033">
        <ele>839.1</ele>
        <time>2020-02-27T14:28:56.000Z</time>
      </trkpt>
      <trkpt lat="44.76751" lon="5.90033">
        <ele>839.3</ele>
        <time>2020-02-27T14:28:55.000Z</time>
      </trkpt>
      <trkpt lat="44.76751" lon="5.90034">
        <ele>839.5</ele>
        <time>2020-02-27T14:28:54.000Z</time>
      </trkpt>
      <trkpt lat="44.76752" lon="5.90036">
        <ele>839.7</ele>
        <time>2020-02-27T14:28:53.000Z</time>
      </trkpt>
      <trkpt lat="44.76753" lon="5.90037">
        <ele>839.9</ele>
        <time>2020-02-27T14:28:52.000Z</time>
      </trkpt>
      <trkpt lat="44.76753" lon="5.90039">
        <ele>840.2</ele>
        <time>2020-02-27T14:28:51.000Z</time>
      </trkpt>
      <trkpt lat="44.76754" lon="5.90041">
        <ele>840.5</ele>
        <time>2020-02-27T14:28:50.000Z</time>
      </trkpt>
      <trkpt lat="44.76755" lon="5.90042">
        <ele>840.7</ele>
        <time>2020-02-27T14:28:49.000Z</time>
      </trkpt>
      <trkpt lat="44.76756" lon="5.90043">
        <ele>841</ele>
        <time>2020-02-27T14:28:48.000Z</time>
      </trkpt>
      <trkpt lat="44.76756" lon="5.90045">
        <ele>841.3</ele>
        <time>2020-02-27T14:28:47.000Z</time>
      </trkpt>
      <trkpt lat="44.76757" lon="5.90046">
        <ele>841.5</ele>
        <time>2020-02-27T14:28:46.000Z</time>
      </trkpt>
      <trkpt lat="44.76757" lon="5.90047">
        <ele>841.9</ele>
        <time>2020-02-27T14:28:45.000Z</time>
      </trkpt>
      <trkpt lat="44.76758" lon="5.90048">
        <ele>842.1</ele>
        <time>2020-02-27T14:28:44.000Z</time>
      </trkpt>
      <trkpt lat="44.76758" lon="5.90049">
        <ele>842.4</ele>
        <time>2020-02-27T14:28:43.000Z</time>
      </trkpt>
      <trkpt lat="44.76758" lon="5.9005">
        <ele>842.6</ele>
        <time>2020-02-27T14:28:42.000Z</time>
      </trkpt>
      <trkpt lat="44.76758" lon="5.90051">
        <ele>842.9</ele>
        <time>2020-02-27T14:28:41.000Z</time>
      </trkpt>
      <trkpt lat="44.76759" lon="5.90053">
        <ele>843.2</ele>
        <time>2020-02-27T14:28:40.000Z</time>
      </trkpt>
      <trkpt lat="44.76759" lon="5.90054">
        <ele>843.4</ele>
        <time>2020-02-27T14:28:39.000Z</time>
      </trkpt>
      <trkpt lat="44.7676" lon="5.90055">
        <ele>843.7</ele>
        <time>2020-02-27T14:28:38.000Z</time>
      </trkpt>
      <trkpt lat="44.7676" lon="5.90056">
        <ele>843.9</ele>
        <time>2020-02-27T14:28:37.000Z</time>
      </trkpt>
      <trkpt lat="44.76761" lon="5.90057">
        <ele>844.2</ele>
        <time>2020-02-27T14:28:36.000Z</time>
      </trkpt>
      <trkpt lat="44.76761" lon="5.90058">
        <ele>844.4</ele>
        <time>2020-02-27T14:28:35.000Z</time>
      </trkpt>
      <trkpt lat="44.76761" lon="5.90059">
        <ele>844.7</ele>
        <time>2020-02-27T14:28:34.000Z</time>
      </trkpt>
      <trkpt lat="44.76761" lon="5.90061">
        <ele>844.9</ele>
        <time>2020-02-27T14:28:33.000Z</time>
      </trkpt>
      <trkpt lat="44.76761" lon="5.90063">
        <ele>845.1</ele>
        <time>2020-02-27T14:28:32.000Z</time>
      </trkpt>
      <trkpt lat="44.76761" lon="5.90065">
        <ele>845.3</ele>
        <time>2020-02-27T14:28:31.000Z</time>
      </trkpt>
      <trkpt lat="44.76761" lon="5.90067">
        <ele>845.5</ele>
        <time>2020-02-27T14:28:30.000Z</time>
      </trkpt>
      <trkpt lat="44.76762" lon="5.90068">
        <ele>845.7</ele>
        <time>2020-02-27T14:28:29.000Z</time>
      </trkpt>
      <trkpt lat="44.76762" lon="5.9007">
        <ele>846</ele>
        <time>2020-02-27T14:28:28.000Z</time>
      </trkpt>
      <trkpt lat="44.76763" lon="5.90071">
        <ele>846.3</ele>
        <time>2020-02-27T14:28:27.000Z</time>
      </trkpt>
      <trkpt lat="44.76763" lon="5.90073">
        <ele>846.5</ele>
        <time>2020-02-27T14:28:26.000Z</time>
      </trkpt>
      <trkpt lat="44.76763" lon="5.90076">
        <ele>846.8</ele>
        <time>2020-02-27T14:28:25.000Z</time>
      </trkpt>
      <trkpt lat="44.76764" lon="5.90077">
        <ele>847</ele>
        <time>2020-02-27T14:28:24.000Z</time>
      </trkpt>
      <trkpt lat="44.76764" lon="5.90078">
        <ele>847.2</ele>
        <time>2020-02-27T14:28:23.000Z</time>
      </trkpt>
      <trkpt lat="44.76764" lon="5.9008">
        <ele>847.5</ele>
        <time>2020-02-27T14:28:22.000Z</time>
      </trkpt>
      <trkpt lat="44.76764" lon="5.90081">
        <ele>847.7</ele>
        <time>2020-02-27T14:28:21.000Z</time>
      </trkpt>
      <trkpt lat="44.76764" lon="5.90082">
        <ele>847.9</ele>
        <time>2020-02-27T14:28:20.000Z</time>
      </trkpt>
      <trkpt lat="44.76764" lon="5.90084">
        <ele>848.2</ele>
        <time>2020-02-27T14:28:19.000Z</time>
      </trkpt>
      <trkpt lat="44.76764" lon="5.90085">
        <ele>848.4</ele>
        <time>2020-02-27T14:28:18.000Z</time>
      </trkpt>
      <trkpt lat="44.76765" lon="5.90087">
        <ele>848.7</ele>
        <time>2020-02-27T14:28:17.000Z</time>
      </trkpt>
      <trkpt lat="44.76766" lon="5.90091">
        <ele>848.9</ele>
        <time>2020-02-27T14:28:16.000Z</time>
      </trkpt>
      <trkpt lat="44.76767" lon="5.90093">
        <ele>849.2</ele>
        <time>2020-02-27T14:28:15.000Z</time>
      </trkpt>
      <trkpt lat="44.76767" lon="5.90095">
        <ele>849.4</ele>
        <time>2020-02-27T14:28:14.000Z</time>
      </trkpt>
      <trkpt lat="44.76768" lon="5.90096">
        <ele>849.7</ele>
        <time>2020-02-27T14:28:13.000Z</time>
      </trkpt>
      <trkpt lat="44.76768" lon="5.90098">
        <ele>849.9</ele>
        <time>2020-02-27T14:28:12.000Z</time>
      </trkpt>
      <trkpt lat="44.76769" lon="5.901">
        <ele>850.1</ele>
        <time>2020-02-27T14:28:11.000Z</time>
      </trkpt>
      <trkpt lat="44.76769" lon="5.90102">
        <ele>850.3</ele>
        <time>2020-02-27T14:28:10.000Z</time>
      </trkpt>
      <trkpt lat="44.76769" lon="5.90104">
        <ele>850.5</ele>
        <time>2020-02-27T14:28:09.000Z</time>
      </trkpt>
      <trkpt lat="44.7677" lon="5.90106">
        <ele>850.7</ele>
        <time>2020-02-27T14:28:08.000Z</time>
      </trkpt>
      <trkpt lat="44.7677" lon="5.90107">
        <ele>850.9</ele>
        <time>2020-02-27T14:28:07.000Z</time>
      </trkpt>
      <trkpt lat="44.76771" lon="5.90109">
        <ele>851.1</ele>
        <time>2020-02-27T14:28:06.000Z</time>
      </trkpt>
      <trkpt lat="44.76771" lon="5.9011">
        <ele>851.3</ele>
        <time>2020-02-27T14:28:05.000Z</time>
      </trkpt>
      <trkpt lat="44.76772" lon="5.90112">
        <ele>851.4</ele>
        <time>2020-02-27T14:28:04.000Z</time>
      </trkpt>
      <trkpt lat="44.76772" lon="5.90114">
        <ele>851.6</ele>
        <time>2020-02-27T14:28:03.000Z</time>
      </trkpt>
      <trkpt lat="44.76772" lon="5.90115">
        <ele>851.8</ele>
        <time>2020-02-27T14:28:02.000Z</time>
      </trkpt>
      <trkpt lat="44.76772" lon="5.90117">
        <ele>851.9</ele>
        <time>2020-02-27T14:28:01.000Z</time>
      </trkpt>
      <trkpt lat="44.76773" lon="5.90119">
        <ele>852.1</ele>
        <time>2020-02-27T14:28:00.000Z</time>
      </trkpt>
      <trkpt lat="44.76773" lon="5.9012">
        <ele>852.2</ele>
        <time>2020-02-27T14:27:59.000Z</time>
      </trkpt>
      <trkpt lat="44.76773" lon="5.90122">
        <ele>852.3</ele>
        <time>2020-02-27T14:27:58.000Z</time>
      </trkpt>
      <trkpt lat="44.76773" lon="5.90123">
        <ele>852.4</ele>
        <time>2020-02-27T14:27:57.000Z</time>
      </trkpt>
      <trkpt lat="44.76773" lon="5.90125">
        <ele>852.5</ele>
        <time>2020-02-27T14:27:56.000Z</time>
      </trkpt>
      <trkpt lat="44.76773" lon="5.90126">
        <ele>852.5</ele>
        <time>2020-02-27T14:27:55.000Z</time>
      </trkpt>
      <trkpt lat="44.76773" lon="5.90128">
        <ele>852.6</ele>
        <time>2020-02-27T14:27:54.000Z</time>
      </trkpt>
      <trkpt lat="44.76772" lon="5.90129">
        <ele>852.6</ele>
        <time>2020-02-27T14:27:53.000Z</time>
      </trkpt>
      <trkpt lat="44.76772" lon="5.90131">
        <ele>852.7</ele>
        <time>2020-02-27T14:27:52.000Z</time>
      </trkpt>
      <trkpt lat="44.76772" lon="5.90132">
        <ele>852.6</ele>
        <time>2020-02-27T14:27:51.000Z</time>
      </trkpt>
      <trkpt lat="44.76771" lon="5.90133">
        <ele>852.6</ele>
        <time>2020-02-27T14:27:50.000Z</time>
      </trkpt>
      <trkpt lat="44.7677" lon="5.90135">
        <ele>852.5</ele>
        <time>2020-02-27T14:27:49.000Z</time>
      </trkpt>
      <trkpt lat="44.76769" lon="5.90136">
        <ele>852.4</ele>
        <time>2020-02-27T14:27:48.000Z</time>
      </trkpt>
      <trkpt lat="44.76769" lon="5.90138">
        <ele>852.3</ele>
        <time>2020-02-27T14:27:47.000Z</time>
      </trkpt>
      <trkpt lat="44.76767" lon="5.9014">
        <ele>852.2</ele>
        <time>2020-02-27T14:27:46.000Z</time>
      </trkpt>
      <trkpt lat="44.76767" lon="5.90141">
        <ele>852.1</ele>
        <time>2020-02-27T14:27:45.000Z</time>
      </trkpt>
      <trkpt lat="44.76766" lon="5.90142">
        <ele>852</ele>
        <time>2020-02-27T14:27:44.000Z</time>
      </trkpt>
      <trkpt lat="44.76766" lon="5.90143">
        <ele>851.9</ele>
        <time>2020-02-27T14:27:43.000Z</time>
      </trkpt>
      <trkpt lat="44.76765" lon="5.90145">
        <ele>851.7</ele>
        <time>2020-02-27T14:27:42.000Z</time>
      </trkpt>
      <trkpt lat="44.76765" lon="5.90145">
        <ele>851.6</ele>
        <time>2020-02-27T14:27:41.000Z</time>
      </trkpt>
      <trkpt lat="44.76765" lon="5.90145">
        <ele>851.5</ele>
        <time>2020-02-27T14:27:40.000Z</time>
      </trkpt>
      <trkpt lat="44.76765" lon="5.90145">
        <ele>851.3</ele>
        <time>2020-02-27T14:27:39.000Z</time>
      </trkpt>
      <trkpt lat="44.76765" lon="5.90146">
        <ele>851.2</ele>
        <time>2020-02-27T14:27:38.000Z</time>
      </trkpt>
      <trkpt lat="44.76765" lon="5.90146">
        <ele>851</ele>
        <time>2020-02-27T14:27:37.000Z</time>
      </trkpt>
      <trkpt lat="44.76765" lon="5.90147">
        <ele>850.9</ele>
        <time>2020-02-27T14:27:36.000Z</time>
      </trkpt>
      <trkpt lat="44.76765" lon="5.90149">
        <ele>850.8</ele>
        <time>2020-02-27T14:27:35.000Z</time>
      </trkpt>
      <trkpt lat="44.76765" lon="5.90149">
        <ele>850.7</ele>
        <time>2020-02-27T14:27:34.000Z</time>
      </trkpt>
      <trkpt lat="44.76764" lon="5.90151">
        <ele>850.5</ele>
        <time>2020-02-27T14:27:33.000Z</time>
      </trkpt>
      <trkpt lat="44.76764" lon="5.90152">
        <ele>850.4</ele>
        <time>2020-02-27T14:27:32.000Z</time>
      </trkpt>
      <trkpt lat="44.76764" lon="5.90153">
        <ele>850.2</ele>
        <time>2020-02-27T14:27:31.000Z</time>
      </trkpt>
      <trkpt lat="44.76765" lon="5.90155">
        <ele>850.1</ele>
        <time>2020-02-27T14:27:30.000Z</time>
      </trkpt>
      <trkpt lat="44.76765" lon="5.90156">
        <ele>849.9</ele>
        <time>2020-02-27T14:27:29.000Z</time>
      </trkpt>
      <trkpt lat="44.76765" lon="5.90157">
        <ele>849.8</ele>
        <time>2020-02-27T14:27:28.000Z</time>
      </trkpt>
      <trkpt lat="44.76765" lon="5.90158">
        <ele>849.7</ele>
        <time>2020-02-27T14:27:27.000Z</time>
      </trkpt>
      <trkpt lat="44.76765" lon="5.90159">
        <ele>849.5</ele>
        <time>2020-02-27T14:27:26.000Z</time>
      </trkpt>
      <trkpt lat="44.76765" lon="5.9016">
        <ele>849.4</ele>
        <time>2020-02-27T14:27:25.000Z</time>
      </trkpt>
      <trkpt lat="44.76766" lon="5.90162">
        <ele>849.3</ele>
        <time>2020-02-27T14:27:24.000Z</time>
      </trkpt>
      <trkpt lat="44.76766" lon="5.90163">
        <ele>849.2</ele>
        <time>2020-02-27T14:27:23.000Z</time>
      </trkpt>
      <trkpt lat="44.76766" lon="5.90164">
        <ele>849.1</ele>
        <time>2020-02-27T14:27:22.000Z</time>
      </trkpt>
      <trkpt lat="44.76767" lon="5.90165">
        <ele>849</ele>
        <time>2020-02-27T14:27:21.000Z</time>
      </trkpt>
      <trkpt lat="44.76767" lon="5.90166">
        <ele>848.9</ele>
        <time>2020-02-27T14:27:20.000Z</time>
      </trkpt>
      <trkpt lat="44.76767" lon="5.90168">
        <ele>848.8</ele>
        <time>2020-02-27T14:27:19.000Z</time>
      </trkpt>
      <trkpt lat="44.76768" lon="5.90169">
        <ele>848.7</ele>
        <time>2020-02-27T14:27:18.000Z</time>
      </trkpt>
      <trkpt lat="44.76769" lon="5.9017">
        <ele>848.6</ele>
        <time>2020-02-27T14:27:17.000Z</time>
      </trkpt>
      <trkpt lat="44.76769" lon="5.90171">
        <ele>848.5</ele>
        <time>2020-02-27T14:27:16.000Z</time>
      </trkpt>
      <trkpt lat="44.76769" lon="5.90173">
        <ele>848.4</ele>
        <time>2020-02-27T14:27:15.000Z</time>
      </trkpt>
      <trkpt lat="44.7677" lon="5.90174">
        <ele>848.3</ele>
        <time>2020-02-27T14:27:14.000Z</time>
      </trkpt>
      <trkpt lat="44.7677" lon="5.90175">
        <ele>848.2</ele>
        <time>2020-02-27T14:27:13.000Z</time>
      </trkpt>
      <trkpt lat="44.76771" lon="5.90177">
        <ele>848.1</ele>
        <time>2020-02-27T14:27:12.000Z</time>
      </trkpt>
      <trkpt lat="44.76771" lon="5.90178">
        <ele>848</ele>
        <time>2020-02-27T14:27:11.000Z</time>
      </trkpt>
      <trkpt lat="44.76771" lon="5.9018">
        <ele>847.9</ele>
        <time>2020-02-27T14:27:10.000Z</time>
      </trkpt>
      <trkpt lat="44.76771" lon="5.90181">
        <ele>847.8</ele>
        <time>2020-02-27T14:27:09.000Z</time>
      </trkpt>
      <trkpt lat="44.7677" lon="5.90182">
        <ele>847.7</ele>
        <time>2020-02-27T14:27:08.000Z</time>
      </trkpt>
      <trkpt lat="44.7677" lon="5.90183">
        <ele>847.5</ele>
        <time>2020-02-27T14:27:07.000Z</time>
      </trkpt>
      <trkpt lat="44.76769" lon="5.90185">
        <ele>847.4</ele>
        <time>2020-02-27T14:27:06.000Z</time>
      </trkpt>
      <trkpt lat="44.76769" lon="5.90185">
        <ele>847.3</ele>
        <time>2020-02-27T14:27:05.000Z</time>
      </trkpt>
      <trkpt lat="44.76768" lon="5.90186">
        <ele>847.1</ele>
        <time>2020-02-27T14:27:04.000Z</time>
      </trkpt>
      <trkpt lat="44.76767" lon="5.90186">
        <ele>846.9</ele>
        <time>2020-02-27T14:27:03.000Z</time>
      </trkpt>
      <trkpt lat="44.76766" lon="5.90187">
        <ele>846.7</ele>
        <time>2020-02-27T14:27:02.000Z</time>
      </trkpt>
      <trkpt lat="44.76766" lon="5.90187">
        <ele>846.6</ele>
        <time>2020-02-27T14:27:01.000Z</time>
      </trkpt>
      <trkpt lat="44.76765" lon="5.90188">
        <ele>846.4</ele>
        <time>2020-02-27T14:27:00.000Z</time>
      </trkpt>
      <trkpt lat="44.76764" lon="5.90188">
        <ele>846.2</ele>
        <time>2020-02-27T14:26:59.000Z</time>
      </trkpt>
      <trkpt lat="44.76764" lon="5.90188">
        <ele>846</ele>
        <time>2020-02-27T14:26:58.000Z</time>
      </trkpt>
      <trkpt lat="44.76763" lon="5.90188">
        <ele>845.7</ele>
        <time>2020-02-27T14:26:57.000Z</time>
      </trkpt>
      <trkpt lat="44.76762" lon="5.90189">
        <ele>845.5</ele>
        <time>2020-02-27T14:26:56.000Z</time>
      </trkpt>
      <trkpt lat="44.76762" lon="5.90189">
        <ele>845.3</ele>
        <time>2020-02-27T14:26:55.000Z</time>
      </trkpt>
      <trkpt lat="44.76761" lon="5.90189">
        <ele>845.1</ele>
        <time>2020-02-27T14:26:54.000Z</time>
      </trkpt>
      <trkpt lat="44.76761" lon="5.9019">
        <ele>844.9</ele>
        <time>2020-02-27T14:26:53.000Z</time>
      </trkpt>
      <trkpt lat="44.7676" lon="5.9019">
        <ele>844.8</ele>
        <time>2020-02-27T14:26:52.000Z</time>
      </trkpt>
      <trkpt lat="44.76761" lon="5.90191">
        <ele>844.6</ele>
        <time>2020-02-27T14:26:51.000Z</time>
      </trkpt>
      <trkpt lat="44.7676" lon="5.90191">
        <ele>844.4</ele>
        <time>2020-02-27T14:26:50.000Z</time>
      </trkpt>
      <trkpt lat="44.76759" lon="5.90192">
        <ele>844.2</ele>
        <time>2020-02-27T14:26:49.000Z</time>
      </trkpt>
      <trkpt lat="44.76758" lon="5.90192">
        <ele>844</ele>
        <time>2020-02-27T14:26:48.000Z</time>
      </trkpt>
      <trkpt lat="44.76758" lon="5.90192">
        <ele>843.8</ele>
        <time>2020-02-27T14:26:47.000Z</time>
      </trkpt>
      <trkpt lat="44.76757" lon="5.90193">
        <ele>843.6</ele>
        <time>2020-02-27T14:26:46.000Z</time>
      </trkpt>
      <trkpt lat="44.76756" lon="5.90194">
        <ele>843.4</ele>
        <time>2020-02-27T14:26:45.000Z</time>
      </trkpt>
      <trkpt lat="44.76756" lon="5.90194">
        <ele>843.2</ele>
        <time>2020-02-27T14:26:44.000Z</time>
      </trkpt>
      <trkpt lat="44.76755" lon="5.90194">
        <ele>843.1</ele>
        <time>2020-02-27T14:26:43.000Z</time>
      </trkpt>
      <trkpt lat="44.76755" lon="5.90195">
        <ele>842.9</ele>
        <time>2020-02-27T14:26:42.000Z</time>
      </trkpt>
      <trkpt lat="44.76754" lon="5.90195">
        <ele>842.7</ele>
        <time>2020-02-27T14:26:41.000Z</time>
      </trkpt>
      <trkpt lat="44.76754" lon="5.90195">
        <ele>842.5</ele>
        <time>2020-02-27T14:26:40.000Z</time>
      </trkpt>
      <trkpt lat="44.76753" lon="5.90195">
        <ele>842.3</ele>
        <time>2020-02-27T14:26:39.000Z</time>
      </trkpt>
      <trkpt lat="44.76753" lon="5.90196">
        <ele>842.2</ele>
        <time>2020-02-27T14:26:38.000Z</time>
      </trkpt>
      <trkpt lat="44.76754" lon="5.90196">
        <ele>842</ele>
        <time>2020-02-27T14:26:37.000Z</time>
      </trkpt>
      <trkpt lat="44.76753" lon="5.90196">
        <ele>841.8</ele>
        <time>2020-02-27T14:26:36.000Z</time>
      </trkpt>
      <trkpt lat="44.76753" lon="5.90196">
        <ele>841.5</ele>
        <time>2020-02-27T14:26:35.000Z</time>
      </trkpt>
      <trkpt lat="44.76752" lon="5.90198">
        <ele>841.3</ele>
        <time>2020-02-27T14:26:34.000Z</time>
      </trkpt>
      <trkpt lat="44.76752" lon="5.90198">
        <ele>841.1</ele>
        <time>2020-02-27T14:26:33.000Z</time>
      </trkpt>
      <trkpt lat="44.76752" lon="5.90198">
        <ele>840.9</ele>
        <time>2020-02-27T14:26:32.000Z</time>
      </trkpt>
      <trkpt lat="44.76752" lon="5.90198">
        <ele>840.7</ele>
        <time>2020-02-27T14:26:31.000Z</time>
      </trkpt>
      <trkpt lat="44.76752" lon="5.90199">
        <ele>840.5</ele>
        <time>2020-02-27T14:26:30.000Z</time>
      </trkpt>
      <trkpt lat="44.76752" lon="5.90199">
        <ele>840.3</ele>
        <time>2020-02-27T14:26:29.000Z</time>
      </trkpt>
      <trkpt lat="44.76752" lon="5.902">
        <ele>840.1</ele>
        <time>2020-02-27T14:26:28.000Z</time>
      </trkpt>
      <trkpt lat="44.76752" lon="5.902">
        <ele>839.9</ele>
        <time>2020-02-27T14:26:27.000Z</time>
      </trkpt>
      <trkpt lat="44.76752" lon="5.90201">
        <ele>839.7</ele>
        <time>2020-02-27T14:26:26.000Z</time>
      </trkpt>
      <trkpt lat="44.76753" lon="5.90201">
        <ele>839.6</ele>
        <time>2020-02-27T14:26:25.000Z</time>
      </trkpt>
      <trkpt lat="44.76752" lon="5.90202">
        <ele>839.4</ele>
        <time>2020-02-27T14:26:24.000Z</time>
      </trkpt>
      <trkpt lat="44.76752" lon="5.90202">
        <ele>839.3</ele>
        <time>2020-02-27T14:26:23.000Z</time>
      </trkpt>
      <trkpt lat="44.76751" lon="5.90203">
        <ele>839.2</ele>
        <time>2020-02-27T14:26:22.000Z</time>
      </trkpt>
      <trkpt lat="44.76751" lon="5.90203">
        <ele>839.1</ele>
        <time>2020-02-27T14:26:21.000Z</time>
      </trkpt>
      <trkpt lat="44.7675" lon="5.90204">
        <ele>838.9</ele>
        <time>2020-02-27T14:26:20.000Z</time>
      </trkpt>
      <trkpt lat="44.7675" lon="5.90204">
        <ele>838.8</ele>
        <time>2020-02-27T14:26:19.000Z</time>
      </trkpt>
      <trkpt lat="44.76749" lon="5.90205">
        <ele>838.6</ele>
        <time>2020-02-27T14:26:18.000Z</time>
      </trkpt>
      <trkpt lat="44.76749" lon="5.90206">
        <ele>838.5</ele>
        <time>2020-02-27T14:26:17.000Z</time>
      </trkpt>
      <trkpt lat="44.76749" lon="5.90206">
        <ele>838.4</ele>
        <time>2020-02-27T14:26:16.000Z</time>
      </trkpt>
      <trkpt lat="44.76748" lon="5.90207">
        <ele>838.3</ele>
        <time>2020-02-27T14:26:15.000Z</time>
      </trkpt>
      <trkpt lat="44.76748" lon="5.90207">
        <ele>838.3</ele>
        <time>2020-02-27T14:26:14.000Z</time>
      </trkpt>
      <trkpt lat="44.76748" lon="5.90208">
        <ele>856.5</ele>
      </trkpt>
      <trkpt lat="44.7674" lon="5.90215">
        <ele>857.5</ele>
        <extensions>
          <visugpx:TrkExtension xmlns:visugpx="https://www.visugpx.com/editgpx/">
            <visugpx:node>1</visugpx:node>
            </visugpx:TrkExtension>
        </extensions>
      </trkpt>
      <trkpt lat="44.76737" lon="5.90218">
        <ele>857.8</ele>
      </trkpt>
      <trkpt lat="44.7674" lon="5.90208">
        <ele>857.3</ele>
        <extensions>
          <visugpx:TrkExtension xmlns:visugpx="https://www.visugpx.com/editgpx/">
            <visugpx:node>2</visugpx:node>
            </visugpx:TrkExtension>
        </extensions>
      </trkpt>
      <trkpt lat="44.76745" lon="5.90198">
        <ele>855.8</ele>
      </trkpt>
      <trkpt lat="44.76746" lon="5.90196">
        <ele>855.5</ele>
      </trkpt>
      <trkpt lat="44.76758" lon="5.90183">
        <ele>843.3</ele>
      </trkpt>
      <trkpt lat="44.76763" lon="5.90171">
        <ele>843.5</ele>
      </trkpt>
      <trkpt lat="44.76761" lon="5.90154">
        <ele>846.8</ele>
      </trkpt>
      <trkpt lat="44.76762" lon="5.90144">
        <ele>847.5</ele>
      </trkpt>
      <trkpt lat="44.76762" lon="5.90142">
        <ele>847.6</ele>
        <extensions>
          <visugpx:TrkExtension xmlns:visugpx="https://www.visugpx.com/editgpx/">
            <visugpx:node>14</visugpx:node>
            </visugpx:TrkExtension>
        </extensions>
      </trkpt>
      <trkpt lat="44.76764" lon="5.90136">
        <ele>848</ele>
      </trkpt>
      <trkpt lat="44.76768" lon="5.90128">
        <ele>848.6</ele>
      </trkpt>
      <trkpt lat="44.76774" lon="5.90119">
        <ele>849.3</ele>
      </trkpt>
      <trkpt lat="44.76777" lon="5.90113">
        <ele>849.7</ele>
      </trkpt>
      <trkpt lat="44.76779" lon="5.90109">
        <ele>849.9</ele>
        <extensions>
          <visugpx:TrkExtension xmlns:visugpx="https://www.visugpx.com/editgpx/">
            <visugpx:node>13</visugpx:node>
            </visugpx:TrkExtension>
        </extensions>
      </trkpt>
      <trkpt lat="44.76789" lon="5.90088">
        <ele>851.4</ele>
        <extensions>
          <visugpx:TrkExtension xmlns:visugpx="https://www.visugpx.com/editgpx/">
            <visugpx:node>12</visugpx:node>
            </visugpx:TrkExtension>
        </extensions>
      </trkpt>
      <trkpt lat="44.76793" lon="5.90071">
        <ele>861.2</ele>
        <extensions>
          <visugpx:TrkExtension xmlns:visugpx="https://www.visugpx.com/editgpx/">
            <visugpx:node>11</visugpx:node>
            </visugpx:TrkExtension>
        </extensions>
      </trkpt>
      <trkpt lat="44.76802" lon="5.90035">
        <ele>865.3</ele>
        <extensions>
          <visugpx:TrkExtension xmlns:visugpx="https://www.visugpx.com/editgpx/">
            <visugpx:node>10</visugpx:node>
            </visugpx:TrkExtension>
        </extensions>
      </trkpt>
      <trkpt lat="44.76805" lon="5.90019">
        <ele>867.9</ele>
      </trkpt>
      <trkpt lat="44.76806" lon="5.90009">
        <ele>869.5</ele>
        <extensions>
          <visugpx:TrkExtension xmlns:visugpx="https://www.visugpx.com/editgpx/">
            <visugpx:node>9</visugpx:node>
            </visugpx:TrkExtension>
        </extensions>
      </trkpt>
      <trkpt lat="44.76806" lon="5.90005">
        <ele>869.8</ele>
      </trkpt>
      <trkpt lat="44.768" lon="5.89939">
        <ele>884.8</ele>
      </trkpt>
      <trkpt lat="44.76778" lon="5.89874">
        <ele>895.9</ele>
      </trkpt>
      <trkpt lat="44.76766" lon="5.89856">
        <ele>895.1</ele>
      </trkpt>
      <trkpt lat="44.76764" lon="5.89845">
        <ele>894.5</ele>
      </trkpt>
      <trkpt lat="44.76766" lon="5.89821">
        <ele>901.4</ele>
        <extensions>
          <visugpx:TrkExtension xmlns:visugpx="https://www.visugpx.com/editgpx/">
            <visugpx:node>8</visugpx:node>
            </visugpx:TrkExtension>
        </extensions>
      </trkpt>
      <trkpt lat="44.76768" lon="5.89797">
        <ele>905.8</ele>
      </trkpt>
      <trkpt lat="44.76768" lon="5.89772">
        <ele>906.6</ele>
      </trkpt>
      <trkpt lat="44.76762" lon="5.89755">
        <ele>904.3</ele>
      </trkpt>
      <trkpt lat="44.76743" lon="5.89733">
        <ele>891.8</ele>
      </trkpt>
      <trkpt lat="44.76741" lon="5.89726">
        <ele>890.2</ele>
      </trkpt>
      <trkpt lat="44.76742" lon="5.89719">
        <ele>889.4</ele>
      </trkpt>
      <trkpt lat="44.76746" lon="5.89714">
        <ele>889.3</ele>
      </trkpt>
      <trkpt lat="44.76757" lon="5.89701">
        <ele>906.2</ele>
      </trkpt>
      <trkpt lat="44.76784" lon="5.89679">
        <ele>908.7</ele>
      </trkpt>
      <trkpt lat="44.76792" lon="5.8967">
        <ele>910.3</ele>
      </trkpt>
      <trkpt lat="44.76796" lon="5.89673">
        <ele>911.2</ele>
      </trkpt>
      <trkpt lat="44.76799" lon="5.89674">
        <ele>911.9</ele>
      </trkpt>
      <trkpt lat="44.76804" lon="5.8967">
        <ele>913</ele>
      </trkpt>
      <trkpt lat="44.76806" lon="5.89664">
        <ele>914.9</ele>
      </trkpt>
      <trkpt lat="44.76807" lon="5.89656">
        <ele>915.2</ele>
      </trkpt>
      <trkpt lat="44.76804" lon="5.89635">
        <ele>915.2</ele>
      </trkpt>
      <trkpt lat="44.76801" lon="5.89623">
        <ele>915.5</ele>
      </trkpt>
      <trkpt lat="44.76801" lon="5.89622">
        <ele>915.5</ele>
        <extensions>
          <visugpx:TrkExtension xmlns:visugpx="https://www.visugpx.com/editgpx/">
            <visugpx:node>7</visugpx:node>
            </visugpx:TrkExtension>
        </extensions>
      </trkpt>
      <trkpt lat="44.76795" lon="5.89608">
        <ele>915.6</ele>
      </trkpt>
      <trkpt lat="44.76783" lon="5.89588">
        <ele>914.3</ele>
      </trkpt>
      <trkpt lat="44.76777" lon="5.89584">
        <ele>913.2</ele>
      </trkpt>
      <trkpt lat="44.7677" lon="5.89583">
        <ele>921.1</ele>
      </trkpt>
      <trkpt lat="44.76739" lon="5.89589">
        <ele>901.9</ele>
      </trkpt>
      <trkpt lat="44.76734" lon="5.89588">
        <ele>900.5</ele>
      </trkpt>
      <trkpt lat="44.76714" lon="5.89566">
        <ele>910.4</ele>
      </trkpt>
      <trkpt lat="44.76689" lon="5.89545">
        <ele>911</ele>
      </trkpt>
      <trkpt lat="44.76646" lon="5.89499">
        <ele>922.2</ele>
      </trkpt>
      <trkpt lat="44.76617" lon="5.89496">
        <ele>918.9</ele>
      </trkpt>
      <trkpt lat="44.76608" lon="5.89492">
        <ele>916.7</ele>
      </trkpt>
      <trkpt lat="44.76594" lon="5.89467">
        <ele>921.1</ele>
      </trkpt>
      <trkpt lat="44.76585" lon="5.89454">
        <ele>924.8</ele>
      </trkpt>
      <trkpt lat="44.76549" lon="5.89423">
        <ele>909.1</ele>
      </trkpt>
      <trkpt lat="44.76538" lon="5.89416">
        <ele>923.3</ele>
      </trkpt>
      <trkpt lat="44.76523" lon="5.89411">
        <ele>917.3</ele>
      </trkpt>
      <trkpt lat="44.76515" lon="5.89405">
        <ele>914.8</ele>
      </trkpt>
      <trkpt lat="44.76512" lon="5.89397">
        <ele>916.8</ele>
      </trkpt>
      <trkpt lat="44.76494" lon="5.89325">
        <ele>921.2</ele>
      </trkpt>
      <trkpt lat="44.76486" lon="5.89307">
        <ele>920.5</ele>
      </trkpt>
      <trkpt lat="44.76464" lon="5.89273">
        <ele>921.6</ele>
      </trkpt>
      <trkpt lat="44.76451" lon="5.89251">
        <ele>920.1</ele>
      </trkpt>
      <trkpt lat="44.7644" lon="5.89218">
        <ele>939.8</ele>
      </trkpt>
      <trkpt lat="44.76415" lon="5.89186">
        <ele>923.3</ele>
      </trkpt>
      <trkpt lat="44.76389" lon="5.89147">
        <ele>937.6</ele>
      </trkpt>
      <trkpt lat="44.76359" lon="5.89109">
        <ele>936.3</ele>
      </trkpt>
      <trkpt lat="44.76352" lon="5.89089">
        <ele>935.5</ele>
      </trkpt>
      <trkpt lat="44.7635" lon="5.89077">
        <ele>949</ele>
        <extensions>
          <visugpx:TrkExtension xmlns:visugpx="https://www.visugpx.com/editgpx/">
            <visugpx:node>5</visugpx:node>
            </visugpx:TrkExtension>
        </extensions>
      </trkpt>
      <trkpt lat="44.76344" lon="5.89054">
        <ele>956.2</ele>
      </trkpt>
      <trkpt lat="44.76331" lon="5.89016">
        <ele>947.4</ele>
      </trkpt>
      <trkpt lat="44.76319" lon="5.88996">
        <ele>960.5</ele>
      </trkpt>
      <trkpt lat="44.76303" lon="5.88975">
        <ele>960.2</ele>
      </trkpt>
      <trkpt lat="44.76291" lon="5.88966">
        <ele>959.4</ele>
      </trkpt>
      <trkpt lat="44.76289" lon="5.88963">
        <ele>959.5</ele>
      </trkpt>
      <trkpt lat="44.76281" lon="5.88949">
        <ele>960.1</ele>
      </trkpt>
      <trkpt lat="44.76263" lon="5.88927">
        <ele>958.7</ele>
      </trkpt>
      <trkpt lat="44.76234" lon="5.8891">
        <ele>953.1</ele>
      </trkpt>
      <trkpt lat="44.76229" lon="5.88896">
        <ele>952.7</ele>
      </trkpt>
      <trkpt lat="44.7622" lon="5.88861">
        <ele>956</ele>
      </trkpt>
      <trkpt lat="44.76219" lon="5.88826">
        <ele>968.9</ele>
      </trkpt>
      <trkpt lat="44.76216" lon="5.88799">
        <ele>968.3</ele>
      </trkpt>
      <trkpt lat="44.76209" lon="5.88779">
        <ele>967.6</ele>
      </trkpt>
      <trkpt lat="44.762" lon="5.88758">
        <ele>965.3</ele>
      </trkpt>
      <trkpt lat="44.762" lon="5.88746">
        <ele>975.1</ele>
      </trkpt>
      <trkpt lat="44.76206" lon="5.88734">
        <ele>978.6</ele>
      </trkpt>
      <trkpt lat="44.76206" lon="5.88702">
        <ele>982.8</ele>
      </trkpt>
      <trkpt lat="44.76206" lon="5.88691">
        <ele>984.1</ele>
      </trkpt>
      <trkpt lat="44.76195" lon="5.88684">
        <ele>981.9</ele>
      </trkpt>
      <trkpt lat="44.76191" lon="5.88676">
        <ele>981.2</ele>
        <extensions>
          <visugpx:TrkExtension xmlns:visugpx="https://www.visugpx.com/editgpx/">
            <visugpx:node>3</visugpx:node>
            </visugpx:TrkExtension>
        </extensions>
      </trkpt>
      <trkpt lat="44.76178" lon="5.88651">
        <ele>992.5</ele>
      </trkpt>
      <trkpt lat="44.76172" lon="5.88634">
        <ele>998.3</ele>
      </trkpt>
      <trkpt lat="44.76145" lon="5.88586">
        <ele>981.9</ele>
      </trkpt>
      <trkpt lat="44.76141" lon="5.88565">
        <ele>991.7</ele>
      </trkpt>
      <trkpt lat="44.76142" lon="5.8853">
        <ele>995.4</ele>
      </trkpt>
      <trkpt lat="44.76137" lon="5.88488">
        <ele>1012.3</ele>
      </trkpt>
      <trkpt lat="44.76139" lon="5.88471">
        <ele>1014.1</ele>
      </trkpt>
      <trkpt lat="44.76139" lon="5.88436">
        <ele>1019.7</ele>
      </trkpt>
      <trkpt lat="44.76136" lon="5.88418">
        <ele>1021.2</ele>
      </trkpt>
      <trkpt lat="44.76144" lon="5.88415">
        <ele>1037.1</ele>
      </trkpt>
      <trkpt lat="44.76152" lon="5.88436">
        <ele>1022.8</ele>
      </trkpt>
      <trkpt lat="44.7616" lon="5.88471">
        <ele>1017</ele>
      </trkpt>
      <trkpt lat="44.76168" lon="5.88491">
        <ele>1028</ele>
      </trkpt>
      <trkpt lat="44.76175" lon="5.88507">
        <ele>1023.8</ele>
      </trkpt>
      <trkpt lat="44.7618" lon="5.885">
        <ele>1031</ele>
      </trkpt>
      <trkpt lat="44.76189" lon="5.88421">
        <ele>1043.7</ele>
        <extensions>
          <visugpx:TrkExtension xmlns:visugpx="https://www.visugpx.com/editgpx/">
            <visugpx:node>2</visugpx:node>
            </visugpx:TrkExtension>
        </extensions>
      </trkpt>
      <trkpt lat="44.76191" lon="5.88399">
        <ele>1054.6</ele>
      </trkpt>
      <trkpt lat="44.76189" lon="5.88376">
        <ele>1058</ele>
      </trkpt>
      <trkpt lat="44.76189" lon="5.88305">
        <ele>1075.5</ele>
      </trkpt>
      <trkpt lat="44.76184" lon="5.88273">
        <ele>1080.9</ele>
      </trkpt>
      <trkpt lat="44.76218" lon="5.88312">
        <ele>1079.9</ele>
      </trkpt>
      <trkpt lat="44.76227" lon="5.8834">
        <ele>1070</ele>
      </trkpt>
      <trkpt lat="44.76235" lon="5.88359">
        <ele>1068.6</ele>
      </trkpt>
      <trkpt lat="44.76239" lon="5.88361">
        <ele>1068.9</ele>
      </trkpt>
      <trkpt lat="44.76231" lon="5.88323">
        <ele>1081.3</ele>
        <extensions>
          <visugpx:TrkExtension xmlns:visugpx="https://www.visugpx.com/editgpx/">
            <visugpx:node>1</visugpx:node>
            </visugpx:TrkExtension>
        </extensions>
      </trkpt>
      <trkpt lat="44.76229" lon="5.88284">
        <ele>1084.4</ele>
      </trkpt>
      <trkpt lat="44.76231" lon="5.88241">
        <ele>1102.3</ele>
      </trkpt>
      <trkpt lat="44.76232" lon="5.88187">
        <ele>1110.7</ele>
      </trkpt>
      <trkpt lat="44.7623" lon="5.88155">
        <ele>1129</ele>
      </trkpt>
      <trkpt lat="44.76226" lon="5.88114">
        <ele>1138.4</ele>
      </trkpt>
      <trkpt lat="44.76227" lon="5.88079">
        <ele>1160.3</ele>
      </trkpt>
      <trkpt lat="44.7622" lon="5.88049">
        <ele>1165.6</ele>
      </trkpt>
      <trkpt lat="44.76225" lon="5.88018">
        <ele>1171.2</ele>
      </trkpt>
      <trkpt lat="44.76235" lon="5.88016">
        <ele>1172.2</ele>
      </trkpt>
      <trkpt lat="44.76299" lon="5.87944">
        <ele>1179.3</ele>
      </trkpt>
      <trkpt lat="44.76295" lon="5.87927">
        <ele>1181.1</ele>
      </trkpt>
      <trkpt lat="44.76287" lon="5.87931">
        <ele>1182.7</ele>
      </trkpt>
      <trkpt lat="44.76272" lon="5.87944">
        <ele>1184.3</ele>
      </trkpt>
      <trkpt lat="44.76262" lon="5.87953">
        <ele>1184.1</ele>
      </trkpt>
      <trkpt lat="44.76249" lon="5.87963">
        <ele>1194.7</ele>
      </trkpt>
      <trkpt lat="44.76232" lon="5.87976">
        <ele>1192.3</ele>
      </trkpt>
      <trkpt lat="44.76217" lon="5.87986">
        <ele>1192.6</ele>
      </trkpt>
      <trkpt lat="44.76207" lon="5.87994">
        <ele>1192.7</ele>
      </trkpt>
      <trkpt lat="44.76195" lon="5.8799">
        <ele>1175.02</ele>
        <time>2019-10-17T13:34:48Z</time>
      </trkpt>
      <trkpt lat="44.76179" lon="5.8797">
        <ele>1186.96</ele>
        <time>2019-10-17T13:34:28Z</time>
      </trkpt>
      <trkpt lat="44.76161" lon="5.87961">
        <ele>1190.47</ele>
        <time>2019-10-17T13:34:14Z</time>
      </trkpt>
      <trkpt lat="44.76141" lon="5.87954">
        <ele>1189.91</ele>
        <time>2019-10-17T13:34:00Z</time>
      </trkpt>
      <trkpt lat="44.76122" lon="5.87948">
        <ele>1187.77</ele>
        <time>2019-10-17T13:33:42Z</time>
      </trkpt>
      <trkpt lat="44.76101" lon="5.87938">
        <ele>1192.58</ele>
        <time>2019-10-17T13:33:24Z</time>
      </trkpt>
      <trkpt lat="44.76086" lon="5.8792">
        <ele>1196.89</ele>
        <time>2019-10-17T13:33:04Z</time>
      </trkpt>
      <trkpt lat="44.76067" lon="5.8791">
        <ele>1192.98</ele>
        <time>2019-10-17T13:32:50Z</time>
      </trkpt>
      <trkpt lat="44.76051" lon="5.87897">
        <ele>1197.86</ele>
        <time>2019-10-17T13:32:34Z</time>
      </trkpt>
      <trkpt lat="44.76031" lon="5.87883">
        <ele>1197.51</ele>
        <time>2019-10-17T13:32:18Z</time>
      </trkpt>
      <trkpt lat="44.76012" lon="5.87877">
        <ele>1198.46</ele>
        <time>2019-10-17T13:31:54Z</time>
      </trkpt>
      <trkpt lat="44.75992" lon="5.87877">
        <ele>1195.71</ele>
        <time>2019-10-17T13:31:40Z</time>
      </trkpt>
      <trkpt lat="44.75975" lon="5.87863">
        <ele>1201.95</ele>
        <time>2019-10-17T13:31:28Z</time>
      </trkpt>
      <trkpt lat="44.75955" lon="5.87859">
        <ele>1204.54</ele>
        <time>2019-10-17T13:31:10Z</time>
      </trkpt>
      <trkpt lat="44.75937" lon="5.87853">
        <ele>1199.59</ele>
        <time>2019-10-17T13:30:20Z</time>
      </trkpt>
      <trkpt lat="44.75918" lon="5.87846">
        <ele>1200.78</ele>
        <time>2019-10-17T13:30:06Z</time>
      </trkpt>
      <trkpt lat="44.75902" lon="5.87835">
        <ele>1217.6</ele>
        <time>2019-10-17T13:29:50Z</time>
      </trkpt>
      <trkpt lat="44.7588" lon="5.87836">
        <ele>1218.54</ele>
        <time>2019-10-17T13:29:36Z</time>
      </trkpt>
      <trkpt lat="44.75861" lon="5.87836">
        <ele>1218.74</ele>
        <time>2019-10-17T13:29:18Z</time>
      </trkpt>
      <trkpt lat="44.75838" lon="5.8782">
        <ele>1226.1</ele>
        <time>2019-10-17T13:28:54Z</time>
      </trkpt>
      <trkpt lat="44.7582" lon="5.87808">
        <ele>1225.49</ele>
        <time>2019-10-17T13:28:38Z</time>
      </trkpt>
      <trkpt lat="44.75805" lon="5.87793">
        <ele>1227.68</ele>
        <time>2019-10-17T13:28:22Z</time>
      </trkpt>
      <trkpt lat="44.75792" lon="5.87774">
        <ele>1234.16</ele>
        <time>2019-10-17T13:28:00Z</time>
      </trkpt>
      <trkpt lat="44.75775" lon="5.87763">
        <ele>1231.87</ele>
        <time>2019-10-17T13:27:46Z</time>
      </trkpt>
      <trkpt lat="44.75758" lon="5.87753">
        <ele>1233.91</ele>
        <time>2019-10-17T13:27:24Z</time>
      </trkpt>
      <trkpt lat="44.7574" lon="5.87744">
        <ele>1238.8</ele>
        <time>2019-10-17T13:27:14Z</time>
      </trkpt>
      <trkpt lat="44.75725" lon="5.87729">
        <ele>1238.51</ele>
        <time>2019-10-17T13:26:52Z</time>
      </trkpt>
      <trkpt lat="44.75707" lon="5.87721">
        <ele>1241.8</ele>
        <time>2019-10-17T13:26:34Z</time>
      </trkpt>
      <trkpt lat="44.7569" lon="5.87705">
        <ele>1240.57</ele>
        <time>2019-10-17T13:26:20Z</time>
      </trkpt>
      <trkpt lat="44.75672" lon="5.87698">
        <ele>1241.98</ele>
        <time>2019-10-17T13:25:58Z</time>
      </trkpt>
      <trkpt lat="44.75648" lon="5.87694">
        <ele>1240.37</ele>
        <time>2019-10-17T13:25:34Z</time>
      </trkpt>
      <trkpt lat="44.75629" lon="5.87702">
        <ele>1251.71</ele>
        <time>2019-10-17T13:25:18Z</time>
      </trkpt>
      <trkpt lat="44.7561" lon="5.87712">
        <ele>1252.09</ele>
        <time>2019-10-17T13:25:08Z</time>
      </trkpt>
      <trkpt lat="44.75592" lon="5.87709">
        <ele>1246.88</ele>
        <time>2019-10-17T13:24:48Z</time>
      </trkpt>
      <trkpt lat="44.75587" lon="5.87683">
        <ele>1258.48</ele>
        <time>2019-10-17T13:24:28Z</time>
      </trkpt>
      <trkpt lat="44.75568" lon="5.87667">
        <ele>1261.31</ele>
        <time>2019-10-17T13:24:14Z</time>
      </trkpt>
      <trkpt lat="44.75555" lon="5.8765">
        <ele>1258.92</ele>
        <time>2019-10-17T13:23:56Z</time>
      </trkpt>
      <trkpt lat="44.75538" lon="5.87633">
        <ele>1257.42</ele>
        <time>2019-10-17T13:23:34Z</time>
      </trkpt>
      <trkpt lat="44.75529" lon="5.87601">
        <ele>1261.11</ele>
        <time>2019-10-17T13:23:18Z</time>
      </trkpt>
      <trkpt lat="44.75513" lon="5.87587">
        <ele>1270.66</ele>
        <time>2019-10-17T13:23:06Z</time>
      </trkpt>
      <trkpt lat="44.75501" lon="5.87564">
        <ele>1263.72</ele>
        <time>2019-10-17T13:22:46Z</time>
      </trkpt>
      <trkpt lat="44.75492" lon="5.87542">
        <ele>1274.98</ele>
        <time>2019-10-17T13:22:20Z</time>
      </trkpt>
      <trkpt lat="44.7548" lon="5.87522">
        <ele>1277.31</ele>
        <time>2019-10-17T13:22:06Z</time>
      </trkpt>
      <trkpt lat="44.75459" lon="5.87513">
        <ele>1285.34</ele>
        <time>2019-10-17T13:21:52Z</time>
      </trkpt>
      <trkpt lat="44.7544" lon="5.87508">
        <ele>1282.1</ele>
        <time>2019-10-17T13:21:20Z</time>
      </trkpt>
      <trkpt lat="44.75422" lon="5.87515">
        <ele>1283.33</ele>
        <time>2019-10-17T13:20:50Z</time>
      </trkpt>
      <trkpt lat="44.75402" lon="5.87511">
        <ele>1286.7</ele>
        <time>2019-10-17T13:20:02Z</time>
      </trkpt>
      <trkpt lat="44.75383" lon="5.87512">
        <ele>1287.46</ele>
        <time>2019-10-17T13:19:46Z</time>
      </trkpt>
      <trkpt lat="44.75365" lon="5.87513">
        <ele>1289.97</ele>
        <time>2019-10-17T13:18:46Z</time>
      </trkpt>
      <trkpt lat="44.75348" lon="5.87503">
        <ele>1290.63</ele>
        <time>2019-10-17T13:18:28Z</time>
      </trkpt>
      <trkpt lat="44.75332" lon="5.8749">
        <ele>1296.92</ele>
        <time>2019-10-17T13:18:16Z</time>
      </trkpt>
      <trkpt lat="44.75318" lon="5.87472">
        <ele>1301.17</ele>
        <time>2019-10-17T13:17:56Z</time>
      </trkpt>
      <trkpt lat="44.75301" lon="5.87455">
        <ele>1302.88</ele>
        <time>2019-10-17T13:17:40Z</time>
      </trkpt>
      <trkpt lat="44.75285" lon="5.87444">
        <ele>1304.15</ele>
        <time>2019-10-17T13:17:28Z</time>
      </trkpt>
      <trkpt lat="44.75266" lon="5.87438">
        <ele>1307.77</ele>
        <time>2019-10-17T13:17:16Z</time>
      </trkpt>
      <trkpt lat="44.75248" lon="5.87427">
        <ele>1305.38</ele>
        <time>2019-10-17T13:17:00Z</time>
      </trkpt>
      <trkpt lat="44.7523" lon="5.87423">
        <ele>1309.86</ele>
        <time>2019-10-17T13:16:46Z</time>
      </trkpt>
      <trkpt lat="44.75212" lon="5.87413">
        <ele>1321.78</ele>
        <time>2019-10-17T13:15:42Z</time>
      </trkpt>
      <trkpt lat="44.7523" lon="5.87401">
        <ele>1323.23</ele>
        <time>2019-10-17T13:15:10Z</time>
      </trkpt>
      <trkpt lat="44.75249" lon="5.87393">
        <ele>1328.47</ele>
        <time>2019-10-17T13:14:26Z</time>
      </trkpt>
      <trkpt lat="44.75265" lon="5.87382">
        <ele>1329.76</ele>
        <time>2019-10-17T13:14:06Z</time>
      </trkpt>
      <trkpt lat="44.75284" lon="5.87378">
        <ele>1341.17</ele>
        <time>2019-10-17T13:13:48Z</time>
      </trkpt>
      <trkpt lat="44.75303" lon="5.87381">
        <ele>1343.23</ele>
        <time>2019-10-17T13:13:24Z</time>
      </trkpt>
      <trkpt lat="44.75322" lon="5.87382">
        <ele>1348.06</ele>
        <time>2019-10-17T13:12:54Z</time>
      </trkpt>
      <trkpt lat="44.75343" lon="5.87391">
        <ele>1354.53</ele>
        <time>2019-10-17T13:12:40Z</time>
      </trkpt>
      <trkpt lat="44.75362" lon="5.87389">
        <ele>1358.94</ele>
        <time>2019-10-17T13:11:30Z</time>
      </trkpt>
      <trkpt lat="44.7538" lon="5.8739">
        <ele>1362.94</ele>
        <time>2019-10-17T13:11:04Z</time>
      </trkpt>
      <trkpt lat="44.75395" lon="5.87374">
        <ele>1372.97</ele>
        <time>2019-10-17T13:09:12Z</time>
      </trkpt>
      <trkpt lat="44.75379" lon="5.87362">
        <ele>1375.77</ele>
        <time>2019-10-17T13:08:22Z</time>
      </trkpt>
      <trkpt lat="44.75368" lon="5.8734">
        <ele>1376.73</ele>
        <time>2019-10-17T13:08:04Z</time>
      </trkpt>
      <trkpt lat="44.75354" lon="5.87322">
        <ele>1378.34</ele>
        <time>2019-10-17T13:07:42Z</time>
      </trkpt>
      <trkpt lat="44.75341" lon="5.87303">
        <ele>1385.58</ele>
        <time>2019-10-17T13:07:22Z</time>
      </trkpt>
      <trkpt lat="44.75334" lon="5.87279">
        <ele>1388.94</ele>
        <time>2019-10-17T13:06:46Z</time>
      </trkpt>
      <trkpt lat="44.75321" lon="5.87261">
        <ele>1398.24</ele>
        <time>2019-10-17T13:06:28Z</time>
      </trkpt>
      <trkpt lat="44.75305" lon="5.87248">
        <ele>1394.42</ele>
        <time>2019-10-17T13:06:04Z</time>
      </trkpt>
      <trkpt lat="44.75279" lon="5.87246">
        <ele>1405.53</ele>
        <time>2019-10-17T13:05:46Z</time>
      </trkpt>
      <trkpt lat="44.75259" lon="5.87244">
        <ele>1409.42</ele>
        <time>2019-10-17T13:05:30Z</time>
      </trkpt>
      <trkpt lat="44.75238" lon="5.87235">
        <ele>1419.34</ele>
        <time>2019-10-17T13:04:24Z</time>
      </trkpt>
      <trkpt lat="44.75236" lon="5.87234">
        <ele>1437.3</ele>
      </trkpt>
      <trkpt lat="44.75126" lon="5.87211">
        <ele>1442.38</ele>
        <time>2019-10-17T12:11:56Z</time>
      </trkpt>
      <trkpt lat="44.75106" lon="5.87218">
        <ele>1457.62</ele>
        <time>2019-10-17T12:10:18Z</time>
      </trkpt>
      <trkpt lat="44.75088" lon="5.87208">
        <ele>1485.54</ele>
        <time>2019-10-17T12:08:52Z</time>
      </trkpt>
      <trkpt lat="44.75069" lon="5.87219">
        <ele>1479.67</ele>
        <time>2019-10-17T12:04:12Z</time>
      </trkpt>
      <trkpt lat="44.75071" lon="5.87193">
        <ele>1485.11</ele>
        <time>2019-10-17T12:03:12Z</time>
      </trkpt>
      <trkpt lat="44.75087" lon="5.87177">
        <ele>1500.92</ele>
        <time>2019-10-17T12:02:54Z</time>
      </trkpt>
      <trkpt lat="44.75079" lon="5.87154">
        <ele>1494.41</ele>
        <time>2019-10-17T12:01:50Z</time>
      </trkpt>
      <trkpt lat="44.75068" lon="5.8713">
        <ele>1494.65</ele>
        <time>2019-10-17T12:01:16Z</time>
      </trkpt>
      <trkpt lat="44.75076" lon="5.87107">
        <ele>1525.25</ele>
        <time>2019-10-17T12:00:26Z</time>
      </trkpt>
      <trkpt lat="44.75055" lon="5.87114">
        <ele>1526.78</ele>
        <time>2019-10-17T12:00:04Z</time>
      </trkpt>
      <trkpt lat="44.75055" lon="5.87087">
        <ele>1532.54</ele>
        <time>2019-10-17T11:58:54Z</time>
      </trkpt>
      <trkpt lat="44.75066" lon="5.87061">
        <ele>1595.7</ele>
        <time>2019-10-17T11:57:54Z</time>
      </trkpt>
      <trkpt lat="44.75047" lon="5.8706">
        <ele>1559.9</ele>
        <time>2019-10-17T11:56:58Z</time>
      </trkpt>
      <trkpt lat="44.75028" lon="5.87057">
        <ele>1556.9</ele>
        <time>2019-10-17T11:56:24Z</time>
      </trkpt>
      <trkpt lat="44.75024" lon="5.87033">
        <ele>1568.95</ele>
        <time>2019-10-17T11:55:18Z</time>
      </trkpt>
      <trkpt lat="44.7502" lon="5.87007">
        <ele>1572.74</ele>
        <time>2019-10-17T11:54:10Z</time>
      </trkpt>
      <trkpt lat="44.75039" lon="5.87005">
        <ele>1573.38</ele>
        <time>2019-10-17T11:53:18Z</time>
      </trkpt>
      <trkpt lat="44.75043" lon="5.86974">
        <ele>1568.97</ele>
        <time>2019-10-17T11:52:50Z</time>
      </trkpt>
      <trkpt lat="44.75047" lon="5.8695">
        <ele>1582.8</ele>
        <time>2019-10-17T11:51:24Z</time>
      </trkpt>
      <trkpt lat="44.75051" lon="5.86924">
        <ele>1596.77</ele>
        <time>2019-10-17T11:50:22Z</time>
      </trkpt>
      <trkpt lat="44.75049" lon="5.86897">
        <ele>1608.98</ele>
        <time>2019-10-17T11:49:40Z</time>
      </trkpt>
      <trkpt lat="44.75054" lon="5.8687">
        <ele>1626.99</ele>
        <time>2019-10-17T11:48:36Z</time>
      </trkpt>
      <trkpt lat="44.75055" lon="5.86844">
        <ele>1634.67</ele>
        <time>2019-10-17T11:47:15Z</time>
      </trkpt>
      <trkpt lat="44.75052" lon="5.86818">
        <ele>1621.74</ele>
        <time>2019-10-17T11:20:18Z</time>
      </trkpt>
      <trkpt lat="44.75068" lon="5.86803">
        <ele>1623.4</ele>
        <time>2019-10-17T11:19:52Z</time>
      </trkpt>
      <trkpt lat="44.75087" lon="5.86798">
        <ele>1639.83</ele>
        <time>2019-10-17T11:19:22Z</time>
      </trkpt>
      <trkpt lat="44.75098" lon="5.86777">
        <ele>1643.45</ele>
        <time>2019-10-17T11:18:36Z</time>
      </trkpt>
      <trkpt lat="44.7511" lon="5.86757">
        <ele>1655.96</ele>
        <time>2019-10-17T11:16:38Z</time>
      </trkpt>
      <trkpt lat="44.75123" lon="5.86736">
        <ele>1658.49</ele>
        <time>2019-10-17T11:16:20Z</time>
      </trkpt>
      <trkpt lat="44.7514" lon="5.86723">
        <ele>1665.2</ele>
        <time>2019-10-17T11:15:38Z</time>
      </trkpt>
      <trkpt lat="44.75244" lon="5.86714">
        <ele>1693.9</ele>
      </trkpt>
      <trkpt lat="44.75258" lon="5.86723">
        <ele>1701.1</ele>
      </trkpt>
      <trkpt lat="44.75274" lon="5.8674">
        <ele>1698.7</ele>
      </trkpt>
      <trkpt lat="44.75283" lon="5.86745">
        <ele>1698.7</ele>
      </trkpt>
      <trkpt lat="44.75304" lon="5.86743">
        <ele>1697.3</ele>
      </trkpt>
      <trkpt lat="44.75315" lon="5.86732">
        <ele>1697.5</ele>
      </trkpt>
      <trkpt lat="44.75332" lon="5.86716">
        <ele>1702.5</ele>
      </trkpt>
      <trkpt lat="44.75345" lon="5.86705">
        <ele>1703</ele>
      </trkpt>
      <trkpt lat="44.75364" lon="5.86694">
        <ele>1704.8</ele>
      </trkpt>
      <trkpt lat="44.75412" lon="5.86671">
        <ele>1710.1</ele>
      </trkpt>
      <trkpt lat="44.75509" lon="5.86751">
        <ele>1657.78</ele>
        <time>2019-10-17T07:51:40Z</time>
      </trkpt>
      <trkpt lat="44.75531" lon="5.86747">
        <ele>1657.37</ele>
        <time>2019-10-17T07:51:22Z</time>
      </trkpt>
      <trkpt lat="44.75551" lon="5.86739">
        <ele>1650.24</ele>
        <time>2019-10-17T07:50:48Z</time>
      </trkpt>
      <trkpt lat="44.7557" lon="5.86734">
        <ele>1644.48</ele>
        <time>2019-10-17T07:50:28Z</time>
      </trkpt>
      <trkpt lat="44.75588" lon="5.86731">
        <ele>1635.88</ele>
        <time>2019-10-17T07:50:06Z</time>
      </trkpt>
      <trkpt lat="44.75604" lon="5.86741">
        <ele>1646.45</ele>
        <time>2019-10-17T07:49:34Z</time>
      </trkpt>
      <trkpt lat="44.75621" lon="5.8673">
        <ele>1635.77</ele>
        <time>2019-10-17T07:49:06Z</time>
      </trkpt>
      <trkpt lat="44.75638" lon="5.8672">
        <ele>1642.55</ele>
        <time>2019-10-17T07:48:54Z</time>
      </trkpt>
      <trkpt lat="44.75657" lon="5.86708">
        <ele>1627.49</ele>
        <time>2019-10-17T07:48:10Z</time>
      </trkpt>
      <trkpt lat="44.75676" lon="5.86713">
        <ele>1623.7</ele>
        <time>2019-10-17T07:47:50Z</time>
      </trkpt>
      <trkpt lat="44.75696" lon="5.86718">
        <ele>1626.22</ele>
        <time>2019-10-17T07:47:36Z</time>
      </trkpt>
      <trkpt lat="44.75714" lon="5.8673">
        <ele>1624.45</ele>
        <time>2019-10-17T07:47:20Z</time>
      </trkpt>
      <trkpt lat="44.75727" lon="5.86748">
        <ele>1630.87</ele>
        <time>2019-10-17T07:47:00Z</time>
      </trkpt>
      <trkpt lat="44.75734" lon="5.86771">
        <ele>1633.94</ele>
        <time>2019-10-17T07:46:38Z</time>
      </trkpt>
      <trkpt lat="44.75736" lon="5.868">
        <ele>1630.35</ele>
        <time>2019-10-17T07:46:14Z</time>
      </trkpt>
      <trkpt lat="44.75725" lon="5.86825">
        <ele>1636.93</ele>
        <time>2019-10-17T07:45:54Z</time>
      </trkpt>
      <trkpt lat="44.75724" lon="5.86852">
        <ele>1629.55</ele>
        <time>2019-10-17T07:45:14Z</time>
      </trkpt>
      <trkpt lat="44.7574" lon="5.86839">
        <ele>1629.75</ele>
        <time>2019-10-17T07:44:40Z</time>
      </trkpt>
      <trkpt lat="44.75757" lon="5.86831">
        <ele>1631.71</ele>
        <time>2019-10-17T07:44:24Z</time>
      </trkpt>
      <trkpt lat="44.75776" lon="5.8683">
        <ele>1621.82</ele>
        <time>2019-10-17T07:44:12Z</time>
      </trkpt>
      <trkpt lat="44.75789" lon="5.86848">
        <ele>1619.49</ele>
        <time>2019-10-17T07:43:36Z</time>
      </trkpt>
      <trkpt lat="44.75806" lon="5.86865">
        <ele>1616.54</ele>
        <time>2019-10-17T07:42:56Z</time>
      </trkpt>
      <trkpt lat="44.75823" lon="5.86881">
        <ele>1616.71</ele>
        <time>2019-10-17T07:42:20Z</time>
      </trkpt>
      <trkpt lat="44.75838" lon="5.86894">
        <ele>1611.89</ele>
        <time>2019-10-17T07:41:46Z</time>
      </trkpt>
      <trkpt lat="44.75856" lon="5.86901">
        <ele>1599.76</ele>
        <time>2019-10-17T07:40:42Z</time>
      </trkpt>
      <trkpt lat="44.75856" lon="5.86927">
        <ele>1592.4</ele>
        <time>2019-10-17T07:40:16Z</time>
      </trkpt>
      <trkpt lat="44.75869" lon="5.86944">
        <ele>1576.15</ele>
        <time>2019-10-17T07:39:36Z</time>
      </trkpt>
      <trkpt lat="44.7588" lon="5.86969">
        <ele>1570.58</ele>
        <time>2019-10-17T07:39:10Z</time>
      </trkpt>
      <trkpt lat="44.75901" lon="5.86975">
        <ele>1576.71</ele>
        <time>2019-10-17T07:38:38Z</time>
      </trkpt>
      <trkpt lat="44.75904" lon="5.8695">
        <ele>1567.89</ele>
        <time>2019-10-17T07:38:16Z</time>
      </trkpt>
      <trkpt lat="44.75909" lon="5.86925">
        <ele>1571.29</ele>
        <time>2019-10-17T07:37:50Z</time>
      </trkpt>
      <trkpt lat="44.75921" lon="5.86904">
        <ele>1570.72</ele>
        <time>2019-10-17T07:37:24Z</time>
      </trkpt>
      <trkpt lat="44.7593" lon="5.86881">
        <ele>1564.96</ele>
        <time>2019-10-17T07:37:00Z</time>
      </trkpt>
      <trkpt lat="44.75943" lon="5.86862">
        <ele>1547.58</ele>
        <time>2019-10-17T07:36:08Z</time>
      </trkpt>
      <trkpt lat="44.75959" lon="5.86851">
        <ele>1534.73</ele>
        <time>2019-10-17T07:35:32Z</time>
      </trkpt>
      <trkpt lat="44.75979" lon="5.86855">
        <ele>1539.93</ele>
        <time>2019-10-17T07:33:10Z</time>
      </trkpt>
      <trkpt lat="44.75996" lon="5.86844">
        <ele>1528.54</ele>
        <time>2019-10-17T07:32:12Z</time>
      </trkpt>
      <trkpt lat="44.76014" lon="5.86838">
        <ele>1513.16</ele>
        <time>2019-10-17T07:31:34Z</time>
      </trkpt>
      <trkpt lat="44.76032" lon="5.86825">
        <ele>1510.18</ele>
        <time>2019-10-17T07:30:48Z</time>
      </trkpt>
      <trkpt lat="44.76036" lon="5.86798">
        <ele>1500.8</ele>
        <time>2019-10-17T07:30:12Z</time>
      </trkpt>
      <trkpt lat="44.76044" lon="5.86774">
        <ele>1495.72</ele>
        <time>2019-10-17T07:29:30Z</time>
      </trkpt>
      <trkpt lat="44.7603" lon="5.86759">
        <ele>1486.54</ele>
        <time>2019-10-17T07:28:46Z</time>
      </trkpt>
      <trkpt lat="44.76015" lon="5.86743">
        <ele>1490.95</ele>
        <time>2019-10-17T07:28:26Z</time>
      </trkpt>
      <trkpt lat="44.76005" lon="5.86718">
        <ele>1473.53</ele>
        <time>2019-10-17T07:27:30Z</time>
      </trkpt>
      <trkpt lat="44.75995" lon="5.86696">
        <ele>1460.03</ele>
        <time>2019-10-17T07:25:32Z</time>
      </trkpt>
      <trkpt lat="44.75997" lon="5.86671">
        <ele>1464.7</ele>
        <time>2019-10-17T07:25:16Z</time>
      </trkpt>
      <trkpt lat="44.75999" lon="5.86645">
        <ele>1463.87</ele>
        <time>2019-10-17T07:24:56Z</time>
      </trkpt>
      <trkpt lat="44.75984" lon="5.8662">
        <ele>1458.55</ele>
        <time>2019-10-17T07:24:42Z</time>
      </trkpt>
      <trkpt lat="44.75981" lon="5.86591">
        <ele>1456.74</ele>
        <time>2019-10-17T07:24:22Z</time>
      </trkpt>
      <trkpt lat="44.7598" lon="5.86566">
        <ele>1450.65</ele>
        <time>2019-10-17T07:24:04Z</time>
      </trkpt>
      <trkpt lat="44.75976" lon="5.86538">
        <ele>1439.41</ele>
        <time>2019-10-17T07:23:48Z</time>
      </trkpt>
      <trkpt lat="44.75977" lon="5.8651">
        <ele>1445.07</ele>
        <time>2019-10-17T07:23:24Z</time>
      </trkpt>
      <trkpt lat="44.75968" lon="5.86486">
        <ele>1441.69</ele>
        <time>2019-10-17T07:23:08Z</time>
      </trkpt>
      <trkpt lat="44.75963" lon="5.86459">
        <ele>1430.63</ele>
        <time>2019-10-17T07:22:48Z</time>
      </trkpt>
      <trkpt lat="44.75968" lon="5.86431">
        <ele>1428.35</ele>
        <time>2019-10-17T07:22:28Z</time>
      </trkpt>
      <trkpt lat="44.75962" lon="5.86363">
        <ele>1429.5</ele>
        <time>2019-10-17T07:21:40Z</time>
      </trkpt>
      <trkpt lat="44.75959" lon="5.86332">
        <ele>1423.69</ele>
        <time>2019-10-17T07:21:18Z</time>
      </trkpt>
      <trkpt lat="44.75952" lon="5.86309">
        <ele>1418.89</ele>
        <time>2019-10-17T07:21:02Z</time>
      </trkpt>
      <trkpt lat="44.75944" lon="5.86284">
        <ele>1412.78</ele>
        <time>2019-10-17T07:20:46Z</time>
      </trkpt>
      <trkpt lat="44.75947" lon="5.86256">
        <ele>1412.78</ele>
        <time>2019-10-17T07:20:28Z</time>
      </trkpt>
      <trkpt lat="44.75955" lon="5.86232">
        <ele>1411.73</ele>
        <time>2019-10-17T07:19:40Z</time>
      </trkpt>
      <trkpt lat="44.75956" lon="5.86206">
        <ele>1411.55</ele>
        <time>2019-10-17T07:19:22Z</time>
      </trkpt>
      <trkpt lat="44.7596" lon="5.86179">
        <ele>1407.5</ele>
        <time>2019-10-17T07:18:52Z</time>
      </trkpt>
      <trkpt lat="44.75966" lon="5.86154">
        <ele>1398.58</ele>
        <time>2019-10-17T07:18:30Z</time>
      </trkpt>
      <trkpt lat="44.7597" lon="5.86126">
        <ele>1396.77</ele>
        <time>2019-10-17T07:18:08Z</time>
      </trkpt>
      <trkpt lat="44.75975" lon="5.861">
        <ele>1398.31</ele>
        <time>2019-10-17T07:17:50Z</time>
      </trkpt>
      <trkpt lat="44.75981" lon="5.86074">
        <ele>1395.78</ele>
        <time>2019-10-17T07:17:24Z</time>
      </trkpt>
      <trkpt lat="44.75992" lon="5.86052">
        <ele>1397.54</ele>
        <time>2019-10-17T07:17:02Z</time>
      </trkpt>
      <trkpt lat="44.76004" lon="5.86031">
        <ele>1396.54</ele>
        <time>2019-10-17T07:16:42Z</time>
      </trkpt>
      <trkpt lat="44.76013" lon="5.86007">
        <ele>1397.3</ele>
        <time>2019-10-17T07:16:18Z</time>
      </trkpt>
      <trkpt lat="44.76024" lon="5.85984">
        <ele>1390.73</ele>
        <time>2019-10-17T07:15:54Z</time>
      </trkpt>
      <trkpt lat="44.76041" lon="5.85971">
        <ele>1388.15</ele>
        <time>2019-10-17T07:13:42Z</time>
      </trkpt>
      <trkpt lat="44.76055" lon="5.85989">
        <ele>1379.35</ele>
        <time>2019-10-17T07:10:40Z</time>
      </trkpt>
      <trkpt lat="44.76074" lon="5.85992">
        <ele>1362.18</ele>
        <time>2019-10-17T07:10:12Z</time>
      </trkpt>
      <trkpt lat="44.76101" lon="5.86007">
        <ele>1344.83</ele>
        <time>2019-10-17T07:09:00Z</time>
      </trkpt>
      <trkpt lat="44.76112" lon="5.86027">
        <ele>1343.34</ele>
        <time>2019-10-17T07:08:50Z</time>
      </trkpt>
      <trkpt lat="44.76124" lon="5.86049">
        <ele>1345.16</ele>
        <time>2019-10-17T07:08:42Z</time>
      </trkpt>
      <trkpt lat="44.76133" lon="5.86073">
        <ele>1336.7</ele>
        <time>2019-10-17T07:07:12Z</time>
      </trkpt>
      <trkpt lat="44.76137" lon="5.86098">
        <ele>1333.46</ele>
        <time>2019-10-17T07:06:46Z</time>
      </trkpt>
      <trkpt lat="44.76148" lon="5.86118">
        <ele>1328.66</ele>
        <time>2019-10-17T07:06:38Z</time>
      </trkpt>
      <trkpt lat="44.7615" lon="5.86146">
        <ele>1326.55</ele>
        <time>2019-10-17T07:05:54Z</time>
      </trkpt>
      <trkpt lat="44.76161" lon="5.86167">
        <ele>1323.73</ele>
        <time>2019-10-17T07:05:40Z</time>
      </trkpt>
      <trkpt lat="44.76166" lon="5.86195">
        <ele>1319.81</ele>
        <time>2019-10-17T07:04:22Z</time>
      </trkpt>
      <trkpt lat="44.76185" lon="5.862">
        <ele>1318.54</ele>
        <time>2019-10-17T07:03:56Z</time>
      </trkpt>
      <trkpt lat="44.76202" lon="5.86212">
        <ele>1318.5</ele>
        <time>2019-10-17T07:03:24Z</time>
      </trkpt>
      <trkpt lat="44.76211" lon="5.86235">
        <ele>1317.72</ele>
        <time>2019-10-17T07:02:50Z</time>
      </trkpt>
      <trkpt lat="44.76227" lon="5.86247">
        <ele>1321.24</ele>
        <time>2019-10-17T07:02:32Z</time>
      </trkpt>
      <trkpt lat="44.76239" lon="5.86271">
        <ele>1317.48</ele>
        <time>2019-10-17T07:02:04Z</time>
      </trkpt>
      <trkpt lat="44.76254" lon="5.8629">
        <ele>1314.17</ele>
        <time>2019-10-17T07:01:52Z</time>
      </trkpt>
      <trkpt lat="44.7627" lon="5.86313">
        <ele>1316.29</ele>
        <time>2019-10-17T07:01:44Z</time>
      </trkpt>
      <trkpt lat="44.76284" lon="5.86337">
        <ele>1311.74</ele>
        <time>2019-10-17T07:01:00Z</time>
      </trkpt>
      <trkpt lat="44.76294" lon="5.86359">
        <ele>1310.74</ele>
        <time>2019-10-17T07:00:38Z</time>
      </trkpt>
      <trkpt lat="44.76312" lon="5.86366">
        <ele>1309.53</ele>
        <time>2019-10-17T07:00:26Z</time>
      </trkpt>
      <trkpt lat="44.76314" lon="5.86393">
        <ele>1303.54</ele>
        <time>2019-10-17T07:00:08Z</time>
      </trkpt>
      <trkpt lat="44.76327" lon="5.86411">
        <ele>1301.94</ele>
        <time>2019-10-17T06:59:58Z</time>
      </trkpt>
      <trkpt lat="44.76338" lon="5.86439">
        <ele>1298.34</ele>
        <time>2019-10-17T06:59:28Z</time>
      </trkpt>
      <trkpt lat="44.76345" lon="5.86466">
        <ele>1296.46</ele>
        <time>2019-10-17T06:59:14Z</time>
      </trkpt>
      <trkpt lat="44.76357" lon="5.86489">
        <ele>1291.74</ele>
        <time>2019-10-17T06:59:04Z</time>
      </trkpt>
      <trkpt lat="44.7637" lon="5.86523">
        <ele>1293.56</ele>
        <time>2019-10-17T06:58:28Z</time>
      </trkpt>
      <trkpt lat="44.76379" lon="5.86546">
        <ele>1293.94</ele>
        <time>2019-10-17T06:58:18Z</time>
      </trkpt>
      <trkpt lat="44.7639" lon="5.86572">
        <ele>1296.95</ele>
        <time>2019-10-17T06:57:36Z</time>
      </trkpt>
      <trkpt lat="44.76404" lon="5.86605">
        <ele>1305.25</ele>
        <time>2019-10-17T06:57:28Z</time>
      </trkpt>
      <trkpt lat="44.76394" lon="5.86631">
        <ele>1290.53</ele>
        <time>2019-10-17T06:57:00Z</time>
      </trkpt>
      <trkpt lat="44.76399" lon="5.86657">
        <ele>1287.7</ele>
        <time>2019-10-17T06:56:50Z</time>
      </trkpt>
      <trkpt lat="44.76389" lon="5.86679">
        <ele>1276.75</ele>
        <time>2019-10-17T06:56:26Z</time>
      </trkpt>
      <trkpt lat="44.76368" lon="5.86683">
        <ele>1269.05</ele>
        <time>2019-10-17T06:56:22Z</time>
      </trkpt>
      <trkpt lat="44.76379" lon="5.86705">
        <ele>1270.9</ele>
        <time>2019-10-17T06:56:16Z</time>
      </trkpt>
      <trkpt lat="44.76392" lon="5.86729">
        <ele>1269.46</ele>
        <time>2019-10-17T06:55:54Z</time>
      </trkpt>
      <trkpt lat="44.76376" lon="5.86749">
        <ele>1262.59</ele>
        <time>2019-10-17T06:55:38Z</time>
      </trkpt>
      <trkpt lat="44.7636" lon="5.86766">
        <ele>1264.49</ele>
        <time>2019-10-17T06:55:24Z</time>
      </trkpt>
      <trkpt lat="44.76346" lon="5.86784">
        <ele>1257.96</ele>
        <time>2019-10-17T06:55:12Z</time>
      </trkpt>
      <trkpt lat="44.76323" lon="5.86798">
        <ele>1248.91</ele>
        <time>2019-10-17T06:55:06Z</time>
      </trkpt>
      <trkpt lat="44.76335" lon="5.86818">
        <ele>1249.58</ele>
        <time>2019-10-17T06:55:04Z</time>
      </trkpt>
      <trkpt lat="44.76328" lon="5.86846">
        <ele>1247.79</ele>
        <time>2019-10-17T06:54:26Z</time>
      </trkpt>
      <trkpt lat="44.7633" lon="5.86872">
        <ele>1247.89</ele>
        <time>2019-10-17T06:54:10Z</time>
      </trkpt>
      <trkpt lat="44.76329" lon="5.86898">
        <ele>1245.93</ele>
        <time>2019-10-17T06:53:56Z</time>
      </trkpt>
      <trkpt lat="44.76339" lon="5.86919">
        <ele>1242.49</ele>
        <time>2019-10-17T06:53:46Z</time>
      </trkpt>
      <trkpt lat="44.76347" lon="5.86942">
        <ele>1238.52</ele>
        <time>2019-10-17T06:53:30Z</time>
      </trkpt>
      <trkpt lat="44.76346" lon="5.86968">
        <ele>1234.56</ele>
        <time>2019-10-17T06:53:08Z</time>
      </trkpt>
      <trkpt lat="44.76334" lon="5.86991">
        <ele>1227.93</ele>
        <time>2019-10-17T06:52:54Z</time>
      </trkpt>
      <trkpt lat="44.76348" lon="5.87012">
        <ele>1226.54</ele>
        <time>2019-10-17T06:52:40Z</time>
      </trkpt>
      <trkpt lat="44.76354" lon="5.87039">
        <ele>1220.54</ele>
        <time>2019-10-17T06:52:24Z</time>
      </trkpt>
      <trkpt lat="44.76354" lon="5.87066">
        <ele>1223.68</ele>
        <time>2019-10-17T06:52:08Z</time>
      </trkpt>
      <trkpt lat="44.76342" lon="5.8709">
        <ele>1220.27</ele>
        <time>2019-10-17T06:51:50Z</time>
      </trkpt>
      <trkpt lat="44.76355" lon="5.87111">
        <ele>1223.5</ele>
        <time>2019-10-17T06:51:40Z</time>
      </trkpt>
      <trkpt lat="44.76357" lon="5.87138">
        <ele>1219.95</ele>
        <time>2019-10-17T06:51:22Z</time>
      </trkpt>
      <trkpt lat="44.76341" lon="5.8715">
        <ele>1215.73</ele>
        <time>2019-10-17T06:51:10Z</time>
      </trkpt>
      <trkpt lat="44.76352" lon="5.87176">
        <ele>1215.74</ele>
        <time>2019-10-17T06:51:02Z</time>
      </trkpt>
      <trkpt lat="44.76354" lon="5.87206">
        <ele>1213.94</ele>
        <time>2019-10-17T06:50:40Z</time>
      </trkpt>
      <trkpt lat="44.76361" lon="5.87231">
        <ele>1211.03</ele>
        <time>2019-10-17T06:50:24Z</time>
      </trkpt>
      <trkpt lat="44.76355" lon="5.87259">
        <ele>1210.41</ele>
        <time>2019-10-17T06:50:06Z</time>
      </trkpt>
      <trkpt lat="44.76363" lon="5.87288">
        <ele>1199.24</ele>
        <time>2019-10-17T06:49:50Z</time>
      </trkpt>
      <trkpt lat="44.76358" lon="5.87317">
        <ele>1190.51</ele>
        <time>2019-10-17T06:49:28Z</time>
      </trkpt>
      <trkpt lat="44.76365" lon="5.87343">
        <ele>1185.5</ele>
        <time>2019-10-17T06:49:16Z</time>
      </trkpt>
      <trkpt lat="44.76374" lon="5.87368">
        <ele>1186.01</ele>
        <time>2019-10-17T06:49:08Z</time>
      </trkpt>
      <trkpt lat="44.76387" lon="5.87392">
        <ele>1192.91</ele>
        <time>2019-10-17T06:49:00Z</time>
      </trkpt>
      <trkpt lat="44.7639" lon="5.8742">
        <ele>1187.55</ele>
        <time>2019-10-17T06:48:10Z</time>
      </trkpt>
      <trkpt lat="44.76391" lon="5.87446">
        <ele>1181.34</ele>
        <time>2019-10-17T06:47:54Z</time>
      </trkpt>
      <trkpt lat="44.76391" lon="5.87474">
        <ele>1182.13</ele>
        <time>2019-10-17T06:47:38Z</time>
      </trkpt>
      <trkpt lat="44.76395" lon="5.87504">
        <ele>1185.13</ele>
        <time>2019-10-17T06:47:20Z</time>
      </trkpt>
      <trkpt lat="44.76382" lon="5.87525">
        <ele>1186.36</ele>
        <time>2019-10-17T06:47:06Z</time>
      </trkpt>
      <trkpt lat="44.76385" lon="5.8755">
        <ele>1184.29</ele>
        <time>2019-10-17T06:46:34Z</time>
      </trkpt>
      <trkpt lat="44.76398" lon="5.87568">
        <ele>1179.3</ele>
        <time>2019-10-17T06:46:22Z</time>
      </trkpt>
      <trkpt lat="44.76382" lon="5.87583">
        <ele>1178.71</ele>
        <time>2019-10-17T06:46:10Z</time>
      </trkpt>
      <trkpt lat="44.76379" lon="5.87611">
        <ele>1169.74</ele>
        <time>2019-10-17T06:45:50Z</time>
      </trkpt>
      <trkpt lat="44.76385" lon="5.87635">
        <ele>1169.48</ele>
        <time>2019-10-17T06:45:38Z</time>
      </trkpt>
      <trkpt lat="44.76389" lon="5.87662">
        <ele>1166.73</ele>
        <time>2019-10-17T06:45:22Z</time>
      </trkpt>
      <trkpt lat="44.76401" lon="5.87682">
        <ele>1166.98</ele>
        <time>2019-10-17T06:45:10Z</time>
      </trkpt>
      <trkpt lat="44.76407" lon="5.87709">
        <ele>1165.51</ele>
        <time>2019-10-17T06:44:40Z</time>
      </trkpt>
      <trkpt lat="44.76403" lon="5.87733">
        <ele>1171.74</ele>
        <time>2019-10-17T06:43:38Z</time>
      </trkpt>
      <trkpt lat="44.76403" lon="5.87733">
        <ele>1171.74</ele>
        <time>2019-10-17T06:43:38Z</time>
      </trkpt>
      <trkpt lat="44.76421" lon="5.87833">
        <ele>1175.6</ele>
      </trkpt>
      <trkpt lat="44.76209" lon="5.88005">
        <ele>1172.5</ele>
      </trkpt>
      <trkpt lat="44.76218" lon="5.882">
        <ele>1103.2</ele>
        <time>2020-02-27T12:53:06.000Z</time>
      </trkpt>
      <trkpt lat="44.76217" lon="5.882">
        <ele>1103.3</ele>
        <time>2020-02-27T12:53:05.000Z</time>
      </trkpt>
      <trkpt lat="44.76216" lon="5.882">
        <ele>1103.4</ele>
        <time>2020-02-27T12:53:04.000Z</time>
      </trkpt>
      <trkpt lat="44.76215" lon="5.88199">
        <ele>1103.4</ele>
        <time>2020-02-27T12:53:03.000Z</time>
      </trkpt>
      <trkpt lat="44.76213" lon="5.882">
        <ele>1103.5</ele>
        <time>2020-02-27T12:53:02.000Z</time>
      </trkpt>
      <trkpt lat="44.76211" lon="5.882">
        <ele>1103.6</ele>
        <time>2020-02-27T12:53:01.000Z</time>
      </trkpt>
      <trkpt lat="44.76209" lon="5.882">
        <ele>1103.6</ele>
        <time>2020-02-27T12:53:00.000Z</time>
      </trkpt>
      <trkpt lat="44.76207" lon="5.88201">
        <ele>1103.7</ele>
        <time>2020-02-27T12:52:59.000Z</time>
      </trkpt>
      <trkpt lat="44.76205" lon="5.88202">
        <ele>1103.8</ele>
        <time>2020-02-27T12:52:58.000Z</time>
      </trkpt>
      <trkpt lat="44.76203" lon="5.88202">
        <ele>1103.9</ele>
        <time>2020-02-27T12:52:57.000Z</time>
      </trkpt>
      <trkpt lat="44.76202" lon="5.88203">
        <ele>1104</ele>
        <time>2020-02-27T12:52:56.000Z</time>
      </trkpt>
      <trkpt lat="44.762" lon="5.88204">
        <ele>1104.1</ele>
        <time>2020-02-27T12:52:55.000Z</time>
      </trkpt>
      <trkpt lat="44.76198" lon="5.88205">
        <ele>1104.2</ele>
        <time>2020-02-27T12:52:54.000Z</time>
      </trkpt>
      <trkpt lat="44.76197" lon="5.88205">
        <ele>1104.3</ele>
        <time>2020-02-27T12:52:53.000Z</time>
      </trkpt>
      <trkpt lat="44.76196" lon="5.88206">
        <ele>1104.3</ele>
        <time>2020-02-27T12:52:52.000Z</time>
      </trkpt>
      <trkpt lat="44.76194" lon="5.88206">
        <ele>1104.4</ele>
        <time>2020-02-27T12:52:51.000Z</time>
      </trkpt>
      <trkpt lat="44.76193" lon="5.88207">
        <ele>1104.4</ele>
        <time>2020-02-27T12:52:50.000Z</time>
      </trkpt>
      <trkpt lat="44.76192" lon="5.88207">
        <ele>1104.4</ele>
        <time>2020-02-27T12:52:49.000Z</time>
      </trkpt>
      <trkpt lat="44.76191" lon="5.88206">
        <ele>1104.5</ele>
        <time>2020-02-27T12:52:48.000Z</time>
      </trkpt>
      <trkpt lat="44.7619" lon="5.88207">
        <ele>1104.5</ele>
        <time>2020-02-27T12:52:47.000Z</time>
      </trkpt>
      <trkpt lat="44.76189" lon="5.88207">
        <ele>1104.6</ele>
        <time>2020-02-27T12:52:46.000Z</time>
      </trkpt>
      <trkpt lat="44.76187" lon="5.88208">
        <ele>1104.6</ele>
        <time>2020-02-27T12:52:45.000Z</time>
      </trkpt>
      <trkpt lat="44.76186" lon="5.88208">
        <ele>1104.7</ele>
        <time>2020-02-27T12:52:44.000Z</time>
      </trkpt>
      <trkpt lat="44.76185" lon="5.88208">
        <ele>1104.7</ele>
        <time>2020-02-27T12:52:43.000Z</time>
      </trkpt>
      <trkpt lat="44.76184" lon="5.88209">
        <ele>1104.8</ele>
        <time>2020-02-27T12:52:42.000Z</time>
      </trkpt>
      <trkpt lat="44.76183" lon="5.88209">
        <ele>1104.8</ele>
        <time>2020-02-27T12:52:41.000Z</time>
      </trkpt>
      <trkpt lat="44.76182" lon="5.8821">
        <ele>1104.9</ele>
        <time>2020-02-27T12:52:40.000Z</time>
      </trkpt>
      <trkpt lat="44.76181" lon="5.88211">
        <ele>1104.9</ele>
        <time>2020-02-27T12:52:39.000Z</time>
      </trkpt>
      <trkpt lat="44.76179" lon="5.88211">
        <ele>1104.9</ele>
        <time>2020-02-27T12:52:38.000Z</time>
      </trkpt>
      <trkpt lat="44.76178" lon="5.88211">
        <ele>1105</ele>
        <time>2020-02-27T12:52:37.000Z</time>
      </trkpt>
      <trkpt lat="44.76177" lon="5.88211">
        <ele>1105.1</ele>
        <time>2020-02-27T12:52:36.000Z</time>
      </trkpt>
      <trkpt lat="44.76176" lon="5.88211">
        <ele>1105.1</ele>
        <time>2020-02-27T12:52:35.000Z</time>
      </trkpt>
      <trkpt lat="44.76175" lon="5.8821">
        <ele>1105.2</ele>
        <time>2020-02-27T12:52:34.000Z</time>
      </trkpt>
      <trkpt lat="44.76173" lon="5.8821">
        <ele>1105.2</ele>
        <time>2020-02-27T12:52:33.000Z</time>
      </trkpt>
      <trkpt lat="44.76172" lon="5.88209">
        <ele>1105.3</ele>
        <time>2020-02-27T12:52:32.000Z</time>
      </trkpt>
      <trkpt lat="44.76171" lon="5.8821">
        <ele>1105.3</ele>
        <time>2020-02-27T12:52:31.000Z</time>
      </trkpt>
      <trkpt lat="44.76169" lon="5.8821">
        <ele>1105.4</ele>
        <time>2020-02-27T12:52:30.000Z</time>
      </trkpt>
      <trkpt lat="44.76168" lon="5.88211">
        <ele>1105.4</ele>
        <time>2020-02-27T12:52:29.000Z</time>
      </trkpt>
      <trkpt lat="44.76166" lon="5.88211">
        <ele>1105.5</ele>
        <time>2020-02-27T12:52:28.000Z</time>
      </trkpt>
      <trkpt lat="44.76165" lon="5.88211">
        <ele>1105.6</ele>
        <time>2020-02-27T12:52:27.000Z</time>
      </trkpt>
      <trkpt lat="44.76163" lon="5.88212">
        <ele>1105.6</ele>
        <time>2020-02-27T12:52:26.000Z</time>
      </trkpt>
      <trkpt lat="44.76161" lon="5.88213">
        <ele>1105.7</ele>
        <time>2020-02-27T12:52:25.000Z</time>
      </trkpt>
      <trkpt lat="44.76159" lon="5.88213">
        <ele>1105.8</ele>
        <time>2020-02-27T12:52:24.000Z</time>
      </trkpt>
      <trkpt lat="44.76158" lon="5.88213">
        <ele>1105.8</ele>
        <time>2020-02-27T12:52:23.000Z</time>
      </trkpt>
      <trkpt lat="44.76157" lon="5.88214">
        <ele>1105.9</ele>
        <time>2020-02-27T12:52:22.000Z</time>
      </trkpt>
      <trkpt lat="44.76156" lon="5.88214">
        <ele>1105.9</ele>
        <time>2020-02-27T12:52:21.000Z</time>
      </trkpt>
      <trkpt lat="44.76154" lon="5.88214">
        <ele>1106</ele>
        <time>2020-02-27T12:52:20.000Z</time>
      </trkpt>
      <trkpt lat="44.76152" lon="5.88215">
        <ele>1106</ele>
        <time>2020-02-27T12:52:19.000Z</time>
      </trkpt>
      <trkpt lat="44.76151" lon="5.88215">
        <ele>1106.1</ele>
        <time>2020-02-27T12:52:18.000Z</time>
      </trkpt>
      <trkpt lat="44.7615" lon="5.88215">
        <ele>1106.2</ele>
        <time>2020-02-27T12:52:17.000Z</time>
      </trkpt>
      <trkpt lat="44.76149" lon="5.88215">
        <ele>1106.3</ele>
        <time>2020-02-27T12:52:16.000Z</time>
      </trkpt>
      <trkpt lat="44.76148" lon="5.88215">
        <ele>1106.3</ele>
        <time>2020-02-27T12:52:15.000Z</time>
      </trkpt>
      <trkpt lat="44.76147" lon="5.88214">
        <ele>1106.4</ele>
        <time>2020-02-27T12:52:14.000Z</time>
      </trkpt>
      <trkpt lat="44.76146" lon="5.88214">
        <ele>1106.4</ele>
        <time>2020-02-27T12:52:13.000Z</time>
      </trkpt>
      <trkpt lat="44.76144" lon="5.88214">
        <ele>1106.5</ele>
        <time>2020-02-27T12:52:12.000Z</time>
      </trkpt>
      <trkpt lat="44.76143" lon="5.88215">
        <ele>1106.6</ele>
        <time>2020-02-27T12:52:11.000Z</time>
      </trkpt>
      <trkpt lat="44.76142" lon="5.88214">
        <ele>1106.6</ele>
        <time>2020-02-27T12:52:10.000Z</time>
      </trkpt>
      <trkpt lat="44.76141" lon="5.88215">
        <ele>1106.7</ele>
        <time>2020-02-27T12:52:09.000Z</time>
      </trkpt>
      <trkpt lat="44.7614" lon="5.88216">
        <ele>1106.8</ele>
        <time>2020-02-27T12:52:08.000Z</time>
      </trkpt>
      <trkpt lat="44.76139" lon="5.88215">
        <ele>1106.8</ele>
        <time>2020-02-27T12:52:07.000Z</time>
      </trkpt>
      <trkpt lat="44.76138" lon="5.88216">
        <ele>1106.9</ele>
        <time>2020-02-27T12:52:06.000Z</time>
      </trkpt>
      <trkpt lat="44.76137" lon="5.88216">
        <ele>1106.9</ele>
        <time>2020-02-27T12:52:05.000Z</time>
      </trkpt>
      <trkpt lat="44.76135" lon="5.88216">
        <ele>1107</ele>
        <time>2020-02-27T12:52:04.000Z</time>
      </trkpt>
      <trkpt lat="44.76134" lon="5.88215">
        <ele>1107</ele>
        <time>2020-02-27T12:52:03.000Z</time>
      </trkpt>
      <trkpt lat="44.76133" lon="5.88216">
        <ele>1107</ele>
        <time>2020-02-27T12:52:02.000Z</time>
      </trkpt>
      <trkpt lat="44.76132" lon="5.88216">
        <ele>1107.1</ele>
        <time>2020-02-27T12:52:01.000Z</time>
      </trkpt>
      <trkpt lat="44.7613" lon="5.88216">
        <ele>1107.1</ele>
        <time>2020-02-27T12:52:00.000Z</time>
      </trkpt>
      <trkpt lat="44.76129" lon="5.88216">
        <ele>1107.1</ele>
        <time>2020-02-27T12:51:59.000Z</time>
      </trkpt>
      <trkpt lat="44.76127" lon="5.88217">
        <ele>1107.1</ele>
        <time>2020-02-27T12:51:58.000Z</time>
      </trkpt>
      <trkpt lat="44.76126" lon="5.88217">
        <ele>1107.1</ele>
        <time>2020-02-27T12:51:57.000Z</time>
      </trkpt>
      <trkpt lat="44.76125" lon="5.88218">
        <ele>1107.1</ele>
        <time>2020-02-27T12:51:56.000Z</time>
      </trkpt>
      <trkpt lat="44.76123" lon="5.88218">
        <ele>1107.1</ele>
        <time>2020-02-27T12:51:55.000Z</time>
      </trkpt>
      <trkpt lat="44.76122" lon="5.88218">
        <ele>1107.2</ele>
        <time>2020-02-27T12:51:54.000Z</time>
      </trkpt>
      <trkpt lat="44.7612" lon="5.88218">
        <ele>1107.2</ele>
        <time>2020-02-27T12:51:53.000Z</time>
      </trkpt>
      <trkpt lat="44.76119" lon="5.88218">
        <ele>1107.2</ele>
        <time>2020-02-27T12:51:52.000Z</time>
      </trkpt>
      <trkpt lat="44.76118" lon="5.88218">
        <ele>1107.2</ele>
        <time>2020-02-27T12:51:51.000Z</time>
      </trkpt>
      <trkpt lat="44.76117" lon="5.88218">
        <ele>1107.2</ele>
        <time>2020-02-27T12:51:50.000Z</time>
      </trkpt>
      <trkpt lat="44.76115" lon="5.88219">
        <ele>1107.2</ele>
        <time>2020-02-27T12:51:49.000Z</time>
      </trkpt>
      <trkpt lat="44.76114" lon="5.88219">
        <ele>1107.2</ele>
        <time>2020-02-27T12:51:48.000Z</time>
      </trkpt>
      <trkpt lat="44.76113" lon="5.8822">
        <ele>1107.2</ele>
        <time>2020-02-27T12:51:47.000Z</time>
      </trkpt>
      <trkpt lat="44.76112" lon="5.8822">
        <ele>1107.2</ele>
        <time>2020-02-27T12:51:46.000Z</time>
      </trkpt>
      <trkpt lat="44.7611" lon="5.8822">
        <ele>1107.2</ele>
        <time>2020-02-27T12:51:45.000Z</time>
      </trkpt>
      <trkpt lat="44.76109" lon="5.8822">
        <ele>1107.2</ele>
        <time>2020-02-27T12:51:44.000Z</time>
      </trkpt>
      <trkpt lat="44.76108" lon="5.8822">
        <ele>1107.2</ele>
        <time>2020-02-27T12:51:43.000Z</time>
      </trkpt>
      <trkpt lat="44.76107" lon="5.8822">
        <ele>1107.2</ele>
        <time>2020-02-27T12:51:42.000Z</time>
      </trkpt>
      <trkpt lat="44.76106" lon="5.88221">
        <ele>1107.2</ele>
        <time>2020-02-27T12:51:41.000Z</time>
      </trkpt>
      <trkpt lat="44.76104" lon="5.88221">
        <ele>1107.2</ele>
        <time>2020-02-27T12:51:40.000Z</time>
      </trkpt>
      <trkpt lat="44.76103" lon="5.88221">
        <ele>1107.2</ele>
        <time>2020-02-27T12:51:39.000Z</time>
      </trkpt>
      <trkpt lat="44.76102" lon="5.88222">
        <ele>1107.2</ele>
        <time>2020-02-27T12:51:38.000Z</time>
      </trkpt>
      <trkpt lat="44.76101" lon="5.88222">
        <ele>1107.1</ele>
        <time>2020-02-27T12:51:37.000Z</time>
      </trkpt>
      <trkpt lat="44.761" lon="5.88222">
        <ele>1107.1</ele>
        <time>2020-02-27T12:51:36.000Z</time>
      </trkpt>
      <trkpt lat="44.76099" lon="5.88222">
        <ele>1107.1</ele>
        <time>2020-02-27T12:51:35.000Z</time>
      </trkpt>
      <trkpt lat="44.76098" lon="5.88223">
        <ele>1107.1</ele>
        <time>2020-02-27T12:51:34.000Z</time>
      </trkpt>
      <trkpt lat="44.76096" lon="5.88223">
        <ele>1107.1</ele>
        <time>2020-02-27T12:51:33.000Z</time>
      </trkpt>
      <trkpt lat="44.76095" lon="5.88224">
        <ele>1107.1</ele>
        <time>2020-02-27T12:51:32.000Z</time>
      </trkpt>
      <trkpt lat="44.76093" lon="5.88225">
        <ele>1107.1</ele>
        <time>2020-02-27T12:51:31.000Z</time>
      </trkpt>
      <trkpt lat="44.76092" lon="5.88225">
        <ele>1107.1</ele>
        <time>2020-02-27T12:51:30.000Z</time>
      </trkpt>
      <trkpt lat="44.76091" lon="5.88226">
        <ele>1107.1</ele>
        <time>2020-02-27T12:51:29.000Z</time>
      </trkpt>
      <trkpt lat="44.7609" lon="5.88227">
        <ele>1107.1</ele>
        <time>2020-02-27T12:51:28.000Z</time>
      </trkpt>
      <trkpt lat="44.76089" lon="5.88227">
        <ele>1107.1</ele>
        <time>2020-02-27T12:51:27.000Z</time>
      </trkpt>
      <trkpt lat="44.76088" lon="5.88228">
        <ele>1107.1</ele>
        <time>2020-02-27T12:51:26.000Z</time>
      </trkpt>
      <trkpt lat="44.76087" lon="5.88229">
        <ele>1107</ele>
        <time>2020-02-27T12:51:25.000Z</time>
      </trkpt>
      <trkpt lat="44.76086" lon="5.88229">
        <ele>1107</ele>
        <time>2020-02-27T12:51:24.000Z</time>
      </trkpt>
      <trkpt lat="44.76084" lon="5.8823">
        <ele>1107</ele>
        <time>2020-02-27T12:51:23.000Z</time>
      </trkpt>
      <trkpt lat="44.76082" lon="5.8823">
        <ele>1107</ele>
        <time>2020-02-27T12:51:22.000Z</time>
      </trkpt>
      <trkpt lat="44.76081" lon="5.8823">
        <ele>1107</ele>
        <time>2020-02-27T12:51:21.000Z</time>
      </trkpt>
      <trkpt lat="44.7608" lon="5.88231">
        <ele>1107</ele>
        <time>2020-02-27T12:51:20.000Z</time>
      </trkpt>
      <trkpt lat="44.76079" lon="5.88231">
        <ele>1107</ele>
        <time>2020-02-27T12:51:19.000Z</time>
      </trkpt>
      <trkpt lat="44.76078" lon="5.88231">
        <ele>1106.9</ele>
        <time>2020-02-27T12:51:18.000Z</time>
      </trkpt>
      <trkpt lat="44.76077" lon="5.88229">
        <ele>1106.9</ele>
        <time>2020-02-27T12:51:17.000Z</time>
      </trkpt>
      <trkpt lat="44.76077" lon="5.88229">
        <ele>1106.9</ele>
        <time>2020-02-27T12:51:16.000Z</time>
      </trkpt>
      <trkpt lat="44.76077" lon="5.88229">
        <ele>1106.9</ele>
        <time>2020-02-27T12:51:15.000Z</time>
      </trkpt>
      <trkpt lat="44.76077" lon="5.88229">
        <ele>1106.9</ele>
        <time>2020-02-27T12:51:14.000Z</time>
      </trkpt>
      <trkpt lat="44.76077" lon="5.88229">
        <ele>1106.9</ele>
        <time>2020-02-27T12:51:13.000Z</time>
      </trkpt>
      <trkpt lat="44.76077" lon="5.88229">
        <ele>1106.8</ele>
        <time>2020-02-27T12:51:12.000Z</time>
      </trkpt>
      <trkpt lat="44.76077" lon="5.88229">
        <ele>1106.8</ele>
        <time>2020-02-27T12:51:11.000Z</time>
      </trkpt>
      <trkpt lat="44.76077" lon="5.88229">
        <ele>1106.8</ele>
        <time>2020-02-27T12:51:10.000Z</time>
      </trkpt>
      <trkpt lat="44.76077" lon="5.88229">
        <ele>1106.8</ele>
        <time>2020-02-27T12:51:09.000Z</time>
      </trkpt>
      <trkpt lat="44.76077" lon="5.88229">
        <ele>1106.8</ele>
        <time>2020-02-27T12:51:08.000Z</time>
      </trkpt>
      <trkpt lat="44.76077" lon="5.88229">
        <ele>1106.7</ele>
        <time>2020-02-27T12:51:07.000Z</time>
      </trkpt>
      <trkpt lat="44.76077" lon="5.88229">
        <ele>1106.7</ele>
        <time>2020-02-27T12:51:06.000Z</time>
      </trkpt>
      <trkpt lat="44.76077" lon="5.88229">
        <ele>1106.7</ele>
        <time>2020-02-27T12:51:05.000Z</time>
      </trkpt>
      <trkpt lat="44.76077" lon="5.88229">
        <ele>1106.6</ele>
        <time>2020-02-27T12:51:04.000Z</time>
      </trkpt>
      <trkpt lat="44.76077" lon="5.88229">
        <ele>1106.6</ele>
        <time>2020-02-27T12:51:03.000Z</time>
      </trkpt>
      <trkpt lat="44.76077" lon="5.88229">
        <ele>1106.6</ele>
        <time>2020-02-27T12:51:02.000Z</time>
      </trkpt>
      <trkpt lat="44.76077" lon="5.88229">
        <ele>1106.5</ele>
        <time>2020-02-27T12:51:01.000Z</time>
      </trkpt>
      <trkpt lat="44.76077" lon="5.88229">
        <ele>1106.5</ele>
        <time>2020-02-27T12:51:00.000Z</time>
      </trkpt>
      <trkpt lat="44.76077" lon="5.88229">
        <ele>1106.5</ele>
        <time>2020-02-27T12:50:59.000Z</time>
      </trkpt>
      <trkpt lat="44.76077" lon="5.88229">
        <ele>1106.4</ele>
        <time>2020-02-27T12:50:58.000Z</time>
      </trkpt>
      <trkpt lat="44.76077" lon="5.88229">
        <ele>1106.4</ele>
        <time>2020-02-27T12:50:57.000Z</time>
      </trkpt>
      <trkpt lat="44.76077" lon="5.88229">
        <ele>1106.3</ele>
        <time>2020-02-27T12:50:56.000Z</time>
      </trkpt>
      <trkpt lat="44.76076" lon="5.88228">
        <ele>1106.3</ele>
        <time>2020-02-27T12:50:55.000Z</time>
      </trkpt>
      <trkpt lat="44.76076" lon="5.88228">
        <ele>1106.2</ele>
        <time>2020-02-27T12:50:54.000Z</time>
      </trkpt>
      <trkpt lat="44.76075" lon="5.88228">
        <ele>1106.1</ele>
        <time>2020-02-27T12:50:53.000Z</time>
      </trkpt>
      <trkpt lat="44.76074" lon="5.88228">
        <ele>1106.1</ele>
        <time>2020-02-27T12:50:52.000Z</time>
      </trkpt>
      <trkpt lat="44.76073" lon="5.88228">
        <ele>1106</ele>
        <time>2020-02-27T12:50:51.000Z</time>
      </trkpt>
      <trkpt lat="44.76071" lon="5.88228">
        <ele>1105.9</ele>
        <time>2020-02-27T12:50:50.000Z</time>
      </trkpt>
      <trkpt lat="44.7607" lon="5.88228">
        <ele>1105.8</ele>
        <time>2020-02-27T12:50:49.000Z</time>
      </trkpt>
      <trkpt lat="44.76068" lon="5.88229">
        <ele>1105.7</ele>
        <time>2020-02-27T12:50:48.000Z</time>
      </trkpt>
      <trkpt lat="44.76067" lon="5.88229">
        <ele>1105.7</ele>
        <time>2020-02-27T12:50:47.000Z</time>
      </trkpt>
      <trkpt lat="44.76065" lon="5.88229">
        <ele>1105.6</ele>
        <time>2020-02-27T12:50:46.000Z</time>
      </trkpt>
      <trkpt lat="44.76063" lon="5.88229">
        <ele>1105.4</ele>
        <time>2020-02-27T12:50:45.000Z</time>
      </trkpt>
      <trkpt lat="44.76062" lon="5.88229">
        <ele>1105.3</ele>
        <time>2020-02-27T12:50:44.000Z</time>
      </trkpt>
      <trkpt lat="44.76061" lon="5.88229">
        <ele>1105.2</ele>
        <time>2020-02-27T12:50:43.000Z</time>
      </trkpt>
      <trkpt lat="44.76056" lon="5.88229">
        <ele>1105.1</ele>
        <time>2020-02-27T12:50:42.000Z</time>
      </trkpt>
      <trkpt lat="44.76056" lon="5.88229">
        <ele>1105</ele>
        <time>2020-02-27T12:50:41.000Z</time>
      </trkpt>
      <trkpt lat="44.76056" lon="5.88229">
        <ele>1104.9</ele>
        <time>2020-02-27T12:50:40.000Z</time>
      </trkpt>
      <trkpt lat="44.76056" lon="5.88229">
        <ele>1104.7</ele>
        <time>2020-02-27T12:50:39.000Z</time>
      </trkpt>
      <trkpt lat="44.76056" lon="5.88229">
        <ele>1104.6</ele>
        <time>2020-02-27T12:50:38.000Z</time>
      </trkpt>
      <trkpt lat="44.76056" lon="5.88229">
        <ele>1104.4</ele>
        <time>2020-02-27T12:50:37.000Z</time>
      </trkpt>
      <trkpt lat="44.76056" lon="5.88229">
        <ele>1104.3</ele>
        <time>2020-02-27T12:50:36.000Z</time>
      </trkpt>
      <trkpt lat="44.76056" lon="5.88229">
        <ele>1104.1</ele>
        <time>2020-02-27T12:50:35.000Z</time>
      </trkpt>
      <trkpt lat="44.76056" lon="5.88229">
        <ele>1103.9</ele>
        <time>2020-02-27T12:50:34.000Z</time>
      </trkpt>
      <trkpt lat="44.76056" lon="5.88229">
        <ele>1103.7</ele>
        <time>2020-02-27T12:50:33.000Z</time>
      </trkpt>
      <trkpt lat="44.76056" lon="5.88229">
        <ele>1103.6</ele>
        <time>2020-02-27T12:50:32.000Z</time>
      </trkpt>
      <trkpt lat="44.76055" lon="5.88229">
        <ele>1103.5</ele>
        <time>2020-02-27T12:50:31.000Z</time>
      </trkpt>
      <trkpt lat="44.76055" lon="5.88228">
        <ele>1103.4</ele>
        <time>2020-02-27T12:50:30.000Z</time>
      </trkpt>
      <trkpt lat="44.76055" lon="5.88228">
        <ele>1103.2</ele>
        <time>2020-02-27T12:50:29.000Z</time>
      </trkpt>
      <trkpt lat="44.76054" lon="5.88227">
        <ele>1103.1</ele>
        <time>2020-02-27T12:50:28.000Z</time>
      </trkpt>
      <trkpt lat="44.76054" lon="5.88226">
        <ele>1102.9</ele>
        <time>2020-02-27T12:50:27.000Z</time>
      </trkpt>
      <trkpt lat="44.76053" lon="5.88225">
        <ele>1102.7</ele>
        <time>2020-02-27T12:50:26.000Z</time>
      </trkpt>
      <trkpt lat="44.76052" lon="5.88225">
        <ele>1102.5</ele>
        <time>2020-02-27T12:50:25.000Z</time>
      </trkpt>
      <trkpt lat="44.76052" lon="5.88224">
        <ele>1102.4</ele>
        <time>2020-02-27T12:50:24.000Z</time>
      </trkpt>
      <trkpt lat="44.76051" lon="5.88224">
        <ele>1102.3</ele>
        <time>2020-02-27T12:50:23.000Z</time>
      </trkpt>
      <trkpt lat="44.76051" lon="5.88223">
        <ele>1102.1</ele>
        <time>2020-02-27T12:50:22.000Z</time>
      </trkpt>
      <trkpt lat="44.7605" lon="5.88223">
        <ele>1102</ele>
        <time>2020-02-27T12:50:21.000Z</time>
      </trkpt>
      <trkpt lat="44.7605" lon="5.88223">
        <ele>1101.8</ele>
        <time>2020-02-27T12:50:20.000Z</time>
      </trkpt>
      <trkpt lat="44.76049" lon="5.88222">
        <ele>1101.7</ele>
        <time>2020-02-27T12:50:19.000Z</time>
      </trkpt>
      <trkpt lat="44.76049" lon="5.88222">
        <ele>1101.5</ele>
        <time>2020-02-27T12:50:18.000Z</time>
      </trkpt>
      <trkpt lat="44.76048" lon="5.8822">
        <ele>1101.3</ele>
        <time>2020-02-27T12:50:17.000Z</time>
      </trkpt>
      <trkpt lat="44.76048" lon="5.88219">
        <ele>1101.1</ele>
        <time>2020-02-27T12:50:16.000Z</time>
      </trkpt>
      <trkpt lat="44.76049" lon="5.88218">
        <ele>1100.9</ele>
        <time>2020-02-27T12:50:15.000Z</time>
      </trkpt>
      <trkpt lat="44.76049" lon="5.88217">
        <ele>1100.7</ele>
        <time>2020-02-27T12:50:14.000Z</time>
      </trkpt>
      <trkpt lat="44.76049" lon="5.88215">
        <ele>1100.6</ele>
        <time>2020-02-27T12:50:13.000Z</time>
      </trkpt>
      <trkpt lat="44.76049" lon="5.88214">
        <ele>1100.4</ele>
        <time>2020-02-27T12:50:12.000Z</time>
      </trkpt>
      <trkpt lat="44.76049" lon="5.88213">
        <ele>1100.3</ele>
        <time>2020-02-27T12:50:11.000Z</time>
      </trkpt>
      <trkpt lat="44.76049" lon="5.88212">
        <ele>1100.1</ele>
        <time>2020-02-27T12:50:10.000Z</time>
      </trkpt>
      <trkpt lat="44.76049" lon="5.88211">
        <ele>1099.9</ele>
        <time>2020-02-27T12:50:09.000Z</time>
      </trkpt>
      <trkpt lat="44.76049" lon="5.8821">
        <ele>1099.7</ele>
        <time>2020-02-27T12:50:08.000Z</time>
      </trkpt>
      <trkpt lat="44.76049" lon="5.88209">
        <ele>1099.6</ele>
        <time>2020-02-27T12:50:07.000Z</time>
      </trkpt>
      <trkpt lat="44.76049" lon="5.88207">
        <ele>1099.4</ele>
        <time>2020-02-27T12:50:06.000Z</time>
      </trkpt>
      <trkpt lat="44.7605" lon="5.88207">
        <ele>1099.2</ele>
        <time>2020-02-27T12:50:05.000Z</time>
      </trkpt>
      <trkpt lat="44.7605" lon="5.88206">
        <ele>1099.1</ele>
        <time>2020-02-27T12:50:04.000Z</time>
      </trkpt>
      <trkpt lat="44.7605" lon="5.88205">
        <ele>1098.9</ele>
        <time>2020-02-27T12:50:03.000Z</time>
      </trkpt>
      <trkpt lat="44.7605" lon="5.88204">
        <ele>1098.7</ele>
        <time>2020-02-27T12:50:02.000Z</time>
      </trkpt>
      <trkpt lat="44.76049" lon="5.88203">
        <ele>1098.6</ele>
        <time>2020-02-27T12:50:01.000Z</time>
      </trkpt>
      <trkpt lat="44.76049" lon="5.88202">
        <ele>1098.4</ele>
        <time>2020-02-27T12:50:00.000Z</time>
      </trkpt>
      <trkpt lat="44.76049" lon="5.88201">
        <ele>1098.3</ele>
        <time>2020-02-27T12:49:59.000Z</time>
      </trkpt>
      <trkpt lat="44.76049" lon="5.882">
        <ele>1098.2</ele>
        <time>2020-02-27T12:49:58.000Z</time>
      </trkpt>
      <trkpt lat="44.76049" lon="5.88199">
        <ele>1098.1</ele>
        <time>2020-02-27T12:49:57.000Z</time>
      </trkpt>
      <trkpt lat="44.76048" lon="5.88199">
        <ele>1098</ele>
        <time>2020-02-27T12:49:56.000Z</time>
      </trkpt>
      <trkpt lat="44.76048" lon="5.88198">
        <ele>1097.8</ele>
        <time>2020-02-27T12:49:55.000Z</time>
      </trkpt>
      <trkpt lat="44.76048" lon="5.88197">
        <ele>1097.7</ele>
        <time>2020-02-27T12:49:54.000Z</time>
      </trkpt>
      <trkpt lat="44.76047" lon="5.88197">
        <ele>1097.6</ele>
        <time>2020-02-27T12:49:53.000Z</time>
      </trkpt>
      <trkpt lat="44.76047" lon="5.88196">
        <ele>1097.5</ele>
        <time>2020-02-27T12:49:52.000Z</time>
      </trkpt>
      <trkpt lat="44.76047" lon="5.88196">
        <ele>1097.4</ele>
        <time>2020-02-27T12:49:51.000Z</time>
      </trkpt>
      <trkpt lat="44.76048" lon="5.88194">
        <ele>1097.3</ele>
        <time>2020-02-27T12:49:50.000Z</time>
      </trkpt>
      <trkpt lat="44.76048" lon="5.88193">
        <ele>1097.1</ele>
        <time>2020-02-27T12:49:49.000Z</time>
      </trkpt>
      <trkpt lat="44.76047" lon="5.88192">
        <ele>1097</ele>
        <time>2020-02-27T12:49:48.000Z</time>
      </trkpt>
      <trkpt lat="44.76047" lon="5.88191">
        <ele>1096.9</ele>
        <time>2020-02-27T12:49:47.000Z</time>
      </trkpt>
      <trkpt lat="44.76046" lon="5.88191">
        <ele>1096.8</ele>
        <time>2020-02-27T12:49:46.000Z</time>
      </trkpt>
      <trkpt lat="44.76046" lon="5.8819">
        <ele>1096.7</ele>
        <time>2020-02-27T12:49:45.000Z</time>
      </trkpt>
      <trkpt lat="44.76046" lon="5.88189">
        <ele>1096.6</ele>
        <time>2020-02-27T12:49:44.000Z</time>
      </trkpt>
      <trkpt lat="44.76045" lon="5.88188">
        <ele>1096.5</ele>
        <time>2020-02-27T12:49:43.000Z</time>
      </trkpt>
      <trkpt lat="44.76045" lon="5.88187">
        <ele>1096.3</ele>
        <time>2020-02-27T12:49:42.000Z</time>
      </trkpt>
      <trkpt lat="44.76044" lon="5.88187">
        <ele>1096.2</ele>
        <time>2020-02-27T12:49:41.000Z</time>
      </trkpt>
      <trkpt lat="44.76043" lon="5.88187">
        <ele>1096.2</ele>
        <time>2020-02-27T12:49:40.000Z</time>
      </trkpt>
      <trkpt lat="44.76043" lon="5.88186">
        <ele>1096.1</ele>
        <time>2020-02-27T12:49:39.000Z</time>
      </trkpt>
      <trkpt lat="44.76042" lon="5.88186">
        <ele>1096</ele>
        <time>2020-02-27T12:49:38.000Z</time>
      </trkpt>
      <trkpt lat="44.76042" lon="5.88185">
        <ele>1095.9</ele>
        <time>2020-02-27T12:49:37.000Z</time>
      </trkpt>
      <trkpt lat="44.76041" lon="5.88184">
        <ele>1095.8</ele>
        <time>2020-02-27T12:49:36.000Z</time>
      </trkpt>
      <trkpt lat="44.7604" lon="5.88184">
        <ele>1095.7</ele>
        <time>2020-02-27T12:49:35.000Z</time>
      </trkpt>
      <trkpt lat="44.7604" lon="5.88183">
        <ele>1095.7</ele>
        <time>2020-02-27T12:49:34.000Z</time>
      </trkpt>
      <trkpt lat="44.76039" lon="5.88183">
        <ele>1095.6</ele>
        <time>2020-02-27T12:49:33.000Z</time>
      </trkpt>
      <trkpt lat="44.76038" lon="5.88182">
        <ele>1095.5</ele>
        <time>2020-02-27T12:49:32.000Z</time>
      </trkpt>
      <trkpt lat="44.76038" lon="5.88182">
        <ele>1095.4</ele>
        <time>2020-02-27T12:49:31.000Z</time>
      </trkpt>
      <trkpt lat="44.76037" lon="5.88181">
        <ele>1095.3</ele>
        <time>2020-02-27T12:49:30.000Z</time>
      </trkpt>
      <trkpt lat="44.76036" lon="5.8818">
        <ele>1095.2</ele>
        <time>2020-02-27T12:49:29.000Z</time>
      </trkpt>
      <trkpt lat="44.76035" lon="5.8818">
        <ele>1095.1</ele>
        <time>2020-02-27T12:49:28.000Z</time>
      </trkpt>
      <trkpt lat="44.76034" lon="5.88179">
        <ele>1095</ele>
        <time>2020-02-27T12:49:27.000Z</time>
      </trkpt>
      <trkpt lat="44.76033" lon="5.88179">
        <ele>1095</ele>
        <time>2020-02-27T12:49:26.000Z</time>
      </trkpt>
      <trkpt lat="44.76031" lon="5.88178">
        <ele>1094.9</ele>
        <time>2020-02-27T12:49:25.000Z</time>
      </trkpt>
      <trkpt lat="44.7603" lon="5.88179">
        <ele>1094.8</ele>
        <time>2020-02-27T12:49:24.000Z</time>
      </trkpt>
      <trkpt lat="44.76029" lon="5.88179">
        <ele>1094.7</ele>
        <time>2020-02-27T12:49:23.000Z</time>
      </trkpt>
      <trkpt lat="44.76028" lon="5.88179">
        <ele>1094.7</ele>
        <time>2020-02-27T12:49:22.000Z</time>
      </trkpt>
      <trkpt lat="44.76027" lon="5.88179">
        <ele>1094.6</ele>
        <time>2020-02-27T12:49:21.000Z</time>
      </trkpt>
      <trkpt lat="44.76026" lon="5.8818">
        <ele>1094.5</ele>
        <time>2020-02-27T12:49:20.000Z</time>
      </trkpt>
      <trkpt lat="44.76026" lon="5.8818">
        <ele>1094.4</ele>
        <time>2020-02-27T12:49:19.000Z</time>
      </trkpt>
      <trkpt lat="44.76025" lon="5.8818">
        <ele>1094.3</ele>
        <time>2020-02-27T12:49:18.000Z</time>
      </trkpt>
      <trkpt lat="44.76025" lon="5.88179">
        <ele>1094.2</ele>
        <time>2020-02-27T12:49:17.000Z</time>
      </trkpt>
      <trkpt lat="44.76024" lon="5.88179">
        <ele>1094.2</ele>
        <time>2020-02-27T12:49:16.000Z</time>
      </trkpt>
      <trkpt lat="44.76023" lon="5.88179">
        <ele>1094.1</ele>
        <time>2020-02-27T12:49:15.000Z</time>
      </trkpt>
      <trkpt lat="44.76021" lon="5.8818">
        <ele>1094.1</ele>
        <time>2020-02-27T12:49:14.000Z</time>
      </trkpt>
      <trkpt lat="44.7602" lon="5.88179">
        <ele>1094</ele>
        <time>2020-02-27T12:49:13.000Z</time>
      </trkpt>
      <trkpt lat="44.76018" lon="5.8818">
        <ele>1093.9</ele>
        <time>2020-02-27T12:49:12.000Z</time>
      </trkpt>
      <trkpt lat="44.76017" lon="5.8818">
        <ele>1093.9</ele>
        <time>2020-02-27T12:49:11.000Z</time>
      </trkpt>
      <trkpt lat="44.76016" lon="5.8818">
        <ele>1093.8</ele>
        <time>2020-02-27T12:49:10.000Z</time>
      </trkpt>
      <trkpt lat="44.76016" lon="5.8818">
        <ele>1093.7</ele>
        <time>2020-02-27T12:49:09.000Z</time>
      </trkpt>
      <trkpt lat="44.76015" lon="5.8818">
        <ele>1093.7</ele>
        <time>2020-02-27T12:49:08.000Z</time>
      </trkpt>
      <trkpt lat="44.76014" lon="5.88179">
        <ele>1093.6</ele>
        <time>2020-02-27T12:49:07.000Z</time>
      </trkpt>
      <trkpt lat="44.76013" lon="5.88179">
        <ele>1093.5</ele>
        <time>2020-02-27T12:49:06.000Z</time>
      </trkpt>
      <trkpt lat="44.76013" lon="5.88179">
        <ele>1093.5</ele>
        <time>2020-02-27T12:49:05.000Z</time>
      </trkpt>
      <trkpt lat="44.76012" lon="5.88178">
        <ele>1093.4</ele>
        <time>2020-02-27T12:49:04.000Z</time>
      </trkpt>
      <trkpt lat="44.7601" lon="5.88178">
        <ele>1093.3</ele>
        <time>2020-02-27T12:49:03.000Z</time>
      </trkpt>
      <trkpt lat="44.76009" lon="5.88178">
        <ele>1093.3</ele>
        <time>2020-02-27T12:49:02.000Z</time>
      </trkpt>
      <trkpt lat="44.76008" lon="5.88177">
        <ele>1093.2</ele>
        <time>2020-02-27T12:49:01.000Z</time>
      </trkpt>
      <trkpt lat="44.76008" lon="5.88176">
        <ele>1093.1</ele>
        <time>2020-02-27T12:49:00.000Z</time>
      </trkpt>
      <trkpt lat="44.76007" lon="5.88176">
        <ele>1093</ele>
        <time>2020-02-27T12:48:59.000Z</time>
      </trkpt>
      <trkpt lat="44.76005" lon="5.88176">
        <ele>1093</ele>
        <time>2020-02-27T12:48:58.000Z</time>
      </trkpt>
      <trkpt lat="44.76004" lon="5.88175">
        <ele>1092.9</ele>
        <time>2020-02-27T12:48:57.000Z</time>
      </trkpt>
      <trkpt lat="44.76003" lon="5.88175">
        <ele>1092.8</ele>
        <time>2020-02-27T12:48:56.000Z</time>
      </trkpt>
      <trkpt lat="44.76003" lon="5.88175">
        <ele>1092.8</ele>
        <time>2020-02-27T12:48:55.000Z</time>
      </trkpt>
      <trkpt lat="44.76002" lon="5.88174">
        <ele>1092.7</ele>
        <time>2020-02-27T12:48:54.000Z</time>
      </trkpt>
      <trkpt lat="44.76001" lon="5.88173">
        <ele>1092.6</ele>
        <time>2020-02-27T12:48:53.000Z</time>
      </trkpt>
      <trkpt lat="44.76001" lon="5.88173">
        <ele>1092.6</ele>
        <time>2020-02-27T12:48:52.000Z</time>
      </trkpt>
      <trkpt lat="44.76" lon="5.88172">
        <ele>1092.5</ele>
        <time>2020-02-27T12:48:51.000Z</time>
      </trkpt>
      <trkpt lat="44.75999" lon="5.88171">
        <ele>1092.4</ele>
        <time>2020-02-27T12:48:50.000Z</time>
      </trkpt>
      <trkpt lat="44.75998" lon="5.88171">
        <ele>1092.3</ele>
        <time>2020-02-27T12:48:49.000Z</time>
      </trkpt>
      <trkpt lat="44.75996" lon="5.88171">
        <ele>1092.3</ele>
        <time>2020-02-27T12:48:48.000Z</time>
      </trkpt>
      <trkpt lat="44.75995" lon="5.8817">
        <ele>1092.2</ele>
        <time>2020-02-27T12:48:47.000Z</time>
      </trkpt>
      <trkpt lat="44.75994" lon="5.8817">
        <ele>1092.1</ele>
        <time>2020-02-27T12:48:46.000Z</time>
      </trkpt>
      <trkpt lat="44.75993" lon="5.8817">
        <ele>1092</ele>
        <time>2020-02-27T12:48:45.000Z</time>
      </trkpt>
      <trkpt lat="44.75991" lon="5.88169">
        <ele>1092</ele>
        <time>2020-02-27T12:48:44.000Z</time>
      </trkpt>
      <trkpt lat="44.7599" lon="5.88169">
        <ele>1091.9</ele>
        <time>2020-02-27T12:48:43.000Z</time>
      </trkpt>
      <trkpt lat="44.75989" lon="5.88169">
        <ele>1091.8</ele>
        <time>2020-02-27T12:48:42.000Z</time>
      </trkpt>
      <trkpt lat="44.75988" lon="5.88169">
        <ele>1091.8</ele>
        <time>2020-02-27T12:48:41.000Z</time>
      </trkpt>
      <trkpt lat="44.75987" lon="5.88168">
        <ele>1091.7</ele>
        <time>2020-02-27T12:48:40.000Z</time>
      </trkpt>
      <trkpt lat="44.75987" lon="5.88168">
        <ele>1091.6</ele>
        <time>2020-02-27T12:48:39.000Z</time>
      </trkpt>
      <trkpt lat="44.75986" lon="5.88167">
        <ele>1091.5</ele>
        <time>2020-02-27T12:48:38.000Z</time>
      </trkpt>
      <trkpt lat="44.75985" lon="5.88166">
        <ele>1091.4</ele>
        <time>2020-02-27T12:48:37.000Z</time>
      </trkpt>
      <trkpt lat="44.75984" lon="5.88166">
        <ele>1091.3</ele>
        <time>2020-02-27T12:48:36.000Z</time>
      </trkpt>
      <trkpt lat="44.75983" lon="5.88165">
        <ele>1091.2</ele>
        <time>2020-02-27T12:48:35.000Z</time>
      </trkpt>
      <trkpt lat="44.75982" lon="5.88165">
        <ele>1091.2</ele>
        <time>2020-02-27T12:48:34.000Z</time>
      </trkpt>
      <trkpt lat="44.75981" lon="5.88165">
        <ele>1091.1</ele>
        <time>2020-02-27T12:48:33.000Z</time>
      </trkpt>
      <trkpt lat="44.75979" lon="5.88165">
        <ele>1091</ele>
        <time>2020-02-27T12:48:32.000Z</time>
      </trkpt>
      <trkpt lat="44.75979" lon="5.88165">
        <ele>1090.9</ele>
        <time>2020-02-27T12:48:31.000Z</time>
      </trkpt>
      <trkpt lat="44.75978" lon="5.88164">
        <ele>1090.8</ele>
        <time>2020-02-27T12:48:30.000Z</time>
      </trkpt>
      <trkpt lat="44.75977" lon="5.88164">
        <ele>1090.7</ele>
        <time>2020-02-27T12:48:29.000Z</time>
      </trkpt>
      <trkpt lat="44.75977" lon="5.88164">
        <ele>1090.6</ele>
        <time>2020-02-27T12:48:28.000Z</time>
      </trkpt>
      <trkpt lat="44.75975" lon="5.88164">
        <ele>1090.5</ele>
        <time>2020-02-27T12:48:27.000Z</time>
      </trkpt>
      <trkpt lat="44.75974" lon="5.88163">
        <ele>1090.4</ele>
        <time>2020-02-27T12:48:26.000Z</time>
      </trkpt>
      <trkpt lat="44.75974" lon="5.88163">
        <ele>1090.3</ele>
        <time>2020-02-27T12:48:25.000Z</time>
      </trkpt>
      <trkpt lat="44.75973" lon="5.88163">
        <ele>1090.2</ele>
        <time>2020-02-27T12:48:24.000Z</time>
      </trkpt>
      <trkpt lat="44.75973" lon="5.88161">
        <ele>1090.1</ele>
        <time>2020-02-27T12:48:23.000Z</time>
      </trkpt>
      <trkpt lat="44.75972" lon="5.8816">
        <ele>1090</ele>
        <time>2020-02-27T12:48:22.000Z</time>
      </trkpt>
      <trkpt lat="44.75971" lon="5.8816">
        <ele>1089.9</ele>
        <time>2020-02-27T12:48:21.000Z</time>
      </trkpt>
      <trkpt lat="44.7597" lon="5.88159">
        <ele>1089.8</ele>
        <time>2020-02-27T12:48:20.000Z</time>
      </trkpt>
      <trkpt lat="44.7597" lon="5.88158">
        <ele>1089.7</ele>
        <time>2020-02-27T12:48:19.000Z</time>
      </trkpt>
      <trkpt lat="44.75969" lon="5.88157">
        <ele>1089.6</ele>
        <time>2020-02-27T12:48:18.000Z</time>
      </trkpt>
      <trkpt lat="44.75969" lon="5.88156">
        <ele>1089.5</ele>
        <time>2020-02-27T12:48:17.000Z</time>
      </trkpt>
      <trkpt lat="44.75969" lon="5.88154">
        <ele>1089.3</ele>
        <time>2020-02-27T12:48:16.000Z</time>
      </trkpt>
      <trkpt lat="44.75968" lon="5.88154">
        <ele>1089.2</ele>
        <time>2020-02-27T12:48:15.000Z</time>
      </trkpt>
      <trkpt lat="44.75968" lon="5.88153">
        <ele>1089.1</ele>
        <time>2020-02-27T12:48:14.000Z</time>
      </trkpt>
      <trkpt lat="44.75967" lon="5.88153">
        <ele>1089</ele>
        <time>2020-02-27T12:48:13.000Z</time>
      </trkpt>
      <trkpt lat="44.75966" lon="5.88152">
        <ele>1088.8</ele>
        <time>2020-02-27T12:48:12.000Z</time>
      </trkpt>
      <trkpt lat="44.75965" lon="5.88152">
        <ele>1088.7</ele>
        <time>2020-02-27T12:48:11.000Z</time>
      </trkpt>
      <trkpt lat="44.75964" lon="5.88151">
        <ele>1088.5</ele>
        <time>2020-02-27T12:48:10.000Z</time>
      </trkpt>
      <trkpt lat="44.75964" lon="5.88151">
        <ele>1088.4</ele>
        <time>2020-02-27T12:48:09.000Z</time>
      </trkpt>
      <trkpt lat="44.75963" lon="5.88151">
        <ele>1088.2</ele>
        <time>2020-02-27T12:48:08.000Z</time>
      </trkpt>
      <trkpt lat="44.75962" lon="5.8815">
        <ele>1088.1</ele>
        <time>2020-02-27T12:48:07.000Z</time>
      </trkpt>
      <trkpt lat="44.75961" lon="5.88149">
        <ele>1087.9</ele>
        <time>2020-02-27T12:48:06.000Z</time>
      </trkpt>
      <trkpt lat="44.7596" lon="5.88149">
        <ele>1087.8</ele>
        <time>2020-02-27T12:48:05.000Z</time>
      </trkpt>
      <trkpt lat="44.75959" lon="5.88149">
        <ele>1087.7</ele>
        <time>2020-02-27T12:48:04.000Z</time>
      </trkpt>
      <trkpt lat="44.75958" lon="5.88149">
        <ele>1087.5</ele>
        <time>2020-02-27T12:48:03.000Z</time>
      </trkpt>
      <trkpt lat="44.75957" lon="5.88149">
        <ele>1087.3</ele>
        <time>2020-02-27T12:48:02.000Z</time>
      </trkpt>
      <trkpt lat="44.75956" lon="5.88149">
        <ele>1087.2</ele>
        <time>2020-02-27T12:48:01.000Z</time>
      </trkpt>
      <trkpt lat="44.75954" lon="5.88149">
        <ele>1087.1</ele>
        <time>2020-02-27T12:48:00.000Z</time>
      </trkpt>
      <trkpt lat="44.75952" lon="5.88149">
        <ele>1086.9</ele>
        <time>2020-02-27T12:47:59.000Z</time>
      </trkpt>
      <trkpt lat="44.75951" lon="5.88148">
        <ele>1086.8</ele>
        <time>2020-02-27T12:47:58.000Z</time>
      </trkpt>
      <trkpt lat="44.75949" lon="5.88149">
        <ele>1086.6</ele>
        <time>2020-02-27T12:47:57.000Z</time>
      </trkpt>
      <trkpt lat="44.75948" lon="5.88149">
        <ele>1086.5</ele>
        <time>2020-02-27T12:47:56.000Z</time>
      </trkpt>
      <trkpt lat="44.75946" lon="5.8815">
        <ele>1086.3</ele>
        <time>2020-02-27T12:47:55.000Z</time>
      </trkpt>
      <trkpt lat="44.75946" lon="5.8815">
        <ele>1086.2</ele>
        <time>2020-02-27T12:47:54.000Z</time>
      </trkpt>
      <trkpt lat="44.75946" lon="5.88149">
        <ele>1086.1</ele>
        <time>2020-02-27T12:47:53.000Z</time>
      </trkpt>
      <trkpt lat="44.75945" lon="5.88149">
        <ele>1085.9</ele>
        <time>2020-02-27T12:47:52.000Z</time>
      </trkpt>
      <trkpt lat="44.75945" lon="5.88149">
        <ele>1085.8</ele>
        <time>2020-02-27T12:47:51.000Z</time>
      </trkpt>
      <trkpt lat="44.75944" lon="5.88149">
        <ele>1085.6</ele>
        <time>2020-02-27T12:47:50.000Z</time>
      </trkpt>
      <trkpt lat="44.75944" lon="5.88148">
        <ele>1085.5</ele>
        <time>2020-02-27T12:47:49.000Z</time>
      </trkpt>
      <trkpt lat="44.75943" lon="5.88147">
        <ele>1085.4</ele>
        <time>2020-02-27T12:47:48.000Z</time>
      </trkpt>
      <trkpt lat="44.75943" lon="5.88147">
        <ele>1085.2</ele>
        <time>2020-02-27T12:47:47.000Z</time>
      </trkpt>
      <trkpt lat="44.75942" lon="5.88147">
        <ele>1085.1</ele>
        <time>2020-02-27T12:47:46.000Z</time>
      </trkpt>
      <trkpt lat="44.75942" lon="5.88146">
        <ele>1084.9</ele>
        <time>2020-02-27T12:47:45.000Z</time>
      </trkpt>
      <trkpt lat="44.75941" lon="5.88145">
        <ele>1084.8</ele>
        <time>2020-02-27T12:47:44.000Z</time>
      </trkpt>
      <trkpt lat="44.7594" lon="5.88145">
        <ele>1084.6</ele>
        <time>2020-02-27T12:47:43.000Z</time>
      </trkpt>
      <trkpt lat="44.75939" lon="5.88144">
        <ele>1084.5</ele>
        <time>2020-02-27T12:47:42.000Z</time>
      </trkpt>
      <trkpt lat="44.75938" lon="5.88144">
        <ele>1084.3</ele>
        <time>2020-02-27T12:47:41.000Z</time>
      </trkpt>
      <trkpt lat="44.75938" lon="5.88143">
        <ele>1084.1</ele>
        <time>2020-02-27T12:47:40.000Z</time>
      </trkpt>
      <trkpt lat="44.75937" lon="5.88142">
        <ele>1084</ele>
        <time>2020-02-27T12:47:39.000Z</time>
      </trkpt>
      <trkpt lat="44.75936" lon="5.88142">
        <ele>1083.8</ele>
        <time>2020-02-27T12:47:38.000Z</time>
      </trkpt>
      <trkpt lat="44.75935" lon="5.88143">
        <ele>1083.7</ele>
        <time>2020-02-27T12:47:37.000Z</time>
      </trkpt>
      <trkpt lat="44.75934" lon="5.88142">
        <ele>1083.6</ele>
        <time>2020-02-27T12:47:36.000Z</time>
      </trkpt>
      <trkpt lat="44.75933" lon="5.88142">
        <ele>1083.5</ele>
        <time>2020-02-27T12:47:35.000Z</time>
      </trkpt>
      <trkpt lat="44.75932" lon="5.88141">
        <ele>1083.4</ele>
        <time>2020-02-27T12:47:34.000Z</time>
      </trkpt>
      <trkpt lat="44.75932" lon="5.8814">
        <ele>1083.3</ele>
        <time>2020-02-27T12:47:33.000Z</time>
      </trkpt>
      <trkpt lat="44.75931" lon="5.88139">
        <ele>1083.1</ele>
        <time>2020-02-27T12:47:32.000Z</time>
      </trkpt>
      <trkpt lat="44.75931" lon="5.88139">
        <ele>1083</ele>
        <time>2020-02-27T12:47:31.000Z</time>
      </trkpt>
      <trkpt lat="44.7593" lon="5.88137">
        <ele>1082.9</ele>
        <time>2020-02-27T12:47:30.000Z</time>
      </trkpt>
      <trkpt lat="44.7593" lon="5.88137">
        <ele>1082.7</ele>
        <time>2020-02-27T12:47:29.000Z</time>
      </trkpt>
      <trkpt lat="44.75929" lon="5.88137">
        <ele>1082.6</ele>
        <time>2020-02-27T12:47:28.000Z</time>
      </trkpt>
      <trkpt lat="44.75928" lon="5.88137">
        <ele>1082.4</ele>
        <time>2020-02-27T12:47:27.000Z</time>
      </trkpt>
      <trkpt lat="44.75927" lon="5.88135">
        <ele>1082.3</ele>
        <time>2020-02-27T12:47:26.000Z</time>
      </trkpt>
      <trkpt lat="44.75927" lon="5.88134">
        <ele>1082.2</ele>
        <time>2020-02-27T12:47:25.000Z</time>
      </trkpt>
      <trkpt lat="44.75926" lon="5.88133">
        <ele>1082.1</ele>
        <time>2020-02-27T12:47:24.000Z</time>
      </trkpt>
      <trkpt lat="44.75925" lon="5.88133">
        <ele>1081.9</ele>
        <time>2020-02-27T12:47:23.000Z</time>
      </trkpt>
      <trkpt lat="44.75925" lon="5.88132">
        <ele>1081.8</ele>
        <time>2020-02-27T12:47:22.000Z</time>
      </trkpt>
      <trkpt lat="44.75924" lon="5.88131">
        <ele>1081.6</ele>
        <time>2020-02-27T12:47:21.000Z</time>
      </trkpt>
      <trkpt lat="44.75924" lon="5.8813">
        <ele>1081.5</ele>
        <time>2020-02-27T12:47:20.000Z</time>
      </trkpt>
      <trkpt lat="44.75923" lon="5.88129">
        <ele>1081.3</ele>
        <time>2020-02-27T12:47:19.000Z</time>
      </trkpt>
      <trkpt lat="44.75923" lon="5.88128">
        <ele>1081.2</ele>
        <time>2020-02-27T12:47:18.000Z</time>
      </trkpt>
      <trkpt lat="44.75922" lon="5.88127">
        <ele>1081</ele>
        <time>2020-02-27T12:47:17.000Z</time>
      </trkpt>
      <trkpt lat="44.75921" lon="5.88126">
        <ele>1080.9</ele>
        <time>2020-02-27T12:47:16.000Z</time>
      </trkpt>
      <trkpt lat="44.7592" lon="5.88126">
        <ele>1080.8</ele>
        <time>2020-02-27T12:47:15.000Z</time>
      </trkpt>
      <trkpt lat="44.75919" lon="5.88126">
        <ele>1080.6</ele>
        <time>2020-02-27T12:47:14.000Z</time>
      </trkpt>
      <trkpt lat="44.75918" lon="5.88127">
        <ele>1080.5</ele>
        <time>2020-02-27T12:47:13.000Z</time>
      </trkpt>
      <trkpt lat="44.75918" lon="5.88127">
        <ele>1080.3</ele>
        <time>2020-02-27T12:47:12.000Z</time>
      </trkpt>
      <trkpt lat="44.75918" lon="5.88127">
        <ele>1080.2</ele>
        <time>2020-02-27T12:47:11.000Z</time>
      </trkpt>
      <trkpt lat="44.75918" lon="5.88127">
        <ele>1080</ele>
        <time>2020-02-27T12:47:10.000Z</time>
      </trkpt>
      <trkpt lat="44.75918" lon="5.88127">
        <ele>1079.9</ele>
        <time>2020-02-27T12:47:09.000Z</time>
      </trkpt>
      <trkpt lat="44.75919" lon="5.88128">
        <ele>1079.8</ele>
        <time>2020-02-27T12:47:08.000Z</time>
      </trkpt>
      <trkpt lat="44.75919" lon="5.88128">
        <ele>1079.6</ele>
        <time>2020-02-27T12:47:07.000Z</time>
      </trkpt>
      <trkpt lat="44.7592" lon="5.88129">
        <ele>1079.5</ele>
        <time>2020-02-27T12:47:06.000Z</time>
      </trkpt>
      <trkpt lat="44.75921" lon="5.88131">
        <ele>1079.4</ele>
        <time>2020-02-27T12:47:05.000Z</time>
      </trkpt>
      <trkpt lat="44.75922" lon="5.88132">
        <ele>1079.3</ele>
        <time>2020-02-27T12:47:04.000Z</time>
      </trkpt>
      <trkpt lat="44.75922" lon="5.88132">
        <ele>1079.1</ele>
        <time>2020-02-27T12:47:03.000Z</time>
      </trkpt>
      <trkpt lat="44.75923" lon="5.88133">
        <ele>1079</ele>
        <time>2020-02-27T12:47:02.000Z</time>
      </trkpt>
      <trkpt lat="44.75923" lon="5.88135">
        <ele>1078.9</ele>
        <time>2020-02-27T12:47:01.000Z</time>
      </trkpt>
      <trkpt lat="44.75924" lon="5.88136">
        <ele>1078.8</ele>
        <time>2020-02-27T12:47:00.000Z</time>
      </trkpt>
      <trkpt lat="44.75925" lon="5.88137">
        <ele>1078.7</ele>
        <time>2020-02-27T12:46:59.000Z</time>
      </trkpt>
      <trkpt lat="44.75926" lon="5.88138">
        <ele>1078.6</ele>
        <time>2020-02-27T12:46:58.000Z</time>
      </trkpt>
      <trkpt lat="44.75926" lon="5.88139">
        <ele>1078.5</ele>
        <time>2020-02-27T12:46:57.000Z</time>
      </trkpt>
      <trkpt lat="44.75927" lon="5.8814">
        <ele>1078.3</ele>
        <time>2020-02-27T12:46:56.000Z</time>
      </trkpt>
      <trkpt lat="44.75927" lon="5.88141">
        <ele>1078.2</ele>
        <time>2020-02-27T12:46:55.000Z</time>
      </trkpt>
      <trkpt lat="44.75928" lon="5.88142">
        <ele>1078.1</ele>
        <time>2020-02-27T12:46:54.000Z</time>
      </trkpt>
      <trkpt lat="44.75929" lon="5.88143">
        <ele>1077.9</ele>
        <time>2020-02-27T12:46:53.000Z</time>
      </trkpt>
      <trkpt lat="44.75929" lon="5.88144">
        <ele>1077.8</ele>
        <time>2020-02-27T12:46:52.000Z</time>
      </trkpt>
      <trkpt lat="44.7593" lon="5.88145">
        <ele>1077.7</ele>
        <time>2020-02-27T12:46:51.000Z</time>
      </trkpt>
      <trkpt lat="44.75931" lon="5.88146">
        <ele>1077.5</ele>
        <time>2020-02-27T12:46:50.000Z</time>
      </trkpt>
      <trkpt lat="44.75931" lon="5.88146">
        <ele>1077.4</ele>
        <time>2020-02-27T12:46:49.000Z</time>
      </trkpt>
      <trkpt lat="44.75932" lon="5.88147">
        <ele>1077.2</ele>
        <time>2020-02-27T12:46:48.000Z</time>
      </trkpt>
      <trkpt lat="44.75932" lon="5.88148">
        <ele>1077.1</ele>
        <time>2020-02-27T12:46:47.000Z</time>
      </trkpt>
      <trkpt lat="44.75933" lon="5.88148">
        <ele>1077</ele>
        <time>2020-02-27T12:46:46.000Z</time>
      </trkpt>
      <trkpt lat="44.75933" lon="5.88149">
        <ele>1076.9</ele>
        <time>2020-02-27T12:46:45.000Z</time>
      </trkpt>
      <trkpt lat="44.75934" lon="5.88149">
        <ele>1076.8</ele>
        <time>2020-02-27T12:46:44.000Z</time>
      </trkpt>
      <trkpt lat="44.75935" lon="5.88149">
        <ele>1076.6</ele>
        <time>2020-02-27T12:46:43.000Z</time>
      </trkpt>
      <trkpt lat="44.75935" lon="5.8815">
        <ele>1076.5</ele>
        <time>2020-02-27T12:46:42.000Z</time>
      </trkpt>
      <trkpt lat="44.75936" lon="5.8815">
        <ele>1076.4</ele>
        <time>2020-02-27T12:46:41.000Z</time>
      </trkpt>
      <trkpt lat="44.75937" lon="5.8815">
        <ele>1076.2</ele>
        <time>2020-02-27T12:46:40.000Z</time>
      </trkpt>
      <trkpt lat="44.75937" lon="5.88151">
        <ele>1076.1</ele>
        <time>2020-02-27T12:46:39.000Z</time>
      </trkpt>
      <trkpt lat="44.75938" lon="5.88152">
        <ele>1076</ele>
        <time>2020-02-27T12:46:38.000Z</time>
      </trkpt>
      <trkpt lat="44.75938" lon="5.88153">
        <ele>1075.9</ele>
        <time>2020-02-27T12:46:37.000Z</time>
      </trkpt>
      <trkpt lat="44.75939" lon="5.88153">
        <ele>1075.8</ele>
        <time>2020-02-27T12:46:36.000Z</time>
      </trkpt>
      <trkpt lat="44.75939" lon="5.88155">
        <ele>1075.7</ele>
        <time>2020-02-27T12:46:35.000Z</time>
      </trkpt>
      <trkpt lat="44.75939" lon="5.88157">
        <ele>1075.6</ele>
        <time>2020-02-27T12:46:34.000Z</time>
      </trkpt>
      <trkpt lat="44.7594" lon="5.88158">
        <ele>1075.5</ele>
        <time>2020-02-27T12:46:33.000Z</time>
      </trkpt>
      <trkpt lat="44.75941" lon="5.88159">
        <ele>1075.4</ele>
        <time>2020-02-27T12:46:32.000Z</time>
      </trkpt>
      <trkpt lat="44.75942" lon="5.88159">
        <ele>1075.3</ele>
        <time>2020-02-27T12:46:31.000Z</time>
      </trkpt>
      <trkpt lat="44.75942" lon="5.8816">
        <ele>1075.2</ele>
        <time>2020-02-27T12:46:30.000Z</time>
      </trkpt>
      <trkpt lat="44.75943" lon="5.88161">
        <ele>1075.1</ele>
        <time>2020-02-27T12:46:29.000Z</time>
      </trkpt>
      <trkpt lat="44.75944" lon="5.88162">
        <ele>1075</ele>
        <time>2020-02-27T12:46:28.000Z</time>
      </trkpt>
      <trkpt lat="44.75945" lon="5.88163">
        <ele>1074.9</ele>
        <time>2020-02-27T12:46:27.000Z</time>
      </trkpt>
      <trkpt lat="44.75945" lon="5.88164">
        <ele>1074.8</ele>
        <time>2020-02-27T12:46:26.000Z</time>
      </trkpt>
      <trkpt lat="44.75945" lon="5.88166">
        <ele>1074.7</ele>
        <time>2020-02-27T12:46:25.000Z</time>
      </trkpt>
      <trkpt lat="44.75946" lon="5.88167">
        <ele>1074.6</ele>
        <time>2020-02-27T12:46:24.000Z</time>
      </trkpt>
      <trkpt lat="44.75946" lon="5.88168">
        <ele>1074.6</ele>
        <time>2020-02-27T12:46:23.000Z</time>
      </trkpt>
      <trkpt lat="44.75947" lon="5.8817">
        <ele>1074.5</ele>
        <time>2020-02-27T12:46:22.000Z</time>
      </trkpt>
      <trkpt lat="44.75949" lon="5.88173">
        <ele>1074.4</ele>
        <time>2020-02-27T12:46:21.000Z</time>
      </trkpt>
      <trkpt lat="44.75949" lon="5.88175">
        <ele>1074.4</ele>
        <time>2020-02-27T12:46:20.000Z</time>
      </trkpt>
      <trkpt lat="44.75951" lon="5.88177">
        <ele>1074.3</ele>
        <time>2020-02-27T12:46:19.000Z</time>
      </trkpt>
      <trkpt lat="44.75951" lon="5.88178">
        <ele>1074.2</ele>
        <time>2020-02-27T12:46:18.000Z</time>
      </trkpt>
      <trkpt lat="44.75953" lon="5.88181">
        <ele>1074.1</ele>
        <time>2020-02-27T12:46:17.000Z</time>
      </trkpt>
      <trkpt lat="44.75954" lon="5.88184">
        <ele>1074.1</ele>
        <time>2020-02-27T12:46:16.000Z</time>
      </trkpt>
      <trkpt lat="44.75955" lon="5.88187">
        <ele>1074</ele>
        <time>2020-02-27T12:46:15.000Z</time>
      </trkpt>
      <trkpt lat="44.75956" lon="5.88188">
        <ele>1074</ele>
        <time>2020-02-27T12:46:14.000Z</time>
      </trkpt>
      <trkpt lat="44.75956" lon="5.88189">
        <ele>1073.9</ele>
        <time>2020-02-27T12:46:13.000Z</time>
      </trkpt>
      <trkpt lat="44.75957" lon="5.8819">
        <ele>1073.9</ele>
        <time>2020-02-27T12:46:12.000Z</time>
      </trkpt>
      <trkpt lat="44.75958" lon="5.88191">
        <ele>1073.8</ele>
        <time>2020-02-27T12:46:11.000Z</time>
      </trkpt>
      <trkpt lat="44.75959" lon="5.88192">
        <ele>1073.8</ele>
        <time>2020-02-27T12:46:10.000Z</time>
      </trkpt>
      <trkpt lat="44.75959" lon="5.88193">
        <ele>1073.8</ele>
        <time>2020-02-27T12:46:09.000Z</time>
      </trkpt>
      <trkpt lat="44.7596" lon="5.88194">
        <ele>1073.8</ele>
        <time>2020-02-27T12:46:08.000Z</time>
      </trkpt>
      <trkpt lat="44.7596" lon="5.88195">
        <ele>1073.8</ele>
        <time>2020-02-27T12:46:07.000Z</time>
      </trkpt>
      <trkpt lat="44.75961" lon="5.88197">
        <ele>1073.8</ele>
        <time>2020-02-27T12:46:06.000Z</time>
      </trkpt>
      <trkpt lat="44.75961" lon="5.88198">
        <ele>1073.8</ele>
        <time>2020-02-27T12:46:05.000Z</time>
      </trkpt>
      <trkpt lat="44.75962" lon="5.882">
        <ele>1073.8</ele>
        <time>2020-02-27T12:46:04.000Z</time>
      </trkpt>
      <trkpt lat="44.75962" lon="5.88201">
        <ele>1073.8</ele>
        <time>2020-02-27T12:46:03.000Z</time>
      </trkpt>
      <trkpt lat="44.75963" lon="5.88202">
        <ele>1073.9</ele>
        <time>2020-02-27T12:46:02.000Z</time>
      </trkpt>
      <trkpt lat="44.75963" lon="5.88204">
        <ele>1073.9</ele>
        <time>2020-02-27T12:46:01.000Z</time>
      </trkpt>
      <trkpt lat="44.75963" lon="5.88206">
        <ele>1073.9</ele>
        <time>2020-02-27T12:46:00.000Z</time>
      </trkpt>
      <trkpt lat="44.75964" lon="5.88209">
        <ele>1073.9</ele>
        <time>2020-02-27T12:45:59.000Z</time>
      </trkpt>
      <trkpt lat="44.75965" lon="5.8821">
        <ele>1074</ele>
        <time>2020-02-27T12:45:58.000Z</time>
      </trkpt>
      <trkpt lat="44.75965" lon="5.88211">
        <ele>1074</ele>
        <time>2020-02-27T12:45:57.000Z</time>
      </trkpt>
      <trkpt lat="44.75966" lon="5.88212">
        <ele>1074</ele>
        <time>2020-02-27T12:45:56.000Z</time>
      </trkpt>
      <trkpt lat="44.75967" lon="5.88214">
        <ele>1074.1</ele>
        <time>2020-02-27T12:45:55.000Z</time>
      </trkpt>
      <trkpt lat="44.75968" lon="5.88216">
        <ele>1074.1</ele>
        <time>2020-02-27T12:45:54.000Z</time>
      </trkpt>
      <trkpt lat="44.75969" lon="5.88217">
        <ele>1074.1</ele>
        <time>2020-02-27T12:45:53.000Z</time>
      </trkpt>
      <trkpt lat="44.75969" lon="5.88218">
        <ele>1074.1</ele>
        <time>2020-02-27T12:45:52.000Z</time>
      </trkpt>
      <trkpt lat="44.7597" lon="5.88218">
        <ele>1074.2</ele>
        <time>2020-02-27T12:45:51.000Z</time>
      </trkpt>
      <trkpt lat="44.75971" lon="5.88219">
        <ele>1074.2</ele>
        <time>2020-02-27T12:45:50.000Z</time>
      </trkpt>
      <trkpt lat="44.75972" lon="5.88219">
        <ele>1074.2</ele>
        <time>2020-02-27T12:45:49.000Z</time>
      </trkpt>
      <trkpt lat="44.75974" lon="5.8822">
        <ele>1074.1</ele>
        <time>2020-02-27T12:45:48.000Z</time>
      </trkpt>
      <trkpt lat="44.75975" lon="5.88221">
        <ele>1074.1</ele>
        <time>2020-02-27T12:45:47.000Z</time>
      </trkpt>
      <trkpt lat="44.75976" lon="5.88223">
        <ele>1074.1</ele>
        <time>2020-02-27T12:45:46.000Z</time>
      </trkpt>
      <trkpt lat="44.75977" lon="5.88223">
        <ele>1074.1</ele>
        <time>2020-02-27T12:45:45.000Z</time>
      </trkpt>
      <trkpt lat="44.75977" lon="5.88225">
        <ele>1074.1</ele>
        <time>2020-02-27T12:45:44.000Z</time>
      </trkpt>
      <trkpt lat="44.75978" lon="5.88226">
        <ele>1074.1</ele>
        <time>2020-02-27T12:45:43.000Z</time>
      </trkpt>
      <trkpt lat="44.75978" lon="5.88228">
        <ele>1074.1</ele>
        <time>2020-02-27T12:45:42.000Z</time>
      </trkpt>
      <trkpt lat="44.75979" lon="5.8823">
        <ele>1074.1</ele>
        <time>2020-02-27T12:45:41.000Z</time>
      </trkpt>
      <trkpt lat="44.75979" lon="5.88231">
        <ele>1074.1</ele>
        <time>2020-02-27T12:45:40.000Z</time>
      </trkpt>
      <trkpt lat="44.7598" lon="5.88232">
        <ele>1074</ele>
        <time>2020-02-27T12:45:39.000Z</time>
      </trkpt>
      <trkpt lat="44.7598" lon="5.88234">
        <ele>1074</ele>
        <time>2020-02-27T12:45:38.000Z</time>
      </trkpt>
      <trkpt lat="44.75979" lon="5.88235">
        <ele>1074</ele>
        <time>2020-02-27T12:45:37.000Z</time>
      </trkpt>
      <trkpt lat="44.75979" lon="5.88236">
        <ele>1074</ele>
        <time>2020-02-27T12:45:36.000Z</time>
      </trkpt>
      <trkpt lat="44.75979" lon="5.88237">
        <ele>1074</ele>
        <time>2020-02-27T12:45:35.000Z</time>
      </trkpt>
      <trkpt lat="44.75979" lon="5.88238">
        <ele>1074</ele>
        <time>2020-02-27T12:45:34.000Z</time>
      </trkpt>
      <trkpt lat="44.7598" lon="5.88239">
        <ele>1074</ele>
        <time>2020-02-27T12:45:33.000Z</time>
      </trkpt>
      <trkpt lat="44.7598" lon="5.8824">
        <ele>1074</ele>
        <time>2020-02-27T12:45:32.000Z</time>
      </trkpt>
      <trkpt lat="44.7598" lon="5.88241">
        <ele>1074</ele>
        <time>2020-02-27T12:45:31.000Z</time>
      </trkpt>
      <trkpt lat="44.75976" lon="5.88248">
        <ele>1074</ele>
        <time>2020-02-27T12:45:30.000Z</time>
      </trkpt>
      <trkpt lat="44.75976" lon="5.88248">
        <ele>1074</ele>
        <time>2020-02-27T12:45:29.000Z</time>
      </trkpt>
      <trkpt lat="44.75976" lon="5.88248">
        <ele>1074</ele>
        <time>2020-02-27T12:45:28.000Z</time>
      </trkpt>
      <trkpt lat="44.75976" lon="5.88248">
        <ele>1074</ele>
        <time>2020-02-27T12:45:27.000Z</time>
      </trkpt>
      <trkpt lat="44.75976" lon="5.88248">
        <ele>1074</ele>
        <time>2020-02-27T12:45:26.000Z</time>
      </trkpt>
      <trkpt lat="44.75976" lon="5.88248">
        <ele>1074</ele>
        <time>2020-02-27T12:45:25.000Z</time>
      </trkpt>
      <trkpt lat="44.75976" lon="5.88248">
        <ele>1074</ele>
        <time>2020-02-27T12:45:24.000Z</time>
      </trkpt>
      <trkpt lat="44.75976" lon="5.88248">
        <ele>1074</ele>
        <time>2020-02-27T12:45:23.000Z</time>
      </trkpt>
      <trkpt lat="44.75976" lon="5.88248">
        <ele>1074</ele>
        <time>2020-02-27T12:45:22.000Z</time>
      </trkpt>
      <trkpt lat="44.75976" lon="5.88248">
        <ele>1074</ele>
        <time>2020-02-27T12:45:21.000Z</time>
      </trkpt>
      <trkpt lat="44.75976" lon="5.88248">
        <ele>1074</ele>
        <time>2020-02-27T12:45:20.000Z</time>
      </trkpt>
      <trkpt lat="44.75976" lon="5.88248">
        <ele>1074</ele>
        <time>2020-02-27T12:45:19.000Z</time>
      </trkpt>
      <trkpt lat="44.75976" lon="5.88248">
        <ele>1074</ele>
        <time>2020-02-27T12:45:18.000Z</time>
      </trkpt>
      <trkpt lat="44.75976" lon="5.88248">
        <ele>1074</ele>
        <time>2020-02-27T12:45:17.000Z</time>
      </trkpt>
      <trkpt lat="44.75976" lon="5.88248">
        <ele>1074</ele>
        <time>2020-02-27T12:45:16.000Z</time>
      </trkpt>
      <trkpt lat="44.75976" lon="5.88248">
        <ele>1074</ele>
        <time>2020-02-27T12:45:15.000Z</time>
      </trkpt>
      <trkpt lat="44.75976" lon="5.88248">
        <ele>1074</ele>
        <time>2020-02-27T12:45:14.000Z</time>
      </trkpt>
      <trkpt lat="44.75976" lon="5.88248">
        <ele>1074</ele>
        <time>2020-02-27T12:45:13.000Z</time>
      </trkpt>
      <trkpt lat="44.75976" lon="5.88248">
        <ele>1074</ele>
        <time>2020-02-27T12:45:12.000Z</time>
      </trkpt>
      <trkpt lat="44.75976" lon="5.88248">
        <ele>1074</ele>
        <time>2020-02-27T12:45:11.000Z</time>
      </trkpt>
      <trkpt lat="44.75976" lon="5.88248">
        <ele>1074</ele>
        <time>2020-02-27T12:45:10.000Z</time>
      </trkpt>
      <trkpt lat="44.75976" lon="5.88248">
        <ele>1074</ele>
        <time>2020-02-27T12:45:09.000Z</time>
      </trkpt>
      <trkpt lat="44.75976" lon="5.88248">
        <ele>1074</ele>
        <time>2020-02-27T12:45:08.000Z</time>
      </trkpt>
      <trkpt lat="44.75976" lon="5.88248">
        <ele>1074</ele>
        <time>2020-02-27T12:45:07.000Z</time>
      </trkpt>
      <trkpt lat="44.75976" lon="5.88248">
        <ele>1074</ele>
        <time>2020-02-27T12:45:06.000Z</time>
      </trkpt>
      <trkpt lat="44.75976" lon="5.88248">
        <ele>1074</ele>
        <time>2020-02-27T12:45:05.000Z</time>
      </trkpt>
      <trkpt lat="44.75976" lon="5.88248">
        <ele>1074</ele>
        <time>2020-02-27T12:45:04.000Z</time>
      </trkpt>
      <trkpt lat="44.75976" lon="5.88248">
        <ele>1074</ele>
        <time>2020-02-27T12:45:03.000Z</time>
      </trkpt>
      <trkpt lat="44.75976" lon="5.88248">
        <ele>1074</ele>
        <time>2020-02-27T12:45:02.000Z</time>
      </trkpt>
      <trkpt lat="44.75976" lon="5.88248">
        <ele>1074</ele>
        <time>2020-02-27T12:45:01.000Z</time>
      </trkpt>
      <trkpt lat="44.75976" lon="5.88248">
        <ele>1074</ele>
        <time>2020-02-27T12:45:00.000Z</time>
      </trkpt>
      <trkpt lat="44.75976" lon="5.88248">
        <ele>1074</ele>
        <time>2020-02-27T12:44:59.000Z</time>
      </trkpt>
      <trkpt lat="44.75976" lon="5.88248">
        <ele>1074</ele>
        <time>2020-02-27T12:44:58.000Z</time>
      </trkpt>
      <trkpt lat="44.75976" lon="5.88248">
        <ele>1074</ele>
        <time>2020-02-27T12:44:57.000Z</time>
      </trkpt>
      <trkpt lat="44.75976" lon="5.88248">
        <ele>1074</ele>
        <time>2020-02-27T12:44:56.000Z</time>
      </trkpt>
      <trkpt lat="44.75976" lon="5.88248">
        <ele>1074</ele>
        <time>2020-02-27T12:44:55.000Z</time>
      </trkpt>
      <trkpt lat="44.75976" lon="5.88248">
        <ele>1074</ele>
        <time>2020-02-27T12:44:54.000Z</time>
      </trkpt>
      <trkpt lat="44.75976" lon="5.88248">
        <ele>1074</ele>
        <time>2020-02-27T12:44:53.000Z</time>
      </trkpt>
      <trkpt lat="44.75976" lon="5.88248">
        <ele>1074</ele>
        <time>2020-02-27T12:44:52.000Z</time>
      </trkpt>
      <trkpt lat="44.75976" lon="5.88248">
        <ele>1074</ele>
        <time>2020-02-27T12:44:51.000Z</time>
      </trkpt>
      <trkpt lat="44.75976" lon="5.88248">
        <ele>1074</ele>
        <time>2020-02-27T12:44:50.000Z</time>
      </trkpt>
      <trkpt lat="44.75976" lon="5.88248">
        <ele>1074</ele>
        <time>2020-02-27T12:44:49.000Z</time>
      </trkpt>
      <trkpt lat="44.75976" lon="5.88248">
        <ele>1073.9</ele>
        <time>2020-02-27T12:44:48.000Z</time>
      </trkpt>
      <trkpt lat="44.75976" lon="5.88248">
        <ele>1073.9</ele>
        <time>2020-02-27T12:44:47.000Z</time>
      </trkpt>
      <trkpt lat="44.75976" lon="5.88248">
        <ele>1073.9</ele>
        <time>2020-02-27T12:44:46.000Z</time>
      </trkpt>
      <trkpt lat="44.75976" lon="5.88248">
        <ele>1073.9</ele>
        <time>2020-02-27T12:44:45.000Z</time>
      </trkpt>
      <trkpt lat="44.75976" lon="5.88248">
        <ele>1073.9</ele>
        <time>2020-02-27T12:44:44.000Z</time>
      </trkpt>
      <trkpt lat="44.75976" lon="5.88248">
        <ele>1073.9</ele>
        <time>2020-02-27T12:44:43.000Z</time>
      </trkpt>
      <trkpt lat="44.75976" lon="5.88248">
        <ele>1073.9</ele>
        <time>2020-02-27T12:44:42.000Z</time>
      </trkpt>
      <trkpt lat="44.75976" lon="5.88248">
        <ele>1073.9</ele>
        <time>2020-02-27T12:44:41.000Z</time>
      </trkpt>
      <trkpt lat="44.75976" lon="5.88248">
        <ele>1073.9</ele>
        <time>2020-02-27T12:44:40.000Z</time>
      </trkpt>
      <trkpt lat="44.75976" lon="5.88248">
        <ele>1073.9</ele>
        <time>2020-02-27T12:44:39.000Z</time>
      </trkpt>
      <trkpt lat="44.75976" lon="5.88248">
        <ele>1073.9</ele>
        <time>2020-02-27T12:44:38.000Z</time>
      </trkpt>
      <trkpt lat="44.75976" lon="5.88248">
        <ele>1073.9</ele>
        <time>2020-02-27T12:44:37.000Z</time>
      </trkpt>
      <trkpt lat="44.75976" lon="5.88248">
        <ele>1073.9</ele>
        <time>2020-02-27T12:44:36.000Z</time>
      </trkpt>
      <trkpt lat="44.75976" lon="5.88248">
        <ele>1073.9</ele>
        <time>2020-02-27T12:44:35.000Z</time>
      </trkpt>
      <trkpt lat="44.75976" lon="5.88248">
        <ele>1073.9</ele>
        <time>2020-02-27T12:44:34.000Z</time>
      </trkpt>
      <trkpt lat="44.75976" lon="5.88248">
        <ele>1073.9</ele>
        <time>2020-02-27T12:44:33.000Z</time>
      </trkpt>
      <trkpt lat="44.75976" lon="5.88248">
        <ele>1073.9</ele>
        <time>2020-02-27T12:44:32.000Z</time>
      </trkpt>
      <trkpt lat="44.75976" lon="5.88248">
        <ele>1073.9</ele>
        <time>2020-02-27T12:44:31.000Z</time>
      </trkpt>
      <trkpt lat="44.75976" lon="5.88248">
        <ele>1073.9</ele>
        <time>2020-02-27T12:44:30.000Z</time>
      </trkpt>
      <trkpt lat="44.75976" lon="5.88248">
        <ele>1073.9</ele>
        <time>2020-02-27T12:44:29.000Z</time>
      </trkpt>
      <trkpt lat="44.75976" lon="5.88248">
        <ele>1073.9</ele>
        <time>2020-02-27T12:44:28.000Z</time>
      </trkpt>
      <trkpt lat="44.75976" lon="5.88248">
        <ele>1073.9</ele>
        <time>2020-02-27T12:44:27.000Z</time>
      </trkpt>
      <trkpt lat="44.75976" lon="5.88248">
        <ele>1073.9</ele>
        <time>2020-02-27T12:44:26.000Z</time>
      </trkpt>
      <trkpt lat="44.75976" lon="5.88248">
        <ele>1073.9</ele>
        <time>2020-02-27T12:44:25.000Z</time>
      </trkpt>
      <trkpt lat="44.75976" lon="5.88248">
        <ele>1073.9</ele>
        <time>2020-02-27T12:44:24.000Z</time>
      </trkpt>
      <trkpt lat="44.75976" lon="5.88248">
        <ele>1073.9</ele>
        <time>2020-02-27T12:44:23.000Z</time>
      </trkpt>
      <trkpt lat="44.75976" lon="5.88248">
        <ele>1073.9</ele>
        <time>2020-02-27T12:44:22.000Z</time>
      </trkpt>
      <trkpt lat="44.75976" lon="5.88248">
        <ele>1073.9</ele>
        <time>2020-02-27T12:44:21.000Z</time>
      </trkpt>
      <trkpt lat="44.75976" lon="5.88248">
        <ele>1073.9</ele>
        <time>2020-02-27T12:44:20.000Z</time>
      </trkpt>
      <trkpt lat="44.75976" lon="5.88248">
        <ele>1073.9</ele>
        <time>2020-02-27T12:44:19.000Z</time>
      </trkpt>
      <trkpt lat="44.75976" lon="5.88248">
        <ele>1073.9</ele>
        <time>2020-02-27T12:44:18.000Z</time>
      </trkpt>
      <trkpt lat="44.75976" lon="5.88248">
        <ele>1073.9</ele>
        <time>2020-02-27T12:44:17.000Z</time>
      </trkpt>
      <trkpt lat="44.75976" lon="5.88248">
        <ele>1073.9</ele>
        <time>2020-02-27T12:44:16.000Z</time>
      </trkpt>
      <trkpt lat="44.75976" lon="5.88248">
        <ele>1073.9</ele>
        <time>2020-02-27T12:44:15.000Z</time>
      </trkpt>
      <trkpt lat="44.75976" lon="5.88248">
        <ele>1073.9</ele>
        <time>2020-02-27T12:44:14.000Z</time>
      </trkpt>
      <trkpt lat="44.75976" lon="5.88248">
        <ele>1073.9</ele>
        <time>2020-02-27T12:44:13.000Z</time>
      </trkpt>
      <trkpt lat="44.75976" lon="5.88248">
        <ele>1073.9</ele>
        <time>2020-02-27T12:44:12.000Z</time>
      </trkpt>
      <trkpt lat="44.75976" lon="5.88248">
        <ele>1073.9</ele>
        <time>2020-02-27T12:44:11.000Z</time>
      </trkpt>
      <trkpt lat="44.75976" lon="5.88248">
        <ele>1073.9</ele>
        <time>2020-02-27T12:44:10.000Z</time>
      </trkpt>
      <trkpt lat="44.75976" lon="5.88248">
        <ele>1073.9</ele>
        <time>2020-02-27T12:44:09.000Z</time>
      </trkpt>
      <trkpt lat="44.75976" lon="5.88248">
        <ele>1073.9</ele>
        <time>2020-02-27T12:44:08.000Z</time>
      </trkpt>
      <trkpt lat="44.75976" lon="5.88248">
        <ele>1073.9</ele>
        <time>2020-02-27T12:44:07.000Z</time>
      </trkpt>
      <trkpt lat="44.75976" lon="5.88248">
        <ele>1073.9</ele>
        <time>2020-02-27T12:44:06.000Z</time>
      </trkpt>
      <trkpt lat="44.75976" lon="5.88248">
        <ele>1073.9</ele>
        <time>2020-02-27T12:44:05.000Z</time>
      </trkpt>
      <trkpt lat="44.75976" lon="5.88248">
        <ele>1073.9</ele>
        <time>2020-02-27T12:44:04.000Z</time>
      </trkpt>
      <trkpt lat="44.75976" lon="5.88248">
        <ele>1073.9</ele>
        <time>2020-02-27T12:44:03.000Z</time>
      </trkpt>
      <trkpt lat="44.75976" lon="5.88248">
        <ele>1073.9</ele>
        <time>2020-02-27T12:44:02.000Z</time>
      </trkpt>
      <trkpt lat="44.75976" lon="5.88248">
        <ele>1073.9</ele>
        <time>2020-02-27T12:44:01.000Z</time>
      </trkpt>
      <trkpt lat="44.75976" lon="5.88248">
        <ele>1073.9</ele>
        <time>2020-02-27T12:44:00.000Z</time>
      </trkpt>
      <trkpt lat="44.75976" lon="5.88248">
        <ele>1073.9</ele>
        <time>2020-02-27T12:43:59.000Z</time>
      </trkpt>
      <trkpt lat="44.75976" lon="5.88248">
        <ele>1073.9</ele>
        <time>2020-02-27T12:43:58.000Z</time>
      </trkpt>
      <trkpt lat="44.75976" lon="5.88248">
        <ele>1073.9</ele>
        <time>2020-02-27T12:43:57.000Z</time>
      </trkpt>
      <trkpt lat="44.75976" lon="5.88248">
        <ele>1073.8</ele>
        <time>2020-02-27T12:43:56.000Z</time>
      </trkpt>
      <trkpt lat="44.75976" lon="5.88248">
        <ele>1073.8</ele>
        <time>2020-02-27T12:43:55.000Z</time>
      </trkpt>
      <trkpt lat="44.75976" lon="5.88248">
        <ele>1073.8</ele>
        <time>2020-02-27T12:43:54.000Z</time>
      </trkpt>
      <trkpt lat="44.75976" lon="5.88248">
        <ele>1073.8</ele>
        <time>2020-02-27T12:43:53.000Z</time>
      </trkpt>
      <trkpt lat="44.75976" lon="5.88248">
        <ele>1073.8</ele>
        <time>2020-02-27T12:43:52.000Z</time>
      </trkpt>
      <trkpt lat="44.75976" lon="5.88248">
        <ele>1073.8</ele>
        <time>2020-02-27T12:43:51.000Z</time>
      </trkpt>
      <trkpt lat="44.75976" lon="5.88248">
        <ele>1073.8</ele>
        <time>2020-02-27T12:43:50.000Z</time>
      </trkpt>
      <trkpt lat="44.75976" lon="5.88248">
        <ele>1073.8</ele>
        <time>2020-02-27T12:43:49.000Z</time>
      </trkpt>
      <trkpt lat="44.75976" lon="5.88248">
        <ele>1073.8</ele>
        <time>2020-02-27T12:43:48.000Z</time>
      </trkpt>
      <trkpt lat="44.75976" lon="5.88248">
        <ele>1073.8</ele>
        <time>2020-02-27T12:43:47.000Z</time>
      </trkpt>
      <trkpt lat="44.75976" lon="5.88248">
        <ele>1073.8</ele>
        <time>2020-02-27T12:43:46.000Z</time>
      </trkpt>
      <trkpt lat="44.75976" lon="5.88248">
        <ele>1073.8</ele>
        <time>2020-02-27T12:43:45.000Z</time>
      </trkpt>
      <trkpt lat="44.75976" lon="5.88248">
        <ele>1073.8</ele>
        <time>2020-02-27T12:43:44.000Z</time>
      </trkpt>
      <trkpt lat="44.75976" lon="5.88248">
        <ele>1073.7</ele>
        <time>2020-02-27T12:43:43.000Z</time>
      </trkpt>
      <trkpt lat="44.75976" lon="5.88248">
        <ele>1073.7</ele>
        <time>2020-02-27T12:43:42.000Z</time>
      </trkpt>
      <trkpt lat="44.75976" lon="5.88248">
        <ele>1073.7</ele>
        <time>2020-02-27T12:43:41.000Z</time>
      </trkpt>
      <trkpt lat="44.75976" lon="5.88248">
        <ele>1073.7</ele>
        <time>2020-02-27T12:43:40.000Z</time>
      </trkpt>
      <trkpt lat="44.75976" lon="5.88248">
        <ele>1073.7</ele>
        <time>2020-02-27T12:43:39.000Z</time>
      </trkpt>
      <trkpt lat="44.75976" lon="5.88248">
        <ele>1073.7</ele>
        <time>2020-02-27T12:43:38.000Z</time>
      </trkpt>
      <trkpt lat="44.75976" lon="5.88248">
        <ele>1073.7</ele>
        <time>2020-02-27T12:43:37.000Z</time>
      </trkpt>
      <trkpt lat="44.75976" lon="5.88248">
        <ele>1073.6</ele>
        <time>2020-02-27T12:43:36.000Z</time>
      </trkpt>
      <trkpt lat="44.75976" lon="5.88248">
        <ele>1073.6</ele>
        <time>2020-02-27T12:43:35.000Z</time>
      </trkpt>
      <trkpt lat="44.75976" lon="5.88248">
        <ele>1073.6</ele>
        <time>2020-02-27T12:43:34.000Z</time>
      </trkpt>
      <trkpt lat="44.75976" lon="5.88248">
        <ele>1073.6</ele>
        <time>2020-02-27T12:43:33.000Z</time>
      </trkpt>
      <trkpt lat="44.75976" lon="5.88248">
        <ele>1073.6</ele>
        <time>2020-02-27T12:43:32.000Z</time>
      </trkpt>
      <trkpt lat="44.75976" lon="5.88248">
        <ele>1073.5</ele>
        <time>2020-02-27T12:43:31.000Z</time>
      </trkpt>
      <trkpt lat="44.75976" lon="5.88248">
        <ele>1073.5</ele>
        <time>2020-02-27T12:43:30.000Z</time>
      </trkpt>
      <trkpt lat="44.75976" lon="5.88248">
        <ele>1073.5</ele>
        <time>2020-02-27T12:43:29.000Z</time>
      </trkpt>
      <trkpt lat="44.75976" lon="5.88248">
        <ele>1073.5</ele>
        <time>2020-02-27T12:43:28.000Z</time>
      </trkpt>
      <trkpt lat="44.75976" lon="5.88248">
        <ele>1073.5</ele>
        <time>2020-02-27T12:43:27.000Z</time>
      </trkpt>
      <trkpt lat="44.75976" lon="5.88248">
        <ele>1073.5</ele>
        <time>2020-02-27T12:43:26.000Z</time>
      </trkpt>
      <trkpt lat="44.75976" lon="5.88248">
        <ele>1073.4</ele>
        <time>2020-02-27T12:43:25.000Z</time>
      </trkpt>
      <trkpt lat="44.75976" lon="5.88248">
        <ele>1073.4</ele>
        <time>2020-02-27T12:43:24.000Z</time>
      </trkpt>
      <trkpt lat="44.75976" lon="5.88248">
        <ele>1073.4</ele>
        <time>2020-02-27T12:43:23.000Z</time>
      </trkpt>
      <trkpt lat="44.75976" lon="5.88248">
        <ele>1073.4</ele>
        <time>2020-02-27T12:43:22.000Z</time>
      </trkpt>
      <trkpt lat="44.75976" lon="5.88248">
        <ele>1073.4</ele>
        <time>2020-02-27T12:43:21.000Z</time>
      </trkpt>
      <trkpt lat="44.75976" lon="5.88248">
        <ele>1073.4</ele>
        <time>2020-02-27T12:43:20.000Z</time>
      </trkpt>
      <trkpt lat="44.75976" lon="5.88248">
        <ele>1073.4</ele>
        <time>2020-02-27T12:43:19.000Z</time>
      </trkpt>
      <trkpt lat="44.75976" lon="5.88248">
        <ele>1073.3</ele>
        <time>2020-02-27T12:43:18.000Z</time>
      </trkpt>
      <trkpt lat="44.75976" lon="5.88248">
        <ele>1073.3</ele>
        <time>2020-02-27T12:43:17.000Z</time>
      </trkpt>
      <trkpt lat="44.75976" lon="5.88248">
        <ele>1073.3</ele>
        <time>2020-02-27T12:43:16.000Z</time>
      </trkpt>
      <trkpt lat="44.75976" lon="5.88248">
        <ele>1073.3</ele>
        <time>2020-02-27T12:43:15.000Z</time>
      </trkpt>
      <trkpt lat="44.75976" lon="5.88248">
        <ele>1073.2</ele>
        <time>2020-02-27T12:43:14.000Z</time>
      </trkpt>
      <trkpt lat="44.75976" lon="5.88248">
        <ele>1073.2</ele>
        <time>2020-02-27T12:43:13.000Z</time>
      </trkpt>
      <trkpt lat="44.75976" lon="5.88248">
        <ele>1073.2</ele>
        <time>2020-02-27T12:43:12.000Z</time>
      </trkpt>
      <trkpt lat="44.75976" lon="5.88248">
        <ele>1073.2</ele>
        <time>2020-02-27T12:43:11.000Z</time>
      </trkpt>
      <trkpt lat="44.75976" lon="5.88248">
        <ele>1073.2</ele>
        <time>2020-02-27T12:43:10.000Z</time>
      </trkpt>
      <trkpt lat="44.75976" lon="5.88248">
        <ele>1073.2</ele>
        <time>2020-02-27T12:43:09.000Z</time>
      </trkpt>
      <trkpt lat="44.75976" lon="5.88248">
        <ele>1073.1</ele>
        <time>2020-02-27T12:43:08.000Z</time>
      </trkpt>
      <trkpt lat="44.75976" lon="5.88248">
        <ele>1073.1</ele>
        <time>2020-02-27T12:43:07.000Z</time>
      </trkpt>
      <trkpt lat="44.75976" lon="5.88248">
        <ele>1073.1</ele>
        <time>2020-02-27T12:43:06.000Z</time>
      </trkpt>
      <trkpt lat="44.75976" lon="5.88248">
        <ele>1073.1</ele>
        <time>2020-02-27T12:43:05.000Z</time>
      </trkpt>
      <trkpt lat="44.75976" lon="5.88248">
        <ele>1073</ele>
        <time>2020-02-27T12:43:04.000Z</time>
      </trkpt>
      <trkpt lat="44.75976" lon="5.88248">
        <ele>1073</ele>
        <time>2020-02-27T12:43:03.000Z</time>
      </trkpt>
      <trkpt lat="44.75976" lon="5.88248">
        <ele>1073</ele>
        <time>2020-02-27T12:43:02.000Z</time>
      </trkpt>
      <trkpt lat="44.75976" lon="5.88248">
        <ele>1073</ele>
        <time>2020-02-27T12:43:01.000Z</time>
      </trkpt>
      <trkpt lat="44.75977" lon="5.88248">
        <ele>1072.9</ele>
        <time>2020-02-27T12:43:00.000Z</time>
      </trkpt>
      <trkpt lat="44.75977" lon="5.88248">
        <ele>1072.9</ele>
        <time>2020-02-27T12:42:59.000Z</time>
      </trkpt>
      <trkpt lat="44.75976" lon="5.88249">
        <ele>1072.9</ele>
        <time>2020-02-27T12:42:58.000Z</time>
      </trkpt>
      <trkpt lat="44.75976" lon="5.88249">
        <ele>1072.8</ele>
        <time>2020-02-27T12:42:57.000Z</time>
      </trkpt>
      <trkpt lat="44.75976" lon="5.88249">
        <ele>1072.8</ele>
        <time>2020-02-27T12:42:56.000Z</time>
      </trkpt>
      <trkpt lat="44.75976" lon="5.88249">
        <ele>1072.7</ele>
        <time>2020-02-27T12:42:55.000Z</time>
      </trkpt>
      <trkpt lat="44.75976" lon="5.88249">
        <ele>1072.7</ele>
        <time>2020-02-27T12:42:54.000Z</time>
      </trkpt>
      <trkpt lat="44.75976" lon="5.88249">
        <ele>1072.7</ele>
        <time>2020-02-27T12:42:53.000Z</time>
      </trkpt>
      <trkpt lat="44.75976" lon="5.88249">
        <ele>1072.6</ele>
        <time>2020-02-27T12:42:52.000Z</time>
      </trkpt>
      <trkpt lat="44.75976" lon="5.88249">
        <ele>1072.6</ele>
        <time>2020-02-27T12:42:51.000Z</time>
      </trkpt>
      <trkpt lat="44.75976" lon="5.88249">
        <ele>1072.5</ele>
        <time>2020-02-27T12:42:50.000Z</time>
      </trkpt>
      <trkpt lat="44.75976" lon="5.88249">
        <ele>1072.5</ele>
        <time>2020-02-27T12:42:49.000Z</time>
      </trkpt>
      <trkpt lat="44.75976" lon="5.88249">
        <ele>1072.5</ele>
        <time>2020-02-27T12:42:48.000Z</time>
      </trkpt>
      <trkpt lat="44.75976" lon="5.88249">
        <ele>1072.4</ele>
        <time>2020-02-27T12:42:47.000Z</time>
      </trkpt>
      <trkpt lat="44.75976" lon="5.88249">
        <ele>1072.4</ele>
        <time>2020-02-27T12:42:46.000Z</time>
      </trkpt>
      <trkpt lat="44.75976" lon="5.88249">
        <ele>1072.3</ele>
        <time>2020-02-27T12:42:45.000Z</time>
      </trkpt>
      <trkpt lat="44.75976" lon="5.88249">
        <ele>1072.2</ele>
        <time>2020-02-27T12:42:44.000Z</time>
      </trkpt>
      <trkpt lat="44.75976" lon="5.88249">
        <ele>1072.2</ele>
        <time>2020-02-27T12:42:43.000Z</time>
      </trkpt>
      <trkpt lat="44.75976" lon="5.88249">
        <ele>1072.1</ele>
        <time>2020-02-27T12:42:42.000Z</time>
      </trkpt>
      <trkpt lat="44.75976" lon="5.88249">
        <ele>1072</ele>
        <time>2020-02-27T12:42:41.000Z</time>
      </trkpt>
      <trkpt lat="44.75976" lon="5.88249">
        <ele>1072</ele>
        <time>2020-02-27T12:42:40.000Z</time>
      </trkpt>
      <trkpt lat="44.75976" lon="5.88249">
        <ele>1071.9</ele>
        <time>2020-02-27T12:42:39.000Z</time>
      </trkpt>
      <trkpt lat="44.75976" lon="5.88249">
        <ele>1071.8</ele>
        <time>2020-02-27T12:42:38.000Z</time>
      </trkpt>
      <trkpt lat="44.75976" lon="5.88249">
        <ele>1071.8</ele>
        <time>2020-02-27T12:42:37.000Z</time>
      </trkpt>
      <trkpt lat="44.75976" lon="5.88249">
        <ele>1071.7</ele>
        <time>2020-02-27T12:42:36.000Z</time>
      </trkpt>
      <trkpt lat="44.75976" lon="5.88249">
        <ele>1071.6</ele>
        <time>2020-02-27T12:42:35.000Z</time>
      </trkpt>
      <trkpt lat="44.75976" lon="5.88249">
        <ele>1071.5</ele>
        <time>2020-02-27T12:42:34.000Z</time>
      </trkpt>
      <trkpt lat="44.75976" lon="5.88249">
        <ele>1071.4</ele>
        <time>2020-02-27T12:42:33.000Z</time>
      </trkpt>
      <trkpt lat="44.75976" lon="5.88249">
        <ele>1071.3</ele>
        <time>2020-02-27T12:42:32.000Z</time>
      </trkpt>
      <trkpt lat="44.75976" lon="5.88249">
        <ele>1071.2</ele>
        <time>2020-02-27T12:42:31.000Z</time>
      </trkpt>
      <trkpt lat="44.75976" lon="5.88249">
        <ele>1071.1</ele>
        <time>2020-02-27T12:42:30.000Z</time>
      </trkpt>
      <trkpt lat="44.75976" lon="5.88249">
        <ele>1071</ele>
        <time>2020-02-27T12:42:29.000Z</time>
      </trkpt>
      <trkpt lat="44.75976" lon="5.88249">
        <ele>1070.9</ele>
        <time>2020-02-27T12:42:28.000Z</time>
      </trkpt>
      <trkpt lat="44.75976" lon="5.88249">
        <ele>1070.7</ele>
        <time>2020-02-27T12:42:27.000Z</time>
      </trkpt>
      <trkpt lat="44.75976" lon="5.88249">
        <ele>1070.6</ele>
        <time>2020-02-27T12:42:26.000Z</time>
      </trkpt>
      <trkpt lat="44.75976" lon="5.8825">
        <ele>1070.4</ele>
        <time>2020-02-27T12:42:25.000Z</time>
      </trkpt>
      <trkpt lat="44.75977" lon="5.8825">
        <ele>1070.3</ele>
        <time>2020-02-27T12:42:24.000Z</time>
      </trkpt>
      <trkpt lat="44.75973" lon="5.88257">
        <ele>1070.1</ele>
        <time>2020-02-27T12:42:23.000Z</time>
      </trkpt>
      <trkpt lat="44.75973" lon="5.88257">
        <ele>1069.9</ele>
        <time>2020-02-27T12:42:22.000Z</time>
      </trkpt>
      <trkpt lat="44.75973" lon="5.88257">
        <ele>1069.7</ele>
        <time>2020-02-27T12:42:21.000Z</time>
      </trkpt>
      <trkpt lat="44.75973" lon="5.88257">
        <ele>1069.5</ele>
        <time>2020-02-27T12:42:20.000Z</time>
      </trkpt>
      <trkpt lat="44.75973" lon="5.88257">
        <ele>1069.4</ele>
        <time>2020-02-27T12:42:19.000Z</time>
      </trkpt>
      <trkpt lat="44.75973" lon="5.88257">
        <ele>1069.2</ele>
        <time>2020-02-27T12:42:18.000Z</time>
      </trkpt>
      <trkpt lat="44.75973" lon="5.88257">
        <ele>1069</ele>
        <time>2020-02-27T12:42:17.000Z</time>
      </trkpt>
      <trkpt lat="44.75973" lon="5.88257">
        <ele>1068.8</ele>
        <time>2020-02-27T12:42:16.000Z</time>
      </trkpt>
      <trkpt lat="44.75973" lon="5.88257">
        <ele>1068.7</ele>
        <time>2020-02-27T12:42:15.000Z</time>
      </trkpt>
      <trkpt lat="44.75973" lon="5.88257">
        <ele>1068.5</ele>
        <time>2020-02-27T12:42:14.000Z</time>
      </trkpt>
      <trkpt lat="44.75973" lon="5.88257">
        <ele>1068.3</ele>
        <time>2020-02-27T12:42:13.000Z</time>
      </trkpt>
      <trkpt lat="44.75973" lon="5.88257">
        <ele>1068.1</ele>
        <time>2020-02-27T12:42:12.000Z</time>
      </trkpt>
      <trkpt lat="44.75973" lon="5.88257">
        <ele>1068</ele>
        <time>2020-02-27T12:42:11.000Z</time>
      </trkpt>
      <trkpt lat="44.75973" lon="5.88257">
        <ele>1067.8</ele>
        <time>2020-02-27T12:42:10.000Z</time>
      </trkpt>
      <trkpt lat="44.75973" lon="5.88257">
        <ele>1067.6</ele>
        <time>2020-02-27T12:42:09.000Z</time>
      </trkpt>
      <trkpt lat="44.75973" lon="5.88257">
        <ele>1067.5</ele>
        <time>2020-02-27T12:42:08.000Z</time>
      </trkpt>
      <trkpt lat="44.75973" lon="5.88257">
        <ele>1067.3</ele>
        <time>2020-02-27T12:42:07.000Z</time>
      </trkpt>
      <trkpt lat="44.75973" lon="5.88257">
        <ele>1067.2</ele>
        <time>2020-02-27T12:42:06.000Z</time>
      </trkpt>
      <trkpt lat="44.75973" lon="5.88257">
        <ele>1067</ele>
        <time>2020-02-27T12:42:05.000Z</time>
      </trkpt>
      <trkpt lat="44.75973" lon="5.88257">
        <ele>1066.9</ele>
        <time>2020-02-27T12:42:04.000Z</time>
      </trkpt>
      <trkpt lat="44.75973" lon="5.88256">
        <ele>1066.7</ele>
        <time>2020-02-27T12:42:03.000Z</time>
      </trkpt>
      <trkpt lat="44.75973" lon="5.88256">
        <ele>1066.5</ele>
        <time>2020-02-27T12:42:02.000Z</time>
      </trkpt>
      <trkpt lat="44.75972" lon="5.88255">
        <ele>1066.3</ele>
        <time>2020-02-27T12:42:01.000Z</time>
      </trkpt>
      <trkpt lat="44.75972" lon="5.88255">
        <ele>1066.2</ele>
        <time>2020-02-27T12:42:00.000Z</time>
      </trkpt>
      <trkpt lat="44.75972" lon="5.88254">
        <ele>1066</ele>
        <time>2020-02-27T12:41:59.000Z</time>
      </trkpt>
      <trkpt lat="44.75971" lon="5.88254">
        <ele>1065.9</ele>
        <time>2020-02-27T12:41:58.000Z</time>
      </trkpt>
      <trkpt lat="44.75971" lon="5.88254">
        <ele>1065.7</ele>
        <time>2020-02-27T12:41:57.000Z</time>
      </trkpt>
      <trkpt lat="44.75971" lon="5.88254">
        <ele>1065.5</ele>
        <time>2020-02-27T12:41:56.000Z</time>
      </trkpt>
      <trkpt lat="44.7597" lon="5.88254">
        <ele>1065.3</ele>
        <time>2020-02-27T12:41:55.000Z</time>
      </trkpt>
      <trkpt lat="44.75969" lon="5.88253">
        <ele>1065.1</ele>
        <time>2020-02-27T12:41:54.000Z</time>
      </trkpt>
      <trkpt lat="44.75969" lon="5.88252">
        <ele>1064.9</ele>
        <time>2020-02-27T12:41:53.000Z</time>
      </trkpt>
      <trkpt lat="44.75967" lon="5.88251">
        <ele>1064.8</ele>
        <time>2020-02-27T12:41:52.000Z</time>
      </trkpt>
      <trkpt lat="44.75967" lon="5.88251">
        <ele>1064.6</ele>
        <time>2020-02-27T12:41:51.000Z</time>
      </trkpt>
      <trkpt lat="44.75966" lon="5.8825">
        <ele>1064.4</ele>
        <time>2020-02-27T12:41:50.000Z</time>
      </trkpt>
      <trkpt lat="44.75965" lon="5.8825">
        <ele>1064.3</ele>
        <time>2020-02-27T12:41:49.000Z</time>
      </trkpt>
      <trkpt lat="44.75963" lon="5.8825">
        <ele>1064.1</ele>
        <time>2020-02-27T12:41:48.000Z</time>
      </trkpt>
      <trkpt lat="44.75962" lon="5.8825">
        <ele>1063.9</ele>
        <time>2020-02-27T12:41:47.000Z</time>
      </trkpt>
      <trkpt lat="44.75962" lon="5.88249">
        <ele>1063.7</ele>
        <time>2020-02-27T12:41:46.000Z</time>
      </trkpt>
      <trkpt lat="44.75961" lon="5.8825">
        <ele>1063.5</ele>
        <time>2020-02-27T12:41:45.000Z</time>
      </trkpt>
      <trkpt lat="44.7596" lon="5.8825">
        <ele>1063.3</ele>
        <time>2020-02-27T12:41:44.000Z</time>
      </trkpt>
      <trkpt lat="44.7596" lon="5.88251">
        <ele>1063.1</ele>
        <time>2020-02-27T12:41:43.000Z</time>
      </trkpt>
      <trkpt lat="44.7596" lon="5.88251">
        <ele>1062.9</ele>
        <time>2020-02-27T12:41:42.000Z</time>
      </trkpt>
      <trkpt lat="44.7596" lon="5.88252">
        <ele>1062.6</ele>
        <time>2020-02-27T12:41:41.000Z</time>
      </trkpt>
      <trkpt lat="44.7596" lon="5.88252">
        <ele>1062.4</ele>
        <time>2020-02-27T12:41:40.000Z</time>
      </trkpt>
      <trkpt lat="44.7596" lon="5.88253">
        <ele>1062.2</ele>
        <time>2020-02-27T12:41:39.000Z</time>
      </trkpt>
      <trkpt lat="44.7596" lon="5.88254">
        <ele>1061.9</ele>
        <time>2020-02-27T12:41:38.000Z</time>
      </trkpt>
      <trkpt lat="44.7596" lon="5.88254">
        <ele>1061.7</ele>
        <time>2020-02-27T12:41:37.000Z</time>
      </trkpt>
      <trkpt lat="44.7596" lon="5.88255">
        <ele>1061.5</ele>
        <time>2020-02-27T12:41:36.000Z</time>
      </trkpt>
      <trkpt lat="44.75959" lon="5.88256">
        <ele>1061.3</ele>
        <time>2020-02-27T12:41:35.000Z</time>
      </trkpt>
      <trkpt lat="44.75959" lon="5.88256">
        <ele>1061.1</ele>
        <time>2020-02-27T12:41:34.000Z</time>
      </trkpt>
      <trkpt lat="44.75958" lon="5.88256">
        <ele>1060.8</ele>
        <time>2020-02-27T12:41:33.000Z</time>
      </trkpt>
      <trkpt lat="44.75957" lon="5.88256">
        <ele>1060.6</ele>
        <time>2020-02-27T12:41:32.000Z</time>
      </trkpt>
      <trkpt lat="44.75957" lon="5.88256">
        <ele>1060.4</ele>
        <time>2020-02-27T12:41:31.000Z</time>
      </trkpt>
      <trkpt lat="44.75956" lon="5.88256">
        <ele>1060.2</ele>
        <time>2020-02-27T12:41:30.000Z</time>
      </trkpt>
      <trkpt lat="44.75956" lon="5.88256">
        <ele>1059.9</ele>
        <time>2020-02-27T12:41:29.000Z</time>
      </trkpt>
      <trkpt lat="44.75956" lon="5.88255">
        <ele>1059.7</ele>
        <time>2020-02-27T12:41:28.000Z</time>
      </trkpt>
      <trkpt lat="44.75955" lon="5.88255">
        <ele>1059.5</ele>
        <time>2020-02-27T12:41:27.000Z</time>
      </trkpt>
      <trkpt lat="44.75955" lon="5.88255">
        <ele>1059.3</ele>
        <time>2020-02-27T12:41:26.000Z</time>
      </trkpt>
      <trkpt lat="44.75955" lon="5.88255">
        <ele>1059.1</ele>
        <time>2020-02-27T12:41:25.000Z</time>
      </trkpt>
      <trkpt lat="44.75954" lon="5.88254">
        <ele>1058.9</ele>
        <time>2020-02-27T12:41:24.000Z</time>
      </trkpt>
      <trkpt lat="44.75954" lon="5.88253">
        <ele>1058.7</ele>
        <time>2020-02-27T12:41:23.000Z</time>
      </trkpt>
      <trkpt lat="44.75954" lon="5.88253">
        <ele>1058.5</ele>
        <time>2020-02-27T12:41:22.000Z</time>
      </trkpt>
      <trkpt lat="44.75953" lon="5.88253">
        <ele>1058.4</ele>
        <time>2020-02-27T12:41:21.000Z</time>
      </trkpt>
      <trkpt lat="44.75953" lon="5.88253">
        <ele>1058.2</ele>
        <time>2020-02-27T12:41:20.000Z</time>
      </trkpt>
      <trkpt lat="44.75953" lon="5.88253">
        <ele>1058</ele>
        <time>2020-02-27T12:41:19.000Z</time>
      </trkpt>
      <trkpt lat="44.75952" lon="5.88253">
        <ele>1057.7</ele>
        <time>2020-02-27T12:41:18.000Z</time>
      </trkpt>
      <trkpt lat="44.75952" lon="5.88253">
        <ele>1057.5</ele>
        <time>2020-02-27T12:41:17.000Z</time>
      </trkpt>
      <trkpt lat="44.75951" lon="5.88253">
        <ele>1057.3</ele>
        <time>2020-02-27T12:41:16.000Z</time>
      </trkpt>
      <trkpt lat="44.7595" lon="5.88254">
        <ele>1057.1</ele>
        <time>2020-02-27T12:41:15.000Z</time>
      </trkpt>
      <trkpt lat="44.75949" lon="5.88254">
        <ele>1057</ele>
        <time>2020-02-27T12:41:14.000Z</time>
      </trkpt>
      <trkpt lat="44.75949" lon="5.88255">
        <ele>1056.8</ele>
        <time>2020-02-27T12:41:13.000Z</time>
      </trkpt>
      <trkpt lat="44.75948" lon="5.88255">
        <ele>1056.6</ele>
        <time>2020-02-27T12:41:12.000Z</time>
      </trkpt>
      <trkpt lat="44.75948" lon="5.88255">
        <ele>1056.4</ele>
        <time>2020-02-27T12:41:11.000Z</time>
      </trkpt>
      <trkpt lat="44.75947" lon="5.88255">
        <ele>1056.3</ele>
        <time>2020-02-27T12:41:10.000Z</time>
      </trkpt>
      <trkpt lat="44.75946" lon="5.88255">
        <ele>1056.1</ele>
        <time>2020-02-27T12:41:09.000Z</time>
      </trkpt>
      <trkpt lat="44.75945" lon="5.88255">
        <ele>1055.9</ele>
        <time>2020-02-27T12:41:08.000Z</time>
      </trkpt>
      <trkpt lat="44.75945" lon="5.88255">
        <ele>1055.7</ele>
        <time>2020-02-27T12:41:07.000Z</time>
      </trkpt>
      <trkpt lat="44.75944" lon="5.88255">
        <ele>1055.5</ele>
        <time>2020-02-27T12:41:06.000Z</time>
      </trkpt>
      <trkpt lat="44.75943" lon="5.88255">
        <ele>1055.4</ele>
        <time>2020-02-27T12:41:05.000Z</time>
      </trkpt>
      <trkpt lat="44.75942" lon="5.88255">
        <ele>1055.2</ele>
        <time>2020-02-27T12:41:04.000Z</time>
      </trkpt>
      <trkpt lat="44.75941" lon="5.88254">
        <ele>1055</ele>
        <time>2020-02-27T12:41:03.000Z</time>
      </trkpt>
      <trkpt lat="44.7594" lon="5.88254">
        <ele>1054.8</ele>
        <time>2020-02-27T12:41:02.000Z</time>
      </trkpt>
      <trkpt lat="44.75939" lon="5.88254">
        <ele>1054.6</ele>
        <time>2020-02-27T12:41:01.000Z</time>
      </trkpt>
      <trkpt lat="44.75938" lon="5.88253">
        <ele>1054.4</ele>
        <time>2020-02-27T12:41:00.000Z</time>
      </trkpt>
      <trkpt lat="44.75938" lon="5.88253">
        <ele>1054.3</ele>
        <time>2020-02-27T12:40:59.000Z</time>
      </trkpt>
      <trkpt lat="44.75937" lon="5.88253">
        <ele>1054.1</ele>
        <time>2020-02-27T12:40:58.000Z</time>
      </trkpt>
      <trkpt lat="44.75936" lon="5.88253">
        <ele>1053.9</ele>
        <time>2020-02-27T12:40:57.000Z</time>
      </trkpt>
      <trkpt lat="44.75935" lon="5.88254">
        <ele>1053.8</ele>
        <time>2020-02-27T12:40:56.000Z</time>
      </trkpt>
      <trkpt lat="44.75935" lon="5.88253">
        <ele>1053.6</ele>
        <time>2020-02-27T12:40:55.000Z</time>
      </trkpt>
      <trkpt lat="44.75934" lon="5.88253">
        <ele>1053.4</ele>
        <time>2020-02-27T12:40:54.000Z</time>
      </trkpt>
      <trkpt lat="44.75934" lon="5.88253">
        <ele>1053.2</ele>
        <time>2020-02-27T12:40:53.000Z</time>
      </trkpt>
      <trkpt lat="44.75934" lon="5.88253">
        <ele>1053</ele>
        <time>2020-02-27T12:40:52.000Z</time>
      </trkpt>
      <trkpt lat="44.75934" lon="5.88253">
        <ele>1052.8</ele>
        <time>2020-02-27T12:40:51.000Z</time>
      </trkpt>
      <trkpt lat="44.75933" lon="5.88253">
        <ele>1052.7</ele>
        <time>2020-02-27T12:40:50.000Z</time>
      </trkpt>
      <trkpt lat="44.75933" lon="5.88252">
        <ele>1052.5</ele>
        <time>2020-02-27T12:40:49.000Z</time>
      </trkpt>
      <trkpt lat="44.75933" lon="5.88253">
        <ele>1052.3</ele>
        <time>2020-02-27T12:40:48.000Z</time>
      </trkpt>
      <trkpt lat="44.75932" lon="5.88252">
        <ele>1052.2</ele>
        <time>2020-02-27T12:40:47.000Z</time>
      </trkpt>
      <trkpt lat="44.75932" lon="5.88252">
        <ele>1052</ele>
        <time>2020-02-27T12:40:46.000Z</time>
      </trkpt>
      <trkpt lat="44.75931" lon="5.88251">
        <ele>1051.9</ele>
        <time>2020-02-27T12:40:45.000Z</time>
      </trkpt>
      <trkpt lat="44.75931" lon="5.8825">
        <ele>1051.7</ele>
        <time>2020-02-27T12:40:44.000Z</time>
      </trkpt>
      <trkpt lat="44.75931" lon="5.88249">
        <ele>1051.6</ele>
        <time>2020-02-27T12:40:43.000Z</time>
      </trkpt>
      <trkpt lat="44.7593" lon="5.88249">
        <ele>1051.4</ele>
        <time>2020-02-27T12:40:42.000Z</time>
      </trkpt>
      <trkpt lat="44.75929" lon="5.88249">
        <ele>1051.2</ele>
        <time>2020-02-27T12:40:41.000Z</time>
      </trkpt>
      <trkpt lat="44.75928" lon="5.88248">
        <ele>1051</ele>
        <time>2020-02-27T12:40:40.000Z</time>
      </trkpt>
      <trkpt lat="44.75928" lon="5.88249">
        <ele>1050.8</ele>
        <time>2020-02-27T12:40:39.000Z</time>
      </trkpt>
      <trkpt lat="44.75927" lon="5.88249">
        <ele>1050.6</ele>
        <time>2020-02-27T12:40:38.000Z</time>
      </trkpt>
      <trkpt lat="44.75926" lon="5.88249">
        <ele>1050.4</ele>
        <time>2020-02-27T12:40:37.000Z</time>
      </trkpt>
      <trkpt lat="44.75925" lon="5.88249">
        <ele>1050.3</ele>
        <time>2020-02-27T12:40:36.000Z</time>
      </trkpt>
      <trkpt lat="44.75924" lon="5.88249">
        <ele>1050.1</ele>
        <time>2020-02-27T12:40:35.000Z</time>
      </trkpt>
      <trkpt lat="44.75922" lon="5.8825">
        <ele>1049.9</ele>
        <time>2020-02-27T12:40:34.000Z</time>
      </trkpt>
      <trkpt lat="44.75922" lon="5.8825">
        <ele>1049.7</ele>
        <time>2020-02-27T12:40:33.000Z</time>
      </trkpt>
      <trkpt lat="44.75921" lon="5.88251">
        <ele>1049.5</ele>
        <time>2020-02-27T12:40:32.000Z</time>
      </trkpt>
      <trkpt lat="44.7592" lon="5.88252">
        <ele>1049.3</ele>
        <time>2020-02-27T12:40:31.000Z</time>
      </trkpt>
      <trkpt lat="44.75919" lon="5.88252">
        <ele>1049</ele>
        <time>2020-02-27T12:40:30.000Z</time>
      </trkpt>
      <trkpt lat="44.75918" lon="5.88252">
        <ele>1048.8</ele>
        <time>2020-02-27T12:40:29.000Z</time>
      </trkpt>
      <trkpt lat="44.75918" lon="5.88251">
        <ele>1048.6</ele>
        <time>2020-02-27T12:40:28.000Z</time>
      </trkpt>
      <trkpt lat="44.75918" lon="5.88251">
        <ele>1048.5</ele>
        <time>2020-02-27T12:40:27.000Z</time>
      </trkpt>
      <trkpt lat="44.75917" lon="5.88251">
        <ele>1048.3</ele>
        <time>2020-02-27T12:40:26.000Z</time>
      </trkpt>
      <trkpt lat="44.75916" lon="5.88251">
        <ele>1048.1</ele>
        <time>2020-02-27T12:40:25.000Z</time>
      </trkpt>
      <trkpt lat="44.75915" lon="5.88252">
        <ele>1048</ele>
        <time>2020-02-27T12:40:24.000Z</time>
      </trkpt>
      <trkpt lat="44.75913" lon="5.88253">
        <ele>1047.8</ele>
        <time>2020-02-27T12:40:23.000Z</time>
      </trkpt>
      <trkpt lat="44.75912" lon="5.88255">
        <ele>1047.6</ele>
        <time>2020-02-27T12:40:22.000Z</time>
      </trkpt>
      <trkpt lat="44.75911" lon="5.88255">
        <ele>1047.4</ele>
        <time>2020-02-27T12:40:21.000Z</time>
      </trkpt>
      <trkpt lat="44.7591" lon="5.88256">
        <ele>1047.2</ele>
        <time>2020-02-27T12:40:20.000Z</time>
      </trkpt>
      <trkpt lat="44.75909" lon="5.88257">
        <ele>1047.1</ele>
        <time>2020-02-27T12:40:19.000Z</time>
      </trkpt>
      <trkpt lat="44.75908" lon="5.88257">
        <ele>1047</ele>
        <time>2020-02-27T12:40:18.000Z</time>
      </trkpt>
      <trkpt lat="44.75908" lon="5.88257">
        <ele>1046.8</ele>
        <time>2020-02-27T12:40:17.000Z</time>
      </trkpt>
      <trkpt lat="44.75907" lon="5.88258">
        <ele>1046.7</ele>
        <time>2020-02-27T12:40:16.000Z</time>
      </trkpt>
      <trkpt lat="44.75907" lon="5.88258">
        <ele>1046.6</ele>
        <time>2020-02-27T12:40:15.000Z</time>
      </trkpt>
      <trkpt lat="44.75906" lon="5.88259">
        <ele>1046.5</ele>
        <time>2020-02-27T12:40:14.000Z</time>
      </trkpt>
      <trkpt lat="44.75906" lon="5.88259">
        <ele>1046.4</ele>
        <time>2020-02-27T12:40:13.000Z</time>
      </trkpt>
      <trkpt lat="44.75905" lon="5.88259">
        <ele>1046.2</ele>
        <time>2020-02-27T12:40:12.000Z</time>
      </trkpt>
      <trkpt lat="44.75905" lon="5.88259">
        <ele>1046.2</ele>
        <time>2020-02-27T12:40:11.000Z</time>
      </trkpt>
      <trkpt lat="44.75905" lon="5.88258">
        <ele>1046.1</ele>
        <time>2020-02-27T12:40:10.000Z</time>
      </trkpt>
      <trkpt lat="44.75904" lon="5.88259">
        <ele>1046</ele>
        <time>2020-02-27T12:40:09.000Z</time>
      </trkpt>
      <trkpt lat="44.75903" lon="5.88259">
        <ele>1045.9</ele>
        <time>2020-02-27T12:40:08.000Z</time>
      </trkpt>
      <trkpt lat="44.75903" lon="5.88259">
        <ele>1045.8</ele>
        <time>2020-02-27T12:40:07.000Z</time>
      </trkpt>
      <trkpt lat="44.75902" lon="5.88259">
        <ele>1045.8</ele>
        <time>2020-02-27T12:40:06.000Z</time>
      </trkpt>
      <trkpt lat="44.75902" lon="5.88259">
        <ele>1045.7</ele>
        <time>2020-02-27T12:40:05.000Z</time>
      </trkpt>
      <trkpt lat="44.75902" lon="5.88258">
        <ele>1045.7</ele>
        <time>2020-02-27T12:40:04.000Z</time>
      </trkpt>
      <trkpt lat="44.75901" lon="5.88255">
        <ele>1045</ele>
        <time>2020-02-27T12:39:59.000Z</time>
      </trkpt>
      <trkpt lat="44.75901" lon="5.88237">
        <ele>1045.6</ele>
        <time>2020-02-27T12:39:54.000Z</time>
      </trkpt>
      <trkpt lat="44.75901" lon="5.88237">
        <ele>1045.6</ele>
        <time>2020-02-27T12:39:53.000Z</time>
      </trkpt>
      <trkpt lat="44.75901" lon="5.88237">
        <ele>1045.6</ele>
        <time>2020-02-27T12:39:52.000Z</time>
      </trkpt>
      <trkpt lat="44.75901" lon="5.88237">
        <ele>1045.6</ele>
        <time>2020-02-27T12:39:51.000Z</time>
      </trkpt>
      <trkpt lat="44.75901" lon="5.88237">
        <ele>1045.6</ele>
        <time>2020-02-27T12:39:50.000Z</time>
      </trkpt>
      <trkpt lat="44.75901" lon="5.88237">
        <ele>1045.6</ele>
        <time>2020-02-27T12:39:49.000Z</time>
      </trkpt>
      <trkpt lat="44.75901" lon="5.88237">
        <ele>1045.6</ele>
        <time>2020-02-27T12:39:48.000Z</time>
      </trkpt>
      <trkpt lat="44.75901" lon="5.88237">
        <ele>1045.6</ele>
        <time>2020-02-27T12:39:47.000Z</time>
      </trkpt>
      <trkpt lat="44.75901" lon="5.88237">
        <ele>1045.6</ele>
        <time>2020-02-27T12:39:46.000Z</time>
      </trkpt>
      <trkpt lat="44.75901" lon="5.88237">
        <ele>1045.6</ele>
        <time>2020-02-27T12:39:45.000Z</time>
      </trkpt>
      <trkpt lat="44.75901" lon="5.88237">
        <ele>1045.6</ele>
        <time>2020-02-27T12:39:44.000Z</time>
      </trkpt>
      <trkpt lat="44.75901" lon="5.88237">
        <ele>1045.6</ele>
        <time>2020-02-27T12:39:43.000Z</time>
      </trkpt>
      <trkpt lat="44.75901" lon="5.88237">
        <ele>1045.6</ele>
        <time>2020-02-27T12:39:42.000Z</time>
      </trkpt>
      <trkpt lat="44.75901" lon="5.88237">
        <ele>1045.6</ele>
        <time>2020-02-27T12:39:41.000Z</time>
      </trkpt>
      <trkpt lat="44.75901" lon="5.88237">
        <ele>1045.6</ele>
        <time>2020-02-27T12:39:40.000Z</time>
      </trkpt>
      <trkpt lat="44.75901" lon="5.88237">
        <ele>1045.6</ele>
        <time>2020-02-27T12:39:39.000Z</time>
      </trkpt>
      <trkpt lat="44.75901" lon="5.88237">
        <ele>1045.6</ele>
        <time>2020-02-27T12:39:38.000Z</time>
      </trkpt>
      <trkpt lat="44.75901" lon="5.88237">
        <ele>1045.6</ele>
        <time>2020-02-27T12:39:37.000Z</time>
      </trkpt>
      <trkpt lat="44.75901" lon="5.88237">
        <ele>1045.6</ele>
        <time>2020-02-27T12:39:36.000Z</time>
      </trkpt>
      <trkpt lat="44.75901" lon="5.88237">
        <ele>1045.6</ele>
        <time>2020-02-27T12:39:35.000Z</time>
      </trkpt>
      <trkpt lat="44.75901" lon="5.88237">
        <ele>1045.6</ele>
        <time>2020-02-27T12:39:34.000Z</time>
      </trkpt>
      <trkpt lat="44.75901" lon="5.88237">
        <ele>1045.6</ele>
        <time>2020-02-27T12:39:33.000Z</time>
      </trkpt>
      <trkpt lat="44.75901" lon="5.88237">
        <ele>1045.6</ele>
        <time>2020-02-27T12:39:32.000Z</time>
      </trkpt>
      <trkpt lat="44.75901" lon="5.88237">
        <ele>1045.6</ele>
        <time>2020-02-27T12:39:31.000Z</time>
      </trkpt>
      <trkpt lat="44.75901" lon="5.88237">
        <ele>1045.6</ele>
        <time>2020-02-27T12:39:30.000Z</time>
      </trkpt>
      <trkpt lat="44.75901" lon="5.88237">
        <ele>1045.6</ele>
        <time>2020-02-27T12:39:29.000Z</time>
      </trkpt>
      <trkpt lat="44.75901" lon="5.88237">
        <ele>1045.6</ele>
        <time>2020-02-27T12:39:28.000Z</time>
      </trkpt>
      <trkpt lat="44.75901" lon="5.88237">
        <ele>1045.6</ele>
        <time>2020-02-27T12:39:27.000Z</time>
      </trkpt>
      <trkpt lat="44.75901" lon="5.88237">
        <ele>1045.6</ele>
        <time>2020-02-27T12:39:26.000Z</time>
      </trkpt>
      <trkpt lat="44.75901" lon="5.88237">
        <ele>1045.6</ele>
        <time>2020-02-27T12:39:25.000Z</time>
      </trkpt>
      <trkpt lat="44.75901" lon="5.88237">
        <ele>1045.6</ele>
        <time>2020-02-27T12:39:24.000Z</time>
      </trkpt>
      <trkpt lat="44.75901" lon="5.88237">
        <ele>1045.6</ele>
        <time>2020-02-27T12:39:23.000Z</time>
      </trkpt>
      <trkpt lat="44.75901" lon="5.88237">
        <ele>1045.6</ele>
        <time>2020-02-27T12:39:22.000Z</time>
      </trkpt>
      <trkpt lat="44.75901" lon="5.88237">
        <ele>1045.6</ele>
        <time>2020-02-27T12:39:21.000Z</time>
      </trkpt>
      <trkpt lat="44.75901" lon="5.88237">
        <ele>1045.6</ele>
        <time>2020-02-27T12:39:20.000Z</time>
      </trkpt>
      <trkpt lat="44.75901" lon="5.88237">
        <ele>1045.6</ele>
        <time>2020-02-27T12:39:19.000Z</time>
      </trkpt>
      <trkpt lat="44.75901" lon="5.88237">
        <ele>1045.6</ele>
        <time>2020-02-27T12:39:18.000Z</time>
      </trkpt>
      <trkpt lat="44.75901" lon="5.88237">
        <ele>1045.6</ele>
        <time>2020-02-27T12:39:17.000Z</time>
      </trkpt>
      <trkpt lat="44.75901" lon="5.88237">
        <ele>1045.6</ele>
        <time>2020-02-27T12:39:16.000Z</time>
      </trkpt>
      <trkpt lat="44.75901" lon="5.88237">
        <ele>1045.6</ele>
        <time>2020-02-27T12:39:15.000Z</time>
      </trkpt>
      <trkpt lat="44.75901" lon="5.88237">
        <ele>1045.6</ele>
        <time>2020-02-27T12:39:14.000Z</time>
      </trkpt>
      <trkpt lat="44.75901" lon="5.88237">
        <ele>1045.6</ele>
        <time>2020-02-27T12:39:13.000Z</time>
      </trkpt>
      <trkpt lat="44.75901" lon="5.88237">
        <ele>1045.5</ele>
        <time>2020-02-27T12:39:12.000Z</time>
      </trkpt>
      <trkpt lat="44.75901" lon="5.88237">
        <ele>1045.5</ele>
        <time>2020-02-27T12:39:11.000Z</time>
      </trkpt>
      <trkpt lat="44.75901" lon="5.88237">
        <ele>1045</ele>
        <time>2020-02-27T12:39:06.000Z</time>
      </trkpt>
      <trkpt lat="44.75881" lon="5.88262">
        <ele>1045.5</ele>
        <time>2020-02-27T12:39:01.000Z</time>
      </trkpt>
      <trkpt lat="44.75881" lon="5.88262">
        <ele>1045.5</ele>
        <time>2020-02-27T12:39:00.000Z</time>
      </trkpt>
      <trkpt lat="44.75881" lon="5.88262">
        <ele>1045.5</ele>
        <time>2020-02-27T12:38:59.000Z</time>
      </trkpt>
      <trkpt lat="44.75881" lon="5.88262">
        <ele>1045.5</ele>
        <time>2020-02-27T12:38:58.000Z</time>
      </trkpt>
      <trkpt lat="44.75881" lon="5.88262">
        <ele>1045.4</ele>
        <time>2020-02-27T12:38:57.000Z</time>
      </trkpt>
      <trkpt lat="44.75881" lon="5.88262">
        <ele>1045.4</ele>
        <time>2020-02-27T12:38:56.000Z</time>
      </trkpt>
      <trkpt lat="44.75881" lon="5.88262">
        <ele>1045.4</ele>
        <time>2020-02-27T12:38:55.000Z</time>
      </trkpt>
      <trkpt lat="44.75881" lon="5.88262">
        <ele>1045.4</ele>
        <time>2020-02-27T12:38:54.000Z</time>
      </trkpt>
      <trkpt lat="44.75881" lon="5.88262">
        <ele>1045.4</ele>
        <time>2020-02-27T12:38:53.000Z</time>
      </trkpt>
      <trkpt lat="44.75881" lon="5.88262">
        <ele>1045.4</ele>
        <time>2020-02-27T12:38:52.000Z</time>
      </trkpt>
      <trkpt lat="44.75881" lon="5.88262">
        <ele>1045.4</ele>
        <time>2020-02-27T12:38:51.000Z</time>
      </trkpt>
      <trkpt lat="44.75881" lon="5.88262">
        <ele>1045.3</ele>
        <time>2020-02-27T12:38:50.000Z</time>
      </trkpt>
      <trkpt lat="44.75881" lon="5.88262">
        <ele>1045.3</ele>
        <time>2020-02-27T12:38:49.000Z</time>
      </trkpt>
      <trkpt lat="44.75881" lon="5.88262">
        <ele>1045.3</ele>
        <time>2020-02-27T12:38:48.000Z</time>
      </trkpt>
      <trkpt lat="44.75881" lon="5.88262">
        <ele>1045.3</ele>
        <time>2020-02-27T12:38:47.000Z</time>
      </trkpt>
      <trkpt lat="44.75881" lon="5.88262">
        <ele>1045.3</ele>
        <time>2020-02-27T12:38:46.000Z</time>
      </trkpt>
      <trkpt lat="44.75881" lon="5.88262">
        <ele>1045.2</ele>
        <time>2020-02-27T12:38:45.000Z</time>
      </trkpt>
      <trkpt lat="44.75881" lon="5.88262">
        <ele>1045.2</ele>
        <time>2020-02-27T12:38:44.000Z</time>
      </trkpt>
      <trkpt lat="44.75881" lon="5.88262">
        <ele>1045.2</ele>
        <time>2020-02-27T12:38:43.000Z</time>
      </trkpt>
      <trkpt lat="44.75881" lon="5.88262">
        <ele>1045.2</ele>
        <time>2020-02-27T12:38:42.000Z</time>
      </trkpt>
      <trkpt lat="44.75881" lon="5.88262">
        <ele>1045.1</ele>
        <time>2020-02-27T12:38:41.000Z</time>
      </trkpt>
      <trkpt lat="44.75881" lon="5.88262">
        <ele>1045.1</ele>
        <time>2020-02-27T12:38:40.000Z</time>
      </trkpt>
      <trkpt lat="44.75881" lon="5.88262">
        <ele>1045.1</ele>
        <time>2020-02-27T12:38:39.000Z</time>
      </trkpt>
      <trkpt lat="44.75881" lon="5.88262">
        <ele>1045</ele>
        <time>2020-02-27T12:38:38.000Z</time>
      </trkpt>
      <trkpt lat="44.75881" lon="5.88262">
        <ele>1045</ele>
        <time>2020-02-27T12:38:37.000Z</time>
      </trkpt>
      <trkpt lat="44.75881" lon="5.88262">
        <ele>1045</ele>
        <time>2020-02-27T12:38:36.000Z</time>
      </trkpt>
      <trkpt lat="44.75881" lon="5.88262">
        <ele>1044.9</ele>
        <time>2020-02-27T12:38:35.000Z</time>
      </trkpt>
      <trkpt lat="44.75881" lon="5.88262">
        <ele>1044.9</ele>
        <time>2020-02-27T12:38:34.000Z</time>
      </trkpt>
      <trkpt lat="44.75881" lon="5.88262">
        <ele>1044.8</ele>
        <time>2020-02-27T12:38:33.000Z</time>
      </trkpt>
      <trkpt lat="44.75881" lon="5.88262">
        <ele>1044.8</ele>
        <time>2020-02-27T12:38:32.000Z</time>
      </trkpt>
      <trkpt lat="44.75881" lon="5.88262">
        <ele>1044.7</ele>
        <time>2020-02-27T12:38:31.000Z</time>
      </trkpt>
      <trkpt lat="44.75881" lon="5.88262">
        <ele>1044.6</ele>
        <time>2020-02-27T12:38:30.000Z</time>
      </trkpt>
      <trkpt lat="44.75881" lon="5.88262">
        <ele>1044.6</ele>
        <time>2020-02-27T12:38:29.000Z</time>
      </trkpt>
      <trkpt lat="44.75881" lon="5.88262">
        <ele>1044.5</ele>
        <time>2020-02-27T12:38:28.000Z</time>
      </trkpt>
      <trkpt lat="44.75881" lon="5.88262">
        <ele>1044.4</ele>
        <time>2020-02-27T12:38:27.000Z</time>
      </trkpt>
      <trkpt lat="44.75881" lon="5.88262">
        <ele>1044.4</ele>
        <time>2020-02-27T12:38:26.000Z</time>
      </trkpt>
      <trkpt lat="44.75881" lon="5.88262">
        <ele>1044.3</ele>
        <time>2020-02-27T12:38:25.000Z</time>
      </trkpt>
      <trkpt lat="44.75881" lon="5.88262">
        <ele>1044.2</ele>
        <time>2020-02-27T12:38:24.000Z</time>
      </trkpt>
      <trkpt lat="44.75881" lon="5.88262">
        <ele>1044.1</ele>
        <time>2020-02-27T12:38:23.000Z</time>
      </trkpt>
      <trkpt lat="44.75881" lon="5.88262">
        <ele>1044</ele>
        <time>2020-02-27T12:38:22.000Z</time>
      </trkpt>
      <trkpt lat="44.75881" lon="5.88262">
        <ele>1043.9</ele>
        <time>2020-02-27T12:38:21.000Z</time>
      </trkpt>
      <trkpt lat="44.75881" lon="5.88262">
        <ele>1043.8</ele>
        <time>2020-02-27T12:38:20.000Z</time>
      </trkpt>
      <trkpt lat="44.75881" lon="5.88262">
        <ele>1043.6</ele>
        <time>2020-02-27T12:38:19.000Z</time>
      </trkpt>
      <trkpt lat="44.75881" lon="5.88262">
        <ele>1043.5</ele>
        <time>2020-02-27T12:38:18.000Z</time>
      </trkpt>
      <trkpt lat="44.75881" lon="5.88262">
        <ele>1043.4</ele>
        <time>2020-02-27T12:38:17.000Z</time>
      </trkpt>
      <trkpt lat="44.75881" lon="5.88262">
        <ele>1043.2</ele>
        <time>2020-02-27T12:38:16.000Z</time>
      </trkpt>
      <trkpt lat="44.75881" lon="5.88262">
        <ele>1043.1</ele>
        <time>2020-02-27T12:38:15.000Z</time>
      </trkpt>
      <trkpt lat="44.75881" lon="5.88262">
        <ele>1043</ele>
        <time>2020-02-27T12:38:14.000Z</time>
      </trkpt>
      <trkpt lat="44.75881" lon="5.88261">
        <ele>1042.8</ele>
        <time>2020-02-27T12:38:13.000Z</time>
      </trkpt>
      <trkpt lat="44.75881" lon="5.88261">
        <ele>1042.7</ele>
        <time>2020-02-27T12:38:12.000Z</time>
      </trkpt>
      <trkpt lat="44.75881" lon="5.88259">
        <ele>1042.5</ele>
        <time>2020-02-27T12:38:11.000Z</time>
      </trkpt>
      <trkpt lat="44.7588" lon="5.88259">
        <ele>1042.4</ele>
        <time>2020-02-27T12:38:10.000Z</time>
      </trkpt>
      <trkpt lat="44.7588" lon="5.88258">
        <ele>1042.2</ele>
        <time>2020-02-27T12:38:09.000Z</time>
      </trkpt>
      <trkpt lat="44.75878" lon="5.88259">
        <ele>1042.1</ele>
        <time>2020-02-27T12:38:08.000Z</time>
      </trkpt>
      <trkpt lat="44.75878" lon="5.88258">
        <ele>1041.9</ele>
        <time>2020-02-27T12:38:07.000Z</time>
      </trkpt>
      <trkpt lat="44.75877" lon="5.88258">
        <ele>1041.8</ele>
        <time>2020-02-27T12:38:06.000Z</time>
      </trkpt>
      <trkpt lat="44.75876" lon="5.88259">
        <ele>1041.7</ele>
        <time>2020-02-27T12:38:05.000Z</time>
      </trkpt>
      <trkpt lat="44.75876" lon="5.88259">
        <ele>1041.5</ele>
        <time>2020-02-27T12:38:04.000Z</time>
      </trkpt>
      <trkpt lat="44.75876" lon="5.88259">
        <ele>1041.4</ele>
        <time>2020-02-27T12:38:03.000Z</time>
      </trkpt>
      <trkpt lat="44.75872" lon="5.88259">
        <ele>1041.2</ele>
        <time>2020-02-27T12:38:02.000Z</time>
      </trkpt>
      <trkpt lat="44.75872" lon="5.88259">
        <ele>1041</ele>
        <time>2020-02-27T12:38:01.000Z</time>
      </trkpt>
      <trkpt lat="44.75872" lon="5.88259">
        <ele>1040.9</ele>
        <time>2020-02-27T12:38:00.000Z</time>
      </trkpt>
      <trkpt lat="44.75872" lon="5.88259">
        <ele>1040.8</ele>
        <time>2020-02-27T12:37:59.000Z</time>
      </trkpt>
      <trkpt lat="44.75872" lon="5.88259">
        <ele>1040.7</ele>
        <time>2020-02-27T12:37:58.000Z</time>
      </trkpt>
      <trkpt lat="44.75872" lon="5.88259">
        <ele>1040.6</ele>
        <time>2020-02-27T12:37:57.000Z</time>
      </trkpt>
      <trkpt lat="44.75872" lon="5.88259">
        <ele>1040.5</ele>
        <time>2020-02-27T12:37:56.000Z</time>
      </trkpt>
      <trkpt lat="44.75872" lon="5.88259">
        <ele>1040.4</ele>
        <time>2020-02-27T12:37:55.000Z</time>
      </trkpt>
      <trkpt lat="44.75871" lon="5.88258">
        <ele>1040.3</ele>
        <time>2020-02-27T12:37:54.000Z</time>
      </trkpt>
      <trkpt lat="44.7587" lon="5.88258">
        <ele>1040.2</ele>
        <time>2020-02-27T12:37:53.000Z</time>
      </trkpt>
      <trkpt lat="44.75871" lon="5.88256">
        <ele>1040.1</ele>
        <time>2020-02-27T12:37:52.000Z</time>
      </trkpt>
      <trkpt lat="44.75871" lon="5.88256">
        <ele>1040</ele>
        <time>2020-02-27T12:37:51.000Z</time>
      </trkpt>
      <trkpt lat="44.75871" lon="5.88255">
        <ele>1039.9</ele>
        <time>2020-02-27T12:37:50.000Z</time>
      </trkpt>
      <trkpt lat="44.7587" lon="5.88255">
        <ele>1039.8</ele>
        <time>2020-02-27T12:37:49.000Z</time>
      </trkpt>
      <trkpt lat="44.7587" lon="5.88254">
        <ele>1039.7</ele>
        <time>2020-02-27T12:37:48.000Z</time>
      </trkpt>
      <trkpt lat="44.75868" lon="5.88254">
        <ele>1039.7</ele>
        <time>2020-02-27T12:37:47.000Z</time>
      </trkpt>
      <trkpt lat="44.75867" lon="5.88254">
        <ele>1039.6</ele>
        <time>2020-02-27T12:37:46.000Z</time>
      </trkpt>
      <trkpt lat="44.75867" lon="5.88254">
        <ele>1039.5</ele>
        <time>2020-02-27T12:37:45.000Z</time>
      </trkpt>
      <trkpt lat="44.75866" lon="5.88254">
        <ele>1039.4</ele>
        <time>2020-02-27T12:37:44.000Z</time>
      </trkpt>
      <trkpt lat="44.75864" lon="5.88254">
        <ele>1039.3</ele>
        <time>2020-02-27T12:37:43.000Z</time>
      </trkpt>
      <trkpt lat="44.75864" lon="5.88254">
        <ele>1039.3</ele>
        <time>2020-02-27T12:37:42.000Z</time>
      </trkpt>
      <trkpt lat="44.75863" lon="5.88255">
        <ele>1039.2</ele>
        <time>2020-02-27T12:37:41.000Z</time>
      </trkpt>
      <trkpt lat="44.75861" lon="5.88255">
        <ele>1039.1</ele>
        <time>2020-02-27T12:37:40.000Z</time>
      </trkpt>
      <trkpt lat="44.7586" lon="5.88256">
        <ele>1039.1</ele>
        <time>2020-02-27T12:37:39.000Z</time>
      </trkpt>
      <trkpt lat="44.75858" lon="5.88256">
        <ele>1039</ele>
        <time>2020-02-27T12:37:38.000Z</time>
      </trkpt>
      <trkpt lat="44.75857" lon="5.88256">
        <ele>1038.9</ele>
        <time>2020-02-27T12:37:37.000Z</time>
      </trkpt>
      <trkpt lat="44.75857" lon="5.88257">
        <ele>1038.9</ele>
        <time>2020-02-27T12:37:36.000Z</time>
      </trkpt>
      <trkpt lat="44.75856" lon="5.88257">
        <ele>1038.8</ele>
        <time>2020-02-27T12:37:35.000Z</time>
      </trkpt>
      <trkpt lat="44.75855" lon="5.88258">
        <ele>1038.8</ele>
        <time>2020-02-27T12:37:34.000Z</time>
      </trkpt>
      <trkpt lat="44.75854" lon="5.88259">
        <ele>1038.8</ele>
        <time>2020-02-27T12:37:33.000Z</time>
      </trkpt>
      <trkpt lat="44.75853" lon="5.8826">
        <ele>1038.7</ele>
        <time>2020-02-27T12:37:32.000Z</time>
      </trkpt>
      <trkpt lat="44.75852" lon="5.88261">
        <ele>1038.7</ele>
        <time>2020-02-27T12:37:31.000Z</time>
      </trkpt>
      <trkpt lat="44.7585" lon="5.88262">
        <ele>1038.6</ele>
        <time>2020-02-27T12:37:30.000Z</time>
      </trkpt>
      <trkpt lat="44.75849" lon="5.88264">
        <ele>1038.6</ele>
        <time>2020-02-27T12:37:29.000Z</time>
      </trkpt>
      <trkpt lat="44.75848" lon="5.88264">
        <ele>1038.5</ele>
        <time>2020-02-27T12:37:28.000Z</time>
      </trkpt>
      <trkpt lat="44.75847" lon="5.88266">
        <ele>1038.5</ele>
        <time>2020-02-27T12:37:27.000Z</time>
      </trkpt>
      <trkpt lat="44.75846" lon="5.88266">
        <ele>1038.4</ele>
        <time>2020-02-27T12:37:26.000Z</time>
      </trkpt>
      <trkpt lat="44.75845" lon="5.88267">
        <ele>1038.4</ele>
        <time>2020-02-27T12:37:25.000Z</time>
      </trkpt>
      <trkpt lat="44.75845" lon="5.88266">
        <ele>1038.3</ele>
        <time>2020-02-27T12:37:24.000Z</time>
      </trkpt>
      <trkpt lat="44.75844" lon="5.88266">
        <ele>1038.2</ele>
        <time>2020-02-27T12:37:23.000Z</time>
      </trkpt>
      <trkpt lat="44.75844" lon="5.88265">
        <ele>1038.2</ele>
        <time>2020-02-27T12:37:22.000Z</time>
      </trkpt>
      <trkpt lat="44.75844" lon="5.88265">
        <ele>1038.1</ele>
        <time>2020-02-27T12:37:21.000Z</time>
      </trkpt>
      <trkpt lat="44.75843" lon="5.88265">
        <ele>1038</ele>
        <time>2020-02-27T12:37:20.000Z</time>
      </trkpt>
      <trkpt lat="44.75843" lon="5.88265">
        <ele>1037.9</ele>
        <time>2020-02-27T12:37:19.000Z</time>
      </trkpt>
      <trkpt lat="44.75842" lon="5.88266">
        <ele>1037.8</ele>
        <time>2020-02-27T12:37:18.000Z</time>
      </trkpt>
      <trkpt lat="44.75841" lon="5.88267">
        <ele>1037.7</ele>
        <time>2020-02-27T12:37:17.000Z</time>
      </trkpt>
      <trkpt lat="44.7584" lon="5.88268">
        <ele>1037.6</ele>
        <time>2020-02-27T12:37:16.000Z</time>
      </trkpt>
      <trkpt lat="44.75839" lon="5.88269">
        <ele>1037.5</ele>
        <time>2020-02-27T12:37:15.000Z</time>
      </trkpt>
      <trkpt lat="44.75838" lon="5.8827">
        <ele>1037.4</ele>
        <time>2020-02-27T12:37:14.000Z</time>
      </trkpt>
      <trkpt lat="44.75837" lon="5.88271">
        <ele>1037.3</ele>
        <time>2020-02-27T12:37:13.000Z</time>
      </trkpt>
      <trkpt lat="44.75836" lon="5.88272">
        <ele>1037.2</ele>
        <time>2020-02-27T12:37:12.000Z</time>
      </trkpt>
      <trkpt lat="44.75834" lon="5.88273">
        <ele>1037.1</ele>
        <time>2020-02-27T12:37:11.000Z</time>
      </trkpt>
      <trkpt lat="44.75833" lon="5.88273">
        <ele>1037</ele>
        <time>2020-02-27T12:37:10.000Z</time>
      </trkpt>
      <trkpt lat="44.75832" lon="5.88273">
        <ele>1036.8</ele>
        <time>2020-02-27T12:37:09.000Z</time>
      </trkpt>
      <trkpt lat="44.75831" lon="5.88273">
        <ele>1036.7</ele>
        <time>2020-02-27T12:37:08.000Z</time>
      </trkpt>
      <trkpt lat="44.75829" lon="5.88275">
        <ele>1036.6</ele>
        <time>2020-02-27T12:37:07.000Z</time>
      </trkpt>
      <trkpt lat="44.75828" lon="5.88275">
        <ele>1036.4</ele>
        <time>2020-02-27T12:37:06.000Z</time>
      </trkpt>
      <trkpt lat="44.75827" lon="5.88277">
        <ele>1036.2</ele>
        <time>2020-02-27T12:37:05.000Z</time>
      </trkpt>
      <trkpt lat="44.75824" lon="5.88278">
        <ele>1036.1</ele>
        <time>2020-02-27T12:37:04.000Z</time>
      </trkpt>
      <trkpt lat="44.75823" lon="5.88279">
        <ele>1036</ele>
        <time>2020-02-27T12:37:03.000Z</time>
      </trkpt>
      <trkpt lat="44.75822" lon="5.8828">
        <ele>1035.9</ele>
        <time>2020-02-27T12:37:02.000Z</time>
      </trkpt>
      <trkpt lat="44.75821" lon="5.88281">
        <ele>1035.8</ele>
        <time>2020-02-27T12:37:01.000Z</time>
      </trkpt>
      <trkpt lat="44.75821" lon="5.88281">
        <ele>1035.7</ele>
        <time>2020-02-27T12:37:00.000Z</time>
      </trkpt>
      <trkpt lat="44.7582" lon="5.88281">
        <ele>1035.5</ele>
        <time>2020-02-27T12:36:59.000Z</time>
      </trkpt>
      <trkpt lat="44.75819" lon="5.88282">
        <ele>1035.4</ele>
        <time>2020-02-27T12:36:58.000Z</time>
      </trkpt>
      <trkpt lat="44.75819" lon="5.88282">
        <ele>1035.3</ele>
        <time>2020-02-27T12:36:57.000Z</time>
      </trkpt>
      <trkpt lat="44.75818" lon="5.88282">
        <ele>1035.1</ele>
        <time>2020-02-27T12:36:56.000Z</time>
      </trkpt>
      <trkpt lat="44.75817" lon="5.88283">
        <ele>1035</ele>
        <time>2020-02-27T12:36:55.000Z</time>
      </trkpt>
      <trkpt lat="44.75816" lon="5.88283">
        <ele>1034.8</ele>
        <time>2020-02-27T12:36:54.000Z</time>
      </trkpt>
      <trkpt lat="44.75816" lon="5.88283">
        <ele>1034.7</ele>
        <time>2020-02-27T12:36:53.000Z</time>
      </trkpt>
      <trkpt lat="44.75815" lon="5.88283">
        <ele>1034.5</ele>
        <time>2020-02-27T12:36:52.000Z</time>
      </trkpt>
      <trkpt lat="44.75815" lon="5.88282">
        <ele>1034.4</ele>
        <time>2020-02-27T12:36:51.000Z</time>
      </trkpt>
      <trkpt lat="44.75815" lon="5.88282">
        <ele>1034.3</ele>
        <time>2020-02-27T12:36:50.000Z</time>
      </trkpt>
      <trkpt lat="44.75813" lon="5.88282">
        <ele>1034.1</ele>
        <time>2020-02-27T12:36:49.000Z</time>
      </trkpt>
      <trkpt lat="44.75812" lon="5.88283">
        <ele>1034</ele>
        <time>2020-02-27T12:36:48.000Z</time>
      </trkpt>
      <trkpt lat="44.75811" lon="5.88283">
        <ele>1033.9</ele>
        <time>2020-02-27T12:36:47.000Z</time>
      </trkpt>
      <trkpt lat="44.7581" lon="5.88283">
        <ele>1033.8</ele>
        <time>2020-02-27T12:36:46.000Z</time>
      </trkpt>
      <trkpt lat="44.75809" lon="5.88284">
        <ele>1033.7</ele>
        <time>2020-02-27T12:36:45.000Z</time>
      </trkpt>
      <trkpt lat="44.75808" lon="5.88284">
        <ele>1033.6</ele>
        <time>2020-02-27T12:36:44.000Z</time>
      </trkpt>
      <trkpt lat="44.75808" lon="5.88285">
        <ele>1033.5</ele>
        <time>2020-02-27T12:36:43.000Z</time>
      </trkpt>
      <trkpt lat="44.75807" lon="5.88285">
        <ele>1033.3</ele>
        <time>2020-02-27T12:36:42.000Z</time>
      </trkpt>
      <trkpt lat="44.75805" lon="5.88286">
        <ele>1033.2</ele>
        <time>2020-02-27T12:36:41.000Z</time>
      </trkpt>
      <trkpt lat="44.75804" lon="5.88287">
        <ele>1033.1</ele>
        <time>2020-02-27T12:36:40.000Z</time>
      </trkpt>
      <trkpt lat="44.75804" lon="5.88288">
        <ele>1032.9</ele>
        <time>2020-02-27T12:36:39.000Z</time>
      </trkpt>
      <trkpt lat="44.75804" lon="5.88288">
        <ele>1032.8</ele>
        <time>2020-02-27T12:36:38.000Z</time>
      </trkpt>
      <trkpt lat="44.75803" lon="5.88287">
        <ele>1032.7</ele>
        <time>2020-02-27T12:36:37.000Z</time>
      </trkpt>
      <trkpt lat="44.75803" lon="5.88287">
        <ele>1032.5</ele>
        <time>2020-02-27T12:36:36.000Z</time>
      </trkpt>
      <trkpt lat="44.75802" lon="5.88287">
        <ele>1032.4</ele>
        <time>2020-02-27T12:36:35.000Z</time>
      </trkpt>
      <trkpt lat="44.75801" lon="5.88288">
        <ele>1032.2</ele>
        <time>2020-02-27T12:36:34.000Z</time>
      </trkpt>
      <trkpt lat="44.75801" lon="5.88287">
        <ele>1032.1</ele>
        <time>2020-02-27T12:36:33.000Z</time>
      </trkpt>
      <trkpt lat="44.758" lon="5.88287">
        <ele>1032</ele>
        <time>2020-02-27T12:36:32.000Z</time>
      </trkpt>
      <trkpt lat="44.758" lon="5.88287">
        <ele>1031.9</ele>
        <time>2020-02-27T12:36:31.000Z</time>
      </trkpt>
      <trkpt lat="44.75799" lon="5.88287">
        <ele>1031.8</ele>
        <time>2020-02-27T12:36:30.000Z</time>
      </trkpt>
      <trkpt lat="44.75798" lon="5.88287">
        <ele>1031.7</ele>
        <time>2020-02-27T12:36:29.000Z</time>
      </trkpt>
      <trkpt lat="44.75797" lon="5.88287">
        <ele>1031.6</ele>
        <time>2020-02-27T12:36:28.000Z</time>
      </trkpt>
      <trkpt lat="44.75797" lon="5.88286">
        <ele>1031.4</ele>
        <time>2020-02-27T12:36:27.000Z</time>
      </trkpt>
      <trkpt lat="44.75796" lon="5.88287">
        <ele>1031.3</ele>
        <time>2020-02-27T12:36:26.000Z</time>
      </trkpt>
      <trkpt lat="44.75795" lon="5.88287">
        <ele>1031.1</ele>
        <time>2020-02-27T12:36:25.000Z</time>
      </trkpt>
      <trkpt lat="44.75795" lon="5.88287">
        <ele>1031</ele>
        <time>2020-02-27T12:36:24.000Z</time>
      </trkpt>
      <trkpt lat="44.75794" lon="5.88286">
        <ele>1030.8</ele>
        <time>2020-02-27T12:36:23.000Z</time>
      </trkpt>
      <trkpt lat="44.75793" lon="5.88286">
        <ele>1030.7</ele>
        <time>2020-02-27T12:36:22.000Z</time>
      </trkpt>
      <trkpt lat="44.75792" lon="5.88286">
        <ele>1030.5</ele>
        <time>2020-02-27T12:36:21.000Z</time>
      </trkpt>
      <trkpt lat="44.75791" lon="5.88285">
        <ele>1030.4</ele>
        <time>2020-02-27T12:36:20.000Z</time>
      </trkpt>
      <trkpt lat="44.7579" lon="5.88286">
        <ele>1030.2</ele>
        <time>2020-02-27T12:36:19.000Z</time>
      </trkpt>
      <trkpt lat="44.75789" lon="5.88286">
        <ele>1030.1</ele>
        <time>2020-02-27T12:36:18.000Z</time>
      </trkpt>
      <trkpt lat="44.75787" lon="5.88287">
        <ele>1030</ele>
        <time>2020-02-27T12:36:17.000Z</time>
      </trkpt>
      <trkpt lat="44.75787" lon="5.88287">
        <ele>1029.8</ele>
        <time>2020-02-27T12:36:16.000Z</time>
      </trkpt>
      <trkpt lat="44.75785" lon="5.88288">
        <ele>1029.7</ele>
        <time>2020-02-27T12:36:15.000Z</time>
      </trkpt>
      <trkpt lat="44.75785" lon="5.88289">
        <ele>1029.6</ele>
        <time>2020-02-27T12:36:14.000Z</time>
      </trkpt>
      <trkpt lat="44.75784" lon="5.88289">
        <ele>1029.5</ele>
        <time>2020-02-27T12:36:13.000Z</time>
      </trkpt>
      <trkpt lat="44.75784" lon="5.88289">
        <ele>1029.4</ele>
        <time>2020-02-27T12:36:12.000Z</time>
      </trkpt>
      <trkpt lat="44.75783" lon="5.88289">
        <ele>1029.3</ele>
        <time>2020-02-27T12:36:11.000Z</time>
      </trkpt>
      <trkpt lat="44.75783" lon="5.88289">
        <ele>1029.2</ele>
        <time>2020-02-27T12:36:10.000Z</time>
      </trkpt>
      <trkpt lat="44.75781" lon="5.8829">
        <ele>1029.1</ele>
        <time>2020-02-27T12:36:09.000Z</time>
      </trkpt>
      <trkpt lat="44.7578" lon="5.8829">
        <ele>1029.1</ele>
        <time>2020-02-27T12:36:08.000Z</time>
      </trkpt>
      <trkpt lat="44.7578" lon="5.8829">
        <ele>1029</ele>
        <time>2020-02-27T12:36:07.000Z</time>
      </trkpt>
      <trkpt lat="44.75779" lon="5.8829">
        <ele>1029</ele>
        <time>2020-02-27T12:36:06.000Z</time>
      </trkpt>
      <trkpt lat="44.75779" lon="5.8829">
        <ele>1028.9</ele>
        <time>2020-02-27T12:36:05.000Z</time>
      </trkpt>
      <trkpt lat="44.75778" lon="5.88291">
        <ele>1028.9</ele>
        <time>2020-02-27T12:36:04.000Z</time>
      </trkpt>
      <trkpt lat="44.75776" lon="5.88291">
        <ele>1028.8</ele>
        <time>2020-02-27T12:36:03.000Z</time>
      </trkpt>
      <trkpt lat="44.75775" lon="5.88291">
        <ele>1028.8</ele>
        <time>2020-02-27T12:36:02.000Z</time>
      </trkpt>
      <trkpt lat="44.75774" lon="5.88292">
        <ele>1028.7</ele>
        <time>2020-02-27T12:36:01.000Z</time>
      </trkpt>
      <trkpt lat="44.75773" lon="5.88292">
        <ele>1028.7</ele>
        <time>2020-02-27T12:36:00.000Z</time>
      </trkpt>
      <trkpt lat="44.75772" lon="5.88293">
        <ele>1028.6</ele>
        <time>2020-02-27T12:35:59.000Z</time>
      </trkpt>
      <trkpt lat="44.7577" lon="5.88294">
        <ele>1028.6</ele>
        <time>2020-02-27T12:35:58.000Z</time>
      </trkpt>
      <trkpt lat="44.75769" lon="5.88294">
        <ele>1028.5</ele>
        <time>2020-02-27T12:35:57.000Z</time>
      </trkpt>
      <trkpt lat="44.75768" lon="5.88295">
        <ele>1028.5</ele>
        <time>2020-02-27T12:35:56.000Z</time>
      </trkpt>
      <trkpt lat="44.75766" lon="5.88296">
        <ele>1028.4</ele>
        <time>2020-02-27T12:35:55.000Z</time>
      </trkpt>
      <trkpt lat="44.75765" lon="5.88296">
        <ele>1028.3</ele>
        <time>2020-02-27T12:35:54.000Z</time>
      </trkpt>
      <trkpt lat="44.75763" lon="5.88296">
        <ele>1028.3</ele>
        <time>2020-02-27T12:35:53.000Z</time>
      </trkpt>
      <trkpt lat="44.75762" lon="5.88297">
        <ele>1028.2</ele>
        <time>2020-02-27T12:35:52.000Z</time>
      </trkpt>
      <trkpt lat="44.75761" lon="5.88298">
        <ele>1028.1</ele>
        <time>2020-02-27T12:35:51.000Z</time>
      </trkpt>
      <trkpt lat="44.75759" lon="5.88298">
        <ele>1028</ele>
        <time>2020-02-27T12:35:50.000Z</time>
      </trkpt>
      <trkpt lat="44.75758" lon="5.88298">
        <ele>1027.9</ele>
        <time>2020-02-27T12:35:49.000Z</time>
      </trkpt>
      <trkpt lat="44.75757" lon="5.883">
        <ele>1027.8</ele>
        <time>2020-02-27T12:35:48.000Z</time>
      </trkpt>
      <trkpt lat="44.75756" lon="5.88301">
        <ele>1027.8</ele>
        <time>2020-02-27T12:35:47.000Z</time>
      </trkpt>
      <trkpt lat="44.75755" lon="5.88301">
        <ele>1027.7</ele>
        <time>2020-02-27T12:35:46.000Z</time>
      </trkpt>
      <trkpt lat="44.75754" lon="5.88302">
        <ele>1027.6</ele>
        <time>2020-02-27T12:35:45.000Z</time>
      </trkpt>
      <trkpt lat="44.75753" lon="5.88303">
        <ele>1027.6</ele>
        <time>2020-02-27T12:35:44.000Z</time>
      </trkpt>
      <trkpt lat="44.75752" lon="5.88304">
        <ele>1027.5</ele>
        <time>2020-02-27T12:35:43.000Z</time>
      </trkpt>
      <trkpt lat="44.75751" lon="5.88304">
        <ele>1027.4</ele>
        <time>2020-02-27T12:35:42.000Z</time>
      </trkpt>
      <trkpt lat="44.7575" lon="5.88304">
        <ele>1027.4</ele>
        <time>2020-02-27T12:35:41.000Z</time>
      </trkpt>
      <trkpt lat="44.75749" lon="5.88305">
        <ele>1027.3</ele>
        <time>2020-02-27T12:35:40.000Z</time>
      </trkpt>
      <trkpt lat="44.75749" lon="5.88306">
        <ele>1027.2</ele>
        <time>2020-02-27T12:35:39.000Z</time>
      </trkpt>
      <trkpt lat="44.75748" lon="5.88306">
        <ele>1027.1</ele>
        <time>2020-02-27T12:35:38.000Z</time>
      </trkpt>
      <trkpt lat="44.75747" lon="5.88308">
        <ele>1027.1</ele>
        <time>2020-02-27T12:35:37.000Z</time>
      </trkpt>
      <trkpt lat="44.75746" lon="5.88309">
        <ele>1027</ele>
        <time>2020-02-27T12:35:36.000Z</time>
      </trkpt>
      <trkpt lat="44.75746" lon="5.88309">
        <ele>1027</ele>
        <time>2020-02-27T12:35:35.000Z</time>
      </trkpt>
      <trkpt lat="44.75745" lon="5.8831">
        <ele>1026.9</ele>
        <time>2020-02-27T12:35:34.000Z</time>
      </trkpt>
      <trkpt lat="44.75744" lon="5.88311">
        <ele>1026.8</ele>
        <time>2020-02-27T12:35:33.000Z</time>
      </trkpt>
      <trkpt lat="44.75744" lon="5.88311">
        <ele>1026.8</ele>
        <time>2020-02-27T12:35:32.000Z</time>
      </trkpt>
      <trkpt lat="44.75744" lon="5.88311">
        <ele>1026.7</ele>
        <time>2020-02-27T12:35:31.000Z</time>
      </trkpt>
      <trkpt lat="44.75743" lon="5.88312">
        <ele>1026.7</ele>
        <time>2020-02-27T12:35:30.000Z</time>
      </trkpt>
      <trkpt lat="44.75742" lon="5.88313">
        <ele>1026.6</ele>
        <time>2020-02-27T12:35:29.000Z</time>
      </trkpt>
      <trkpt lat="44.75741" lon="5.88314">
        <ele>1026.5</ele>
        <time>2020-02-27T12:35:28.000Z</time>
      </trkpt>
      <trkpt lat="44.7574" lon="5.88314">
        <ele>1026.5</ele>
        <time>2020-02-27T12:35:27.000Z</time>
      </trkpt>
      <trkpt lat="44.7574" lon="5.88315">
        <ele>1026.4</ele>
        <time>2020-02-27T12:35:26.000Z</time>
      </trkpt>
      <trkpt lat="44.75739" lon="5.88316">
        <ele>1026.3</ele>
        <time>2020-02-27T12:35:25.000Z</time>
      </trkpt>
      <trkpt lat="44.75738" lon="5.88317">
        <ele>1026.2</ele>
        <time>2020-02-27T12:35:24.000Z</time>
      </trkpt>
      <trkpt lat="44.75737" lon="5.88317">
        <ele>1026.2</ele>
        <time>2020-02-27T12:35:23.000Z</time>
      </trkpt>
      <trkpt lat="44.75736" lon="5.88318">
        <ele>1026.1</ele>
        <time>2020-02-27T12:35:22.000Z</time>
      </trkpt>
      <trkpt lat="44.75735" lon="5.88319">
        <ele>1026</ele>
        <time>2020-02-27T12:35:21.000Z</time>
      </trkpt>
      <trkpt lat="44.75734" lon="5.8832">
        <ele>1025.9</ele>
        <time>2020-02-27T12:35:20.000Z</time>
      </trkpt>
      <trkpt lat="44.75733" lon="5.88321">
        <ele>1025.8</ele>
        <time>2020-02-27T12:35:19.000Z</time>
      </trkpt>
      <trkpt lat="44.75733" lon="5.88321">
        <ele>1025.7</ele>
        <time>2020-02-27T12:35:18.000Z</time>
      </trkpt>
      <trkpt lat="44.75732" lon="5.88321">
        <ele>1025.7</ele>
        <time>2020-02-27T12:35:17.000Z</time>
      </trkpt>
      <trkpt lat="44.75731" lon="5.88322">
        <ele>1025.6</ele>
        <time>2020-02-27T12:35:16.000Z</time>
      </trkpt>
      <trkpt lat="44.7573" lon="5.88323">
        <ele>1025.5</ele>
        <time>2020-02-27T12:35:15.000Z</time>
      </trkpt>
      <trkpt lat="44.7573" lon="5.88323">
        <ele>1025.4</ele>
        <time>2020-02-27T12:35:14.000Z</time>
      </trkpt>
      <trkpt lat="44.7573" lon="5.88323">
        <ele>1025.4</ele>
        <time>2020-02-27T12:35:13.000Z</time>
      </trkpt>
      <trkpt lat="44.75729" lon="5.88324">
        <ele>1025.3</ele>
        <time>2020-02-27T12:35:12.000Z</time>
      </trkpt>
      <trkpt lat="44.75729" lon="5.88324">
        <ele>1025.2</ele>
        <time>2020-02-27T12:35:11.000Z</time>
      </trkpt>
      <trkpt lat="44.75728" lon="5.88325">
        <ele>1025.2</ele>
        <time>2020-02-27T12:35:10.000Z</time>
      </trkpt>
      <trkpt lat="44.75727" lon="5.88325">
        <ele>1025.1</ele>
        <time>2020-02-27T12:35:09.000Z</time>
      </trkpt>
      <trkpt lat="44.75727" lon="5.88325">
        <ele>1025.1</ele>
        <time>2020-02-27T12:35:08.000Z</time>
      </trkpt>
      <trkpt lat="44.75726" lon="5.88326">
        <ele>1025</ele>
        <time>2020-02-27T12:35:07.000Z</time>
      </trkpt>
      <trkpt lat="44.75726" lon="5.88326">
        <ele>1024.9</ele>
        <time>2020-02-27T12:35:06.000Z</time>
      </trkpt>
      <trkpt lat="44.75726" lon="5.88327">
        <ele>1024.9</ele>
        <time>2020-02-27T12:35:05.000Z</time>
      </trkpt>
      <trkpt lat="44.75725" lon="5.88327">
        <ele>1024.8</ele>
        <time>2020-02-27T12:35:04.000Z</time>
      </trkpt>
      <trkpt lat="44.75724" lon="5.88328">
        <ele>1024.7</ele>
        <time>2020-02-27T12:35:03.000Z</time>
      </trkpt>
      <trkpt lat="44.75723" lon="5.88329">
        <ele>1024.7</ele>
        <time>2020-02-27T12:35:02.000Z</time>
      </trkpt>
      <trkpt lat="44.75722" lon="5.88329">
        <ele>1024.6</ele>
        <time>2020-02-27T12:35:01.000Z</time>
      </trkpt>
      <trkpt lat="44.75722" lon="5.8833">
        <ele>1024.5</ele>
        <time>2020-02-27T12:35:00.000Z</time>
      </trkpt>
      <trkpt lat="44.75721" lon="5.8833">
        <ele>1024.5</ele>
        <time>2020-02-27T12:34:59.000Z</time>
      </trkpt>
      <trkpt lat="44.75721" lon="5.8833">
        <ele>1024.4</ele>
        <time>2020-02-27T12:34:58.000Z</time>
      </trkpt>
      <trkpt lat="44.75721" lon="5.88331">
        <ele>1024.4</ele>
        <time>2020-02-27T12:34:57.000Z</time>
      </trkpt>
      <trkpt lat="44.7572" lon="5.88332">
        <ele>1024.3</ele>
        <time>2020-02-27T12:34:56.000Z</time>
      </trkpt>
      <trkpt lat="44.7572" lon="5.88333">
        <ele>1024.2</ele>
        <time>2020-02-27T12:34:55.000Z</time>
      </trkpt>
      <trkpt lat="44.75719" lon="5.88334">
        <ele>1024.2</ele>
        <time>2020-02-27T12:34:54.000Z</time>
      </trkpt>
      <trkpt lat="44.75719" lon="5.88335">
        <ele>1024.2</ele>
        <time>2020-02-27T12:34:53.000Z</time>
      </trkpt>
      <trkpt lat="44.75719" lon="5.88337">
        <ele>1024.2</ele>
        <time>2020-02-27T12:34:52.000Z</time>
      </trkpt>
      <trkpt lat="44.75719" lon="5.88337">
        <ele>1024.2</ele>
        <time>2020-02-27T12:34:51.000Z</time>
      </trkpt>
      <trkpt lat="44.75718" lon="5.88339">
        <ele>1024.2</ele>
        <time>2020-02-27T12:34:50.000Z</time>
      </trkpt>
      <trkpt lat="44.75718" lon="5.88339">
        <ele>1024.2</ele>
        <time>2020-02-27T12:34:49.000Z</time>
      </trkpt>
      <trkpt lat="44.75718" lon="5.8834">
        <ele>1024.2</ele>
        <time>2020-02-27T12:34:48.000Z</time>
      </trkpt>
      <trkpt lat="44.75718" lon="5.8834">
        <ele>1024.2</ele>
        <time>2020-02-27T12:34:47.000Z</time>
      </trkpt>
      <trkpt lat="44.75718" lon="5.88341">
        <ele>1024.2</ele>
        <time>2020-02-27T12:34:46.000Z</time>
      </trkpt>
      <trkpt lat="44.75717" lon="5.88342">
        <ele>1024.2</ele>
        <time>2020-02-27T12:34:45.000Z</time>
      </trkpt>
      <trkpt lat="44.75717" lon="5.88343">
        <ele>1024.2</ele>
        <time>2020-02-27T12:34:44.000Z</time>
      </trkpt>
      <trkpt lat="44.75716" lon="5.88343">
        <ele>1024.2</ele>
        <time>2020-02-27T12:34:43.000Z</time>
      </trkpt>
      <trkpt lat="44.75716" lon="5.88344">
        <ele>1024.2</ele>
        <time>2020-02-27T12:34:42.000Z</time>
      </trkpt>
      <trkpt lat="44.75715" lon="5.88344">
        <ele>1024.2</ele>
        <time>2020-02-27T12:34:41.000Z</time>
      </trkpt>
      <trkpt lat="44.75715" lon="5.88345">
        <ele>1024.2</ele>
        <time>2020-02-27T12:34:40.000Z</time>
      </trkpt>
      <trkpt lat="44.75714" lon="5.88345">
        <ele>1024.2</ele>
        <time>2020-02-27T12:34:39.000Z</time>
      </trkpt>
      <trkpt lat="44.75714" lon="5.88345">
        <ele>1024.2</ele>
        <time>2020-02-27T12:34:38.000Z</time>
      </trkpt>
      <trkpt lat="44.75713" lon="5.88345">
        <ele>1024.2</ele>
        <time>2020-02-27T12:34:37.000Z</time>
      </trkpt>
      <trkpt lat="44.75713" lon="5.88345">
        <ele>1024.2</ele>
        <time>2020-02-27T12:34:36.000Z</time>
      </trkpt>
      <trkpt lat="44.75713" lon="5.88345">
        <ele>1024.2</ele>
        <time>2020-02-27T12:34:35.000Z</time>
      </trkpt>
      <trkpt lat="44.75713" lon="5.88345">
        <ele>1024.2</ele>
        <time>2020-02-27T12:34:34.000Z</time>
      </trkpt>
      <trkpt lat="44.75713" lon="5.88345">
        <ele>1024.2</ele>
        <time>2020-02-27T12:34:33.000Z</time>
      </trkpt>
      <trkpt lat="44.75713" lon="5.88345">
        <ele>1024.2</ele>
        <time>2020-02-27T12:34:32.000Z</time>
      </trkpt>
      <trkpt lat="44.75713" lon="5.88344">
        <ele>1024.2</ele>
        <time>2020-02-27T12:34:31.000Z</time>
      </trkpt>
      <trkpt lat="44.75714" lon="5.88344">
        <ele>1024.2</ele>
        <time>2020-02-27T12:34:30.000Z</time>
      </trkpt>
      <trkpt lat="44.75714" lon="5.88344">
        <ele>1024.2</ele>
        <time>2020-02-27T12:34:29.000Z</time>
      </trkpt>
      <trkpt lat="44.75714" lon="5.88343">
        <ele>1024.3</ele>
        <time>2020-02-27T12:34:28.000Z</time>
      </trkpt>
      <trkpt lat="44.75713" lon="5.88343">
        <ele>1024.3</ele>
        <time>2020-02-27T12:34:27.000Z</time>
      </trkpt>
      <trkpt lat="44.75713" lon="5.88342">
        <ele>1024.3</ele>
        <time>2020-02-27T12:34:26.000Z</time>
      </trkpt>
      <trkpt lat="44.75712" lon="5.88342">
        <ele>1024.3</ele>
        <time>2020-02-27T12:34:25.000Z</time>
      </trkpt>
      <trkpt lat="44.7571" lon="5.88342">
        <ele>1024.2</ele>
        <time>2020-02-27T12:34:24.000Z</time>
      </trkpt>
      <trkpt lat="44.7571" lon="5.88342">
        <ele>1024.2</ele>
        <time>2020-02-27T12:34:23.000Z</time>
      </trkpt>
      <trkpt lat="44.75709" lon="5.88343">
        <ele>1024.2</ele>
        <time>2020-02-27T12:34:22.000Z</time>
      </trkpt>
      <trkpt lat="44.7571" lon="5.88343">
        <ele>1024.2</ele>
        <time>2020-02-27T12:34:21.000Z</time>
      </trkpt>
      <trkpt lat="44.75709" lon="5.88343">
        <ele>1024.2</ele>
        <time>2020-02-27T12:34:20.000Z</time>
      </trkpt>
      <trkpt lat="44.75707" lon="5.88342">
        <ele>1024.2</ele>
        <time>2020-02-27T12:34:19.000Z</time>
      </trkpt>
      <trkpt lat="44.75706" lon="5.8834">
        <ele>1024.1</ele>
        <time>2020-02-27T12:34:18.000Z</time>
      </trkpt>
      <trkpt lat="44.75705" lon="5.88339">
        <ele>1024.1</ele>
        <time>2020-02-27T12:34:17.000Z</time>
      </trkpt>
      <trkpt lat="44.75705" lon="5.88336">
        <ele>1024.1</ele>
        <time>2020-02-27T12:34:16.000Z</time>
      </trkpt>
      <trkpt lat="44.75705" lon="5.88335">
        <ele>1024.1</ele>
        <time>2020-02-27T12:34:15.000Z</time>
      </trkpt>
      <trkpt lat="44.75705" lon="5.88335">
        <ele>1024.1</ele>
        <time>2020-02-27T12:34:14.000Z</time>
      </trkpt>
      <trkpt lat="44.75704" lon="5.88334">
        <ele>1024</ele>
        <time>2020-02-27T12:34:13.000Z</time>
      </trkpt>
      <trkpt lat="44.75704" lon="5.88333">
        <ele>1024</ele>
        <time>2020-02-27T12:34:12.000Z</time>
      </trkpt>
      <trkpt lat="44.75705" lon="5.88333">
        <ele>1024</ele>
        <time>2020-02-27T12:34:11.000Z</time>
      </trkpt>
      <trkpt lat="44.75704" lon="5.88333">
        <ele>1023.9</ele>
        <time>2020-02-27T12:34:10.000Z</time>
      </trkpt>
      <trkpt lat="44.75704" lon="5.88333">
        <ele>1023.9</ele>
        <time>2020-02-27T12:34:09.000Z</time>
      </trkpt>
      <trkpt lat="44.75704" lon="5.88333">
        <ele>1023.8</ele>
        <time>2020-02-27T12:34:08.000Z</time>
      </trkpt>
      <trkpt lat="44.75703" lon="5.88332">
        <ele>1023.8</ele>
        <time>2020-02-27T12:34:07.000Z</time>
      </trkpt>
      <trkpt lat="44.75702" lon="5.88332">
        <ele>1023.8</ele>
        <time>2020-02-27T12:34:06.000Z</time>
      </trkpt>
      <trkpt lat="44.75702" lon="5.88331">
        <ele>1023.7</ele>
        <time>2020-02-27T12:34:05.000Z</time>
      </trkpt>
      <trkpt lat="44.757" lon="5.88331">
        <ele>1023.7</ele>
        <time>2020-02-27T12:34:04.000Z</time>
      </trkpt>
      <trkpt lat="44.757" lon="5.8833">
        <ele>1023.6</ele>
        <time>2020-02-27T12:34:03.000Z</time>
      </trkpt>
      <trkpt lat="44.75699" lon="5.88329">
        <ele>1023.6</ele>
        <time>2020-02-27T12:34:02.000Z</time>
      </trkpt>
      <trkpt lat="44.75698" lon="5.88329">
        <ele>1023.5</ele>
        <time>2020-02-27T12:34:01.000Z</time>
      </trkpt>
      <trkpt lat="44.75697" lon="5.88329">
        <ele>1023.5</ele>
        <time>2020-02-27T12:34:00.000Z</time>
      </trkpt>
      <trkpt lat="44.75697" lon="5.88329">
        <ele>1023.4</ele>
        <time>2020-02-27T12:33:59.000Z</time>
      </trkpt>
      <trkpt lat="44.75696" lon="5.88328">
        <ele>1023.4</ele>
        <time>2020-02-27T12:33:58.000Z</time>
      </trkpt>
      <trkpt lat="44.75695" lon="5.88328">
        <ele>1023.3</ele>
        <time>2020-02-27T12:33:57.000Z</time>
      </trkpt>
      <trkpt lat="44.75694" lon="5.88328">
        <ele>1023.3</ele>
        <time>2020-02-27T12:33:56.000Z</time>
      </trkpt>
      <trkpt lat="44.75693" lon="5.88327">
        <ele>1023.3</ele>
        <time>2020-02-27T12:33:55.000Z</time>
      </trkpt>
      <trkpt lat="44.75693" lon="5.88326">
        <ele>1023.3</ele>
        <time>2020-02-27T12:33:54.000Z</time>
      </trkpt>
      <trkpt lat="44.75692" lon="5.88326">
        <ele>1023.3</ele>
        <time>2020-02-27T12:33:53.000Z</time>
      </trkpt>
      <trkpt lat="44.75691" lon="5.88326">
        <ele>1023.3</ele>
        <time>2020-02-27T12:33:52.000Z</time>
      </trkpt>
      <trkpt lat="44.7569" lon="5.88325">
        <ele>1023.3</ele>
        <time>2020-02-27T12:33:51.000Z</time>
      </trkpt>
      <trkpt lat="44.75689" lon="5.88324">
        <ele>1023.3</ele>
        <time>2020-02-27T12:33:50.000Z</time>
      </trkpt>
      <trkpt lat="44.75688" lon="5.88323">
        <ele>1023.3</ele>
        <time>2020-02-27T12:33:49.000Z</time>
      </trkpt>
      <trkpt lat="44.75687" lon="5.88322">
        <ele>1023.3</ele>
        <time>2020-02-27T12:33:48.000Z</time>
      </trkpt>
      <trkpt lat="44.75686" lon="5.88322">
        <ele>1023.3</ele>
        <time>2020-02-27T12:33:47.000Z</time>
      </trkpt>
      <trkpt lat="44.75685" lon="5.88321">
        <ele>1023.3</ele>
        <time>2020-02-27T12:33:46.000Z</time>
      </trkpt>
      <trkpt lat="44.75684" lon="5.8832">
        <ele>1023.3</ele>
        <time>2020-02-27T12:33:45.000Z</time>
      </trkpt>
      <trkpt lat="44.75683" lon="5.8832">
        <ele>1023.3</ele>
        <time>2020-02-27T12:33:44.000Z</time>
      </trkpt>
      <trkpt lat="44.75681" lon="5.8832">
        <ele>1023.3</ele>
        <time>2020-02-27T12:33:43.000Z</time>
      </trkpt>
      <trkpt lat="44.7568" lon="5.88319">
        <ele>1023.3</ele>
        <time>2020-02-27T12:33:42.000Z</time>
      </trkpt>
      <trkpt lat="44.7568" lon="5.88318">
        <ele>1023.3</ele>
        <time>2020-02-27T12:33:41.000Z</time>
      </trkpt>
      <trkpt lat="44.75679" lon="5.88317">
        <ele>1023.3</ele>
        <time>2020-02-27T12:33:40.000Z</time>
      </trkpt>
      <trkpt lat="44.75678" lon="5.88316">
        <ele>1023.3</ele>
        <time>2020-02-27T12:33:39.000Z</time>
      </trkpt>
      <trkpt lat="44.75677" lon="5.88315">
        <ele>1023.3</ele>
        <time>2020-02-27T12:33:38.000Z</time>
      </trkpt>
      <trkpt lat="44.75677" lon="5.88314">
        <ele>1023.3</ele>
        <time>2020-02-27T12:33:37.000Z</time>
      </trkpt>
      <trkpt lat="44.75677" lon="5.88312">
        <ele>1023.3</ele>
        <time>2020-02-27T12:33:36.000Z</time>
      </trkpt>
      <trkpt lat="44.75676" lon="5.8831">
        <ele>1023.3</ele>
        <time>2020-02-27T12:33:35.000Z</time>
      </trkpt>
      <trkpt lat="44.75675" lon="5.88309">
        <ele>1023.3</ele>
        <time>2020-02-27T12:33:34.000Z</time>
      </trkpt>
      <trkpt lat="44.75672" lon="5.88307">
        <ele>1023.3</ele>
        <time>2020-02-27T12:33:33.000Z</time>
      </trkpt>
      <trkpt lat="44.75672" lon="5.88306">
        <ele>1023.3</ele>
        <time>2020-02-27T12:33:32.000Z</time>
      </trkpt>
      <trkpt lat="44.75671" lon="5.88305">
        <ele>1023.3</ele>
        <time>2020-02-27T12:33:31.000Z</time>
      </trkpt>
      <trkpt lat="44.7567" lon="5.88304">
        <ele>1023.3</ele>
        <time>2020-02-27T12:33:30.000Z</time>
      </trkpt>
      <trkpt lat="44.7567" lon="5.88303">
        <ele>1023.3</ele>
        <time>2020-02-27T12:33:29.000Z</time>
      </trkpt>
      <trkpt lat="44.75669" lon="5.88306">
        <ele>1023.3</ele>
        <time>2020-02-27T12:33:28.000Z</time>
      </trkpt>
      <trkpt lat="44.75669" lon="5.88306">
        <ele>1023.3</ele>
        <time>2020-02-27T12:33:27.000Z</time>
      </trkpt>
      <trkpt lat="44.75669" lon="5.88306">
        <ele>1023.3</ele>
        <time>2020-02-27T12:33:26.000Z</time>
      </trkpt>
      <trkpt lat="44.75669" lon="5.88306">
        <ele>1023.3</ele>
        <time>2020-02-27T12:33:25.000Z</time>
      </trkpt>
      <trkpt lat="44.75669" lon="5.88306">
        <ele>1023.3</ele>
        <time>2020-02-27T12:33:24.000Z</time>
      </trkpt>
      <trkpt lat="44.75669" lon="5.88306">
        <ele>1023.3</ele>
        <time>2020-02-27T12:33:23.000Z</time>
      </trkpt>
      <trkpt lat="44.75669" lon="5.88306">
        <ele>1023.3</ele>
        <time>2020-02-27T12:33:22.000Z</time>
      </trkpt>
      <trkpt lat="44.75669" lon="5.88306">
        <ele>1023.3</ele>
        <time>2020-02-27T12:33:21.000Z</time>
      </trkpt>
      <trkpt lat="44.75669" lon="5.88306">
        <ele>1023.3</ele>
        <time>2020-02-27T12:33:20.000Z</time>
      </trkpt>
      <trkpt lat="44.75669" lon="5.88306">
        <ele>1023.3</ele>
        <time>2020-02-27T12:33:19.000Z</time>
      </trkpt>
      <trkpt lat="44.75669" lon="5.88306">
        <ele>1023.3</ele>
        <time>2020-02-27T12:33:18.000Z</time>
      </trkpt>
      <trkpt lat="44.75669" lon="5.88306">
        <ele>1023.3</ele>
        <time>2020-02-27T12:33:17.000Z</time>
      </trkpt>
      <trkpt lat="44.75669" lon="5.88306">
        <ele>1023.2</ele>
        <time>2020-02-27T12:33:16.000Z</time>
      </trkpt>
      <trkpt lat="44.75669" lon="5.88306">
        <ele>1023.2</ele>
        <time>2020-02-27T12:33:15.000Z</time>
      </trkpt>
      <trkpt lat="44.75669" lon="5.88306">
        <ele>1023.2</ele>
        <time>2020-02-27T12:33:14.000Z</time>
      </trkpt>
      <trkpt lat="44.75669" lon="5.88306">
        <ele>1023.2</ele>
        <time>2020-02-27T12:33:13.000Z</time>
      </trkpt>
      <trkpt lat="44.75669" lon="5.88306">
        <ele>1023.2</ele>
        <time>2020-02-27T12:33:12.000Z</time>
      </trkpt>
      <trkpt lat="44.75669" lon="5.88306">
        <ele>1023.2</ele>
        <time>2020-02-27T12:33:11.000Z</time>
      </trkpt>
      <trkpt lat="44.75669" lon="5.88306">
        <ele>1023.2</ele>
        <time>2020-02-27T12:33:10.000Z</time>
      </trkpt>
      <trkpt lat="44.75669" lon="5.88306">
        <ele>1023.2</ele>
        <time>2020-02-27T12:33:09.000Z</time>
      </trkpt>
      <trkpt lat="44.75669" lon="5.88306">
        <ele>1023.2</ele>
        <time>2020-02-27T12:33:08.000Z</time>
      </trkpt>
      <trkpt lat="44.75669" lon="5.88306">
        <ele>1023.2</ele>
        <time>2020-02-27T12:33:07.000Z</time>
      </trkpt>
      <trkpt lat="44.75669" lon="5.88306">
        <ele>1023.2</ele>
        <time>2020-02-27T12:33:06.000Z</time>
      </trkpt>
      <trkpt lat="44.75669" lon="5.88306">
        <ele>1023.2</ele>
        <time>2020-02-27T12:33:05.000Z</time>
      </trkpt>
      <trkpt lat="44.75669" lon="5.88306">
        <ele>1023.2</ele>
        <time>2020-02-27T12:33:04.000Z</time>
      </trkpt>
      <trkpt lat="44.75669" lon="5.88306">
        <ele>1023.2</ele>
        <time>2020-02-27T12:33:03.000Z</time>
      </trkpt>
      <trkpt lat="44.75669" lon="5.88306">
        <ele>1023.2</ele>
        <time>2020-02-27T12:33:02.000Z</time>
      </trkpt>
      <trkpt lat="44.75669" lon="5.88306">
        <ele>1023.2</ele>
        <time>2020-02-27T12:33:01.000Z</time>
      </trkpt>
      <trkpt lat="44.75669" lon="5.88306">
        <ele>1023.2</ele>
        <time>2020-02-27T12:33:00.000Z</time>
      </trkpt>
      <trkpt lat="44.75669" lon="5.88306">
        <ele>1023.2</ele>
        <time>2020-02-27T12:32:59.000Z</time>
      </trkpt>
      <trkpt lat="44.75669" lon="5.88306">
        <ele>1023.2</ele>
        <time>2020-02-27T12:32:58.000Z</time>
      </trkpt>
      <trkpt lat="44.75669" lon="5.88306">
        <ele>1023.2</ele>
        <time>2020-02-27T12:32:57.000Z</time>
      </trkpt>
      <trkpt lat="44.75669" lon="5.88306">
        <ele>1023.2</ele>
        <time>2020-02-27T12:32:56.000Z</time>
      </trkpt>
      <trkpt lat="44.75669" lon="5.88306">
        <ele>1023.2</ele>
        <time>2020-02-27T12:32:55.000Z</time>
      </trkpt>
      <trkpt lat="44.75669" lon="5.88306">
        <ele>1023.2</ele>
        <time>2020-02-27T12:32:54.000Z</time>
      </trkpt>
      <trkpt lat="44.75669" lon="5.88306">
        <ele>1023.1</ele>
        <time>2020-02-27T12:32:53.000Z</time>
      </trkpt>
      <trkpt lat="44.75669" lon="5.88306">
        <ele>1023.1</ele>
        <time>2020-02-27T12:32:52.000Z</time>
      </trkpt>
      <trkpt lat="44.75669" lon="5.88306">
        <ele>1023.1</ele>
        <time>2020-02-27T12:32:51.000Z</time>
      </trkpt>
      <trkpt lat="44.75669" lon="5.88306">
        <ele>1023.1</ele>
        <time>2020-02-27T12:32:50.000Z</time>
      </trkpt>
      <trkpt lat="44.75669" lon="5.88306">
        <ele>1023.1</ele>
        <time>2020-02-27T12:32:49.000Z</time>
      </trkpt>
      <trkpt lat="44.75669" lon="5.88306">
        <ele>1023.1</ele>
        <time>2020-02-27T12:32:48.000Z</time>
      </trkpt>
      <trkpt lat="44.75669" lon="5.88306">
        <ele>1023.1</ele>
        <time>2020-02-27T12:32:47.000Z</time>
      </trkpt>
      <trkpt lat="44.75669" lon="5.88306">
        <ele>1023.1</ele>
        <time>2020-02-27T12:32:46.000Z</time>
      </trkpt>
      <trkpt lat="44.75669" lon="5.88306">
        <ele>1023.1</ele>
        <time>2020-02-27T12:32:45.000Z</time>
      </trkpt>
      <trkpt lat="44.75669" lon="5.88306">
        <ele>1023</ele>
        <time>2020-02-27T12:32:44.000Z</time>
      </trkpt>
      <trkpt lat="44.75669" lon="5.88306">
        <ele>1023</ele>
        <time>2020-02-27T12:32:43.000Z</time>
      </trkpt>
      <trkpt lat="44.75669" lon="5.88306">
        <ele>1023</ele>
        <time>2020-02-27T12:32:42.000Z</time>
      </trkpt>
      <trkpt lat="44.75669" lon="5.88306">
        <ele>1023</ele>
        <time>2020-02-27T12:32:41.000Z</time>
      </trkpt>
      <trkpt lat="44.75669" lon="5.88306">
        <ele>1023</ele>
        <time>2020-02-27T12:32:40.000Z</time>
      </trkpt>
      <trkpt lat="44.75669" lon="5.88306">
        <ele>1023</ele>
        <time>2020-02-27T12:32:39.000Z</time>
      </trkpt>
      <trkpt lat="44.75669" lon="5.88306">
        <ele>1022.9</ele>
        <time>2020-02-27T12:32:38.000Z</time>
      </trkpt>
      <trkpt lat="44.75669" lon="5.88306">
        <ele>1022.9</ele>
        <time>2020-02-27T12:32:37.000Z</time>
      </trkpt>
      <trkpt lat="44.75669" lon="5.88306">
        <ele>1022.9</ele>
        <time>2020-02-27T12:32:36.000Z</time>
      </trkpt>
      <trkpt lat="44.75669" lon="5.88306">
        <ele>1022.9</ele>
        <time>2020-02-27T12:32:35.000Z</time>
      </trkpt>
      <trkpt lat="44.75669" lon="5.88306">
        <ele>1022.8</ele>
        <time>2020-02-27T12:32:34.000Z</time>
      </trkpt>
      <trkpt lat="44.75669" lon="5.88306">
        <ele>1022.8</ele>
        <time>2020-02-27T12:32:33.000Z</time>
      </trkpt>
      <trkpt lat="44.75669" lon="5.88306">
        <ele>1022.8</ele>
        <time>2020-02-27T12:32:32.000Z</time>
      </trkpt>
      <trkpt lat="44.75669" lon="5.88306">
        <ele>1022.8</ele>
        <time>2020-02-27T12:32:31.000Z</time>
      </trkpt>
      <trkpt lat="44.75669" lon="5.88306">
        <ele>1022.7</ele>
        <time>2020-02-27T12:32:30.000Z</time>
      </trkpt>
      <trkpt lat="44.75669" lon="5.88306">
        <ele>1022.7</ele>
        <time>2020-02-27T12:32:29.000Z</time>
      </trkpt>
      <trkpt lat="44.75669" lon="5.88306">
        <ele>1022.7</ele>
        <time>2020-02-27T12:32:28.000Z</time>
      </trkpt>
      <trkpt lat="44.75669" lon="5.88306">
        <ele>1022.6</ele>
        <time>2020-02-27T12:32:27.000Z</time>
      </trkpt>
      <trkpt lat="44.75669" lon="5.88306">
        <ele>1022.6</ele>
        <time>2020-02-27T12:32:26.000Z</time>
      </trkpt>
      <trkpt lat="44.75669" lon="5.88306">
        <ele>1022.6</ele>
        <time>2020-02-27T12:32:25.000Z</time>
      </trkpt>
      <trkpt lat="44.75669" lon="5.88306">
        <ele>1022.5</ele>
        <time>2020-02-27T12:32:24.000Z</time>
      </trkpt>
      <trkpt lat="44.75669" lon="5.88306">
        <ele>1022.5</ele>
        <time>2020-02-27T12:32:23.000Z</time>
      </trkpt>
      <trkpt lat="44.75669" lon="5.88306">
        <ele>1022.4</ele>
        <time>2020-02-27T12:32:22.000Z</time>
      </trkpt>
      <trkpt lat="44.75669" lon="5.88306">
        <ele>1022.4</ele>
        <time>2020-02-27T12:32:21.000Z</time>
      </trkpt>
      <trkpt lat="44.75669" lon="5.88306">
        <ele>1022.3</ele>
        <time>2020-02-27T12:32:20.000Z</time>
      </trkpt>
      <trkpt lat="44.75669" lon="5.88306">
        <ele>1022.3</ele>
        <time>2020-02-27T12:32:19.000Z</time>
      </trkpt>
      <trkpt lat="44.75669" lon="5.88306">
        <ele>1022.2</ele>
        <time>2020-02-27T12:32:18.000Z</time>
      </trkpt>
      <trkpt lat="44.75669" lon="5.88306">
        <ele>1022.1</ele>
        <time>2020-02-27T12:32:17.000Z</time>
      </trkpt>
      <trkpt lat="44.75669" lon="5.88306">
        <ele>1022.1</ele>
        <time>2020-02-27T12:32:16.000Z</time>
      </trkpt>
      <trkpt lat="44.75669" lon="5.88306">
        <ele>1022</ele>
        <time>2020-02-27T12:32:15.000Z</time>
      </trkpt>
      <trkpt lat="44.75669" lon="5.88306">
        <ele>1021.9</ele>
        <time>2020-02-27T12:32:14.000Z</time>
      </trkpt>
      <trkpt lat="44.75669" lon="5.88306">
        <ele>1021.8</ele>
        <time>2020-02-27T12:32:13.000Z</time>
      </trkpt>
      <trkpt lat="44.75669" lon="5.88306">
        <ele>1021.7</ele>
        <time>2020-02-27T12:32:12.000Z</time>
      </trkpt>
      <trkpt lat="44.75669" lon="5.88306">
        <ele>1021.6</ele>
        <time>2020-02-27T12:32:11.000Z</time>
      </trkpt>
      <trkpt lat="44.75669" lon="5.88306">
        <ele>1021.5</ele>
        <time>2020-02-27T12:32:10.000Z</time>
      </trkpt>
      <trkpt lat="44.75669" lon="5.88306">
        <ele>1021.4</ele>
        <time>2020-02-27T12:32:09.000Z</time>
      </trkpt>
      <trkpt lat="44.75669" lon="5.88306">
        <ele>1021.3</ele>
        <time>2020-02-27T12:32:08.000Z</time>
      </trkpt>
      <trkpt lat="44.75669" lon="5.88306">
        <ele>1021.2</ele>
        <time>2020-02-27T12:32:07.000Z</time>
      </trkpt>
      <trkpt lat="44.75669" lon="5.88306">
        <ele>1021.1</ele>
        <time>2020-02-27T12:32:06.000Z</time>
      </trkpt>
      <trkpt lat="44.75669" lon="5.88306">
        <ele>1021</ele>
        <time>2020-02-27T12:32:05.000Z</time>
      </trkpt>
      <trkpt lat="44.75669" lon="5.88306">
        <ele>1020.8</ele>
        <time>2020-02-27T12:32:04.000Z</time>
      </trkpt>
      <trkpt lat="44.75669" lon="5.88306">
        <ele>1020.7</ele>
        <time>2020-02-27T12:32:03.000Z</time>
      </trkpt>
      <trkpt lat="44.75669" lon="5.88305">
        <ele>1020.5</ele>
        <time>2020-02-27T12:32:02.000Z</time>
      </trkpt>
      <trkpt lat="44.7567" lon="5.88304">
        <ele>1020.4</ele>
        <time>2020-02-27T12:32:01.000Z</time>
      </trkpt>
      <trkpt lat="44.7567" lon="5.88303">
        <ele>1020.2</ele>
        <time>2020-02-27T12:32:00.000Z</time>
      </trkpt>
      <trkpt lat="44.7567" lon="5.88302">
        <ele>1020</ele>
        <time>2020-02-27T12:31:59.000Z</time>
      </trkpt>
      <trkpt lat="44.7567" lon="5.88301">
        <ele>1019.9</ele>
        <time>2020-02-27T12:31:58.000Z</time>
      </trkpt>
      <trkpt lat="44.7567" lon="5.88301">
        <ele>1019.7</ele>
        <time>2020-02-27T12:31:57.000Z</time>
      </trkpt>
      <trkpt lat="44.75669" lon="5.88301">
        <ele>1019.5</ele>
        <time>2020-02-27T12:31:56.000Z</time>
      </trkpt>
      <trkpt lat="44.75669" lon="5.88301">
        <ele>1019.3</ele>
        <time>2020-02-27T12:31:55.000Z</time>
      </trkpt>
      <trkpt lat="44.75669" lon="5.88301">
        <ele>1019.1</ele>
        <time>2020-02-27T12:31:54.000Z</time>
      </trkpt>
      <trkpt lat="44.75668" lon="5.88301">
        <ele>1018.9</ele>
        <time>2020-02-27T12:31:53.000Z</time>
      </trkpt>
      <trkpt lat="44.75667" lon="5.88301">
        <ele>1018.7</ele>
        <time>2020-02-27T12:31:52.000Z</time>
      </trkpt>
      <trkpt lat="44.75667" lon="5.88301">
        <ele>1018.5</ele>
        <time>2020-02-27T12:31:51.000Z</time>
      </trkpt>
      <trkpt lat="44.75666" lon="5.88301">
        <ele>1018.3</ele>
        <time>2020-02-27T12:31:50.000Z</time>
      </trkpt>
      <trkpt lat="44.75665" lon="5.88301">
        <ele>1018.1</ele>
        <time>2020-02-27T12:31:49.000Z</time>
      </trkpt>
      <trkpt lat="44.75665" lon="5.88301">
        <ele>1018</ele>
        <time>2020-02-27T12:31:48.000Z</time>
      </trkpt>
      <trkpt lat="44.75664" lon="5.883">
        <ele>1017.8</ele>
        <time>2020-02-27T12:31:47.000Z</time>
      </trkpt>
      <trkpt lat="44.75664" lon="5.883">
        <ele>1017.7</ele>
        <time>2020-02-27T12:31:46.000Z</time>
      </trkpt>
      <trkpt lat="44.75663" lon="5.883">
        <ele>1017.5</ele>
        <time>2020-02-27T12:31:45.000Z</time>
      </trkpt>
      <trkpt lat="44.75663" lon="5.88299">
        <ele>1017.3</ele>
        <time>2020-02-27T12:31:44.000Z</time>
      </trkpt>
      <trkpt lat="44.75662" lon="5.88299">
        <ele>1017.1</ele>
        <time>2020-02-27T12:31:43.000Z</time>
      </trkpt>
      <trkpt lat="44.75662" lon="5.88299">
        <ele>1016.9</ele>
        <time>2020-02-27T12:31:42.000Z</time>
      </trkpt>
      <trkpt lat="44.75661" lon="5.88298">
        <ele>1016.7</ele>
        <time>2020-02-27T12:31:41.000Z</time>
      </trkpt>
      <trkpt lat="44.75661" lon="5.88298">
        <ele>1016.5</ele>
        <time>2020-02-27T12:31:40.000Z</time>
      </trkpt>
      <trkpt lat="44.7566" lon="5.88298">
        <ele>1016.3</ele>
        <time>2020-02-27T12:31:39.000Z</time>
      </trkpt>
      <trkpt lat="44.75659" lon="5.88299">
        <ele>1016.1</ele>
        <time>2020-02-27T12:31:38.000Z</time>
      </trkpt>
      <trkpt lat="44.75658" lon="5.88299">
        <ele>1015.9</ele>
        <time>2020-02-27T12:31:37.000Z</time>
      </trkpt>
      <trkpt lat="44.75657" lon="5.88299">
        <ele>1015.7</ele>
        <time>2020-02-27T12:31:36.000Z</time>
      </trkpt>
      <trkpt lat="44.75656" lon="5.88299">
        <ele>1015.5</ele>
        <time>2020-02-27T12:31:35.000Z</time>
      </trkpt>
      <trkpt lat="44.75655" lon="5.88299">
        <ele>1015.3</ele>
        <time>2020-02-27T12:31:34.000Z</time>
      </trkpt>
      <trkpt lat="44.75654" lon="5.883">
        <ele>1015.1</ele>
        <time>2020-02-27T12:31:33.000Z</time>
      </trkpt>
      <trkpt lat="44.75654" lon="5.883">
        <ele>1014.9</ele>
        <time>2020-02-27T12:31:32.000Z</time>
      </trkpt>
      <trkpt lat="44.75653" lon="5.883">
        <ele>1014.8</ele>
        <time>2020-02-27T12:31:31.000Z</time>
      </trkpt>
      <trkpt lat="44.75652" lon="5.88301">
        <ele>1014.6</ele>
        <time>2020-02-27T12:31:30.000Z</time>
      </trkpt>
      <trkpt lat="44.75652" lon="5.88301">
        <ele>1014.4</ele>
        <time>2020-02-27T12:31:29.000Z</time>
      </trkpt>
      <trkpt lat="44.75651" lon="5.88301">
        <ele>1014.2</ele>
        <time>2020-02-27T12:31:28.000Z</time>
      </trkpt>
      <trkpt lat="44.75651" lon="5.88301">
        <ele>1014.1</ele>
        <time>2020-02-27T12:31:27.000Z</time>
      </trkpt>
      <trkpt lat="44.7565" lon="5.88302">
        <ele>1013.9</ele>
        <time>2020-02-27T12:31:26.000Z</time>
      </trkpt>
      <trkpt lat="44.7565" lon="5.88303">
        <ele>1013.7</ele>
        <time>2020-02-27T12:31:25.000Z</time>
      </trkpt>
      <trkpt lat="44.7565" lon="5.88303">
        <ele>1013.5</ele>
        <time>2020-02-27T12:31:24.000Z</time>
      </trkpt>
      <trkpt lat="44.75649" lon="5.88304">
        <ele>1013.3</ele>
        <time>2020-02-27T12:31:23.000Z</time>
      </trkpt>
      <trkpt lat="44.7565" lon="5.88304">
        <ele>1013.1</ele>
        <time>2020-02-27T12:31:22.000Z</time>
      </trkpt>
      <trkpt lat="44.7565" lon="5.88305">
        <ele>1013</ele>
        <time>2020-02-27T12:31:21.000Z</time>
      </trkpt>
      <trkpt lat="44.7565" lon="5.88306">
        <ele>1012.8</ele>
        <time>2020-02-27T12:31:20.000Z</time>
      </trkpt>
      <trkpt lat="44.7565" lon="5.88308">
        <ele>1012.6</ele>
        <time>2020-02-27T12:31:19.000Z</time>
      </trkpt>
      <trkpt lat="44.7565" lon="5.88308">
        <ele>1012.4</ele>
        <time>2020-02-27T12:31:18.000Z</time>
      </trkpt>
      <trkpt lat="44.7565" lon="5.88309">
        <ele>1012.3</ele>
        <time>2020-02-27T12:31:17.000Z</time>
      </trkpt>
      <trkpt lat="44.75651" lon="5.88319">
        <ele>1012.2</ele>
        <time>2020-02-27T12:31:16.000Z</time>
      </trkpt>
      <trkpt lat="44.75651" lon="5.88319">
        <ele>1012</ele>
        <time>2020-02-27T12:31:15.000Z</time>
      </trkpt>
      <trkpt lat="44.75651" lon="5.88319">
        <ele>1011.9</ele>
        <time>2020-02-27T12:31:14.000Z</time>
      </trkpt>
      <trkpt lat="44.75651" lon="5.88319">
        <ele>1011.7</ele>
        <time>2020-02-27T12:31:13.000Z</time>
      </trkpt>
      <trkpt lat="44.75651" lon="5.88319">
        <ele>1011.6</ele>
        <time>2020-02-27T12:31:12.000Z</time>
      </trkpt>
      <trkpt lat="44.75651" lon="5.88319">
        <ele>1011.4</ele>
        <time>2020-02-27T12:31:11.000Z</time>
      </trkpt>
      <trkpt lat="44.75651" lon="5.88319">
        <ele>1011.2</ele>
        <time>2020-02-27T12:31:10.000Z</time>
      </trkpt>
      <trkpt lat="44.75651" lon="5.88319">
        <ele>1011</ele>
        <time>2020-02-27T12:31:09.000Z</time>
      </trkpt>
      <trkpt lat="44.75651" lon="5.88319">
        <ele>1010.8</ele>
        <time>2020-02-27T12:31:08.000Z</time>
      </trkpt>
      <trkpt lat="44.75651" lon="5.8832">
        <ele>1010.6</ele>
        <time>2020-02-27T12:31:07.000Z</time>
      </trkpt>
      <trkpt lat="44.75651" lon="5.8832">
        <ele>1010.5</ele>
        <time>2020-02-27T12:31:06.000Z</time>
      </trkpt>
      <trkpt lat="44.75652" lon="5.88321">
        <ele>1010.4</ele>
        <time>2020-02-27T12:31:05.000Z</time>
      </trkpt>
      <trkpt lat="44.75652" lon="5.88322">
        <ele>1010.2</ele>
        <time>2020-02-27T12:31:04.000Z</time>
      </trkpt>
      <trkpt lat="44.75654" lon="5.88326">
        <ele>1010.1</ele>
        <time>2020-02-27T12:31:03.000Z</time>
      </trkpt>
      <trkpt lat="44.75654" lon="5.88326">
        <ele>1010</ele>
        <time>2020-02-27T12:31:02.000Z</time>
      </trkpt>
      <trkpt lat="44.75654" lon="5.88326">
        <ele>1009.9</ele>
        <time>2020-02-27T12:31:01.000Z</time>
      </trkpt>
      <trkpt lat="44.75654" lon="5.88326">
        <ele>1009.7</ele>
        <time>2020-02-27T12:31:00.000Z</time>
      </trkpt>
      <trkpt lat="44.75654" lon="5.88326">
        <ele>1009.6</ele>
        <time>2020-02-27T12:30:59.000Z</time>
      </trkpt>
      <trkpt lat="44.75654" lon="5.88326">
        <ele>1009.5</ele>
        <time>2020-02-27T12:30:58.000Z</time>
      </trkpt>
      <trkpt lat="44.75654" lon="5.88327">
        <ele>1009.4</ele>
        <time>2020-02-27T12:30:57.000Z</time>
      </trkpt>
      <trkpt lat="44.75654" lon="5.88328">
        <ele>1009.3</ele>
        <time>2020-02-27T12:30:56.000Z</time>
      </trkpt>
      <trkpt lat="44.75654" lon="5.88328">
        <ele>1009.2</ele>
        <time>2020-02-27T12:30:55.000Z</time>
      </trkpt>
      <trkpt lat="44.75654" lon="5.88329">
        <ele>1009</ele>
        <time>2020-02-27T12:30:54.000Z</time>
      </trkpt>
      <trkpt lat="44.75654" lon="5.88329">
        <ele>1008.9</ele>
        <time>2020-02-27T12:30:53.000Z</time>
      </trkpt>
      <trkpt lat="44.75654" lon="5.8833">
        <ele>1008.8</ele>
        <time>2020-02-27T12:30:52.000Z</time>
      </trkpt>
      <trkpt lat="44.75655" lon="5.8833">
        <ele>1008.6</ele>
        <time>2020-02-27T12:30:51.000Z</time>
      </trkpt>
      <trkpt lat="44.75655" lon="5.88331">
        <ele>1008.5</ele>
        <time>2020-02-27T12:30:50.000Z</time>
      </trkpt>
      <trkpt lat="44.75656" lon="5.88332">
        <ele>1008.4</ele>
        <time>2020-02-27T12:30:49.000Z</time>
      </trkpt>
      <trkpt lat="44.75656" lon="5.88332">
        <ele>1008.3</ele>
        <time>2020-02-27T12:30:48.000Z</time>
      </trkpt>
      <trkpt lat="44.75657" lon="5.88333">
        <ele>1008.1</ele>
        <time>2020-02-27T12:30:47.000Z</time>
      </trkpt>
      <trkpt lat="44.75657" lon="5.88334">
        <ele>1008</ele>
        <time>2020-02-27T12:30:46.000Z</time>
      </trkpt>
      <trkpt lat="44.75657" lon="5.88335">
        <ele>1007.9</ele>
        <time>2020-02-27T12:30:45.000Z</time>
      </trkpt>
      <trkpt lat="44.75657" lon="5.88335">
        <ele>1007.8</ele>
        <time>2020-02-27T12:30:44.000Z</time>
      </trkpt>
      <trkpt lat="44.75656" lon="5.88336">
        <ele>1007.6</ele>
        <time>2020-02-27T12:30:43.000Z</time>
      </trkpt>
      <trkpt lat="44.75656" lon="5.88337">
        <ele>1007.5</ele>
        <time>2020-02-27T12:30:42.000Z</time>
      </trkpt>
      <trkpt lat="44.75655" lon="5.88336">
        <ele>1007.4</ele>
        <time>2020-02-27T12:30:41.000Z</time>
      </trkpt>
      <trkpt lat="44.75654" lon="5.88336">
        <ele>1007.3</ele>
        <time>2020-02-27T12:30:40.000Z</time>
      </trkpt>
      <trkpt lat="44.75653" lon="5.88336">
        <ele>1007.2</ele>
        <time>2020-02-27T12:30:39.000Z</time>
      </trkpt>
      <trkpt lat="44.75651" lon="5.88335">
        <ele>1007</ele>
        <time>2020-02-27T12:30:38.000Z</time>
      </trkpt>
      <trkpt lat="44.7565" lon="5.88335">
        <ele>1006.9</ele>
        <time>2020-02-27T12:30:37.000Z</time>
      </trkpt>
      <trkpt lat="44.75649" lon="5.88334">
        <ele>1006.8</ele>
        <time>2020-02-27T12:30:36.000Z</time>
      </trkpt>
      <trkpt lat="44.75648" lon="5.88334">
        <ele>1006.6</ele>
        <time>2020-02-27T12:30:35.000Z</time>
      </trkpt>
      <trkpt lat="44.75646" lon="5.88335">
        <ele>1006.5</ele>
        <time>2020-02-27T12:30:34.000Z</time>
      </trkpt>
      <trkpt lat="44.75645" lon="5.88334">
        <ele>1006.3</ele>
        <time>2020-02-27T12:30:33.000Z</time>
      </trkpt>
      <trkpt lat="44.75644" lon="5.88334">
        <ele>1006.1</ele>
        <time>2020-02-27T12:30:32.000Z</time>
      </trkpt>
      <trkpt lat="44.75642" lon="5.88334">
        <ele>1006</ele>
        <time>2020-02-27T12:30:31.000Z</time>
      </trkpt>
      <trkpt lat="44.75641" lon="5.88334">
        <ele>1005.8</ele>
        <time>2020-02-27T12:30:30.000Z</time>
      </trkpt>
      <trkpt lat="44.75641" lon="5.88333">
        <ele>1005.6</ele>
        <time>2020-02-27T12:30:29.000Z</time>
      </trkpt>
      <trkpt lat="44.7564" lon="5.88332">
        <ele>1005.5</ele>
        <time>2020-02-27T12:30:28.000Z</time>
      </trkpt>
      <trkpt lat="44.7564" lon="5.88332">
        <ele>1005.3</ele>
        <time>2020-02-27T12:30:27.000Z</time>
      </trkpt>
      <trkpt lat="44.75639" lon="5.88332">
        <ele>1005.2</ele>
        <time>2020-02-27T12:30:26.000Z</time>
      </trkpt>
      <trkpt lat="44.75638" lon="5.88333">
        <ele>1005.1</ele>
        <time>2020-02-27T12:30:25.000Z</time>
      </trkpt>
      <trkpt lat="44.75637" lon="5.88333">
        <ele>1005</ele>
        <time>2020-02-27T12:30:24.000Z</time>
      </trkpt>
      <trkpt lat="44.75637" lon="5.88333">
        <ele>1004.8</ele>
        <time>2020-02-27T12:30:23.000Z</time>
      </trkpt>
      <trkpt lat="44.75636" lon="5.88333">
        <ele>1004.7</ele>
        <time>2020-02-27T12:30:22.000Z</time>
      </trkpt>
      <trkpt lat="44.75636" lon="5.88333">
        <ele>1004.6</ele>
        <time>2020-02-27T12:30:21.000Z</time>
      </trkpt>
      <trkpt lat="44.75635" lon="5.88333">
        <ele>1004.4</ele>
        <time>2020-02-27T12:30:20.000Z</time>
      </trkpt>
      <trkpt lat="44.75634" lon="5.88334">
        <ele>1004.3</ele>
        <time>2020-02-27T12:30:19.000Z</time>
      </trkpt>
      <trkpt lat="44.75633" lon="5.88334">
        <ele>1004.2</ele>
        <time>2020-02-27T12:30:18.000Z</time>
      </trkpt>
      <trkpt lat="44.75632" lon="5.88335">
        <ele>1004</ele>
        <time>2020-02-27T12:30:17.000Z</time>
      </trkpt>
      <trkpt lat="44.75631" lon="5.88335">
        <ele>1003.9</ele>
        <time>2020-02-27T12:30:16.000Z</time>
      </trkpt>
      <trkpt lat="44.7563" lon="5.88335">
        <ele>1003.7</ele>
        <time>2020-02-27T12:30:15.000Z</time>
      </trkpt>
      <trkpt lat="44.75629" lon="5.88335">
        <ele>1003.6</ele>
        <time>2020-02-27T12:30:14.000Z</time>
      </trkpt>
      <trkpt lat="44.75628" lon="5.88335">
        <ele>1003.5</ele>
        <time>2020-02-27T12:30:13.000Z</time>
      </trkpt>
      <trkpt lat="44.75626" lon="5.88335">
        <ele>1003.4</ele>
        <time>2020-02-27T12:30:12.000Z</time>
      </trkpt>
      <trkpt lat="44.75626" lon="5.88335">
        <ele>1003.2</ele>
        <time>2020-02-27T12:30:11.000Z</time>
      </trkpt>
      <trkpt lat="44.75625" lon="5.88336">
        <ele>1003.2</ele>
        <time>2020-02-27T12:30:10.000Z</time>
      </trkpt>
      <trkpt lat="44.75624" lon="5.88336">
        <ele>1003.1</ele>
        <time>2020-02-27T12:30:09.000Z</time>
      </trkpt>
      <trkpt lat="44.75623" lon="5.88336">
        <ele>1003</ele>
        <time>2020-02-27T12:30:08.000Z</time>
      </trkpt>
      <trkpt lat="44.75622" lon="5.88336">
        <ele>1002.9</ele>
        <time>2020-02-27T12:30:07.000Z</time>
      </trkpt>
      <trkpt lat="44.75621" lon="5.88335">
        <ele>1002.8</ele>
        <time>2020-02-27T12:30:06.000Z</time>
      </trkpt>
      <trkpt lat="44.7562" lon="5.88335">
        <ele>1002.6</ele>
        <time>2020-02-27T12:30:05.000Z</time>
      </trkpt>
      <trkpt lat="44.75619" lon="5.88336">
        <ele>1002.5</ele>
        <time>2020-02-27T12:30:04.000Z</time>
      </trkpt>
      <trkpt lat="44.75618" lon="5.88336">
        <ele>1002.4</ele>
        <time>2020-02-27T12:30:03.000Z</time>
      </trkpt>
      <trkpt lat="44.75618" lon="5.88335">
        <ele>1002.3</ele>
        <time>2020-02-27T12:30:02.000Z</time>
      </trkpt>
      <trkpt lat="44.75618" lon="5.88335">
        <ele>1002.1</ele>
        <time>2020-02-27T12:30:01.000Z</time>
      </trkpt>
      <trkpt lat="44.75617" lon="5.88334">
        <ele>1001.9</ele>
        <time>2020-02-27T12:30:00.000Z</time>
      </trkpt>
      <trkpt lat="44.75616" lon="5.88334">
        <ele>1001.8</ele>
        <time>2020-02-27T12:29:59.000Z</time>
      </trkpt>
      <trkpt lat="44.75616" lon="5.88334">
        <ele>1001.6</ele>
        <time>2020-02-27T12:29:58.000Z</time>
      </trkpt>
      <trkpt lat="44.75614" lon="5.88334">
        <ele>1001.4</ele>
        <time>2020-02-27T12:29:57.000Z</time>
      </trkpt>
      <trkpt lat="44.75613" lon="5.88335">
        <ele>1001.3</ele>
        <time>2020-02-27T12:29:56.000Z</time>
      </trkpt>
      <trkpt lat="44.75613" lon="5.88335">
        <ele>1001.1</ele>
        <time>2020-02-27T12:29:55.000Z</time>
      </trkpt>
      <trkpt lat="44.75612" lon="5.88336">
        <ele>1001</ele>
        <time>2020-02-27T12:29:54.000Z</time>
      </trkpt>
      <trkpt lat="44.75612" lon="5.88336">
        <ele>1000.8</ele>
        <time>2020-02-27T12:29:53.000Z</time>
      </trkpt>
      <trkpt lat="44.75611" lon="5.88336">
        <ele>1000.7</ele>
        <time>2020-02-27T12:29:52.000Z</time>
      </trkpt>
      <trkpt lat="44.7561" lon="5.88337">
        <ele>1000.5</ele>
        <time>2020-02-27T12:29:51.000Z</time>
      </trkpt>
      <trkpt lat="44.7561" lon="5.88337">
        <ele>1000.4</ele>
        <time>2020-02-27T12:29:50.000Z</time>
      </trkpt>
      <trkpt lat="44.75608" lon="5.88338">
        <ele>1000.2</ele>
        <time>2020-02-27T12:29:49.000Z</time>
      </trkpt>
      <trkpt lat="44.75608" lon="5.88339">
        <ele>1000</ele>
        <time>2020-02-27T12:29:48.000Z</time>
      </trkpt>
      <trkpt lat="44.75607" lon="5.88339">
        <ele>999.9</ele>
        <time>2020-02-27T12:29:47.000Z</time>
      </trkpt>
      <trkpt lat="44.75605" lon="5.8834">
        <ele>999.7</ele>
        <time>2020-02-27T12:29:46.000Z</time>
      </trkpt>
      <trkpt lat="44.75603" lon="5.88342">
        <ele>999.6</ele>
        <time>2020-02-27T12:29:45.000Z</time>
      </trkpt>
      <trkpt lat="44.75602" lon="5.88342">
        <ele>999.4</ele>
        <time>2020-02-27T12:29:44.000Z</time>
      </trkpt>
      <trkpt lat="44.75602" lon="5.88342">
        <ele>999.3</ele>
        <time>2020-02-27T12:29:43.000Z</time>
      </trkpt>
      <trkpt lat="44.75602" lon="5.88342">
        <ele>999.1</ele>
        <time>2020-02-27T12:29:42.000Z</time>
      </trkpt>
      <trkpt lat="44.75601" lon="5.88342">
        <ele>999</ele>
        <time>2020-02-27T12:29:41.000Z</time>
      </trkpt>
      <trkpt lat="44.756" lon="5.88343">
        <ele>998.8</ele>
        <time>2020-02-27T12:29:40.000Z</time>
      </trkpt>
      <trkpt lat="44.756" lon="5.88343">
        <ele>998.7</ele>
        <time>2020-02-27T12:29:39.000Z</time>
      </trkpt>
      <trkpt lat="44.756" lon="5.88343">
        <ele>998.6</ele>
        <time>2020-02-27T12:29:38.000Z</time>
      </trkpt>
      <trkpt lat="44.75599" lon="5.88343">
        <ele>998.4</ele>
        <time>2020-02-27T12:29:37.000Z</time>
      </trkpt>
      <trkpt lat="44.75599" lon="5.88343">
        <ele>998.3</ele>
        <time>2020-02-27T12:29:36.000Z</time>
      </trkpt>
      <trkpt lat="44.75599" lon="5.88343">
        <ele>998.1</ele>
        <time>2020-02-27T12:29:35.000Z</time>
      </trkpt>
      <trkpt lat="44.75598" lon="5.88342">
        <ele>998</ele>
        <time>2020-02-27T12:29:34.000Z</time>
      </trkpt>
      <trkpt lat="44.75597" lon="5.88342">
        <ele>997.9</ele>
        <time>2020-02-27T12:29:33.000Z</time>
      </trkpt>
      <trkpt lat="44.75596" lon="5.88342">
        <ele>997.8</ele>
        <time>2020-02-27T12:29:32.000Z</time>
      </trkpt>
      <trkpt lat="44.75595" lon="5.88342">
        <ele>997.6</ele>
        <time>2020-02-27T12:29:31.000Z</time>
      </trkpt>
      <trkpt lat="44.75594" lon="5.88341">
        <ele>997.5</ele>
        <time>2020-02-27T12:29:30.000Z</time>
      </trkpt>
      <trkpt lat="44.75594" lon="5.8834">
        <ele>997.4</ele>
        <time>2020-02-27T12:29:29.000Z</time>
      </trkpt>
      <trkpt lat="44.75593" lon="5.8834">
        <ele>997.2</ele>
        <time>2020-02-27T12:29:28.000Z</time>
      </trkpt>
      <trkpt lat="44.75592" lon="5.88339">
        <ele>997.1</ele>
        <time>2020-02-27T12:29:27.000Z</time>
      </trkpt>
      <trkpt lat="44.75591" lon="5.88338">
        <ele>997</ele>
        <time>2020-02-27T12:29:26.000Z</time>
      </trkpt>
      <trkpt lat="44.75591" lon="5.88337">
        <ele>996.9</ele>
        <time>2020-02-27T12:29:25.000Z</time>
      </trkpt>
      <trkpt lat="44.7559" lon="5.88336">
        <ele>996.7</ele>
        <time>2020-02-27T12:29:24.000Z</time>
      </trkpt>
      <trkpt lat="44.7559" lon="5.88335">
        <ele>996.6</ele>
        <time>2020-02-27T12:29:23.000Z</time>
      </trkpt>
      <trkpt lat="44.75589" lon="5.88334">
        <ele>996.5</ele>
        <time>2020-02-27T12:29:22.000Z</time>
      </trkpt>
      <trkpt lat="44.75589" lon="5.88333">
        <ele>996.4</ele>
        <time>2020-02-27T12:29:21.000Z</time>
      </trkpt>
      <trkpt lat="44.75589" lon="5.88332">
        <ele>996.3</ele>
        <time>2020-02-27T12:29:20.000Z</time>
      </trkpt>
      <trkpt lat="44.75589" lon="5.88331">
        <ele>996.2</ele>
        <time>2020-02-27T12:29:19.000Z</time>
      </trkpt>
      <trkpt lat="44.75588" lon="5.88329">
        <ele>996.1</ele>
        <time>2020-02-27T12:29:18.000Z</time>
      </trkpt>
      <trkpt lat="44.75588" lon="5.88328">
        <ele>996</ele>
        <time>2020-02-27T12:29:17.000Z</time>
      </trkpt>
      <trkpt lat="44.75587" lon="5.88326">
        <ele>995.9</ele>
        <time>2020-02-27T12:29:16.000Z</time>
      </trkpt>
      <trkpt lat="44.75586" lon="5.88325">
        <ele>995.7</ele>
        <time>2020-02-27T12:29:15.000Z</time>
      </trkpt>
      <trkpt lat="44.75586" lon="5.88324">
        <ele>995.6</ele>
        <time>2020-02-27T12:29:14.000Z</time>
      </trkpt>
      <trkpt lat="44.75585" lon="5.88323">
        <ele>995.5</ele>
        <time>2020-02-27T12:29:13.000Z</time>
      </trkpt>
      <trkpt lat="44.75585" lon="5.88323">
        <ele>995.3</ele>
        <time>2020-02-27T12:29:12.000Z</time>
      </trkpt>
      <trkpt lat="44.75584" lon="5.88322">
        <ele>995.2</ele>
        <time>2020-02-27T12:29:11.000Z</time>
      </trkpt>
      <trkpt lat="44.75583" lon="5.88321">
        <ele>995</ele>
        <time>2020-02-27T12:29:10.000Z</time>
      </trkpt>
      <trkpt lat="44.75583" lon="5.8832">
        <ele>994.8</ele>
        <time>2020-02-27T12:29:09.000Z</time>
      </trkpt>
      <trkpt lat="44.75582" lon="5.88319">
        <ele>994.6</ele>
        <time>2020-02-27T12:29:08.000Z</time>
      </trkpt>
      <trkpt lat="44.75581" lon="5.88319">
        <ele>994.5</ele>
        <time>2020-02-27T12:29:07.000Z</time>
      </trkpt>
      <trkpt lat="44.75581" lon="5.88318">
        <ele>994.3</ele>
        <time>2020-02-27T12:29:06.000Z</time>
      </trkpt>
      <trkpt lat="44.75581" lon="5.88317">
        <ele>994.1</ele>
        <time>2020-02-27T12:29:05.000Z</time>
      </trkpt>
      <trkpt lat="44.7558" lon="5.88317">
        <ele>993.9</ele>
        <time>2020-02-27T12:29:04.000Z</time>
      </trkpt>
      <trkpt lat="44.7558" lon="5.88317">
        <ele>993.6</ele>
        <time>2020-02-27T12:29:03.000Z</time>
      </trkpt>
      <trkpt lat="44.75579" lon="5.88317">
        <ele>993.5</ele>
        <time>2020-02-27T12:29:02.000Z</time>
      </trkpt>
      <trkpt lat="44.75579" lon="5.88316">
        <ele>993.3</ele>
        <time>2020-02-27T12:29:01.000Z</time>
      </trkpt>
      <trkpt lat="44.75578" lon="5.88315">
        <ele>993.1</ele>
        <time>2020-02-27T12:29:00.000Z</time>
      </trkpt>
      <trkpt lat="44.75577" lon="5.88316">
        <ele>992.9</ele>
        <time>2020-02-27T12:28:59.000Z</time>
      </trkpt>
      <trkpt lat="44.75577" lon="5.88315">
        <ele>992.8</ele>
        <time>2020-02-27T12:28:58.000Z</time>
      </trkpt>
      <trkpt lat="44.75576" lon="5.88315">
        <ele>992.6</ele>
        <time>2020-02-27T12:28:57.000Z</time>
      </trkpt>
      <trkpt lat="44.75575" lon="5.88314">
        <ele>992.4</ele>
        <time>2020-02-27T12:28:56.000Z</time>
      </trkpt>
      <trkpt lat="44.75575" lon="5.88313">
        <ele>992.2</ele>
        <time>2020-02-27T12:28:55.000Z</time>
      </trkpt>
      <trkpt lat="44.75574" lon="5.88311">
        <ele>992</ele>
        <time>2020-02-27T12:28:54.000Z</time>
      </trkpt>
      <trkpt lat="44.75573" lon="5.8831">
        <ele>991.8</ele>
        <time>2020-02-27T12:28:53.000Z</time>
      </trkpt>
      <trkpt lat="44.75572" lon="5.88308">
        <ele>991.7</ele>
        <time>2020-02-27T12:28:52.000Z</time>
      </trkpt>
      <trkpt lat="44.75571" lon="5.88308">
        <ele>991.5</ele>
        <time>2020-02-27T12:28:51.000Z</time>
      </trkpt>
      <trkpt lat="44.75571" lon="5.88307">
        <ele>991.3</ele>
        <time>2020-02-27T12:28:50.000Z</time>
      </trkpt>
      <trkpt lat="44.7557" lon="5.88306">
        <ele>991.2</ele>
        <time>2020-02-27T12:28:49.000Z</time>
      </trkpt>
      <trkpt lat="44.7557" lon="5.88305">
        <ele>991</ele>
        <time>2020-02-27T12:28:48.000Z</time>
      </trkpt>
      <trkpt lat="44.75569" lon="5.88304">
        <ele>990.8</ele>
        <time>2020-02-27T12:28:47.000Z</time>
      </trkpt>
      <trkpt lat="44.75568" lon="5.88303">
        <ele>990.7</ele>
        <time>2020-02-27T12:28:46.000Z</time>
      </trkpt>
      <trkpt lat="44.75567" lon="5.88302">
        <ele>990.6</ele>
        <time>2020-02-27T12:28:45.000Z</time>
      </trkpt>
      <trkpt lat="44.75566" lon="5.88301">
        <ele>990.4</ele>
        <time>2020-02-27T12:28:44.000Z</time>
      </trkpt>
      <trkpt lat="44.75566" lon="5.883">
        <ele>990.2</ele>
        <time>2020-02-27T12:28:43.000Z</time>
      </trkpt>
      <trkpt lat="44.75565" lon="5.88299">
        <ele>990.1</ele>
        <time>2020-02-27T12:28:42.000Z</time>
      </trkpt>
      <trkpt lat="44.75564" lon="5.88299">
        <ele>989.9</ele>
        <time>2020-02-27T12:28:41.000Z</time>
      </trkpt>
      <trkpt lat="44.75564" lon="5.88298">
        <ele>989.7</ele>
        <time>2020-02-27T12:28:40.000Z</time>
      </trkpt>
      <trkpt lat="44.75563" lon="5.88296">
        <ele>989.5</ele>
        <time>2020-02-27T12:28:39.000Z</time>
      </trkpt>
      <trkpt lat="44.75563" lon="5.88296">
        <ele>989.3</ele>
        <time>2020-02-27T12:28:38.000Z</time>
      </trkpt>
      <trkpt lat="44.75562" lon="5.88295">
        <ele>989.1</ele>
        <time>2020-02-27T12:28:37.000Z</time>
      </trkpt>
      <trkpt lat="44.75562" lon="5.88295">
        <ele>988.9</ele>
        <time>2020-02-27T12:28:36.000Z</time>
      </trkpt>
      <trkpt lat="44.75562" lon="5.88295">
        <ele>988.7</ele>
        <time>2020-02-27T12:28:35.000Z</time>
      </trkpt>
      <trkpt lat="44.75561" lon="5.88295">
        <ele>988.5</ele>
        <time>2020-02-27T12:28:34.000Z</time>
      </trkpt>
      <trkpt lat="44.7556" lon="5.88295">
        <ele>988.4</ele>
        <time>2020-02-27T12:28:33.000Z</time>
      </trkpt>
      <trkpt lat="44.75559" lon="5.88294">
        <ele>988.2</ele>
        <time>2020-02-27T12:28:32.000Z</time>
      </trkpt>
      <trkpt lat="44.75559" lon="5.88294">
        <ele>988</ele>
        <time>2020-02-27T12:28:31.000Z</time>
      </trkpt>
      <trkpt lat="44.75558" lon="5.88293">
        <ele>987.8</ele>
        <time>2020-02-27T12:28:30.000Z</time>
      </trkpt>
      <trkpt lat="44.75558" lon="5.88293">
        <ele>987.6</ele>
        <time>2020-02-27T12:28:29.000Z</time>
      </trkpt>
      <trkpt lat="44.75557" lon="5.88293">
        <ele>987.5</ele>
        <time>2020-02-27T12:28:28.000Z</time>
      </trkpt>
      <trkpt lat="44.75556" lon="5.88292">
        <ele>987.3</ele>
        <time>2020-02-27T12:28:27.000Z</time>
      </trkpt>
      <trkpt lat="44.75556" lon="5.88292">
        <ele>987.1</ele>
        <time>2020-02-27T12:28:26.000Z</time>
      </trkpt>
      <trkpt lat="44.75555" lon="5.88292">
        <ele>986.9</ele>
        <time>2020-02-27T12:28:25.000Z</time>
      </trkpt>
      <trkpt lat="44.75554" lon="5.88292">
        <ele>986.8</ele>
        <time>2020-02-27T12:28:24.000Z</time>
      </trkpt>
      <trkpt lat="44.75553" lon="5.88291">
        <ele>986.6</ele>
        <time>2020-02-27T12:28:23.000Z</time>
      </trkpt>
      <trkpt lat="44.75552" lon="5.88291">
        <ele>986.4</ele>
        <time>2020-02-27T12:28:22.000Z</time>
      </trkpt>
      <trkpt lat="44.75552" lon="5.88291">
        <ele>986.2</ele>
        <time>2020-02-27T12:28:21.000Z</time>
      </trkpt>
      <trkpt lat="44.75552" lon="5.88291">
        <ele>986</ele>
        <time>2020-02-27T12:28:20.000Z</time>
      </trkpt>
      <trkpt lat="44.75552" lon="5.88291">
        <ele>985.8</ele>
        <time>2020-02-27T12:28:19.000Z</time>
      </trkpt>
      <trkpt lat="44.75552" lon="5.8829">
        <ele>985.7</ele>
        <time>2020-02-27T12:28:18.000Z</time>
      </trkpt>
      <trkpt lat="44.75552" lon="5.88291">
        <ele>985.5</ele>
        <time>2020-02-27T12:28:17.000Z</time>
      </trkpt>
      <trkpt lat="44.75552" lon="5.88291">
        <ele>985.4</ele>
        <time>2020-02-27T12:28:16.000Z</time>
      </trkpt>
      <trkpt lat="44.75552" lon="5.88292">
        <ele>985.2</ele>
        <time>2020-02-27T12:28:15.000Z</time>
      </trkpt>
      <trkpt lat="44.75553" lon="5.88292">
        <ele>985</ele>
        <time>2020-02-27T12:28:14.000Z</time>
      </trkpt>
      <trkpt lat="44.75553" lon="5.88293">
        <ele>984.9</ele>
        <time>2020-02-27T12:28:13.000Z</time>
      </trkpt>
      <trkpt lat="44.75553" lon="5.88294">
        <ele>984.7</ele>
        <time>2020-02-27T12:28:12.000Z</time>
      </trkpt>
      <trkpt lat="44.75553" lon="5.88295">
        <ele>984.5</ele>
        <time>2020-02-27T12:28:11.000Z</time>
      </trkpt>
      <trkpt lat="44.75554" lon="5.88295">
        <ele>984.3</ele>
        <time>2020-02-27T12:28:10.000Z</time>
      </trkpt>
      <trkpt lat="44.75554" lon="5.88296">
        <ele>984.2</ele>
        <time>2020-02-27T12:28:09.000Z</time>
      </trkpt>
      <trkpt lat="44.75554" lon="5.88297">
        <ele>984</ele>
        <time>2020-02-27T12:28:08.000Z</time>
      </trkpt>
      <trkpt lat="44.75554" lon="5.88298">
        <ele>983.8</ele>
        <time>2020-02-27T12:28:07.000Z</time>
      </trkpt>
      <trkpt lat="44.75555" lon="5.88298">
        <ele>983.7</ele>
        <time>2020-02-27T12:28:06.000Z</time>
      </trkpt>
      <trkpt lat="44.75555" lon="5.88299">
        <ele>983.5</ele>
        <time>2020-02-27T12:28:05.000Z</time>
      </trkpt>
      <trkpt lat="44.75555" lon="5.88301">
        <ele>983.3</ele>
        <time>2020-02-27T12:28:04.000Z</time>
      </trkpt>
      <trkpt lat="44.75556" lon="5.88302">
        <ele>983.2</ele>
        <time>2020-02-27T12:28:03.000Z</time>
      </trkpt>
      <trkpt lat="44.75556" lon="5.88303">
        <ele>983</ele>
        <time>2020-02-27T12:28:02.000Z</time>
      </trkpt>
      <trkpt lat="44.75556" lon="5.88303">
        <ele>982.9</ele>
        <time>2020-02-27T12:28:01.000Z</time>
      </trkpt>
      <trkpt lat="44.75556" lon="5.88304">
        <ele>982.7</ele>
        <time>2020-02-27T12:28:00.000Z</time>
      </trkpt>
      <trkpt lat="44.75556" lon="5.88305">
        <ele>982.5</ele>
        <time>2020-02-27T12:27:59.000Z</time>
      </trkpt>
      <trkpt lat="44.75556" lon="5.88306">
        <ele>982.3</ele>
        <time>2020-02-27T12:27:58.000Z</time>
      </trkpt>
      <trkpt lat="44.75556" lon="5.88306">
        <ele>982.2</ele>
        <time>2020-02-27T12:27:57.000Z</time>
      </trkpt>
      <trkpt lat="44.75557" lon="5.88307">
        <ele>982</ele>
        <time>2020-02-27T12:27:56.000Z</time>
      </trkpt>
      <trkpt lat="44.75558" lon="5.88308">
        <ele>981.8</ele>
        <time>2020-02-27T12:27:55.000Z</time>
      </trkpt>
      <trkpt lat="44.75559" lon="5.88308">
        <ele>981.7</ele>
        <time>2020-02-27T12:27:54.000Z</time>
      </trkpt>
      <trkpt lat="44.75559" lon="5.8831">
        <ele>981.5</ele>
        <time>2020-02-27T12:27:53.000Z</time>
      </trkpt>
      <trkpt lat="44.7556" lon="5.88311">
        <ele>981.4</ele>
        <time>2020-02-27T12:27:52.000Z</time>
      </trkpt>
      <trkpt lat="44.75561" lon="5.88312">
        <ele>981.2</ele>
        <time>2020-02-27T12:27:51.000Z</time>
      </trkpt>
      <trkpt lat="44.75562" lon="5.88313">
        <ele>981</ele>
        <time>2020-02-27T12:27:50.000Z</time>
      </trkpt>
      <trkpt lat="44.75562" lon="5.88315">
        <ele>980.9</ele>
        <time>2020-02-27T12:27:49.000Z</time>
      </trkpt>
      <trkpt lat="44.75563" lon="5.88316">
        <ele>980.7</ele>
        <time>2020-02-27T12:27:48.000Z</time>
      </trkpt>
      <trkpt lat="44.75563" lon="5.88318">
        <ele>980.5</ele>
        <time>2020-02-27T12:27:47.000Z</time>
      </trkpt>
      <trkpt lat="44.75564" lon="5.88319">
        <ele>980.3</ele>
        <time>2020-02-27T12:27:46.000Z</time>
      </trkpt>
      <trkpt lat="44.75564" lon="5.8832">
        <ele>980.1</ele>
        <time>2020-02-27T12:27:45.000Z</time>
      </trkpt>
      <trkpt lat="44.75565" lon="5.88321">
        <ele>980</ele>
        <time>2020-02-27T12:27:44.000Z</time>
      </trkpt>
      <trkpt lat="44.75565" lon="5.88322">
        <ele>979.8</ele>
        <time>2020-02-27T12:27:43.000Z</time>
      </trkpt>
      <trkpt lat="44.75565" lon="5.88323">
        <ele>979.6</ele>
        <time>2020-02-27T12:27:42.000Z</time>
      </trkpt>
      <trkpt lat="44.75565" lon="5.88324">
        <ele>979.5</ele>
        <time>2020-02-27T12:27:41.000Z</time>
      </trkpt>
      <trkpt lat="44.75565" lon="5.88325">
        <ele>979.3</ele>
        <time>2020-02-27T12:27:40.000Z</time>
      </trkpt>
      <trkpt lat="44.75566" lon="5.88326">
        <ele>979.1</ele>
        <time>2020-02-27T12:27:39.000Z</time>
      </trkpt>
      <trkpt lat="44.75566" lon="5.88328">
        <ele>978.9</ele>
        <time>2020-02-27T12:27:38.000Z</time>
      </trkpt>
      <trkpt lat="44.75567" lon="5.88328">
        <ele>978.7</ele>
        <time>2020-02-27T12:27:37.000Z</time>
      </trkpt>
      <trkpt lat="44.75567" lon="5.88329">
        <ele>978.6</ele>
        <time>2020-02-27T12:27:36.000Z</time>
      </trkpt>
      <trkpt lat="44.75567" lon="5.8833">
        <ele>978.4</ele>
        <time>2020-02-27T12:27:35.000Z</time>
      </trkpt>
      <trkpt lat="44.75567" lon="5.88332">
        <ele>978.2</ele>
        <time>2020-02-27T12:27:34.000Z</time>
      </trkpt>
      <trkpt lat="44.75568" lon="5.88333">
        <ele>978.1</ele>
        <time>2020-02-27T12:27:33.000Z</time>
      </trkpt>
      <trkpt lat="44.75568" lon="5.88334">
        <ele>977.9</ele>
        <time>2020-02-27T12:27:32.000Z</time>
      </trkpt>
      <trkpt lat="44.75568" lon="5.88336">
        <ele>977.7</ele>
        <time>2020-02-27T12:27:31.000Z</time>
      </trkpt>
      <trkpt lat="44.75568" lon="5.88336">
        <ele>977.6</ele>
        <time>2020-02-27T12:27:30.000Z</time>
      </trkpt>
      <trkpt lat="44.75568" lon="5.88337">
        <ele>977.4</ele>
        <time>2020-02-27T12:27:29.000Z</time>
      </trkpt>
      <trkpt lat="44.75569" lon="5.88338">
        <ele>977.2</ele>
        <time>2020-02-27T12:27:28.000Z</time>
      </trkpt>
      <trkpt lat="44.75569" lon="5.88339">
        <ele>977</ele>
        <time>2020-02-27T12:27:27.000Z</time>
      </trkpt>
      <trkpt lat="44.75569" lon="5.88339">
        <ele>976.8</ele>
        <time>2020-02-27T12:27:26.000Z</time>
      </trkpt>
      <trkpt lat="44.75569" lon="5.8834">
        <ele>976.6</ele>
        <time>2020-02-27T12:27:25.000Z</time>
      </trkpt>
      <trkpt lat="44.75569" lon="5.88341">
        <ele>976.4</ele>
        <time>2020-02-27T12:27:24.000Z</time>
      </trkpt>
      <trkpt lat="44.75569" lon="5.88342">
        <ele>976.3</ele>
        <time>2020-02-27T12:27:23.000Z</time>
      </trkpt>
      <trkpt lat="44.75569" lon="5.88343">
        <ele>976.1</ele>
        <time>2020-02-27T12:27:22.000Z</time>
      </trkpt>
      <trkpt lat="44.7557" lon="5.88344">
        <ele>976</ele>
        <time>2020-02-27T12:27:21.000Z</time>
      </trkpt>
      <trkpt lat="44.7557" lon="5.88345">
        <ele>975.8</ele>
        <time>2020-02-27T12:27:20.000Z</time>
      </trkpt>
      <trkpt lat="44.7557" lon="5.88346">
        <ele>975.7</ele>
        <time>2020-02-27T12:27:19.000Z</time>
      </trkpt>
      <trkpt lat="44.7557" lon="5.88346">
        <ele>975.5</ele>
        <time>2020-02-27T12:27:18.000Z</time>
      </trkpt>
      <trkpt lat="44.75571" lon="5.88347">
        <ele>975.4</ele>
        <time>2020-02-27T12:27:17.000Z</time>
      </trkpt>
      <trkpt lat="44.75571" lon="5.88348">
        <ele>975.2</ele>
        <time>2020-02-27T12:27:16.000Z</time>
      </trkpt>
      <trkpt lat="44.75571" lon="5.88349">
        <ele>975.1</ele>
        <time>2020-02-27T12:27:15.000Z</time>
      </trkpt>
      <trkpt lat="44.75571" lon="5.88351">
        <ele>974.9</ele>
        <time>2020-02-27T12:27:14.000Z</time>
      </trkpt>
      <trkpt lat="44.75571" lon="5.88352">
        <ele>974.8</ele>
        <time>2020-02-27T12:27:13.000Z</time>
      </trkpt>
      <trkpt lat="44.75572" lon="5.88353">
        <ele>974.6</ele>
        <time>2020-02-27T12:27:12.000Z</time>
      </trkpt>
      <trkpt lat="44.75572" lon="5.88354">
        <ele>974.4</ele>
        <time>2020-02-27T12:27:11.000Z</time>
      </trkpt>
      <trkpt lat="44.75572" lon="5.88356">
        <ele>974.3</ele>
        <time>2020-02-27T12:27:10.000Z</time>
      </trkpt>
      <trkpt lat="44.75573" lon="5.88357">
        <ele>974.1</ele>
        <time>2020-02-27T12:27:09.000Z</time>
      </trkpt>
      <trkpt lat="44.75573" lon="5.88359">
        <ele>974</ele>
        <time>2020-02-27T12:27:08.000Z</time>
      </trkpt>
      <trkpt lat="44.75573" lon="5.88361">
        <ele>973.8</ele>
        <time>2020-02-27T12:27:07.000Z</time>
      </trkpt>
      <trkpt lat="44.75574" lon="5.88362">
        <ele>973.7</ele>
        <time>2020-02-27T12:27:06.000Z</time>
      </trkpt>
      <trkpt lat="44.75574" lon="5.88363">
        <ele>973.5</ele>
        <time>2020-02-27T12:27:05.000Z</time>
      </trkpt>
      <trkpt lat="44.75574" lon="5.88364">
        <ele>973.3</ele>
        <time>2020-02-27T12:27:04.000Z</time>
      </trkpt>
      <trkpt lat="44.75574" lon="5.88366">
        <ele>973.2</ele>
        <time>2020-02-27T12:27:03.000Z</time>
      </trkpt>
      <trkpt lat="44.75575" lon="5.88367">
        <ele>973</ele>
        <time>2020-02-27T12:27:02.000Z</time>
      </trkpt>
      <trkpt lat="44.75575" lon="5.88368">
        <ele>972.8</ele>
        <time>2020-02-27T12:27:01.000Z</time>
      </trkpt>
      <trkpt lat="44.75575" lon="5.88369">
        <ele>972.7</ele>
        <time>2020-02-27T12:27:00.000Z</time>
      </trkpt>
      <trkpt lat="44.75575" lon="5.8837">
        <ele>972.5</ele>
        <time>2020-02-27T12:26:59.000Z</time>
      </trkpt>
      <trkpt lat="44.75575" lon="5.88371">
        <ele>972.3</ele>
        <time>2020-02-27T12:26:58.000Z</time>
      </trkpt>
      <trkpt lat="44.75575" lon="5.88372">
        <ele>972.1</ele>
        <time>2020-02-27T12:26:57.000Z</time>
      </trkpt>
      <trkpt lat="44.75575" lon="5.88373">
        <ele>971.9</ele>
        <time>2020-02-27T12:26:56.000Z</time>
      </trkpt>
      <trkpt lat="44.75575" lon="5.88374">
        <ele>971.8</ele>
        <time>2020-02-27T12:26:55.000Z</time>
      </trkpt>
      <trkpt lat="44.75576" lon="5.88376">
        <ele>971.6</ele>
        <time>2020-02-27T12:26:54.000Z</time>
      </trkpt>
      <trkpt lat="44.75576" lon="5.88377">
        <ele>971.4</ele>
        <time>2020-02-27T12:26:53.000Z</time>
      </trkpt>
      <trkpt lat="44.75576" lon="5.88378">
        <ele>971.2</ele>
        <time>2020-02-27T12:26:52.000Z</time>
      </trkpt>
      <trkpt lat="44.75576" lon="5.88379">
        <ele>971</ele>
        <time>2020-02-27T12:26:51.000Z</time>
      </trkpt>
      <trkpt lat="44.75577" lon="5.8838">
        <ele>970.8</ele>
        <time>2020-02-27T12:26:50.000Z</time>
      </trkpt>
      <trkpt lat="44.75577" lon="5.88381">
        <ele>970.6</ele>
        <time>2020-02-27T12:26:49.000Z</time>
      </trkpt>
      <trkpt lat="44.75577" lon="5.88382">
        <ele>970.4</ele>
        <time>2020-02-27T12:26:48.000Z</time>
      </trkpt>
      <trkpt lat="44.75577" lon="5.88383">
        <ele>970.1</ele>
        <time>2020-02-27T12:26:47.000Z</time>
      </trkpt>
      <trkpt lat="44.75578" lon="5.88383">
        <ele>970</ele>
        <time>2020-02-27T12:26:46.000Z</time>
      </trkpt>
      <trkpt lat="44.75578" lon="5.88384">
        <ele>969.8</ele>
        <time>2020-02-27T12:26:45.000Z</time>
      </trkpt>
      <trkpt lat="44.75578" lon="5.88385">
        <ele>969.6</ele>
        <time>2020-02-27T12:26:44.000Z</time>
      </trkpt>
      <trkpt lat="44.75578" lon="5.88386">
        <ele>969.5</ele>
        <time>2020-02-27T12:26:43.000Z</time>
      </trkpt>
      <trkpt lat="44.75579" lon="5.88387">
        <ele>969.3</ele>
        <time>2020-02-27T12:26:42.000Z</time>
      </trkpt>
      <trkpt lat="44.75579" lon="5.88389">
        <ele>969.1</ele>
        <time>2020-02-27T12:26:41.000Z</time>
      </trkpt>
      <trkpt lat="44.75579" lon="5.8839">
        <ele>968.9</ele>
        <time>2020-02-27T12:26:40.000Z</time>
      </trkpt>
      <trkpt lat="44.75579" lon="5.88391">
        <ele>968.7</ele>
        <time>2020-02-27T12:26:39.000Z</time>
      </trkpt>
      <trkpt lat="44.75579" lon="5.88392">
        <ele>968.5</ele>
        <time>2020-02-27T12:26:38.000Z</time>
      </trkpt>
      <trkpt lat="44.7558" lon="5.88394">
        <ele>968.3</ele>
        <time>2020-02-27T12:26:37.000Z</time>
      </trkpt>
      <trkpt lat="44.7558" lon="5.884">
        <ele>968.2</ele>
        <time>2020-02-27T12:26:36.000Z</time>
      </trkpt>
      <trkpt lat="44.7558" lon="5.884">
        <ele>968</ele>
        <time>2020-02-27T12:26:35.000Z</time>
      </trkpt>
      <trkpt lat="44.7558" lon="5.884">
        <ele>967.8</ele>
        <time>2020-02-27T12:26:34.000Z</time>
      </trkpt>
      <trkpt lat="44.7558" lon="5.884">
        <ele>967.6</ele>
        <time>2020-02-27T12:26:33.000Z</time>
      </trkpt>
      <trkpt lat="44.7558" lon="5.884">
        <ele>967.5</ele>
        <time>2020-02-27T12:26:32.000Z</time>
      </trkpt>
      <trkpt lat="44.7558" lon="5.884">
        <ele>967.3</ele>
        <time>2020-02-27T12:26:31.000Z</time>
      </trkpt>
      <trkpt lat="44.7558" lon="5.88401">
        <ele>967.1</ele>
        <time>2020-02-27T12:26:30.000Z</time>
      </trkpt>
      <trkpt lat="44.7558" lon="5.88402">
        <ele>967</ele>
        <time>2020-02-27T12:26:29.000Z</time>
      </trkpt>
      <trkpt lat="44.75581" lon="5.88402">
        <ele>966.8</ele>
        <time>2020-02-27T12:26:28.000Z</time>
      </trkpt>
      <trkpt lat="44.75581" lon="5.88403">
        <ele>966.6</ele>
        <time>2020-02-27T12:26:27.000Z</time>
      </trkpt>
      <trkpt lat="44.75581" lon="5.88404">
        <ele>966.4</ele>
        <time>2020-02-27T12:26:26.000Z</time>
      </trkpt>
      <trkpt lat="44.75581" lon="5.88405">
        <ele>966.2</ele>
        <time>2020-02-27T12:26:25.000Z</time>
      </trkpt>
      <trkpt lat="44.75582" lon="5.88406">
        <ele>966</ele>
        <time>2020-02-27T12:26:24.000Z</time>
      </trkpt>
      <trkpt lat="44.75582" lon="5.88407">
        <ele>965.7</ele>
        <time>2020-02-27T12:26:23.000Z</time>
      </trkpt>
      <trkpt lat="44.75582" lon="5.88407">
        <ele>965.6</ele>
        <time>2020-02-27T12:26:22.000Z</time>
      </trkpt>
      <trkpt lat="44.75582" lon="5.88407">
        <ele>965.4</ele>
        <time>2020-02-27T12:26:21.000Z</time>
      </trkpt>
      <trkpt lat="44.75583" lon="5.88409">
        <ele>965.3</ele>
        <time>2020-02-27T12:26:20.000Z</time>
      </trkpt>
      <trkpt lat="44.75583" lon="5.8841">
        <ele>965.1</ele>
        <time>2020-02-27T12:26:19.000Z</time>
      </trkpt>
      <trkpt lat="44.75584" lon="5.88413">
        <ele>965</ele>
        <time>2020-02-27T12:26:18.000Z</time>
      </trkpt>
      <trkpt lat="44.75584" lon="5.88413">
        <ele>964.8</ele>
        <time>2020-02-27T12:26:17.000Z</time>
      </trkpt>
      <trkpt lat="44.75585" lon="5.88414">
        <ele>964.6</ele>
        <time>2020-02-27T12:26:16.000Z</time>
      </trkpt>
      <trkpt lat="44.75585" lon="5.88414">
        <ele>964.5</ele>
        <time>2020-02-27T12:26:15.000Z</time>
      </trkpt>
      <trkpt lat="44.75585" lon="5.88415">
        <ele>964.3</ele>
        <time>2020-02-27T12:26:14.000Z</time>
      </trkpt>
      <trkpt lat="44.75585" lon="5.88417">
        <ele>964.2</ele>
        <time>2020-02-27T12:26:13.000Z</time>
      </trkpt>
      <trkpt lat="44.75586" lon="5.88418">
        <ele>964</ele>
        <time>2020-02-27T12:26:12.000Z</time>
      </trkpt>
      <trkpt lat="44.75586" lon="5.88419">
        <ele>963.9</ele>
        <time>2020-02-27T12:26:11.000Z</time>
      </trkpt>
      <trkpt lat="44.75586" lon="5.8842">
        <ele>963.8</ele>
        <time>2020-02-27T12:26:10.000Z</time>
      </trkpt>
      <trkpt lat="44.75586" lon="5.88421">
        <ele>963.6</ele>
        <time>2020-02-27T12:26:09.000Z</time>
      </trkpt>
      <trkpt lat="44.75587" lon="5.88421">
        <ele>963.5</ele>
        <time>2020-02-27T12:26:08.000Z</time>
      </trkpt>
      <trkpt lat="44.75587" lon="5.88422">
        <ele>963.3</ele>
        <time>2020-02-27T12:26:07.000Z</time>
      </trkpt>
      <trkpt lat="44.75588" lon="5.88423">
        <ele>963.2</ele>
        <time>2020-02-27T12:26:06.000Z</time>
      </trkpt>
      <trkpt lat="44.75588" lon="5.88423">
        <ele>963</ele>
        <time>2020-02-27T12:26:05.000Z</time>
      </trkpt>
      <trkpt lat="44.75588" lon="5.88424">
        <ele>962.9</ele>
        <time>2020-02-27T12:26:04.000Z</time>
      </trkpt>
      <trkpt lat="44.75589" lon="5.88424">
        <ele>962.7</ele>
        <time>2020-02-27T12:26:03.000Z</time>
      </trkpt>
      <trkpt lat="44.75589" lon="5.88425">
        <ele>962.6</ele>
        <time>2020-02-27T12:26:02.000Z</time>
      </trkpt>
      <trkpt lat="44.7559" lon="5.88425">
        <ele>962.4</ele>
        <time>2020-02-27T12:26:01.000Z</time>
      </trkpt>
      <trkpt lat="44.7559" lon="5.88426">
        <ele>962.2</ele>
        <time>2020-02-27T12:26:00.000Z</time>
      </trkpt>
      <trkpt lat="44.75591" lon="5.88427">
        <ele>962.1</ele>
        <time>2020-02-27T12:25:59.000Z</time>
      </trkpt>
      <trkpt lat="44.75591" lon="5.88428">
        <ele>961.9</ele>
        <time>2020-02-27T12:25:58.000Z</time>
      </trkpt>
      <trkpt lat="44.75591" lon="5.88429">
        <ele>961.7</ele>
        <time>2020-02-27T12:25:57.000Z</time>
      </trkpt>
      <trkpt lat="44.75591" lon="5.88431">
        <ele>961.6</ele>
        <time>2020-02-27T12:25:56.000Z</time>
      </trkpt>
      <trkpt lat="44.75592" lon="5.88432">
        <ele>961.4</ele>
        <time>2020-02-27T12:25:55.000Z</time>
      </trkpt>
      <trkpt lat="44.75592" lon="5.88433">
        <ele>961.2</ele>
        <time>2020-02-27T12:25:54.000Z</time>
      </trkpt>
      <trkpt lat="44.75592" lon="5.88434">
        <ele>961.1</ele>
        <time>2020-02-27T12:25:53.000Z</time>
      </trkpt>
      <trkpt lat="44.75593" lon="5.88438">
        <ele>960.9</ele>
        <time>2020-02-27T12:25:52.000Z</time>
      </trkpt>
      <trkpt lat="44.75593" lon="5.88438">
        <ele>960.7</ele>
        <time>2020-02-27T12:25:51.000Z</time>
      </trkpt>
      <trkpt lat="44.75593" lon="5.88438">
        <ele>960.5</ele>
        <time>2020-02-27T12:25:50.000Z</time>
      </trkpt>
      <trkpt lat="44.75593" lon="5.88438">
        <ele>960.3</ele>
        <time>2020-02-27T12:25:49.000Z</time>
      </trkpt>
      <trkpt lat="44.75593" lon="5.88439">
        <ele>960.1</ele>
        <time>2020-02-27T12:25:48.000Z</time>
      </trkpt>
      <trkpt lat="44.75592" lon="5.8844">
        <ele>959.9</ele>
        <time>2020-02-27T12:25:47.000Z</time>
      </trkpt>
      <trkpt lat="44.75593" lon="5.88441">
        <ele>959.7</ele>
        <time>2020-02-27T12:25:46.000Z</time>
      </trkpt>
      <trkpt lat="44.75593" lon="5.88442">
        <ele>959.6</ele>
        <time>2020-02-27T12:25:45.000Z</time>
      </trkpt>
      <trkpt lat="44.75593" lon="5.88443">
        <ele>959.4</ele>
        <time>2020-02-27T12:25:44.000Z</time>
      </trkpt>
      <trkpt lat="44.75593" lon="5.88444">
        <ele>959.2</ele>
        <time>2020-02-27T12:25:43.000Z</time>
      </trkpt>
      <trkpt lat="44.75594" lon="5.88445">
        <ele>958.9</ele>
        <time>2020-02-27T12:25:42.000Z</time>
      </trkpt>
      <trkpt lat="44.75595" lon="5.88446">
        <ele>958.7</ele>
        <time>2020-02-27T12:25:41.000Z</time>
      </trkpt>
      <trkpt lat="44.75595" lon="5.88447">
        <ele>958.5</ele>
        <time>2020-02-27T12:25:40.000Z</time>
      </trkpt>
      <trkpt lat="44.75595" lon="5.88447">
        <ele>958.3</ele>
        <time>2020-02-27T12:25:39.000Z</time>
      </trkpt>
      <trkpt lat="44.75596" lon="5.88448">
        <ele>958.1</ele>
        <time>2020-02-27T12:25:38.000Z</time>
      </trkpt>
      <trkpt lat="44.75596" lon="5.88449">
        <ele>957.9</ele>
        <time>2020-02-27T12:25:37.000Z</time>
      </trkpt>
      <trkpt lat="44.75596" lon="5.8845">
        <ele>957.7</ele>
        <time>2020-02-27T12:25:36.000Z</time>
      </trkpt>
      <trkpt lat="44.75597" lon="5.88452">
        <ele>957.5</ele>
        <time>2020-02-27T12:25:35.000Z</time>
      </trkpt>
      <trkpt lat="44.75597" lon="5.88453">
        <ele>957.3</ele>
        <time>2020-02-27T12:25:34.000Z</time>
      </trkpt>
      <trkpt lat="44.75597" lon="5.88454">
        <ele>957.1</ele>
        <time>2020-02-27T12:25:33.000Z</time>
      </trkpt>
      <trkpt lat="44.75597" lon="5.88455">
        <ele>956.9</ele>
        <time>2020-02-27T12:25:32.000Z</time>
      </trkpt>
      <trkpt lat="44.75598" lon="5.88455">
        <ele>956.6</ele>
        <time>2020-02-27T12:25:31.000Z</time>
      </trkpt>
      <trkpt lat="44.75598" lon="5.88456">
        <ele>956.4</ele>
        <time>2020-02-27T12:25:30.000Z</time>
      </trkpt>
      <trkpt lat="44.75599" lon="5.88457">
        <ele>956.2</ele>
        <time>2020-02-27T12:25:29.000Z</time>
      </trkpt>
      <trkpt lat="44.75599" lon="5.88458">
        <ele>956</ele>
        <time>2020-02-27T12:25:28.000Z</time>
      </trkpt>
      <trkpt lat="44.75599" lon="5.88459">
        <ele>955.9</ele>
        <time>2020-02-27T12:25:27.000Z</time>
      </trkpt>
      <trkpt lat="44.75599" lon="5.8846">
        <ele>955.7</ele>
        <time>2020-02-27T12:25:26.000Z</time>
      </trkpt>
      <trkpt lat="44.75599" lon="5.88461">
        <ele>955.5</ele>
        <time>2020-02-27T12:25:25.000Z</time>
      </trkpt>
      <trkpt lat="44.75599" lon="5.88462">
        <ele>955.4</ele>
        <time>2020-02-27T12:25:24.000Z</time>
      </trkpt>
      <trkpt lat="44.75599" lon="5.88462">
        <ele>955.2</ele>
        <time>2020-02-27T12:25:23.000Z</time>
      </trkpt>
      <trkpt lat="44.756" lon="5.88464">
        <ele>955</ele>
        <time>2020-02-27T12:25:22.000Z</time>
      </trkpt>
      <trkpt lat="44.756" lon="5.88464">
        <ele>954.8</ele>
        <time>2020-02-27T12:25:21.000Z</time>
      </trkpt>
      <trkpt lat="44.756" lon="5.88465">
        <ele>954.6</ele>
        <time>2020-02-27T12:25:20.000Z</time>
      </trkpt>
      <trkpt lat="44.75601" lon="5.88466">
        <ele>954.4</ele>
        <time>2020-02-27T12:25:19.000Z</time>
      </trkpt>
      <trkpt lat="44.75601" lon="5.88467">
        <ele>954.2</ele>
        <time>2020-02-27T12:25:18.000Z</time>
      </trkpt>
      <trkpt lat="44.75602" lon="5.88467">
        <ele>954.1</ele>
        <time>2020-02-27T12:25:17.000Z</time>
      </trkpt>
      <trkpt lat="44.75602" lon="5.88468">
        <ele>953.8</ele>
        <time>2020-02-27T12:25:16.000Z</time>
      </trkpt>
      <trkpt lat="44.75603" lon="5.88468">
        <ele>953.7</ele>
        <time>2020-02-27T12:25:15.000Z</time>
      </trkpt>
      <trkpt lat="44.75603" lon="5.88469">
        <ele>953.5</ele>
        <time>2020-02-27T12:25:14.000Z</time>
      </trkpt>
      <trkpt lat="44.75605" lon="5.8847">
        <ele>953.3</ele>
        <time>2020-02-27T12:25:13.000Z</time>
      </trkpt>
      <trkpt lat="44.75605" lon="5.8847">
        <ele>953</ele>
        <time>2020-02-27T12:25:12.000Z</time>
      </trkpt>
      <trkpt lat="44.75606" lon="5.88471">
        <ele>952.8</ele>
        <time>2020-02-27T12:25:11.000Z</time>
      </trkpt>
      <trkpt lat="44.75607" lon="5.88471">
        <ele>952.7</ele>
        <time>2020-02-27T12:25:10.000Z</time>
      </trkpt>
      <trkpt lat="44.75607" lon="5.88471">
        <ele>952.5</ele>
        <time>2020-02-27T12:25:09.000Z</time>
      </trkpt>
      <trkpt lat="44.75608" lon="5.88472">
        <ele>952.3</ele>
        <time>2020-02-27T12:25:08.000Z</time>
      </trkpt>
      <trkpt lat="44.75608" lon="5.88473">
        <ele>952.1</ele>
        <time>2020-02-27T12:25:07.000Z</time>
      </trkpt>
      <trkpt lat="44.75609" lon="5.88474">
        <ele>952</ele>
        <time>2020-02-27T12:25:06.000Z</time>
      </trkpt>
      <trkpt lat="44.75609" lon="5.88474">
        <ele>951.8</ele>
        <time>2020-02-27T12:25:05.000Z</time>
      </trkpt>
      <trkpt lat="44.7561" lon="5.88475">
        <ele>951.6</ele>
        <time>2020-02-27T12:25:04.000Z</time>
      </trkpt>
      <trkpt lat="44.7561" lon="5.88477">
        <ele>951.4</ele>
        <time>2020-02-27T12:25:03.000Z</time>
      </trkpt>
      <trkpt lat="44.7561" lon="5.88477">
        <ele>951.3</ele>
        <time>2020-02-27T12:25:02.000Z</time>
      </trkpt>
      <trkpt lat="44.7561" lon="5.88478">
        <ele>951.1</ele>
        <time>2020-02-27T12:25:01.000Z</time>
      </trkpt>
      <trkpt lat="44.75611" lon="5.88479">
        <ele>951</ele>
        <time>2020-02-27T12:25:00.000Z</time>
      </trkpt>
      <trkpt lat="44.75611" lon="5.8848">
        <ele>950.8</ele>
        <time>2020-02-27T12:24:59.000Z</time>
      </trkpt>
      <trkpt lat="44.75612" lon="5.88481">
        <ele>950.6</ele>
        <time>2020-02-27T12:24:58.000Z</time>
      </trkpt>
      <trkpt lat="44.75613" lon="5.88482">
        <ele>950.4</ele>
        <time>2020-02-27T12:24:57.000Z</time>
      </trkpt>
      <trkpt lat="44.75613" lon="5.88483">
        <ele>950.2</ele>
        <time>2020-02-27T12:24:56.000Z</time>
      </trkpt>
      <trkpt lat="44.75613" lon="5.88485">
        <ele>950.1</ele>
        <time>2020-02-27T12:24:55.000Z</time>
      </trkpt>
      <trkpt lat="44.75614" lon="5.88486">
        <ele>949.9</ele>
        <time>2020-02-27T12:24:54.000Z</time>
      </trkpt>
      <trkpt lat="44.75614" lon="5.88487">
        <ele>949.7</ele>
        <time>2020-02-27T12:24:53.000Z</time>
      </trkpt>
      <trkpt lat="44.75615" lon="5.88488">
        <ele>949.5</ele>
        <time>2020-02-27T12:24:52.000Z</time>
      </trkpt>
      <trkpt lat="44.75615" lon="5.88489">
        <ele>949.4</ele>
        <time>2020-02-27T12:24:51.000Z</time>
      </trkpt>
      <trkpt lat="44.75615" lon="5.8849">
        <ele>949.2</ele>
        <time>2020-02-27T12:24:50.000Z</time>
      </trkpt>
      <trkpt lat="44.75615" lon="5.88491">
        <ele>949</ele>
        <time>2020-02-27T12:24:49.000Z</time>
      </trkpt>
      <trkpt lat="44.75616" lon="5.88492">
        <ele>948.9</ele>
        <time>2020-02-27T12:24:48.000Z</time>
      </trkpt>
      <trkpt lat="44.75617" lon="5.88492">
        <ele>948.7</ele>
        <time>2020-02-27T12:24:47.000Z</time>
      </trkpt>
      <trkpt lat="44.75617" lon="5.88493">
        <ele>948.5</ele>
        <time>2020-02-27T12:24:46.000Z</time>
      </trkpt>
      <trkpt lat="44.75618" lon="5.88494">
        <ele>948.4</ele>
        <time>2020-02-27T12:24:45.000Z</time>
      </trkpt>
      <trkpt lat="44.75619" lon="5.88494">
        <ele>948.2</ele>
        <time>2020-02-27T12:24:44.000Z</time>
      </trkpt>
      <trkpt lat="44.75619" lon="5.88495">
        <ele>948.1</ele>
        <time>2020-02-27T12:24:43.000Z</time>
      </trkpt>
      <trkpt lat="44.7562" lon="5.88495">
        <ele>948</ele>
        <time>2020-02-27T12:24:42.000Z</time>
      </trkpt>
      <trkpt lat="44.75621" lon="5.88496">
        <ele>947.8</ele>
        <time>2020-02-27T12:24:41.000Z</time>
      </trkpt>
      <trkpt lat="44.75621" lon="5.88496">
        <ele>947.7</ele>
        <time>2020-02-27T12:24:40.000Z</time>
      </trkpt>
      <trkpt lat="44.75622" lon="5.88497">
        <ele>947.5</ele>
        <time>2020-02-27T12:24:39.000Z</time>
      </trkpt>
      <trkpt lat="44.75622" lon="5.88498">
        <ele>947.4</ele>
        <time>2020-02-27T12:24:38.000Z</time>
      </trkpt>
      <trkpt lat="44.75623" lon="5.88498">
        <ele>947.2</ele>
        <time>2020-02-27T12:24:37.000Z</time>
      </trkpt>
      <trkpt lat="44.75623" lon="5.885">
        <ele>947.1</ele>
        <time>2020-02-27T12:24:36.000Z</time>
      </trkpt>
      <trkpt lat="44.75623" lon="5.88501">
        <ele>946.9</ele>
        <time>2020-02-27T12:24:35.000Z</time>
      </trkpt>
      <trkpt lat="44.75624" lon="5.88502">
        <ele>946.7</ele>
        <time>2020-02-27T12:24:34.000Z</time>
      </trkpt>
      <trkpt lat="44.75625" lon="5.88503">
        <ele>946.5</ele>
        <time>2020-02-27T12:24:33.000Z</time>
      </trkpt>
      <trkpt lat="44.75626" lon="5.88504">
        <ele>946.4</ele>
        <time>2020-02-27T12:24:32.000Z</time>
      </trkpt>
      <trkpt lat="44.75626" lon="5.88505">
        <ele>946.2</ele>
        <time>2020-02-27T12:24:31.000Z</time>
      </trkpt>
      <trkpt lat="44.75627" lon="5.88507">
        <ele>946.1</ele>
        <time>2020-02-27T12:24:30.000Z</time>
      </trkpt>
      <trkpt lat="44.75627" lon="5.88508">
        <ele>945.9</ele>
        <time>2020-02-27T12:24:29.000Z</time>
      </trkpt>
      <trkpt lat="44.75628" lon="5.88509">
        <ele>945.7</ele>
        <time>2020-02-27T12:24:28.000Z</time>
      </trkpt>
      <trkpt lat="44.75628" lon="5.8851">
        <ele>945.5</ele>
        <time>2020-02-27T12:24:27.000Z</time>
      </trkpt>
      <trkpt lat="44.75629" lon="5.88512">
        <ele>945.4</ele>
        <time>2020-02-27T12:24:26.000Z</time>
      </trkpt>
      <trkpt lat="44.7563" lon="5.88512">
        <ele>945.2</ele>
        <time>2020-02-27T12:24:25.000Z</time>
      </trkpt>
      <trkpt lat="44.75631" lon="5.88513">
        <ele>945.1</ele>
        <time>2020-02-27T12:24:24.000Z</time>
      </trkpt>
      <trkpt lat="44.75631" lon="5.88514">
        <ele>944.9</ele>
        <time>2020-02-27T12:24:23.000Z</time>
      </trkpt>
      <trkpt lat="44.75632" lon="5.88516">
        <ele>944.7</ele>
        <time>2020-02-27T12:24:22.000Z</time>
      </trkpt>
      <trkpt lat="44.75632" lon="5.88518">
        <ele>944.6</ele>
        <time>2020-02-27T12:24:21.000Z</time>
      </trkpt>
      <trkpt lat="44.75632" lon="5.88519">
        <ele>944.4</ele>
        <time>2020-02-27T12:24:20.000Z</time>
      </trkpt>
      <trkpt lat="44.75632" lon="5.8852">
        <ele>944.2</ele>
        <time>2020-02-27T12:24:19.000Z</time>
      </trkpt>
      <trkpt lat="44.75632" lon="5.88521">
        <ele>944</ele>
        <time>2020-02-27T12:24:18.000Z</time>
      </trkpt>
      <trkpt lat="44.75632" lon="5.88522">
        <ele>943.8</ele>
        <time>2020-02-27T12:24:17.000Z</time>
      </trkpt>
      <trkpt lat="44.75631" lon="5.88522">
        <ele>943.6</ele>
        <time>2020-02-27T12:24:16.000Z</time>
      </trkpt>
      <trkpt lat="44.75631" lon="5.88522">
        <ele>943.4</ele>
        <time>2020-02-27T12:24:15.000Z</time>
      </trkpt>
      <trkpt lat="44.7563" lon="5.88522">
        <ele>943.2</ele>
        <time>2020-02-27T12:24:14.000Z</time>
      </trkpt>
      <trkpt lat="44.75629" lon="5.88522">
        <ele>943</ele>
        <time>2020-02-27T12:24:13.000Z</time>
      </trkpt>
      <trkpt lat="44.75629" lon="5.88522">
        <ele>942.8</ele>
        <time>2020-02-27T12:24:12.000Z</time>
      </trkpt>
      <trkpt lat="44.75628" lon="5.88522">
        <ele>942.7</ele>
        <time>2020-02-27T12:24:11.000Z</time>
      </trkpt>
      <trkpt lat="44.75627" lon="5.88522">
        <ele>942.5</ele>
        <time>2020-02-27T12:24:10.000Z</time>
      </trkpt>
      <trkpt lat="44.75626" lon="5.88522">
        <ele>942.3</ele>
        <time>2020-02-27T12:24:09.000Z</time>
      </trkpt>
      <trkpt lat="44.75626" lon="5.88523">
        <ele>942.2</ele>
        <time>2020-02-27T12:24:08.000Z</time>
      </trkpt>
      <trkpt lat="44.75628" lon="5.8852">
        <ele>942.1</ele>
        <time>2020-02-27T12:24:07.000Z</time>
      </trkpt>
      <trkpt lat="44.75625" lon="5.88515">
        <ele>941.9</ele>
        <time>2020-02-27T12:24:06.000Z</time>
      </trkpt>
      <trkpt lat="44.75624" lon="5.88515">
        <ele>941.8</ele>
        <time>2020-02-27T12:24:05.000Z</time>
      </trkpt>
      <trkpt lat="44.75623" lon="5.88516">
        <ele>941.6</ele>
        <time>2020-02-27T12:24:04.000Z</time>
      </trkpt>
      <trkpt lat="44.75623" lon="5.88516">
        <ele>941.5</ele>
        <time>2020-02-27T12:24:03.000Z</time>
      </trkpt>
      <trkpt lat="44.75622" lon="5.88516">
        <ele>941.4</ele>
        <time>2020-02-27T12:24:02.000Z</time>
      </trkpt>
      <trkpt lat="44.75621" lon="5.88516">
        <ele>941.3</ele>
        <time>2020-02-27T12:24:01.000Z</time>
      </trkpt>
      <trkpt lat="44.75621" lon="5.88515">
        <ele>941.2</ele>
        <time>2020-02-27T12:24:00.000Z</time>
      </trkpt>
      <trkpt lat="44.7562" lon="5.88513">
        <ele>941.1</ele>
        <time>2020-02-27T12:23:59.000Z</time>
      </trkpt>
      <trkpt lat="44.75619" lon="5.88512">
        <ele>941</ele>
        <time>2020-02-27T12:23:58.000Z</time>
      </trkpt>
      <trkpt lat="44.75618" lon="5.88512">
        <ele>940.9</ele>
        <time>2020-02-27T12:23:57.000Z</time>
      </trkpt>
      <trkpt lat="44.75618" lon="5.8851">
        <ele>940.8</ele>
        <time>2020-02-27T12:23:56.000Z</time>
      </trkpt>
      <trkpt lat="44.75617" lon="5.88509">
        <ele>940.7</ele>
        <time>2020-02-27T12:23:55.000Z</time>
      </trkpt>
      <trkpt lat="44.75616" lon="5.88508">
        <ele>940.5</ele>
        <time>2020-02-27T12:23:54.000Z</time>
      </trkpt>
      <trkpt lat="44.75616" lon="5.88508">
        <ele>940.4</ele>
        <time>2020-02-27T12:23:53.000Z</time>
      </trkpt>
      <trkpt lat="44.75615" lon="5.88508">
        <ele>940.3</ele>
        <time>2020-02-27T12:23:52.000Z</time>
      </trkpt>
      <trkpt lat="44.75614" lon="5.88508">
        <ele>940.1</ele>
        <time>2020-02-27T12:23:51.000Z</time>
      </trkpt>
      <trkpt lat="44.75613" lon="5.88507">
        <ele>940</ele>
        <time>2020-02-27T12:23:50.000Z</time>
      </trkpt>
      <trkpt lat="44.75612" lon="5.88507">
        <ele>940</ele>
        <time>2020-02-27T12:23:49.000Z</time>
      </trkpt>
      <trkpt lat="44.75611" lon="5.88506">
        <ele>940</ele>
        <time>2020-02-27T12:23:48.000Z</time>
      </trkpt>
      <trkpt lat="44.7561" lon="5.88505">
        <ele>939.9</ele>
        <time>2020-02-27T12:23:47.000Z</time>
      </trkpt>
      <trkpt lat="44.75609" lon="5.88505">
        <ele>939.9</ele>
        <time>2020-02-27T12:23:46.000Z</time>
      </trkpt>
      <trkpt lat="44.75608" lon="5.88505">
        <ele>939.9</ele>
        <time>2020-02-27T12:23:45.000Z</time>
      </trkpt>
      <trkpt lat="44.7561" lon="5.88503">
        <ele>939.8</ele>
        <time>2020-02-27T12:23:44.000Z</time>
      </trkpt>
      <trkpt lat="44.7561" lon="5.88503">
        <ele>939.8</ele>
        <time>2020-02-27T12:23:43.000Z</time>
      </trkpt>
      <trkpt lat="44.7561" lon="5.88503">
        <ele>939.8</ele>
        <time>2020-02-27T12:23:42.000Z</time>
      </trkpt>
      <trkpt lat="44.7561" lon="5.88503">
        <ele>939.8</ele>
        <time>2020-02-27T12:23:41.000Z</time>
      </trkpt>
      <trkpt lat="44.7561" lon="5.88503">
        <ele>939.7</ele>
        <time>2020-02-27T12:23:40.000Z</time>
      </trkpt>
      <trkpt lat="44.7561" lon="5.88503">
        <ele>939.7</ele>
        <time>2020-02-27T12:23:39.000Z</time>
      </trkpt>
      <trkpt lat="44.7561" lon="5.88503">
        <ele>939.7</ele>
        <time>2020-02-27T12:23:38.000Z</time>
      </trkpt>
      <trkpt lat="44.7561" lon="5.88503">
        <ele>939.6</ele>
        <time>2020-02-27T12:23:37.000Z</time>
      </trkpt>
      <trkpt lat="44.7561" lon="5.88503">
        <ele>939.6</ele>
        <time>2020-02-27T12:23:36.000Z</time>
      </trkpt>
      <trkpt lat="44.7561" lon="5.88503">
        <ele>939.6</ele>
        <time>2020-02-27T12:23:35.000Z</time>
      </trkpt>
      <trkpt lat="44.7561" lon="5.88503">
        <ele>939.5</ele>
        <time>2020-02-27T12:23:34.000Z</time>
      </trkpt>
      <trkpt lat="44.7561" lon="5.88503">
        <ele>939.5</ele>
        <time>2020-02-27T12:23:33.000Z</time>
      </trkpt>
      <trkpt lat="44.7561" lon="5.88503">
        <ele>939</ele>
        <time>2020-02-27T12:23:30.000Z</time>
      </trkpt>
      <trkpt lat="44.75611" lon="5.88502">
        <ele>939</ele>
        <time>2020-02-27T12:23:26.000Z</time>
      </trkpt>
      <trkpt lat="44.75611" lon="5.88502">
        <ele>938.9</ele>
        <time>2020-02-27T12:23:24.000Z</time>
      </trkpt>
      <trkpt lat="44.75607" lon="5.88507">
        <ele>938.9</ele>
        <time>2020-02-27T12:23:23.000Z</time>
      </trkpt>
      <trkpt lat="44.75606" lon="5.88507">
        <ele>938</ele>
        <time>2020-02-27T12:23:20.000Z</time>
      </trkpt>
      <trkpt lat="44.75607" lon="5.88507">
        <ele>938.6</ele>
        <time>2020-02-27T12:23:18.000Z</time>
      </trkpt>
      <trkpt lat="44.75607" lon="5.88507">
        <ele>938.5</ele>
        <time>2020-02-27T12:23:17.000Z</time>
      </trkpt>
      <trkpt lat="44.75607" lon="5.88507">
        <ele>938.5</ele>
        <time>2020-02-27T12:23:16.000Z</time>
      </trkpt>
      <trkpt lat="44.75607" lon="5.88507">
        <ele>938.4</ele>
        <time>2020-02-27T12:23:15.000Z</time>
      </trkpt>
      <trkpt lat="44.75607" lon="5.88507">
        <ele>938.3</ele>
        <time>2020-02-27T12:23:14.000Z</time>
      </trkpt>
      <trkpt lat="44.75606" lon="5.88507">
        <ele>938.3</ele>
        <time>2020-02-27T12:23:13.000Z</time>
      </trkpt>
      <trkpt lat="44.75606" lon="5.88508">
        <ele>938.2</ele>
        <time>2020-02-27T12:23:12.000Z</time>
      </trkpt>
      <trkpt lat="44.75606" lon="5.88508">
        <ele>938.1</ele>
        <time>2020-02-27T12:23:11.000Z</time>
      </trkpt>
      <trkpt lat="44.75606" lon="5.88509">
        <ele>938.1</ele>
        <time>2020-02-27T12:23:10.000Z</time>
      </trkpt>
      <trkpt lat="44.75607" lon="5.8851">
        <ele>938</ele>
        <time>2020-02-27T12:23:09.000Z</time>
      </trkpt>
      <trkpt lat="44.75607" lon="5.8851">
        <ele>937.9</ele>
        <time>2020-02-27T12:23:08.000Z</time>
      </trkpt>
      <trkpt lat="44.75606" lon="5.8851">
        <ele>937.8</ele>
        <time>2020-02-27T12:23:07.000Z</time>
      </trkpt>
      <trkpt lat="44.75607" lon="5.88511">
        <ele>937.7</ele>
        <time>2020-02-27T12:23:06.000Z</time>
      </trkpt>
      <trkpt lat="44.75606" lon="5.8851">
        <ele>937.6</ele>
        <time>2020-02-27T12:23:05.000Z</time>
      </trkpt>
      <trkpt lat="44.75606" lon="5.8851">
        <ele>937.4</ele>
        <time>2020-02-27T12:23:04.000Z</time>
      </trkpt>
      <trkpt lat="44.75605" lon="5.8851">
        <ele>937.3</ele>
        <time>2020-02-27T12:23:03.000Z</time>
      </trkpt>
      <trkpt lat="44.75604" lon="5.8851">
        <ele>937.2</ele>
        <time>2020-02-27T12:23:02.000Z</time>
      </trkpt>
      <trkpt lat="44.75604" lon="5.8851">
        <ele>937</ele>
        <time>2020-02-27T12:23:01.000Z</time>
      </trkpt>
      <trkpt lat="44.75603" lon="5.88511">
        <ele>936.9</ele>
        <time>2020-02-27T12:23:00.000Z</time>
      </trkpt>
      <trkpt lat="44.75602" lon="5.88511">
        <ele>936.7</ele>
        <time>2020-02-27T12:22:59.000Z</time>
      </trkpt>
      <trkpt lat="44.75601" lon="5.88512">
        <ele>936.6</ele>
        <time>2020-02-27T12:22:58.000Z</time>
      </trkpt>
      <trkpt lat="44.756" lon="5.88512">
        <ele>936.4</ele>
        <time>2020-02-27T12:22:57.000Z</time>
      </trkpt>
      <trkpt lat="44.75599" lon="5.88513">
        <ele>936.2</ele>
        <time>2020-02-27T12:22:56.000Z</time>
      </trkpt>
      <trkpt lat="44.75598" lon="5.88513">
        <ele>936</ele>
        <time>2020-02-27T12:22:55.000Z</time>
      </trkpt>
      <trkpt lat="44.75598" lon="5.88514">
        <ele>935.8</ele>
        <time>2020-02-27T12:22:54.000Z</time>
      </trkpt>
      <trkpt lat="44.75597" lon="5.88515">
        <ele>935.6</ele>
        <time>2020-02-27T12:22:53.000Z</time>
      </trkpt>
      <trkpt lat="44.75597" lon="5.88516">
        <ele>935.4</ele>
        <time>2020-02-27T12:22:52.000Z</time>
      </trkpt>
      <trkpt lat="44.75596" lon="5.88516">
        <ele>935.2</ele>
        <time>2020-02-27T12:22:51.000Z</time>
      </trkpt>
      <trkpt lat="44.75595" lon="5.88517">
        <ele>935</ele>
        <time>2020-02-27T12:22:50.000Z</time>
      </trkpt>
      <trkpt lat="44.75594" lon="5.88518">
        <ele>934.8</ele>
        <time>2020-02-27T12:22:49.000Z</time>
      </trkpt>
      <trkpt lat="44.75593" lon="5.88518">
        <ele>934.6</ele>
        <time>2020-02-27T12:22:48.000Z</time>
      </trkpt>
      <trkpt lat="44.75592" lon="5.88519">
        <ele>934.4</ele>
        <time>2020-02-27T12:22:47.000Z</time>
      </trkpt>
      <trkpt lat="44.75591" lon="5.88519">
        <ele>934.3</ele>
        <time>2020-02-27T12:22:46.000Z</time>
      </trkpt>
      <trkpt lat="44.7559" lon="5.88519">
        <ele>934</ele>
        <time>2020-02-27T12:22:45.000Z</time>
      </trkpt>
      <trkpt lat="44.7559" lon="5.88519">
        <ele>933.9</ele>
        <time>2020-02-27T12:22:44.000Z</time>
      </trkpt>
      <trkpt lat="44.75589" lon="5.88519">
        <ele>933.7</ele>
        <time>2020-02-27T12:22:43.000Z</time>
      </trkpt>
      <trkpt lat="44.75589" lon="5.88518">
        <ele>933.5</ele>
        <time>2020-02-27T12:22:42.000Z</time>
      </trkpt>
      <trkpt lat="44.75589" lon="5.88517">
        <ele>933.3</ele>
        <time>2020-02-27T12:22:41.000Z</time>
      </trkpt>
      <trkpt lat="44.75589" lon="5.88517">
        <ele>933.2</ele>
        <time>2020-02-27T12:22:40.000Z</time>
      </trkpt>
      <trkpt lat="44.75589" lon="5.88517">
        <ele>933</ele>
        <time>2020-02-27T12:22:39.000Z</time>
      </trkpt>
      <trkpt lat="44.75588" lon="5.88517">
        <ele>932.9</ele>
        <time>2020-02-27T12:22:38.000Z</time>
      </trkpt>
      <trkpt lat="44.75588" lon="5.88517">
        <ele>932.8</ele>
        <time>2020-02-27T12:22:37.000Z</time>
      </trkpt>
      <trkpt lat="44.75587" lon="5.88517">
        <ele>932.6</ele>
        <time>2020-02-27T12:22:36.000Z</time>
      </trkpt>
      <trkpt lat="44.75586" lon="5.88516">
        <ele>932.4</ele>
        <time>2020-02-27T12:22:35.000Z</time>
      </trkpt>
      <trkpt lat="44.75585" lon="5.88514">
        <ele>932.3</ele>
        <time>2020-02-27T12:22:34.000Z</time>
      </trkpt>
      <trkpt lat="44.75584" lon="5.88514">
        <ele>932.1</ele>
        <time>2020-02-27T12:22:33.000Z</time>
      </trkpt>
      <trkpt lat="44.75583" lon="5.88514">
        <ele>931.9</ele>
        <time>2020-02-27T12:22:32.000Z</time>
      </trkpt>
      <trkpt lat="44.75581" lon="5.88514">
        <ele>931.7</ele>
        <time>2020-02-27T12:22:31.000Z</time>
      </trkpt>
      <trkpt lat="44.7558" lon="5.88515">
        <ele>931.5</ele>
        <time>2020-02-27T12:22:30.000Z</time>
      </trkpt>
      <trkpt lat="44.75579" lon="5.88515">
        <ele>931.4</ele>
        <time>2020-02-27T12:22:29.000Z</time>
      </trkpt>
      <trkpt lat="44.75577" lon="5.88516">
        <ele>931.2</ele>
        <time>2020-02-27T12:22:28.000Z</time>
      </trkpt>
      <trkpt lat="44.75575" lon="5.88516">
        <ele>931</ele>
        <time>2020-02-27T12:22:27.000Z</time>
      </trkpt>
      <trkpt lat="44.75574" lon="5.88517">
        <ele>930.8</ele>
        <time>2020-02-27T12:22:26.000Z</time>
      </trkpt>
      <trkpt lat="44.75573" lon="5.88516">
        <ele>930.6</ele>
        <time>2020-02-27T12:22:25.000Z</time>
      </trkpt>
      <trkpt lat="44.7557" lon="5.88514">
        <ele>930.4</ele>
        <time>2020-02-27T12:22:24.000Z</time>
      </trkpt>
      <trkpt lat="44.7557" lon="5.88514">
        <ele>930.2</ele>
        <time>2020-02-27T12:22:23.000Z</time>
      </trkpt>
      <trkpt lat="44.7557" lon="5.88514">
        <ele>930</ele>
        <time>2020-02-27T12:22:22.000Z</time>
      </trkpt>
      <trkpt lat="44.7557" lon="5.88514">
        <ele>929.9</ele>
        <time>2020-02-27T12:22:21.000Z</time>
      </trkpt>
      <trkpt lat="44.7557" lon="5.88514">
        <ele>929.7</ele>
        <time>2020-02-27T12:22:20.000Z</time>
      </trkpt>
      <trkpt lat="44.7557" lon="5.88514">
        <ele>929.5</ele>
        <time>2020-02-27T12:22:19.000Z</time>
      </trkpt>
      <trkpt lat="44.75569" lon="5.88514">
        <ele>929.3</ele>
        <time>2020-02-27T12:22:18.000Z</time>
      </trkpt>
      <trkpt lat="44.7557" lon="5.88512">
        <ele>929.2</ele>
        <time>2020-02-27T12:22:17.000Z</time>
      </trkpt>
      <trkpt lat="44.75569" lon="5.88512">
        <ele>929</ele>
        <time>2020-02-27T12:22:16.000Z</time>
      </trkpt>
      <trkpt lat="44.75569" lon="5.88511">
        <ele>928.8</ele>
        <time>2020-02-27T12:22:15.000Z</time>
      </trkpt>
      <trkpt lat="44.75569" lon="5.8851">
        <ele>928.7</ele>
        <time>2020-02-27T12:22:14.000Z</time>
      </trkpt>
      <trkpt lat="44.75568" lon="5.8851">
        <ele>928.5</ele>
        <time>2020-02-27T12:22:13.000Z</time>
      </trkpt>
      <trkpt lat="44.75568" lon="5.8851">
        <ele>928.3</ele>
        <time>2020-02-27T12:22:12.000Z</time>
      </trkpt>
      <trkpt lat="44.75567" lon="5.88511">
        <ele>928.1</ele>
        <time>2020-02-27T12:22:11.000Z</time>
      </trkpt>
      <trkpt lat="44.75567" lon="5.88511">
        <ele>928</ele>
        <time>2020-02-27T12:22:10.000Z</time>
      </trkpt>
      <trkpt lat="44.75566" lon="5.88512">
        <ele>927.8</ele>
        <time>2020-02-27T12:22:09.000Z</time>
      </trkpt>
      <trkpt lat="44.75565" lon="5.88513">
        <ele>927.7</ele>
        <time>2020-02-27T12:22:08.000Z</time>
      </trkpt>
      <trkpt lat="44.75565" lon="5.88513">
        <ele>927.5</ele>
        <time>2020-02-27T12:22:07.000Z</time>
      </trkpt>
      <trkpt lat="44.75564" lon="5.88513">
        <ele>927.4</ele>
        <time>2020-02-27T12:22:06.000Z</time>
      </trkpt>
      <trkpt lat="44.75564" lon="5.88513">
        <ele>927.3</ele>
        <time>2020-02-27T12:22:05.000Z</time>
      </trkpt>
      <trkpt lat="44.75563" lon="5.88515">
        <ele>927.1</ele>
        <time>2020-02-27T12:22:04.000Z</time>
      </trkpt>
      <trkpt lat="44.75563" lon="5.88515">
        <ele>927</ele>
        <time>2020-02-27T12:22:03.000Z</time>
      </trkpt>
      <trkpt lat="44.75563" lon="5.88517">
        <ele>926.9</ele>
        <time>2020-02-27T12:22:02.000Z</time>
      </trkpt>
      <trkpt lat="44.75563" lon="5.88518">
        <ele>926.8</ele>
        <time>2020-02-27T12:22:01.000Z</time>
      </trkpt>
      <trkpt lat="44.75563" lon="5.88519">
        <ele>926.7</ele>
        <time>2020-02-27T12:22:00.000Z</time>
      </trkpt>
      <trkpt lat="44.75563" lon="5.8852">
        <ele>926.5</ele>
        <time>2020-02-27T12:21:59.000Z</time>
      </trkpt>
      <trkpt lat="44.75563" lon="5.88521">
        <ele>926.4</ele>
        <time>2020-02-27T12:21:58.000Z</time>
      </trkpt>
      <trkpt lat="44.75564" lon="5.88523">
        <ele>926.3</ele>
        <time>2020-02-27T12:21:57.000Z</time>
      </trkpt>
      <trkpt lat="44.75564" lon="5.88525">
        <ele>926.2</ele>
        <time>2020-02-27T12:21:56.000Z</time>
      </trkpt>
      <trkpt lat="44.75564" lon="5.88526">
        <ele>926.1</ele>
        <time>2020-02-27T12:21:55.000Z</time>
      </trkpt>
      <trkpt lat="44.75564" lon="5.88528">
        <ele>926</ele>
        <time>2020-02-27T12:21:54.000Z</time>
      </trkpt>
      <trkpt lat="44.75564" lon="5.8853">
        <ele>925.9</ele>
        <time>2020-02-27T12:21:53.000Z</time>
      </trkpt>
      <trkpt lat="44.75565" lon="5.88532">
        <ele>925.8</ele>
        <time>2020-02-27T12:21:52.000Z</time>
      </trkpt>
      <trkpt lat="44.75565" lon="5.88534">
        <ele>925.6</ele>
        <time>2020-02-27T12:21:51.000Z</time>
      </trkpt>
      <trkpt lat="44.75566" lon="5.88537">
        <ele>925.5</ele>
        <time>2020-02-27T12:21:50.000Z</time>
      </trkpt>
      <trkpt lat="44.75566" lon="5.8854">
        <ele>925.4</ele>
        <time>2020-02-27T12:21:49.000Z</time>
      </trkpt>
      <trkpt lat="44.75567" lon="5.88542">
        <ele>925.3</ele>
        <time>2020-02-27T12:21:48.000Z</time>
      </trkpt>
      <trkpt lat="44.75567" lon="5.88543">
        <ele>925.2</ele>
        <time>2020-02-27T12:21:47.000Z</time>
      </trkpt>
      <trkpt lat="44.75568" lon="5.88545">
        <ele>925.1</ele>
        <time>2020-02-27T12:21:46.000Z</time>
      </trkpt>
      <trkpt lat="44.75569" lon="5.88547">
        <ele>925</ele>
        <time>2020-02-27T12:21:45.000Z</time>
      </trkpt>
      <trkpt lat="44.7557" lon="5.88549">
        <ele>924.9</ele>
        <time>2020-02-27T12:21:44.000Z</time>
      </trkpt>
      <trkpt lat="44.7557" lon="5.8855">
        <ele>924.8</ele>
        <time>2020-02-27T12:21:43.000Z</time>
      </trkpt>
      <trkpt lat="44.75571" lon="5.88553">
        <ele>924.7</ele>
        <time>2020-02-27T12:21:42.000Z</time>
      </trkpt>
      <trkpt lat="44.75573" lon="5.88556">
        <ele>924</ele>
        <time>2020-02-27T12:21:39.000Z</time>
      </trkpt>
      <trkpt lat="44.75573" lon="5.88559">
        <ele>924.1</ele>
        <time>2020-02-27T12:21:37.000Z</time>
      </trkpt>
      <trkpt lat="44.75573" lon="5.8856">
        <ele>924</ele>
        <time>2020-02-27T12:21:36.000Z</time>
      </trkpt>
      <trkpt lat="44.75572" lon="5.88561">
        <ele>923.9</ele>
        <time>2020-02-27T12:21:35.000Z</time>
      </trkpt>
      <trkpt lat="44.75573" lon="5.88562">
        <ele>923.8</ele>
        <time>2020-02-27T12:21:34.000Z</time>
      </trkpt>
      <trkpt lat="44.75573" lon="5.88563">
        <ele>923.6</ele>
        <time>2020-02-27T12:21:33.000Z</time>
      </trkpt>
      <trkpt lat="44.75573" lon="5.88563">
        <ele>923.5</ele>
        <time>2020-02-27T12:21:32.000Z</time>
      </trkpt>
      <trkpt lat="44.75573" lon="5.88565">
        <ele>923.4</ele>
        <time>2020-02-27T12:21:31.000Z</time>
      </trkpt>
      <trkpt lat="44.75573" lon="5.88566">
        <ele>923.2</ele>
        <time>2020-02-27T12:21:30.000Z</time>
      </trkpt>
      <trkpt lat="44.75573" lon="5.88567">
        <ele>923.1</ele>
        <time>2020-02-27T12:21:29.000Z</time>
      </trkpt>
      <trkpt lat="44.75573" lon="5.88568">
        <ele>923.1</ele>
        <time>2020-02-27T12:21:28.000Z</time>
      </trkpt>
      <trkpt lat="44.75574" lon="5.88571">
        <ele>922</ele>
        <time>2020-02-27T12:21:25.000Z</time>
      </trkpt>
      <trkpt lat="44.75575" lon="5.88575">
        <ele>922.8</ele>
        <time>2020-02-27T12:21:23.000Z</time>
      </trkpt>
      <trkpt lat="44.75575" lon="5.88578">
        <ele>922</ele>
        <time>2020-02-27T12:21:20.000Z</time>
      </trkpt>
      <trkpt lat="44.75576" lon="5.88582">
        <ele>922.6</ele>
        <time>2020-02-27T12:21:18.000Z</time>
      </trkpt>
      <trkpt lat="44.75577" lon="5.88585">
        <ele>922</ele>
        <time>2020-02-27T12:21:15.000Z</time>
      </trkpt>
      <trkpt lat="44.75579" lon="5.88589">
        <ele>922.6</ele>
        <time>2020-02-27T12:21:13.000Z</time>
      </trkpt>
      <trkpt lat="44.7558" lon="5.88593">
        <ele>922</ele>
        <time>2020-02-27T12:21:10.000Z</time>
      </trkpt>
      <trkpt lat="44.75582" lon="5.88597">
        <ele>922.9</ele>
        <time>2020-02-27T12:21:08.000Z</time>
      </trkpt>
      <trkpt lat="44.75584" lon="5.886">
        <ele>923</ele>
        <time>2020-02-27T12:21:05.000Z</time>
      </trkpt>
      <trkpt lat="44.75588" lon="5.88603">
        <ele>923</ele>
        <time>2020-02-27T12:21:01.000Z</time>
      </trkpt>
      <trkpt lat="44.75591" lon="5.88602">
        <ele>923.8</ele>
        <time>2020-02-27T12:20:59.000Z</time>
      </trkpt>
      <trkpt lat="44.75592" lon="5.88602">
        <ele>924</ele>
        <time>2020-02-27T12:20:58.000Z</time>
      </trkpt>
      <trkpt lat="44.75595" lon="5.88601">
        <ele>924</ele>
        <time>2020-02-27T12:20:55.000Z</time>
      </trkpt>
      <trkpt lat="44.75597" lon="5.886">
        <ele>924.8</ele>
        <time>2020-02-27T12:20:53.000Z</time>
      </trkpt>
      <trkpt lat="44.75598" lon="5.88599">
        <ele>924.9</ele>
        <time>2020-02-27T12:20:52.000Z</time>
      </trkpt>
      <trkpt lat="44.756" lon="5.886">
        <ele>925.1</ele>
        <time>2020-02-27T12:20:51.000Z</time>
      </trkpt>
      <trkpt lat="44.75603" lon="5.88598">
        <ele>925</ele>
        <time>2020-02-27T12:20:48.000Z</time>
      </trkpt>
      <trkpt lat="44.75606" lon="5.88596">
        <ele>926.1</ele>
        <time>2020-02-27T12:20:46.000Z</time>
      </trkpt>
      <trkpt lat="44.75607" lon="5.88595">
        <ele>926.2</ele>
        <time>2020-02-27T12:20:45.000Z</time>
      </trkpt>
      <trkpt lat="44.75608" lon="5.88594">
        <ele>926.4</ele>
        <time>2020-02-27T12:20:44.000Z</time>
      </trkpt>
      <trkpt lat="44.75611" lon="5.88592">
        <ele>926</ele>
        <time>2020-02-27T12:20:41.000Z</time>
      </trkpt>
      <trkpt lat="44.75614" lon="5.8859">
        <ele>927.1</ele>
        <time>2020-02-27T12:20:39.000Z</time>
      </trkpt>
      <trkpt lat="44.75615" lon="5.8859">
        <ele>927.2</ele>
        <time>2020-02-27T12:20:38.000Z</time>
      </trkpt>
      <trkpt lat="44.75616" lon="5.88589">
        <ele>927.3</ele>
        <time>2020-02-27T12:20:37.000Z</time>
      </trkpt>
      <trkpt lat="44.75617" lon="5.88588">
        <ele>927.4</ele>
        <time>2020-02-27T12:20:36.000Z</time>
      </trkpt>
      <trkpt lat="44.75618" lon="5.88588">
        <ele>927.5</ele>
        <time>2020-02-27T12:20:35.000Z</time>
      </trkpt>
      <trkpt lat="44.75619" lon="5.88588">
        <ele>927.6</ele>
        <time>2020-02-27T12:20:34.000Z</time>
      </trkpt>
      <trkpt lat="44.7562" lon="5.88588">
        <ele>927.6</ele>
        <time>2020-02-27T12:20:33.000Z</time>
      </trkpt>
      <trkpt lat="44.75622" lon="5.88587">
        <ele>927.7</ele>
        <time>2020-02-27T12:20:32.000Z</time>
      </trkpt>
      <trkpt lat="44.75623" lon="5.88587">
        <ele>927.7</ele>
        <time>2020-02-27T12:20:31.000Z</time>
      </trkpt>
      <trkpt lat="44.75624" lon="5.88586">
        <ele>927.7</ele>
        <time>2020-02-27T12:20:30.000Z</time>
      </trkpt>
      <trkpt lat="44.75625" lon="5.88584">
        <ele>927.7</ele>
        <time>2020-02-27T12:20:29.000Z</time>
      </trkpt>
      <trkpt lat="44.75626" lon="5.88584">
        <ele>927.7</ele>
        <time>2020-02-27T12:20:28.000Z</time>
      </trkpt>
      <trkpt lat="44.75628" lon="5.88583">
        <ele>927.7</ele>
        <time>2020-02-27T12:20:27.000Z</time>
      </trkpt>
      <trkpt lat="44.75628" lon="5.88583">
        <ele>927.7</ele>
        <time>2020-02-27T12:20:26.000Z</time>
      </trkpt>
      <trkpt lat="44.75629" lon="5.88583">
        <ele>927.7</ele>
        <time>2020-02-27T12:20:25.000Z</time>
      </trkpt>
      <trkpt lat="44.7563" lon="5.88583">
        <ele>927.6</ele>
        <time>2020-02-27T12:20:24.000Z</time>
      </trkpt>
      <trkpt lat="44.7563" lon="5.88581">
        <ele>927.6</ele>
        <time>2020-02-27T12:20:23.000Z</time>
      </trkpt>
      <trkpt lat="44.75631" lon="5.88582">
        <ele>927.5</ele>
        <time>2020-02-27T12:20:22.000Z</time>
      </trkpt>
      <trkpt lat="44.75633" lon="5.88582">
        <ele>927.4</ele>
        <time>2020-02-27T12:20:21.000Z</time>
      </trkpt>
      <trkpt lat="44.75634" lon="5.88582">
        <ele>927.3</ele>
        <time>2020-02-27T12:20:20.000Z</time>
      </trkpt>
      <trkpt lat="44.75635" lon="5.88582">
        <ele>927.2</ele>
        <time>2020-02-27T12:20:19.000Z</time>
      </trkpt>
      <trkpt lat="44.75636" lon="5.88581">
        <ele>927.1</ele>
        <time>2020-02-27T12:20:18.000Z</time>
      </trkpt>
      <trkpt lat="44.75637" lon="5.88581">
        <ele>927</ele>
        <time>2020-02-27T12:20:17.000Z</time>
      </trkpt>
      <trkpt lat="44.7564" lon="5.88581">
        <ele>926.9</ele>
        <time>2020-02-27T12:20:16.000Z</time>
      </trkpt>
      <trkpt lat="44.75641" lon="5.88582">
        <ele>926.8</ele>
        <time>2020-02-27T12:20:15.000Z</time>
      </trkpt>
      <trkpt lat="44.75642" lon="5.88582">
        <ele>926.6</ele>
        <time>2020-02-27T12:20:14.000Z</time>
      </trkpt>
      <trkpt lat="44.75643" lon="5.88583">
        <ele>926.5</ele>
        <time>2020-02-27T12:20:13.000Z</time>
      </trkpt>
      <trkpt lat="44.75644" lon="5.88583">
        <ele>926.3</ele>
        <time>2020-02-27T12:20:12.000Z</time>
      </trkpt>
      <trkpt lat="44.75645" lon="5.88583">
        <ele>926.2</ele>
        <time>2020-02-27T12:20:11.000Z</time>
      </trkpt>
      <trkpt lat="44.75647" lon="5.88583">
        <ele>926</ele>
        <time>2020-02-27T12:20:10.000Z</time>
      </trkpt>
      <trkpt lat="44.75648" lon="5.88584">
        <ele>925.9</ele>
        <time>2020-02-27T12:20:09.000Z</time>
      </trkpt>
      <trkpt lat="44.75649" lon="5.88584">
        <ele>925.7</ele>
        <time>2020-02-27T12:20:08.000Z</time>
      </trkpt>
      <trkpt lat="44.75649" lon="5.88584">
        <ele>925.5</ele>
        <time>2020-02-27T12:20:07.000Z</time>
      </trkpt>
      <trkpt lat="44.7565" lon="5.88584">
        <ele>925.3</ele>
        <time>2020-02-27T12:20:06.000Z</time>
      </trkpt>
      <trkpt lat="44.75651" lon="5.88584">
        <ele>925.2</ele>
        <time>2020-02-27T12:20:05.000Z</time>
      </trkpt>
      <trkpt lat="44.75651" lon="5.88585">
        <ele>925</ele>
        <time>2020-02-27T12:20:04.000Z</time>
      </trkpt>
      <trkpt lat="44.75652" lon="5.88585">
        <ele>924.9</ele>
        <time>2020-02-27T12:20:03.000Z</time>
      </trkpt>
      <trkpt lat="44.75652" lon="5.88586">
        <ele>924.7</ele>
        <time>2020-02-27T12:20:02.000Z</time>
      </trkpt>
      <trkpt lat="44.75652" lon="5.88587">
        <ele>924.6</ele>
        <time>2020-02-27T12:20:01.000Z</time>
      </trkpt>
      <trkpt lat="44.75652" lon="5.88587">
        <ele>924.4</ele>
        <time>2020-02-27T12:20:00.000Z</time>
      </trkpt>
      <trkpt lat="44.75653" lon="5.88587">
        <ele>924.3</ele>
        <time>2020-02-27T12:19:59.000Z</time>
      </trkpt>
      <trkpt lat="44.75653" lon="5.88588">
        <ele>924.2</ele>
        <time>2020-02-27T12:19:58.000Z</time>
      </trkpt>
      <trkpt lat="44.75654" lon="5.88589">
        <ele>924.1</ele>
        <time>2020-02-27T12:19:57.000Z</time>
      </trkpt>
      <trkpt lat="44.75654" lon="5.8859">
        <ele>923.9</ele>
        <time>2020-02-27T12:19:56.000Z</time>
      </trkpt>
      <trkpt lat="44.75655" lon="5.88591">
        <ele>923.8</ele>
        <time>2020-02-27T12:19:55.000Z</time>
      </trkpt>
      <trkpt lat="44.75655" lon="5.88591">
        <ele>923.7</ele>
        <time>2020-02-27T12:19:54.000Z</time>
      </trkpt>
      <trkpt lat="44.75655" lon="5.88592">
        <ele>923.6</ele>
        <time>2020-02-27T12:19:53.000Z</time>
      </trkpt>
      <trkpt lat="44.75656" lon="5.88593">
        <ele>923.5</ele>
        <time>2020-02-27T12:19:52.000Z</time>
      </trkpt>
      <trkpt lat="44.75657" lon="5.88593">
        <ele>923.3</ele>
        <time>2020-02-27T12:19:51.000Z</time>
      </trkpt>
      <trkpt lat="44.75657" lon="5.88593">
        <ele>923.2</ele>
        <time>2020-02-27T12:19:50.000Z</time>
      </trkpt>
      <trkpt lat="44.75658" lon="5.88594">
        <ele>923.1</ele>
        <time>2020-02-27T12:19:49.000Z</time>
      </trkpt>
      <trkpt lat="44.75659" lon="5.88595">
        <ele>922.9</ele>
        <time>2020-02-27T12:19:48.000Z</time>
      </trkpt>
      <trkpt lat="44.7566" lon="5.88596">
        <ele>922.8</ele>
        <time>2020-02-27T12:19:47.000Z</time>
      </trkpt>
      <trkpt lat="44.75661" lon="5.88596">
        <ele>922.6</ele>
        <time>2020-02-27T12:19:46.000Z</time>
      </trkpt>
      <trkpt lat="44.75663" lon="5.88596">
        <ele>922.4</ele>
        <time>2020-02-27T12:19:45.000Z</time>
      </trkpt>
      <trkpt lat="44.75663" lon="5.88596">
        <ele>922.2</ele>
        <time>2020-02-27T12:19:44.000Z</time>
      </trkpt>
      <trkpt lat="44.75664" lon="5.88597">
        <ele>922.1</ele>
        <time>2020-02-27T12:19:43.000Z</time>
      </trkpt>
      <trkpt lat="44.75665" lon="5.88597">
        <ele>921.9</ele>
        <time>2020-02-27T12:19:42.000Z</time>
      </trkpt>
      <trkpt lat="44.75665" lon="5.88598">
        <ele>921.7</ele>
        <time>2020-02-27T12:19:41.000Z</time>
      </trkpt>
      <trkpt lat="44.75666" lon="5.88599">
        <ele>921.6</ele>
        <time>2020-02-27T12:19:40.000Z</time>
      </trkpt>
      <trkpt lat="44.75666" lon="5.886">
        <ele>921.4</ele>
        <time>2020-02-27T12:19:39.000Z</time>
      </trkpt>
      <trkpt lat="44.75667" lon="5.886">
        <ele>921.2</ele>
        <time>2020-02-27T12:19:38.000Z</time>
      </trkpt>
      <trkpt lat="44.75668" lon="5.886">
        <ele>921</ele>
        <time>2020-02-27T12:19:37.000Z</time>
      </trkpt>
      <trkpt lat="44.75669" lon="5.886">
        <ele>920.7</ele>
        <time>2020-02-27T12:19:36.000Z</time>
      </trkpt>
      <trkpt lat="44.7567" lon="5.88601">
        <ele>920.5</ele>
        <time>2020-02-27T12:19:35.000Z</time>
      </trkpt>
      <trkpt lat="44.7567" lon="5.88601">
        <ele>920.3</ele>
        <time>2020-02-27T12:19:34.000Z</time>
      </trkpt>
      <trkpt lat="44.75671" lon="5.88601">
        <ele>920.1</ele>
        <time>2020-02-27T12:19:33.000Z</time>
      </trkpt>
      <trkpt lat="44.75672" lon="5.88601">
        <ele>919.9</ele>
        <time>2020-02-27T12:19:32.000Z</time>
      </trkpt>
      <trkpt lat="44.75672" lon="5.88602">
        <ele>919.6</ele>
        <time>2020-02-27T12:19:31.000Z</time>
      </trkpt>
      <trkpt lat="44.75673" lon="5.88603">
        <ele>919.4</ele>
        <time>2020-02-27T12:19:30.000Z</time>
      </trkpt>
      <trkpt lat="44.75674" lon="5.88604">
        <ele>919.2</ele>
        <time>2020-02-27T12:19:29.000Z</time>
      </trkpt>
      <trkpt lat="44.75674" lon="5.88605">
        <ele>919.1</ele>
        <time>2020-02-27T12:19:28.000Z</time>
      </trkpt>
      <trkpt lat="44.75675" lon="5.88605">
        <ele>918.9</ele>
        <time>2020-02-27T12:19:27.000Z</time>
      </trkpt>
      <trkpt lat="44.75675" lon="5.88606">
        <ele>918.7</ele>
        <time>2020-02-27T12:19:26.000Z</time>
      </trkpt>
      <trkpt lat="44.75676" lon="5.88606">
        <ele>918.5</ele>
        <time>2020-02-27T12:19:25.000Z</time>
      </trkpt>
      <trkpt lat="44.75676" lon="5.88606">
        <ele>918.3</ele>
        <time>2020-02-27T12:19:24.000Z</time>
      </trkpt>
      <trkpt lat="44.75677" lon="5.88607">
        <ele>918</ele>
        <time>2020-02-27T12:19:23.000Z</time>
      </trkpt>
      <trkpt lat="44.75677" lon="5.88608">
        <ele>917.8</ele>
        <time>2020-02-27T12:19:22.000Z</time>
      </trkpt>
      <trkpt lat="44.75678" lon="5.88609">
        <ele>917.6</ele>
        <time>2020-02-27T12:19:21.000Z</time>
      </trkpt>
      <trkpt lat="44.75678" lon="5.8861">
        <ele>917.3</ele>
        <time>2020-02-27T12:19:20.000Z</time>
      </trkpt>
      <trkpt lat="44.75678" lon="5.88611">
        <ele>917.1</ele>
        <time>2020-02-27T12:19:19.000Z</time>
      </trkpt>
      <trkpt lat="44.75679" lon="5.88612">
        <ele>916.8</ele>
        <time>2020-02-27T12:19:18.000Z</time>
      </trkpt>
      <trkpt lat="44.75679" lon="5.88613">
        <ele>916.6</ele>
        <time>2020-02-27T12:19:17.000Z</time>
      </trkpt>
      <trkpt lat="44.75679" lon="5.88614">
        <ele>916.4</ele>
        <time>2020-02-27T12:19:16.000Z</time>
      </trkpt>
      <trkpt lat="44.7568" lon="5.88615">
        <ele>916.2</ele>
        <time>2020-02-27T12:19:15.000Z</time>
      </trkpt>
      <trkpt lat="44.7568" lon="5.88615">
        <ele>915.9</ele>
        <time>2020-02-27T12:19:14.000Z</time>
      </trkpt>
      <trkpt lat="44.75681" lon="5.88616">
        <ele>915.7</ele>
        <time>2020-02-27T12:19:13.000Z</time>
      </trkpt>
      <trkpt lat="44.75681" lon="5.88617">
        <ele>915.5</ele>
        <time>2020-02-27T12:19:12.000Z</time>
      </trkpt>
      <trkpt lat="44.75682" lon="5.88619">
        <ele>915.3</ele>
        <time>2020-02-27T12:19:11.000Z</time>
      </trkpt>
      <trkpt lat="44.75682" lon="5.8862">
        <ele>915</ele>
        <time>2020-02-27T12:19:10.000Z</time>
      </trkpt>
      <trkpt lat="44.75683" lon="5.8862">
        <ele>914.8</ele>
        <time>2020-02-27T12:19:09.000Z</time>
      </trkpt>
      <trkpt lat="44.75683" lon="5.88621">
        <ele>914.6</ele>
        <time>2020-02-27T12:19:08.000Z</time>
      </trkpt>
      <trkpt lat="44.75684" lon="5.88622">
        <ele>914.5</ele>
        <time>2020-02-27T12:19:07.000Z</time>
      </trkpt>
      <trkpt lat="44.75684" lon="5.88623">
        <ele>914.3</ele>
        <time>2020-02-27T12:19:06.000Z</time>
      </trkpt>
      <trkpt lat="44.75685" lon="5.88624">
        <ele>914.1</ele>
        <time>2020-02-27T12:19:05.000Z</time>
      </trkpt>
      <trkpt lat="44.75685" lon="5.88625">
        <ele>914</ele>
        <time>2020-02-27T12:19:04.000Z</time>
      </trkpt>
      <trkpt lat="44.75685" lon="5.88626">
        <ele>913.8</ele>
        <time>2020-02-27T12:19:03.000Z</time>
      </trkpt>
      <trkpt lat="44.75686" lon="5.88627">
        <ele>913.7</ele>
        <time>2020-02-27T12:19:02.000Z</time>
      </trkpt>
      <trkpt lat="44.75686" lon="5.88627">
        <ele>913</ele>
        <time>2020-02-27T12:18:59.000Z</time>
      </trkpt>
      <trkpt lat="44.75687" lon="5.88627">
        <ele>912.8</ele>
        <time>2020-02-27T12:18:57.000Z</time>
      </trkpt>
      <trkpt lat="44.75687" lon="5.88628">
        <ele>912.6</ele>
        <time>2020-02-27T12:18:56.000Z</time>
      </trkpt>
      <trkpt lat="44.75688" lon="5.88629">
        <ele>912.5</ele>
        <time>2020-02-27T12:18:55.000Z</time>
      </trkpt>
      <trkpt lat="44.75687" lon="5.8863">
        <ele>912.3</ele>
        <time>2020-02-27T12:18:54.000Z</time>
      </trkpt>
      <trkpt lat="44.75688" lon="5.88631">
        <ele>912.1</ele>
        <time>2020-02-27T12:18:53.000Z</time>
      </trkpt>
      <trkpt lat="44.75688" lon="5.88632">
        <ele>911.9</ele>
        <time>2020-02-27T12:18:52.000Z</time>
      </trkpt>
      <trkpt lat="44.75688" lon="5.88633">
        <ele>911.6</ele>
        <time>2020-02-27T12:18:51.000Z</time>
      </trkpt>
      <trkpt lat="44.75689" lon="5.88634">
        <ele>911.4</ele>
        <time>2020-02-27T12:18:50.000Z</time>
      </trkpt>
      <trkpt lat="44.75689" lon="5.88634">
        <ele>911.2</ele>
        <time>2020-02-27T12:18:49.000Z</time>
      </trkpt>
      <trkpt lat="44.75689" lon="5.88636">
        <ele>910.9</ele>
        <time>2020-02-27T12:18:48.000Z</time>
      </trkpt>
      <trkpt lat="44.75689" lon="5.88636">
        <ele>910.7</ele>
        <time>2020-02-27T12:18:47.000Z</time>
      </trkpt>
      <trkpt lat="44.7569" lon="5.88637">
        <ele>910.4</ele>
        <time>2020-02-27T12:18:46.000Z</time>
      </trkpt>
      <trkpt lat="44.75691" lon="5.88637">
        <ele>910.2</ele>
        <time>2020-02-27T12:18:45.000Z</time>
      </trkpt>
      <trkpt lat="44.75691" lon="5.88637">
        <ele>910</ele>
        <time>2020-02-27T12:18:44.000Z</time>
      </trkpt>
      <trkpt lat="44.75692" lon="5.88637">
        <ele>909.8</ele>
        <time>2020-02-27T12:18:43.000Z</time>
      </trkpt>
      <trkpt lat="44.75692" lon="5.88637">
        <ele>909.6</ele>
        <time>2020-02-27T12:18:42.000Z</time>
      </trkpt>
      <trkpt lat="44.75693" lon="5.88637">
        <ele>909.3</ele>
        <time>2020-02-27T12:18:41.000Z</time>
      </trkpt>
      <trkpt lat="44.75693" lon="5.88637">
        <ele>909.1</ele>
        <time>2020-02-27T12:18:40.000Z</time>
      </trkpt>
      <trkpt lat="44.75694" lon="5.88638">
        <ele>908.9</ele>
        <time>2020-02-27T12:18:39.000Z</time>
      </trkpt>
      <trkpt lat="44.75694" lon="5.88638">
        <ele>908.7</ele>
        <time>2020-02-27T12:18:38.000Z</time>
      </trkpt>
      <trkpt lat="44.75694" lon="5.88637">
        <ele>908.4</ele>
        <time>2020-02-27T12:18:37.000Z</time>
      </trkpt>
      <trkpt lat="44.75695" lon="5.88638">
        <ele>908.2</ele>
        <time>2020-02-27T12:18:36.000Z</time>
      </trkpt>
      <trkpt lat="44.75696" lon="5.88638">
        <ele>908</ele>
        <time>2020-02-27T12:18:35.000Z</time>
      </trkpt>
      <trkpt lat="44.75696" lon="5.88638">
        <ele>907.8</ele>
        <time>2020-02-27T12:18:34.000Z</time>
      </trkpt>
      <trkpt lat="44.75697" lon="5.88638">
        <ele>907.5</ele>
        <time>2020-02-27T12:18:33.000Z</time>
      </trkpt>
      <trkpt lat="44.75697" lon="5.88638">
        <ele>907.3</ele>
        <time>2020-02-27T12:18:32.000Z</time>
      </trkpt>
      <trkpt lat="44.75698" lon="5.88638">
        <ele>907</ele>
        <time>2020-02-27T12:18:31.000Z</time>
      </trkpt>
      <trkpt lat="44.75698" lon="5.88638">
        <ele>906.8</ele>
        <time>2020-02-27T12:18:30.000Z</time>
      </trkpt>
      <trkpt lat="44.75698" lon="5.88638">
        <ele>906.6</ele>
        <time>2020-02-27T12:18:29.000Z</time>
      </trkpt>
      <trkpt lat="44.75699" lon="5.88637">
        <ele>906.3</ele>
        <time>2020-02-27T12:18:28.000Z</time>
      </trkpt>
      <trkpt lat="44.757" lon="5.88637">
        <ele>906.1</ele>
        <time>2020-02-27T12:18:27.000Z</time>
      </trkpt>
      <trkpt lat="44.757" lon="5.88637">
        <ele>905.9</ele>
        <time>2020-02-27T12:18:26.000Z</time>
      </trkpt>
      <trkpt lat="44.75701" lon="5.88637">
        <ele>905.7</ele>
        <time>2020-02-27T12:18:25.000Z</time>
      </trkpt>
      <trkpt lat="44.75702" lon="5.88638">
        <ele>905.4</ele>
        <time>2020-02-27T12:18:24.000Z</time>
      </trkpt>
      <trkpt lat="44.75703" lon="5.88638">
        <ele>905.2</ele>
        <time>2020-02-27T12:18:23.000Z</time>
      </trkpt>
      <trkpt lat="44.75704" lon="5.88639">
        <ele>904.9</ele>
        <time>2020-02-27T12:18:22.000Z</time>
      </trkpt>
      <trkpt lat="44.75704" lon="5.8864">
        <ele>904.6</ele>
        <time>2020-02-27T12:18:21.000Z</time>
      </trkpt>
      <trkpt lat="44.75705" lon="5.88641">
        <ele>904.3</ele>
        <time>2020-02-27T12:18:20.000Z</time>
      </trkpt>
      <trkpt lat="44.75705" lon="5.88642">
        <ele>904.1</ele>
        <time>2020-02-27T12:18:19.000Z</time>
      </trkpt>
      <trkpt lat="44.75705" lon="5.88642">
        <ele>903.8</ele>
        <time>2020-02-27T12:18:18.000Z</time>
      </trkpt>
      <trkpt lat="44.75705" lon="5.88643">
        <ele>903.6</ele>
        <time>2020-02-27T12:18:17.000Z</time>
      </trkpt>
      <trkpt lat="44.75706" lon="5.88643">
        <ele>903.3</ele>
        <time>2020-02-27T12:18:16.000Z</time>
      </trkpt>
      <trkpt lat="44.75706" lon="5.88644">
        <ele>903.1</ele>
        <time>2020-02-27T12:18:15.000Z</time>
      </trkpt>
      <trkpt lat="44.75707" lon="5.88644">
        <ele>902.8</ele>
        <time>2020-02-27T12:18:14.000Z</time>
      </trkpt>
      <trkpt lat="44.75707" lon="5.88644">
        <ele>902.6</ele>
        <time>2020-02-27T12:18:13.000Z</time>
      </trkpt>
      <trkpt lat="44.75708" lon="5.88644">
        <ele>902.3</ele>
        <time>2020-02-27T12:18:12.000Z</time>
      </trkpt>
      <trkpt lat="44.75708" lon="5.88644">
        <ele>902</ele>
        <time>2020-02-27T12:18:11.000Z</time>
      </trkpt>
      <trkpt lat="44.75709" lon="5.88644">
        <ele>901.8</ele>
        <time>2020-02-27T12:18:10.000Z</time>
      </trkpt>
      <trkpt lat="44.75709" lon="5.88644">
        <ele>901.5</ele>
        <time>2020-02-27T12:18:09.000Z</time>
      </trkpt>
      <trkpt lat="44.75709" lon="5.88644">
        <ele>901.2</ele>
        <time>2020-02-27T12:18:08.000Z</time>
      </trkpt>
      <trkpt lat="44.7571" lon="5.88645">
        <ele>901</ele>
        <time>2020-02-27T12:18:07.000Z</time>
      </trkpt>
      <trkpt lat="44.7571" lon="5.88645">
        <ele>900.7</ele>
        <time>2020-02-27T12:18:06.000Z</time>
      </trkpt>
      <trkpt lat="44.75711" lon="5.88646">
        <ele>900.4</ele>
        <time>2020-02-27T12:18:05.000Z</time>
      </trkpt>
      <trkpt lat="44.75712" lon="5.88646">
        <ele>900.2</ele>
        <time>2020-02-27T12:18:04.000Z</time>
      </trkpt>
      <trkpt lat="44.75713" lon="5.88645">
        <ele>900</ele>
        <time>2020-02-27T12:18:03.000Z</time>
      </trkpt>
      <trkpt lat="44.75713" lon="5.88646">
        <ele>899.7</ele>
        <time>2020-02-27T12:18:02.000Z</time>
      </trkpt>
      <trkpt lat="44.75714" lon="5.88646">
        <ele>899.5</ele>
        <time>2020-02-27T12:18:01.000Z</time>
      </trkpt>
      <trkpt lat="44.75714" lon="5.88647">
        <ele>899.3</ele>
        <time>2020-02-27T12:18:00.000Z</time>
      </trkpt>
      <trkpt lat="44.75714" lon="5.88648">
        <ele>899.1</ele>
        <time>2020-02-27T12:17:59.000Z</time>
      </trkpt>
      <trkpt lat="44.75715" lon="5.88649">
        <ele>898.8</ele>
        <time>2020-02-27T12:17:58.000Z</time>
      </trkpt>
      <trkpt lat="44.75715" lon="5.88649">
        <ele>898.6</ele>
        <time>2020-02-27T12:17:57.000Z</time>
      </trkpt>
      <trkpt lat="44.75716" lon="5.88649">
        <ele>898.4</ele>
        <time>2020-02-27T12:17:56.000Z</time>
      </trkpt>
      <trkpt lat="44.75716" lon="5.88649">
        <ele>898.1</ele>
        <time>2020-02-27T12:17:55.000Z</time>
      </trkpt>
      <trkpt lat="44.75717" lon="5.88648">
        <ele>897.9</ele>
        <time>2020-02-27T12:17:54.000Z</time>
      </trkpt>
      <trkpt lat="44.75717" lon="5.88648">
        <ele>897.6</ele>
        <time>2020-02-27T12:17:53.000Z</time>
      </trkpt>
      <trkpt lat="44.75719" lon="5.88647">
        <ele>897.4</ele>
        <time>2020-02-27T12:17:52.000Z</time>
      </trkpt>
      <trkpt lat="44.7572" lon="5.88646">
        <ele>897.1</ele>
        <time>2020-02-27T12:17:51.000Z</time>
      </trkpt>
      <trkpt lat="44.75721" lon="5.88646">
        <ele>896.9</ele>
        <time>2020-02-27T12:17:50.000Z</time>
      </trkpt>
      <trkpt lat="44.75722" lon="5.88645">
        <ele>896.7</ele>
        <time>2020-02-27T12:17:49.000Z</time>
      </trkpt>
      <trkpt lat="44.75723" lon="5.88645">
        <ele>896.4</ele>
        <time>2020-02-27T12:17:48.000Z</time>
      </trkpt>
      <trkpt lat="44.75724" lon="5.88645">
        <ele>896.2</ele>
        <time>2020-02-27T12:17:47.000Z</time>
      </trkpt>
      <trkpt lat="44.75725" lon="5.88644">
        <ele>896</ele>
        <time>2020-02-27T12:17:46.000Z</time>
      </trkpt>
      <trkpt lat="44.75726" lon="5.88644">
        <ele>895.7</ele>
        <time>2020-02-27T12:17:45.000Z</time>
      </trkpt>
      <trkpt lat="44.75727" lon="5.88644">
        <ele>895.5</ele>
        <time>2020-02-27T12:17:44.000Z</time>
      </trkpt>
      <trkpt lat="44.75727" lon="5.88644">
        <ele>895.3</ele>
        <time>2020-02-27T12:17:43.000Z</time>
      </trkpt>
      <trkpt lat="44.75729" lon="5.88643">
        <ele>895.1</ele>
        <time>2020-02-27T12:17:42.000Z</time>
      </trkpt>
      <trkpt lat="44.75729" lon="5.88643">
        <ele>894.8</ele>
        <time>2020-02-27T12:17:41.000Z</time>
      </trkpt>
      <trkpt lat="44.75729" lon="5.88642">
        <ele>894.7</ele>
        <time>2020-02-27T12:17:40.000Z</time>
      </trkpt>
      <trkpt lat="44.7573" lon="5.88641">
        <ele>894.4</ele>
        <time>2020-02-27T12:17:39.000Z</time>
      </trkpt>
      <trkpt lat="44.7573" lon="5.8864">
        <ele>894.3</ele>
        <time>2020-02-27T12:17:38.000Z</time>
      </trkpt>
      <trkpt lat="44.7573" lon="5.88639">
        <ele>894.1</ele>
        <time>2020-02-27T12:17:37.000Z</time>
      </trkpt>
      <trkpt lat="44.75731" lon="5.88638">
        <ele>893.9</ele>
        <time>2020-02-27T12:17:36.000Z</time>
      </trkpt>
      <trkpt lat="44.75732" lon="5.88637">
        <ele>893.7</ele>
        <time>2020-02-27T12:17:35.000Z</time>
      </trkpt>
      <trkpt lat="44.75732" lon="5.88636">
        <ele>893.5</ele>
        <time>2020-02-27T12:17:34.000Z</time>
      </trkpt>
      <trkpt lat="44.75733" lon="5.88635">
        <ele>893.3</ele>
        <time>2020-02-27T12:17:33.000Z</time>
      </trkpt>
      <trkpt lat="44.75734" lon="5.88634">
        <ele>893.1</ele>
        <time>2020-02-27T12:17:32.000Z</time>
      </trkpt>
      <trkpt lat="44.75735" lon="5.88634">
        <ele>892.9</ele>
        <time>2020-02-27T12:17:31.000Z</time>
      </trkpt>
      <trkpt lat="44.75735" lon="5.88635">
        <ele>892.7</ele>
        <time>2020-02-27T12:17:30.000Z</time>
      </trkpt>
      <trkpt lat="44.75735" lon="5.88635">
        <ele>892.5</ele>
        <time>2020-02-27T12:17:29.000Z</time>
      </trkpt>
      <trkpt lat="44.75736" lon="5.88636">
        <ele>892.3</ele>
        <time>2020-02-27T12:17:28.000Z</time>
      </trkpt>
      <trkpt lat="44.75736" lon="5.88636">
        <ele>892.1</ele>
        <time>2020-02-27T12:17:27.000Z</time>
      </trkpt>
      <trkpt lat="44.75737" lon="5.88637">
        <ele>891.9</ele>
        <time>2020-02-27T12:17:26.000Z</time>
      </trkpt>
      <trkpt lat="44.75738" lon="5.88638">
        <ele>891.8</ele>
        <time>2020-02-27T12:17:25.000Z</time>
      </trkpt>
      <trkpt lat="44.75739" lon="5.88639">
        <ele>891.6</ele>
        <time>2020-02-27T12:17:24.000Z</time>
      </trkpt>
      <trkpt lat="44.75739" lon="5.88641">
        <ele>891.4</ele>
        <time>2020-02-27T12:17:23.000Z</time>
      </trkpt>
      <trkpt lat="44.75739" lon="5.88642">
        <ele>891.3</ele>
        <time>2020-02-27T12:17:22.000Z</time>
      </trkpt>
      <trkpt lat="44.75739" lon="5.88644">
        <ele>891.1</ele>
        <time>2020-02-27T12:17:21.000Z</time>
      </trkpt>
      <trkpt lat="44.75738" lon="5.88645">
        <ele>890.9</ele>
        <time>2020-02-27T12:17:20.000Z</time>
      </trkpt>
      <trkpt lat="44.75738" lon="5.88646">
        <ele>890.7</ele>
        <time>2020-02-27T12:17:19.000Z</time>
      </trkpt>
      <trkpt lat="44.75738" lon="5.88647">
        <ele>890.5</ele>
        <time>2020-02-27T12:17:18.000Z</time>
      </trkpt>
      <trkpt lat="44.75738" lon="5.88648">
        <ele>890.3</ele>
        <time>2020-02-27T12:17:17.000Z</time>
      </trkpt>
      <trkpt lat="44.75739" lon="5.8865">
        <ele>890.1</ele>
        <time>2020-02-27T12:17:16.000Z</time>
      </trkpt>
      <trkpt lat="44.75739" lon="5.8865">
        <ele>890</ele>
        <time>2020-02-27T12:17:15.000Z</time>
      </trkpt>
      <trkpt lat="44.75738" lon="5.88651">
        <ele>889.8</ele>
        <time>2020-02-27T12:17:14.000Z</time>
      </trkpt>
      <trkpt lat="44.75738" lon="5.88652">
        <ele>889.7</ele>
        <time>2020-02-27T12:17:13.000Z</time>
      </trkpt>
      <trkpt lat="44.75738" lon="5.88653">
        <ele>889.5</ele>
        <time>2020-02-27T12:17:12.000Z</time>
      </trkpt>
      <trkpt lat="44.75738" lon="5.88654">
        <ele>889.4</ele>
        <time>2020-02-27T12:17:11.000Z</time>
      </trkpt>
      <trkpt lat="44.75739" lon="5.88654">
        <ele>889.2</ele>
        <time>2020-02-27T12:17:10.000Z</time>
      </trkpt>
      <trkpt lat="44.75739" lon="5.88654">
        <ele>889</ele>
        <time>2020-02-27T12:17:09.000Z</time>
      </trkpt>
      <trkpt lat="44.75739" lon="5.88655">
        <ele>888.9</ele>
        <time>2020-02-27T12:17:08.000Z</time>
      </trkpt>
      <trkpt lat="44.75739" lon="5.88655">
        <ele>888.8</ele>
        <time>2020-02-27T12:17:07.000Z</time>
      </trkpt>
      <trkpt lat="44.75739" lon="5.88656">
        <ele>888.7</ele>
        <time>2020-02-27T12:17:06.000Z</time>
      </trkpt>
      <trkpt lat="44.75739" lon="5.88657">
        <ele>888.5</ele>
        <time>2020-02-27T12:17:05.000Z</time>
      </trkpt>
      <trkpt lat="44.75739" lon="5.88658">
        <ele>888.4</ele>
        <time>2020-02-27T12:17:04.000Z</time>
      </trkpt>
      <trkpt lat="44.75739" lon="5.88658">
        <ele>888.3</ele>
        <time>2020-02-27T12:17:03.000Z</time>
      </trkpt>
      <trkpt lat="44.7574" lon="5.88659">
        <ele>888.2</ele>
        <time>2020-02-27T12:17:02.000Z</time>
      </trkpt>
      <trkpt lat="44.7574" lon="5.88661">
        <ele>888.1</ele>
        <time>2020-02-27T12:17:01.000Z</time>
      </trkpt>
      <trkpt lat="44.75741" lon="5.88661">
        <ele>888</ele>
        <time>2020-02-27T12:17:00.000Z</time>
      </trkpt>
      <trkpt lat="44.75742" lon="5.88662">
        <ele>887.9</ele>
        <time>2020-02-27T12:16:59.000Z</time>
      </trkpt>
      <trkpt lat="44.75742" lon="5.88664">
        <ele>887.8</ele>
        <time>2020-02-27T12:16:58.000Z</time>
      </trkpt>
      <trkpt lat="44.75743" lon="5.88665">
        <ele>887.7</ele>
        <time>2020-02-27T12:16:57.000Z</time>
      </trkpt>
      <trkpt lat="44.75744" lon="5.88668">
        <ele>887.6</ele>
        <time>2020-02-27T12:16:56.000Z</time>
      </trkpt>
      <trkpt lat="44.75744" lon="5.88669">
        <ele>887.5</ele>
        <time>2020-02-27T12:16:55.000Z</time>
      </trkpt>
      <trkpt lat="44.75744" lon="5.8867">
        <ele>887.5</ele>
        <time>2020-02-27T12:16:54.000Z</time>
      </trkpt>
      <trkpt lat="44.75744" lon="5.88671">
        <ele>887.5</ele>
        <time>2020-02-27T12:16:53.000Z</time>
      </trkpt>
      <trkpt lat="44.75744" lon="5.88672">
        <ele>887.4</ele>
        <time>2020-02-27T12:16:52.000Z</time>
      </trkpt>
      <trkpt lat="44.75744" lon="5.88674">
        <ele>887.4</ele>
        <time>2020-02-27T12:16:51.000Z</time>
      </trkpt>
      <trkpt lat="44.75745" lon="5.88675">
        <ele>887.4</ele>
        <time>2020-02-27T12:16:50.000Z</time>
      </trkpt>
      <trkpt lat="44.75745" lon="5.88676">
        <ele>887.4</ele>
        <time>2020-02-27T12:16:49.000Z</time>
      </trkpt>
      <trkpt lat="44.75746" lon="5.88676">
        <ele>887.4</ele>
        <time>2020-02-27T12:16:48.000Z</time>
      </trkpt>
      <trkpt lat="44.75746" lon="5.88677">
        <ele>887.4</ele>
        <time>2020-02-27T12:16:47.000Z</time>
      </trkpt>
      <trkpt lat="44.75747" lon="5.88678">
        <ele>887.3</ele>
        <time>2020-02-27T12:16:46.000Z</time>
      </trkpt>
      <trkpt lat="44.75747" lon="5.88678">
        <ele>887.3</ele>
        <time>2020-02-27T12:16:45.000Z</time>
      </trkpt>
      <trkpt lat="44.75747" lon="5.88678">
        <ele>887.3</ele>
        <time>2020-02-27T12:16:44.000Z</time>
      </trkpt>
      <trkpt lat="44.75747" lon="5.88678">
        <ele>887.3</ele>
        <time>2020-02-27T12:16:43.000Z</time>
      </trkpt>
      <trkpt lat="44.75747" lon="5.88678">
        <ele>887.7</ele>
        <time>2020-02-27T12:16:42.000Z</time>
      </trkpt>
      <trkpt lat="44.75747" lon="5.88678">
        <ele>887.6</ele>
        <time>2020-02-27T12:16:41.000Z</time>
      </trkpt>
      <trkpt lat="44.75747" lon="5.88678">
        <ele>887</ele>
        <time>2020-02-27T12:16:38.000Z</time>
      </trkpt>
      <trkpt lat="44.75747" lon="5.88678">
        <ele>887.6</ele>
        <time>2020-02-27T12:16:38.000Z</time>
      </trkpt>
      <trkpt lat="44.75747" lon="5.88678">
        <ele>887.6</ele>
        <time>2020-02-27T12:16:38.000Z</time>
      </trkpt>
      <trkpt lat="44.75747" lon="5.88678">
        <ele>887.6</ele>
        <time>2020-02-27T12:16:38.000Z</time>
        <extensions>
          <visugpx:TrkExtension xmlns:visugpx="https://www.visugpx.com/editgpx/">
            <visugpx:node>16</visugpx:node>
            </visugpx:TrkExtension>
        </extensions>
      </trkpt>
    </trkseg>
  </trk>
</gpx>